<?xml version='1.0' encoding='UTF-8'?><gpx version="1.1" creator="JPX - https://github.com/jenetics/jpx" xmlns="http://www.topografix.com/GPX/1/1"><trk><trkseg><trkpt lat="43.321576" lon="12.2949322"><ele>255.0</ele><time>2026-05-03T08:00:16.027Z</time></trkpt><trkpt lat="43.3215243" lon="12.2949946"><ele>255.0</ele><time>2026-05-03T08:00:17.026Z</time></trkpt><trkpt lat="43.3214573" lon="12.2950665"><ele>255.0</ele><time>2026-05-03T08:00:18.026Z</time></trkpt><trkpt lat="43.3213789" lon="12.2951561"><ele>255.0</ele><time>2026-05-03T08:00:19.026Z</time></trkpt><trkpt lat="43.3212853" lon="12.2952261"><ele>255.0</ele><time>2026-05-03T08:00:20.026Z</time></trkpt><trkpt lat="43.3211811" lon="12.2952823"><ele>253.25</ele><time>2026-05-03T08:00:21.026Z</time></trkpt><trkpt lat="43.3210662" lon="12.2953337"><ele>251.5</ele><time>2026-05-03T08:00:22.027Z</time></trkpt><trkpt lat="43.32094" lon="12.2953646"><ele>249.75</ele><time>2026-05-03T08:00:23.026Z</time></trkpt><trkpt lat="43.3208163" lon="12.2953813"><ele>248.0</ele><time>2026-05-03T08:00:24.027Z</time></trkpt><trkpt lat="43.320703" lon="12.295388"><ele>248.00000000000003</ele><time>2026-05-03T08:00:25.026Z</time></trkpt><trkpt lat="43.3205968" lon="12.2954015"><ele>248.0</ele><time>2026-05-03T08:00:26.026Z</time></trkpt><trkpt lat="43.3204998" lon="12.2954157"><ele>248.0</ele><time>2026-05-03T08:00:27.026Z</time></trkpt><trkpt lat="43.3204131" lon="12.2954334"><ele>248.0</ele><time>2026-05-03T08:00:28.026Z</time></trkpt><trkpt lat="43.3203426" lon="12.2954424"><ele>248.00000000000003</ele><time>2026-05-03T08:00:29.026Z</time></trkpt><trkpt lat="43.3202828" lon="12.2954721"><ele>248.0</ele><time>2026-05-03T08:00:30.027Z</time></trkpt><trkpt lat="43.3202416" lon="12.2955982"><ele>247.60000000000002</ele><time>2026-05-03T08:00:32.026Z</time></trkpt><trkpt lat="43.3202465" lon="12.295706"><ele>247.20000000000002</ele><time>2026-05-03T08:00:33.026Z</time></trkpt><trkpt lat="43.3202675" lon="12.2958321"><ele>246.8</ele><time>2026-05-03T08:00:34.026Z</time></trkpt><trkpt lat="43.3202922" lon="12.2959714"><ele>246.4</ele><time>2026-05-03T08:00:35.026Z</time></trkpt><trkpt lat="43.3203177" lon="12.2961068"><ele>246.0</ele><time>2026-05-03T08:00:36.026Z</time></trkpt><trkpt lat="43.3203391" lon="12.2962707"><ele>246.0</ele><time>2026-05-03T08:00:37.026Z</time></trkpt><trkpt lat="43.3203676" lon="12.2964384"><ele>246.0</ele><time>2026-05-03T08:00:38.026Z</time></trkpt><trkpt lat="43.3203986" lon="12.2966145"><ele>246.0</ele><time>2026-05-03T08:00:39.026Z</time></trkpt><trkpt lat="43.3204254" lon="12.2967796"><ele>246.0</ele><time>2026-05-03T08:00:40.026Z</time></trkpt><trkpt lat="43.3204563" lon="12.2969211"><ele>246.0</ele><time>2026-05-03T08:00:41.026Z</time></trkpt><trkpt lat="43.3204993" lon="12.2970378"><ele>246.0</ele><time>2026-05-03T08:00:42.027Z</time></trkpt><trkpt lat="43.320546" lon="12.2971387"><ele>246.0</ele><time>2026-05-03T08:00:43.026Z</time></trkpt><trkpt lat="43.3205825" lon="12.2972281"><ele>246.0</ele><time>2026-05-03T08:00:44.026Z</time></trkpt><trkpt lat="43.3206272" lon="12.2972913"><ele>246.0</ele><time>2026-05-03T08:00:45.026Z</time></trkpt><trkpt lat="43.3206828" lon="12.2973955"><ele>246.0</ele><time>2026-05-03T08:00:47.026Z</time></trkpt><trkpt lat="43.3207668" lon="12.2975297"><ele>247.25</ele><time>2026-05-03T08:01:14.026Z</time></trkpt><trkpt lat="43.3208327" lon="12.297559"><ele>248.5</ele><time>2026-05-03T08:01:15.026Z</time></trkpt><trkpt lat="43.3209459" lon="12.2975732"><ele>249.75</ele><time>2026-05-03T08:01:16.026Z</time></trkpt><trkpt lat="43.3210758" lon="12.2975914"><ele>251.0</ele><time>2026-05-03T08:01:17.026Z</time></trkpt><trkpt lat="43.3212277" lon="12.2976167"><ele>251.0</ele><time>2026-05-03T08:01:18.027Z</time></trkpt><trkpt lat="43.3213908" lon="12.2976406"><ele>251.0</ele><time>2026-05-03T08:01:19.027Z</time></trkpt><trkpt lat="43.3215616" lon="12.2976786"><ele>251.0</ele><time>2026-05-03T08:01:20.026Z</time></trkpt><trkpt lat="43.3217213" lon="12.2977127"><ele>251.33333333333334</ele><time>2026-05-03T08:01:21.026Z</time></trkpt><trkpt lat="43.3218825" lon="12.2977459"><ele>251.66666666666669</ele><time>2026-05-03T08:01:22.027Z</time></trkpt><trkpt lat="43.3220443" lon="12.2977797"><ele>252.0</ele><time>2026-05-03T08:01:23.026Z</time></trkpt><trkpt lat="43.3222047" lon="12.2978092"><ele>253.66666666666669</ele><time>2026-05-03T08:01:24.026Z</time></trkpt><trkpt lat="43.3223611" lon="12.2978365"><ele>255.33333333333334</ele><time>2026-05-03T08:01:25.027Z</time></trkpt><trkpt lat="43.322519" lon="12.2978566"><ele>257.0</ele><time>2026-05-03T08:01:26.026Z</time></trkpt><trkpt lat="43.3226754" lon="12.2978601"><ele>257.0</ele><time>2026-05-03T08:01:27.027Z</time></trkpt><trkpt lat="43.3228382" lon="12.2978557"><ele>257.0</ele><time>2026-05-03T08:01:28.027Z</time></trkpt><trkpt lat="43.3230058" lon="12.297828"><ele>257.0</ele><time>2026-05-03T08:01:29.026Z</time></trkpt><trkpt lat="43.3231627" lon="12.2978059"><ele>255.75</ele><time>2026-05-03T08:01:30.026Z</time></trkpt><trkpt lat="43.3233072" lon="12.2977863"><ele>254.5</ele><time>2026-05-03T08:01:31.026Z</time></trkpt><trkpt lat="43.3234467" lon="12.29777"><ele>253.25</ele><time>2026-05-03T08:01:32.026Z</time></trkpt><trkpt lat="43.3235804" lon="12.2977481"><ele>252.0</ele><time>2026-05-03T08:01:33.026Z</time></trkpt><trkpt lat="43.3237051" lon="12.2977485"><ele>252.0</ele><time>2026-05-03T08:01:34.026Z</time></trkpt><trkpt lat="43.3238223" lon="12.2977664"><ele>252.0</ele><time>2026-05-03T08:01:35.026Z</time></trkpt><trkpt lat="43.3239352" lon="12.2978181"><ele>252.0</ele><time>2026-05-03T08:01:36.026Z</time></trkpt><trkpt lat="43.3240351" lon="12.2979141"><ele>252.0</ele><time>2026-05-03T08:01:37.027Z</time></trkpt><trkpt lat="43.3241152" lon="12.2980481"><ele>250.75</ele><time>2026-05-03T08:01:38.026Z</time></trkpt><trkpt lat="43.3241814" lon="12.2982144"><ele>249.5</ele><time>2026-05-03T08:01:39.026Z</time></trkpt><trkpt lat="43.3242298" lon="12.2984075"><ele>248.25</ele><time>2026-05-03T08:01:40.026Z</time></trkpt><trkpt lat="43.3242638" lon="12.2986095"><ele>247.0</ele><time>2026-05-03T08:01:41.026Z</time></trkpt><trkpt lat="43.3243147" lon="12.2988094"><ele>246.66666666666666</ele><time>2026-05-03T08:01:42.026Z</time></trkpt><trkpt lat="43.3243948" lon="12.2989965"><ele>246.33333333333331</ele><time>2026-05-03T08:01:43.027Z</time></trkpt><trkpt lat="43.3244915" lon="12.2991729"><ele>246.0</ele><time>2026-05-03T08:01:44.026Z</time></trkpt><trkpt lat="43.3246048" lon="12.2993372"><ele>246.0</ele><time>2026-05-03T08:01:45.026Z</time></trkpt><trkpt lat="43.3247281" lon="12.2994907"><ele>246.0</ele><time>2026-05-03T08:01:46.026Z</time></trkpt><trkpt lat="43.3248628" lon="12.2996377"><ele>246.0</ele><time>2026-05-03T08:01:47.026Z</time></trkpt><trkpt lat="43.3250021" lon="12.2997783"><ele>246.0</ele><time>2026-05-03T08:01:48.026Z</time></trkpt><trkpt lat="43.3251473" lon="12.2999131"><ele>246.0</ele><time>2026-05-03T08:01:49.026Z</time></trkpt><trkpt lat="43.3253004" lon="12.3000316"><ele>246.0</ele><time>2026-05-03T08:01:50.026Z</time></trkpt><trkpt lat="43.3254622" lon="12.3001415"><ele>247.66666666666669</ele><time>2026-05-03T08:01:51.026Z</time></trkpt><trkpt lat="43.3256275" lon="12.3002361"><ele>249.33333333333334</ele><time>2026-05-03T08:01:52.026Z</time></trkpt><trkpt lat="43.325808" lon="12.3003155"><ele>251.0</ele><time>2026-05-03T08:01:53.026Z</time></trkpt><trkpt lat="43.3259949" lon="12.3003662"><ele>251.0</ele><time>2026-05-03T08:01:54.026Z</time></trkpt><trkpt lat="43.3261901" lon="12.3003919"><ele>251.0</ele><time>2026-05-03T08:01:55.026Z</time></trkpt><trkpt lat="43.3263859" lon="12.3004151"><ele>251.0</ele><time>2026-05-03T08:01:56.026Z</time></trkpt><trkpt lat="43.3265792" lon="12.300431"><ele>251.33333333333334</ele><time>2026-05-03T08:01:57.026Z</time></trkpt><trkpt lat="43.3267732" lon="12.3004439"><ele>251.66666666666669</ele><time>2026-05-03T08:01:58.026Z</time></trkpt><trkpt lat="43.3269631" lon="12.3004636"><ele>252.0</ele><time>2026-05-03T08:01:59.026Z</time></trkpt><trkpt lat="43.3271507" lon="12.3004772"><ele>252.0</ele><time>2026-05-03T08:02:00.026Z</time></trkpt><trkpt lat="43.3273375" lon="12.3004906"><ele>252.0</ele><time>2026-05-03T08:02:01.027Z</time></trkpt><trkpt lat="43.3275219" lon="12.3005034"><ele>252.0</ele><time>2026-05-03T08:02:02.026Z</time></trkpt><trkpt lat="43.3277026" lon="12.3005171"><ele>252.0</ele><time>2026-05-03T08:02:03.026Z</time></trkpt><trkpt lat="43.3278892" lon="12.3005392"><ele>252.0</ele><time>2026-05-03T08:02:04.027Z</time></trkpt><trkpt lat="43.3280715" lon="12.3005563"><ele>252.0</ele><time>2026-05-03T08:02:05.026Z</time></trkpt><trkpt lat="43.328252" lon="12.3005635"><ele>251.66666666666669</ele><time>2026-05-03T08:02:06.027Z</time></trkpt><trkpt lat="43.3284327" lon="12.3005723"><ele>251.33333333333334</ele><time>2026-05-03T08:02:07.026Z</time></trkpt><trkpt lat="43.3286117" lon="12.30058"><ele>251.0</ele><time>2026-05-03T08:02:08.026Z</time></trkpt><trkpt lat="43.328789" lon="12.3005892"><ele>252.0</ele><time>2026-05-03T08:02:09.027Z</time></trkpt><trkpt lat="43.3289679" lon="12.3006008"><ele>253.0</ele><time>2026-05-03T08:02:10.026Z</time></trkpt><trkpt lat="43.3291452" lon="12.3006136"><ele>254.0</ele><time>2026-05-03T08:02:11.027Z</time></trkpt><trkpt lat="43.3293252" lon="12.3006261"><ele>254.0</ele><time>2026-05-03T08:02:12.026Z</time></trkpt><trkpt lat="43.3295021" lon="12.3006389"><ele>254.0</ele><time>2026-05-03T08:02:13.026Z</time></trkpt><trkpt lat="43.3296785" lon="12.3006505"><ele>254.0</ele><time>2026-05-03T08:02:14.026Z</time></trkpt><trkpt lat="43.3298533" lon="12.3006614"><ele>255.33333333333334</ele><time>2026-05-03T08:02:15.027Z</time></trkpt><trkpt lat="43.3300315" lon="12.3006727"><ele>256.6666666666667</ele><time>2026-05-03T08:02:16.026Z</time></trkpt><trkpt lat="43.3302081" lon="12.3006842"><ele>258.0</ele><time>2026-05-03T08:02:17.026Z</time></trkpt><trkpt lat="43.3303829" lon="12.3006953"><ele>258.0</ele><time>2026-05-03T08:02:18.026Z</time></trkpt><trkpt lat="43.3305539" lon="12.300708"><ele>258.0</ele><time>2026-05-03T08:02:19.026Z</time></trkpt><trkpt lat="43.3307226" lon="12.3007269"><ele>258.0</ele><time>2026-05-03T08:02:20.026Z</time></trkpt><trkpt lat="43.3308814" lon="12.3007343"><ele>258.3333333333333</ele><time>2026-05-03T08:02:21.026Z</time></trkpt><trkpt lat="43.3310332" lon="12.3007366"><ele>258.66666666666663</ele><time>2026-05-03T08:02:22.026Z</time></trkpt><trkpt lat="43.3311848" lon="12.300741"><ele>259.0</ele><time>2026-05-03T08:02:23.026Z</time></trkpt><trkpt lat="43.3313345" lon="12.3007303"><ele>259.3333333333333</ele><time>2026-05-03T08:02:24.026Z</time></trkpt><trkpt lat="43.3314773" lon="12.3006911"><ele>259.6666666666667</ele><time>2026-05-03T08:02:25.026Z</time></trkpt><trkpt lat="43.3316236" lon="12.3006342"><ele>260.0</ele><time>2026-05-03T08:02:26.026Z</time></trkpt><trkpt lat="43.331767" lon="12.3005545"><ele>261.33333333333337</ele><time>2026-05-03T08:02:27.026Z</time></trkpt><trkpt lat="43.3319111" lon="12.3004637"><ele>262.6666666666667</ele><time>2026-05-03T08:02:28.026Z</time></trkpt><trkpt lat="43.3320559" lon="12.300363"><ele>264.0</ele><time>2026-05-03T08:02:29.026Z</time></trkpt><trkpt lat="43.3322047" lon="12.3002574"><ele>262.3333333333333</ele><time>2026-05-03T08:02:30.026Z</time></trkpt><trkpt lat="43.3323544" lon="12.3001537"><ele>260.66666666666663</ele><time>2026-05-03T08:02:31.026Z</time></trkpt><trkpt lat="43.3325096" lon="12.3000482"><ele>259.0</ele><time>2026-05-03T08:02:32.026Z</time></trkpt><trkpt lat="43.3326663" lon="12.299935"><ele>259.0</ele><time>2026-05-03T08:02:33.026Z</time></trkpt><trkpt lat="43.3328225" lon="12.2998235"><ele>259.0</ele><time>2026-05-03T08:02:34.026Z</time></trkpt><trkpt lat="43.3329824" lon="12.2997105"><ele>259.0</ele><time>2026-05-03T08:02:35.026Z</time></trkpt><trkpt lat="43.333148" lon="12.2995971"><ele>260.3333333333333</ele><time>2026-05-03T08:02:36.026Z</time></trkpt><trkpt lat="43.3333134" lon="12.2994787"><ele>261.6666666666667</ele><time>2026-05-03T08:02:37.027Z</time></trkpt><trkpt lat="43.3334794" lon="12.2993626"><ele>263.0</ele><time>2026-05-03T08:02:38.026Z</time></trkpt><trkpt lat="43.3336476" lon="12.2992432"><ele>263.0</ele><time>2026-05-03T08:02:39.026Z</time></trkpt><trkpt lat="43.3338154" lon="12.2991266"><ele>263.0</ele><time>2026-05-03T08:02:40.026Z</time></trkpt><trkpt lat="43.3339871" lon="12.2990065"><ele>263.0</ele><time>2026-05-03T08:02:41.026Z</time></trkpt><trkpt lat="43.3341571" lon="12.2988867"><ele>265.0</ele><time>2026-05-03T08:02:42.026Z</time></trkpt><trkpt lat="43.334328" lon="12.2987696"><ele>267.0</ele><time>2026-05-03T08:02:43.026Z</time></trkpt><trkpt lat="43.3344918" lon="12.2986502"><ele>269.0</ele><time>2026-05-03T08:02:44.026Z</time></trkpt><trkpt lat="43.3346529" lon="12.2985336"><ele>265.0</ele><time>2026-05-03T08:02:45.026Z</time></trkpt><trkpt lat="43.3348086" lon="12.2984196"><ele>261.0</ele><time>2026-05-03T08:02:46.026Z</time></trkpt><trkpt lat="43.3349632" lon="12.2983106"><ele>257.0</ele><time>2026-05-03T08:02:47.026Z</time></trkpt><trkpt lat="43.3351172" lon="12.2981994"><ele>257.0</ele><time>2026-05-03T08:02:48.026Z</time></trkpt><trkpt lat="43.3352694" lon="12.2980913"><ele>257.0</ele><time>2026-05-03T08:02:49.027Z</time></trkpt><trkpt lat="43.3354212" lon="12.2979853"><ele>257.0</ele><time>2026-05-03T08:02:50.027Z</time></trkpt><trkpt lat="43.3355708" lon="12.2978774"><ele>257.6666666666667</ele><time>2026-05-03T08:02:51.026Z</time></trkpt><trkpt lat="43.3357207" lon="12.2977712"><ele>258.3333333333333</ele><time>2026-05-03T08:02:52.026Z</time></trkpt><trkpt lat="43.3358676" lon="12.2976673"><ele>259.0</ele><time>2026-05-03T08:02:53.027Z</time></trkpt><trkpt lat="43.336013" lon="12.2975629"><ele>259.0</ele><time>2026-05-03T08:02:54.026Z</time></trkpt><trkpt lat="43.336156" lon="12.2974642"><ele>259.0</ele><time>2026-05-03T08:02:55.026Z</time></trkpt><trkpt lat="43.3362983" lon="12.2973624"><ele>259.0</ele><time>2026-05-03T08:02:56.026Z</time></trkpt><trkpt lat="43.3364404" lon="12.2972628"><ele>259.66666666666663</ele><time>2026-05-03T08:02:57.027Z</time></trkpt><trkpt lat="43.3365857" lon="12.2971623"><ele>260.3333333333333</ele><time>2026-05-03T08:02:58.026Z</time></trkpt><trkpt lat="43.3367273" lon="12.2970616"><ele>261.0</ele><time>2026-05-03T08:02:59.026Z</time></trkpt><trkpt lat="43.3368649" lon="12.2969662"><ele>261.0</ele><time>2026-05-03T08:03:00.026Z</time></trkpt><trkpt lat="43.3369988" lon="12.2968725"><ele>261.0</ele><time>2026-05-03T08:03:01.026Z</time></trkpt><trkpt lat="43.3371216" lon="12.2967783"><ele>261.0</ele><time>2026-05-03T08:03:02.026Z</time></trkpt><trkpt lat="43.3372428" lon="12.2966933"><ele>261.0</ele><time>2026-05-03T08:03:03.026Z</time></trkpt><trkpt lat="43.3373611" lon="12.2966081"><ele>261.0</ele><time>2026-05-03T08:03:04.027Z</time></trkpt><trkpt lat="43.337467" lon="12.2965378"><ele>261.0</ele><time>2026-05-03T08:03:05.026Z</time></trkpt><trkpt lat="43.3375588" lon="12.2964782"><ele>261.0</ele><time>2026-05-03T08:03:06.026Z</time></trkpt><trkpt lat="43.3376278" lon="12.2964358"><ele>261.0</ele><time>2026-05-03T08:03:07.026Z</time></trkpt><trkpt lat="43.3377313" lon="12.2964112"><ele>261.0</ele><time>2026-05-03T08:03:09.026Z</time></trkpt><trkpt lat="43.337811" lon="12.296409"><ele>261.0</ele><time>2026-05-03T08:03:11.026Z</time></trkpt><trkpt lat="43.337871" lon="12.2963727"><ele>261.0</ele><time>2026-05-03T08:03:13.026Z</time></trkpt><trkpt lat="43.337939" lon="12.2963502"><ele>261.0</ele><time>2026-05-03T08:03:16.026Z</time></trkpt><trkpt lat="43.338015" lon="12.2963638"><ele>261.0</ele><time>2026-05-03T08:04:30.026Z</time></trkpt><trkpt lat="43.3379501" lon="12.296414"><ele>261.0</ele><time>2026-05-03T08:04:35.027Z</time></trkpt><trkpt lat="43.337887" lon="12.296434"><ele>261.0</ele><time>2026-05-03T08:04:50.026Z</time></trkpt><trkpt lat="43.3378865" lon="12.2963364"><ele>261.0</ele><time>2026-05-03T08:07:31.026Z</time></trkpt><trkpt lat="43.3379448" lon="12.2962681"><ele>261.0</ele><time>2026-05-03T08:07:33.026Z</time></trkpt><trkpt lat="43.3380145" lon="12.2962297"><ele>261.0</ele><time>2026-05-03T08:07:35.026Z</time></trkpt><trkpt lat="43.3380844" lon="12.2961626"><ele>261.0</ele><time>2026-05-03T08:07:37.026Z</time></trkpt><trkpt lat="43.3381426" lon="12.2960977"><ele>261.0</ele><time>2026-05-03T08:07:38.027Z</time></trkpt><trkpt lat="43.3382285" lon="12.2960164"><ele>261.0</ele><time>2026-05-03T08:07:39.026Z</time></trkpt><trkpt lat="43.3383444" lon="12.2959279"><ele>261.5</ele><time>2026-05-03T08:07:40.026Z</time></trkpt><trkpt lat="43.33846" lon="12.2958529"><ele>262.0</ele><time>2026-05-03T08:07:41.026Z</time></trkpt><trkpt lat="43.338572" lon="12.2957586"><ele>262.5</ele><time>2026-05-03T08:07:42.026Z</time></trkpt><trkpt lat="43.3386822" lon="12.2956791"><ele>263.0</ele><time>2026-05-03T08:07:43.026Z</time></trkpt><trkpt lat="43.3387913" lon="12.2956011"><ele>264.0</ele><time>2026-05-03T08:07:44.026Z</time></trkpt><trkpt lat="43.3388975" lon="12.2955301"><ele>265.0</ele><time>2026-05-03T08:07:45.026Z</time></trkpt><trkpt lat="43.3390005" lon="12.2954579"><ele>266.0</ele><time>2026-05-03T08:07:46.026Z</time></trkpt><trkpt lat="43.3391075" lon="12.2953805"><ele>267.0</ele><time>2026-05-03T08:07:47.026Z</time></trkpt><trkpt lat="43.33922" lon="12.2952963"><ele>267.0</ele><time>2026-05-03T08:07:48.026Z</time></trkpt><trkpt lat="43.3393396" lon="12.2952109"><ele>267.0</ele><time>2026-05-03T08:07:49.026Z</time></trkpt><trkpt lat="43.3394647" lon="12.2951188"><ele>267.0</ele><time>2026-05-03T08:07:50.026Z</time></trkpt><trkpt lat="43.339595" lon="12.2950245"><ele>267.0</ele><time>2026-05-03T08:07:51.026Z</time></trkpt><trkpt lat="43.3397327" lon="12.2949303"><ele>267.0</ele><time>2026-05-03T08:07:52.026Z</time></trkpt><trkpt lat="43.3398717" lon="12.2948317"><ele>267.0</ele><time>2026-05-03T08:07:53.026Z</time></trkpt><trkpt lat="43.3400113" lon="12.2947406"><ele>267.0</ele><time>2026-05-03T08:07:54.026Z</time></trkpt><trkpt lat="43.3401428" lon="12.2946472"><ele>267.25</ele><time>2026-05-03T08:07:55.026Z</time></trkpt><trkpt lat="43.3402705" lon="12.294559"><ele>267.5</ele><time>2026-05-03T08:07:56.026Z</time></trkpt><trkpt lat="43.3403961" lon="12.2944801"><ele>267.75</ele><time>2026-05-03T08:07:57.026Z</time></trkpt><trkpt lat="43.3405164" lon="12.2943931"><ele>268.0</ele><time>2026-05-03T08:07:58.026Z</time></trkpt><trkpt lat="43.3406347" lon="12.2943029"><ele>268.0</ele><time>2026-05-03T08:07:59.026Z</time></trkpt><trkpt lat="43.3407439" lon="12.2941947"><ele>268.0</ele><time>2026-05-03T08:08:00.026Z</time></trkpt><trkpt lat="43.34084" lon="12.2940635"><ele>268.0</ele><time>2026-05-03T08:08:01.026Z</time></trkpt><trkpt lat="43.3409269" lon="12.2939154"><ele>268.0</ele><time>2026-05-03T08:08:02.026Z</time></trkpt><trkpt lat="43.3410024" lon="12.2937522"><ele>268.75</ele><time>2026-05-03T08:08:03.026Z</time></trkpt><trkpt lat="43.341076" lon="12.2935833"><ele>269.5</ele><time>2026-05-03T08:08:04.026Z</time></trkpt><trkpt lat="43.3411426" lon="12.2934147"><ele>270.25</ele><time>2026-05-03T08:08:05.026Z</time></trkpt><trkpt lat="43.3412133" lon="12.2932283"><ele>271.0</ele><time>2026-05-03T08:08:06.026Z</time></trkpt><trkpt lat="43.3412847" lon="12.293033"><ele>269.0</ele><time>2026-05-03T08:08:07.026Z</time></trkpt><trkpt lat="43.3413566" lon="12.2928331"><ele>267.0</ele><time>2026-05-03T08:08:08.026Z</time></trkpt><trkpt lat="43.3414265" lon="12.2926412"><ele>265.0</ele><time>2026-05-03T08:08:09.026Z</time></trkpt><trkpt lat="43.3414899" lon="12.292456"><ele>265.0</ele><time>2026-05-03T08:08:10.026Z</time></trkpt><trkpt lat="43.341554" lon="12.292287"><ele>265.0</ele><time>2026-05-03T08:08:11.026Z</time></trkpt><trkpt lat="43.3416239" lon="12.292143"><ele>265.0</ele><time>2026-05-03T08:08:12.026Z</time></trkpt><trkpt lat="43.3417147" lon="12.2920322"><ele>265.0</ele><time>2026-05-03T08:08:13.026Z</time></trkpt><trkpt lat="43.3418112" lon="12.2919324"><ele>266.66666666666663</ele><time>2026-05-03T08:08:14.026Z</time></trkpt><trkpt lat="43.3419484" lon="12.2918905"><ele>268.3333333333333</ele><time>2026-05-03T08:08:15.026Z</time></trkpt><trkpt lat="43.3420952" lon="12.2918758"><ele>270.0</ele><time>2026-05-03T08:08:16.026Z</time></trkpt><trkpt lat="43.3422579" lon="12.2918822"><ele>266.0</ele><time>2026-05-03T08:08:17.027Z</time></trkpt><trkpt lat="43.3424274" lon="12.291885"><ele>262.0</ele><time>2026-05-03T08:08:18.026Z</time></trkpt><trkpt lat="43.3425939" lon="12.2918799"><ele>258.0</ele><time>2026-05-03T08:08:19.026Z</time></trkpt><trkpt lat="43.342763" lon="12.2918738"><ele>258.0</ele><time>2026-05-03T08:08:20.026Z</time></trkpt><trkpt lat="43.3429341" lon="12.2918717"><ele>258.0</ele><time>2026-05-03T08:08:21.026Z</time></trkpt><trkpt lat="43.3431032" lon="12.2918634"><ele>258.0</ele><time>2026-05-03T08:08:22.026Z</time></trkpt><trkpt lat="43.3432711" lon="12.2918556"><ele>256.6666666666667</ele><time>2026-05-03T08:08:23.026Z</time></trkpt><trkpt lat="43.343441" lon="12.2918542"><ele>255.33333333333334</ele><time>2026-05-03T08:08:24.027Z</time></trkpt><trkpt lat="43.3436107" lon="12.2918545"><ele>254.0</ele><time>2026-05-03T08:08:25.026Z</time></trkpt><trkpt lat="43.3437793" lon="12.2918575"><ele>254.66666666666669</ele><time>2026-05-03T08:08:26.026Z</time></trkpt><trkpt lat="43.343947" lon="12.2918536"><ele>255.33333333333331</ele><time>2026-05-03T08:08:27.026Z</time></trkpt><trkpt lat="43.3441156" lon="12.2918523"><ele>256.0</ele><time>2026-05-03T08:08:28.026Z</time></trkpt><trkpt lat="43.3442805" lon="12.2918509"><ele>256.0</ele><time>2026-05-03T08:08:29.027Z</time></trkpt><trkpt lat="43.3444336" lon="12.2918458"><ele>256.0</ele><time>2026-05-03T08:08:30.026Z</time></trkpt><trkpt lat="43.3445778" lon="12.2918357"><ele>256.0</ele><time>2026-05-03T08:08:31.026Z</time></trkpt><trkpt lat="43.3447086" lon="12.2917963"><ele>256.0</ele><time>2026-05-03T08:08:32.026Z</time></trkpt><trkpt lat="43.3448262" lon="12.2917101"><ele>255.66666666666666</ele><time>2026-05-03T08:08:33.026Z</time></trkpt><trkpt lat="43.3449324" lon="12.2915785"><ele>255.33333333333331</ele><time>2026-05-03T08:08:34.027Z</time></trkpt><trkpt lat="43.3450174" lon="12.2914032"><ele>255.0</ele><time>2026-05-03T08:08:35.026Z</time></trkpt><trkpt lat="43.3450963" lon="12.2912104"><ele>255.66666666666669</ele><time>2026-05-03T08:08:36.026Z</time></trkpt><trkpt lat="43.3451731" lon="12.2910065"><ele>256.33333333333337</ele><time>2026-05-03T08:08:37.026Z</time></trkpt><trkpt lat="43.3452496" lon="12.2907923"><ele>257.0</ele><time>2026-05-03T08:08:38.026Z</time></trkpt><trkpt lat="43.3453252" lon="12.2905784"><ele>258.33333333333337</ele><time>2026-05-03T08:08:39.027Z</time></trkpt><trkpt lat="43.3454019" lon="12.2903621"><ele>259.6666666666667</ele><time>2026-05-03T08:08:40.026Z</time></trkpt><trkpt lat="43.3454773" lon="12.2901526"><ele>261.0</ele><time>2026-05-03T08:08:41.026Z</time></trkpt><trkpt lat="43.3455542" lon="12.2899334"><ele>261.0</ele><time>2026-05-03T08:08:42.026Z</time></trkpt><trkpt lat="43.345634" lon="12.2897093"><ele>261.0</ele><time>2026-05-03T08:08:43.026Z</time></trkpt><trkpt lat="43.3457181" lon="12.2894931"><ele>261.0</ele><time>2026-05-03T08:08:44.026Z</time></trkpt><trkpt lat="43.3458051" lon="12.2892837"><ele>261.0</ele><time>2026-05-03T08:08:45.026Z</time></trkpt><trkpt lat="43.3459012" lon="12.2890888"><ele>261.0</ele><time>2026-05-03T08:08:46.026Z</time></trkpt><trkpt lat="43.346003" lon="12.2889019"><ele>261.0</ele><time>2026-05-03T08:08:47.026Z</time></trkpt><trkpt lat="43.3461183" lon="12.2887271"><ele>261.0</ele><time>2026-05-03T08:08:48.026Z</time></trkpt><trkpt lat="43.3462412" lon="12.2885617"><ele>261.0</ele><time>2026-05-03T08:08:49.026Z</time></trkpt><trkpt lat="43.3463677" lon="12.2884038"><ele>261.0</ele><time>2026-05-03T08:08:50.026Z</time></trkpt><trkpt lat="43.3465018" lon="12.2882496"><ele>260.6666666666667</ele><time>2026-05-03T08:08:51.026Z</time></trkpt><trkpt lat="43.3466411" lon="12.2880959"><ele>260.33333333333337</ele><time>2026-05-03T08:08:52.026Z</time></trkpt><trkpt lat="43.3467842" lon="12.2879427"><ele>260.0</ele><time>2026-05-03T08:08:53.026Z</time></trkpt><trkpt lat="43.3469262" lon="12.2877876"><ele>258.0</ele><time>2026-05-03T08:08:54.026Z</time></trkpt><trkpt lat="43.3470674" lon="12.2876344"><ele>256.0</ele><time>2026-05-03T08:08:55.026Z</time></trkpt><trkpt lat="43.3472116" lon="12.2874776"><ele>254.0</ele><time>2026-05-03T08:08:56.026Z</time></trkpt><trkpt lat="43.3473584" lon="12.287325"><ele>252.66666666666669</ele><time>2026-05-03T08:08:57.027Z</time></trkpt><trkpt lat="43.3475066" lon="12.2871673"><ele>251.33333333333331</ele><time>2026-05-03T08:08:58.026Z</time></trkpt><trkpt lat="43.3476549" lon="12.2870068"><ele>250.0</ele><time>2026-05-03T08:08:59.026Z</time></trkpt><trkpt lat="43.3477977" lon="12.2868505"><ele>250.0</ele><time>2026-05-03T08:09:00.026Z</time></trkpt><trkpt lat="43.3479437" lon="12.2866938"><ele>250.0</ele><time>2026-05-03T08:09:01.026Z</time></trkpt><trkpt lat="43.3480872" lon="12.2865392"><ele>250.0</ele><time>2026-05-03T08:09:02.026Z</time></trkpt><trkpt lat="43.3482326" lon="12.2863893"><ele>249.66666666666666</ele><time>2026-05-03T08:09:03.027Z</time></trkpt><trkpt lat="43.3483719" lon="12.2862429"><ele>249.33333333333331</ele><time>2026-05-03T08:09:04.026Z</time></trkpt><trkpt lat="43.3485071" lon="12.2860955"><ele>249.0</ele><time>2026-05-03T08:09:05.027Z</time></trkpt><trkpt lat="43.3486419" lon="12.2859472"><ele>249.0</ele><time>2026-05-03T08:09:06.027Z</time></trkpt><trkpt lat="43.3487792" lon="12.2857986"><ele>249.0</ele><time>2026-05-03T08:09:07.026Z</time></trkpt><trkpt lat="43.3489179" lon="12.2856445"><ele>249.0</ele><time>2026-05-03T08:09:08.026Z</time></trkpt><trkpt lat="43.3490572" lon="12.2854918"><ele>249.66666666666669</ele><time>2026-05-03T08:09:09.026Z</time></trkpt><trkpt lat="43.3491998" lon="12.2853357"><ele>250.33333333333334</ele><time>2026-05-03T08:09:10.026Z</time></trkpt><trkpt lat="43.3493443" lon="12.285179"><ele>251.0</ele><time>2026-05-03T08:09:11.026Z</time></trkpt><trkpt lat="43.349487" lon="12.285021"><ele>251.0</ele><time>2026-05-03T08:09:12.026Z</time></trkpt><trkpt lat="43.3496306" lon="12.284862"><ele>251.0</ele><time>2026-05-03T08:09:13.026Z</time></trkpt><trkpt lat="43.3497684" lon="12.2847138"><ele>251.0</ele><time>2026-05-03T08:09:14.026Z</time></trkpt><trkpt lat="43.3498979" lon="12.2845721"><ele>250.75</ele><time>2026-05-03T08:09:15.027Z</time></trkpt><trkpt lat="43.350015" lon="12.2844476"><ele>250.5</ele><time>2026-05-03T08:09:16.026Z</time></trkpt><trkpt lat="43.3501139" lon="12.2843388"><ele>250.25</ele><time>2026-05-03T08:09:17.026Z</time></trkpt><trkpt lat="43.3502113" lon="12.2842551"><ele>250.0</ele><time>2026-05-03T08:09:18.027Z</time></trkpt><trkpt lat="43.3503101" lon="12.2842014"><ele>250.0</ele><time>2026-05-03T08:09:19.026Z</time></trkpt><trkpt lat="43.3504155" lon="12.2841904"><ele>250.0</ele><time>2026-05-03T08:09:20.026Z</time></trkpt><trkpt lat="43.3505303" lon="12.2842061"><ele>250.0</ele><time>2026-05-03T08:09:21.026Z</time></trkpt><trkpt lat="43.3506488" lon="12.284253"><ele>250.0</ele><time>2026-05-03T08:09:22.026Z</time></trkpt><trkpt lat="43.3507622" lon="12.2843162"><ele>250.4</ele><time>2026-05-03T08:09:23.026Z</time></trkpt><trkpt lat="43.3508549" lon="12.2843876"><ele>250.8</ele><time>2026-05-03T08:09:24.026Z</time></trkpt><trkpt lat="43.3509362" lon="12.2844641"><ele>251.2</ele><time>2026-05-03T08:09:25.026Z</time></trkpt><trkpt lat="43.3509949" lon="12.2845499"><ele>251.6</ele><time>2026-05-03T08:09:26.027Z</time></trkpt><trkpt lat="43.3510277" lon="12.2846367"><ele>252.0</ele><time>2026-05-03T08:09:27.026Z</time></trkpt><trkpt lat="43.3510701" lon="12.2848137"><ele>252.0</ele><time>2026-05-03T08:09:29.026Z</time></trkpt><trkpt lat="43.3511096" lon="12.2849082"><ele>252.0</ele><time>2026-05-03T08:09:30.026Z</time></trkpt><trkpt lat="43.3511728" lon="12.2849796"><ele>252.0</ele><time>2026-05-03T08:09:31.026Z</time></trkpt><trkpt lat="43.3512626" lon="12.2850341"><ele>252.0</ele><time>2026-05-03T08:09:32.026Z</time></trkpt><trkpt lat="43.3513696" lon="12.2850938"><ele>252.0</ele><time>2026-05-03T08:09:33.026Z</time></trkpt><trkpt lat="43.3514772" lon="12.2851946"><ele>251.66666666666669</ele><time>2026-05-03T08:09:34.026Z</time></trkpt><trkpt lat="43.3515838" lon="12.2853295"><ele>251.33333333333334</ele><time>2026-05-03T08:09:35.026Z</time></trkpt><trkpt lat="43.3516906" lon="12.2854873"><ele>251.0</ele><time>2026-05-03T08:09:36.026Z</time></trkpt><trkpt lat="43.3517947" lon="12.2856708"><ele>251.0</ele><time>2026-05-03T08:09:37.026Z</time></trkpt><trkpt lat="43.351891" lon="12.2858529"><ele>251.0</ele><time>2026-05-03T08:09:38.026Z</time></trkpt><trkpt lat="43.3519281" lon="12.2860898"><ele>251.0</ele><time>2026-05-03T08:09:39.026Z</time></trkpt><trkpt lat="43.3519805" lon="12.2863065"><ele>252.33333333333334</ele><time>2026-05-03T08:09:40.026Z</time></trkpt><trkpt lat="43.352028" lon="12.2865255"><ele>253.66666666666669</ele><time>2026-05-03T08:09:41.026Z</time></trkpt><trkpt lat="43.3520758" lon="12.2867544"><ele>255.0</ele><time>2026-05-03T08:09:42.026Z</time></trkpt><trkpt lat="43.3521265" lon="12.286978"><ele>255.0</ele><time>2026-05-03T08:09:43.027Z</time></trkpt><trkpt lat="43.3521836" lon="12.2871959"><ele>255.0</ele><time>2026-05-03T08:09:44.026Z</time></trkpt><trkpt lat="43.3522259" lon="12.287427"><ele>255.0</ele><time>2026-05-03T08:09:45.026Z</time></trkpt><trkpt lat="43.3522815" lon="12.2876478"><ele>256.0</ele><time>2026-05-03T08:09:46.026Z</time></trkpt><trkpt lat="43.3523304" lon="12.2878653"><ele>257.0</ele><time>2026-05-03T08:09:47.026Z</time></trkpt><trkpt lat="43.3523702" lon="12.2880841"><ele>258.0</ele><time>2026-05-03T08:09:48.026Z</time></trkpt><trkpt lat="43.3524146" lon="12.288298"><ele>259.3333333333333</ele><time>2026-05-03T08:09:49.027Z</time></trkpt><trkpt lat="43.3524536" lon="12.2885074"><ele>260.66666666666663</ele><time>2026-05-03T08:09:50.026Z</time></trkpt><trkpt lat="43.3524912" lon="12.2887178"><ele>262.0</ele><time>2026-05-03T08:09:51.026Z</time></trkpt><trkpt lat="43.3525102" lon="12.2889115"><ele>263.5</ele><time>2026-05-03T08:09:52.026Z</time></trkpt><trkpt lat="43.3525311" lon="12.2890822"><ele>265.0</ele><time>2026-05-03T08:09:53.027Z</time></trkpt><trkpt lat="43.3525622" lon="12.2892453"><ele>266.5</ele><time>2026-05-03T08:09:54.026Z</time></trkpt><trkpt lat="43.3526175" lon="12.2893988"><ele>268.0</ele><time>2026-05-03T08:09:55.026Z</time></trkpt><trkpt lat="43.3526874" lon="12.2895421"><ele>268.0</ele><time>2026-05-03T08:09:56.026Z</time></trkpt><trkpt lat="43.3527643" lon="12.289691"><ele>268.0</ele><time>2026-05-03T08:09:57.026Z</time></trkpt><trkpt lat="43.3528508" lon="12.2898379"><ele>268.0</ele><time>2026-05-03T08:09:58.026Z</time></trkpt><trkpt lat="43.352937" lon="12.2899949"><ele>268.0</ele><time>2026-05-03T08:09:59.026Z</time></trkpt><trkpt lat="43.3530239" lon="12.2901554"><ele>267.5</ele><time>2026-05-03T08:10:00.026Z</time></trkpt><trkpt lat="43.3531088" lon="12.2903163"><ele>267.0</ele><time>2026-05-03T08:10:01.026Z</time></trkpt><trkpt lat="43.3531907" lon="12.2904744"><ele>266.5</ele><time>2026-05-03T08:10:02.026Z</time></trkpt><trkpt lat="43.3532694" lon="12.2906379"><ele>266.0</ele><time>2026-05-03T08:10:03.027Z</time></trkpt><trkpt lat="43.3533384" lon="12.2908028"><ele>265.25</ele><time>2026-05-03T08:10:04.026Z</time></trkpt><trkpt lat="43.3534033" lon="12.2909721"><ele>264.5</ele><time>2026-05-03T08:10:05.026Z</time></trkpt><trkpt lat="43.353466" lon="12.2911479"><ele>263.75</ele><time>2026-05-03T08:10:06.027Z</time></trkpt><trkpt lat="43.3535282" lon="12.2913305"><ele>263.0</ele><time>2026-05-03T08:10:07.026Z</time></trkpt><trkpt lat="43.3535979" lon="12.2915181"><ele>262.75</ele><time>2026-05-03T08:10:08.026Z</time></trkpt><trkpt lat="43.3536649" lon="12.2917118"><ele>262.5</ele><time>2026-05-03T08:10:09.026Z</time></trkpt><trkpt lat="43.3537335" lon="12.2918889"><ele>262.25</ele><time>2026-05-03T08:10:10.026Z</time></trkpt><trkpt lat="43.3537988" lon="12.2920533"><ele>262.0</ele><time>2026-05-03T08:10:11.026Z</time></trkpt><trkpt lat="43.353851" lon="12.2922054"><ele>261.8</ele><time>2026-05-03T08:10:12.026Z</time></trkpt><trkpt lat="43.3538789" lon="12.2923524"><ele>261.6</ele><time>2026-05-03T08:10:13.026Z</time></trkpt><trkpt lat="43.353873" lon="12.2924966"><ele>261.40000000000003</ele><time>2026-05-03T08:10:14.026Z</time></trkpt><trkpt lat="43.3538517" lon="12.2926409"><ele>261.2</ele><time>2026-05-03T08:10:15.026Z</time></trkpt><trkpt lat="43.353846" lon="12.2928049"><ele>261.0</ele><time>2026-05-03T08:10:16.026Z</time></trkpt><trkpt lat="43.3538484" lon="12.2929762"><ele>261.3333333333333</ele><time>2026-05-03T08:10:17.026Z</time></trkpt><trkpt lat="43.3538871" lon="12.2931837"><ele>261.66666666666663</ele><time>2026-05-03T08:10:18.027Z</time></trkpt><trkpt lat="43.353914" lon="12.2933956"><ele>262.0</ele><time>2026-05-03T08:10:19.026Z</time></trkpt><trkpt lat="43.3539422" lon="12.2936181"><ele>262.0</ele><time>2026-05-03T08:10:20.026Z</time></trkpt><trkpt lat="43.3540071" lon="12.2938457"><ele>262.0</ele><time>2026-05-03T08:10:21.027Z</time></trkpt><trkpt lat="43.3540677" lon="12.2940659"><ele>262.0</ele><time>2026-05-03T08:10:22.026Z</time></trkpt><trkpt lat="43.3541388" lon="12.2942887"><ele>262.3333333333333</ele><time>2026-05-03T08:10:23.026Z</time></trkpt><trkpt lat="43.3542124" lon="12.2945128"><ele>262.6666666666667</ele><time>2026-05-03T08:10:24.026Z</time></trkpt><trkpt lat="43.3542856" lon="12.2947203"><ele>263.0</ele><time>2026-05-03T08:10:25.026Z</time></trkpt><trkpt lat="43.3543532" lon="12.2949055"><ele>263.25</ele><time>2026-05-03T08:10:26.026Z</time></trkpt><trkpt lat="43.3544143" lon="12.295076"><ele>263.5</ele><time>2026-05-03T08:10:27.026Z</time></trkpt><trkpt lat="43.3544654" lon="12.2952236"><ele>263.75</ele><time>2026-05-03T08:10:28.026Z</time></trkpt><trkpt lat="43.3544687" lon="12.2953708"><ele>264.0</ele><time>2026-05-03T08:10:29.026Z</time></trkpt><trkpt lat="43.3544086" lon="12.2954813"><ele>265.59999999999997</ele><time>2026-05-03T08:10:31.026Z</time></trkpt><trkpt lat="43.3543008" lon="12.2955958"><ele>267.2</ele><time>2026-05-03T08:10:33.026Z</time></trkpt><trkpt lat="43.3542243" lon="12.2956587"><ele>268.79999999999995</ele><time>2026-05-03T08:10:34.026Z</time></trkpt><trkpt lat="43.3541295" lon="12.2957122"><ele>270.4</ele><time>2026-05-03T08:10:35.026Z</time></trkpt><trkpt lat="43.3540363" lon="12.2957265"><ele>272.0</ele><time>2026-05-03T08:10:36.026Z</time></trkpt><trkpt lat="43.3539391" lon="12.2956938"><ele>274.25</ele><time>2026-05-03T08:10:37.027Z</time></trkpt><trkpt lat="43.353834" lon="12.2956206"><ele>276.5</ele><time>2026-05-03T08:10:38.026Z</time></trkpt><trkpt lat="43.3537338" lon="12.2955125"><ele>278.75</ele><time>2026-05-03T08:10:39.026Z</time></trkpt><trkpt lat="43.3536422" lon="12.2953819"><ele>281.0</ele><time>2026-05-03T08:10:40.026Z</time></trkpt><trkpt lat="43.3535674" lon="12.2952773"><ele>281.0</ele><time>2026-05-03T08:10:41.026Z</time></trkpt><trkpt lat="43.3535174" lon="12.2952184"><ele>281.0</ele><time>2026-05-03T08:10:42.026Z</time></trkpt><trkpt lat="43.3534562" lon="12.2951863"><ele>281.0</ele><time>2026-05-03T08:10:43.026Z</time></trkpt><trkpt lat="43.3533694" lon="12.2952971"><ele>281.0</ele><time>2026-05-03T08:10:45.026Z</time></trkpt><trkpt lat="43.3533901" lon="12.2953816"><ele>281.0</ele><time>2026-05-03T08:10:46.026Z</time></trkpt><trkpt lat="43.3535035" lon="12.2955287"><ele>284.75</ele><time>2026-05-03T08:10:48.026Z</time></trkpt><trkpt lat="43.3535845" lon="12.2956295"><ele>288.5</ele><time>2026-05-03T08:10:49.027Z</time></trkpt><trkpt lat="43.3536683" lon="12.2957629"><ele>292.25</ele><time>2026-05-03T08:10:50.027Z</time></trkpt><trkpt lat="43.3537641" lon="12.2959141"><ele>296.0</ele><time>2026-05-03T08:10:51.026Z</time></trkpt><trkpt lat="43.3538701" lon="12.2960804"><ele>294.0</ele><time>2026-05-03T08:10:52.026Z</time></trkpt><trkpt lat="43.3539786" lon="12.2962579"><ele>292.0</ele><time>2026-05-03T08:10:53.026Z</time></trkpt><trkpt lat="43.354077" lon="12.2964525"><ele>290.0</ele><time>2026-05-03T08:10:54.026Z</time></trkpt><trkpt lat="43.3541791" lon="12.2966536"><ele>290.0</ele><time>2026-05-03T08:10:55.026Z</time></trkpt><trkpt lat="43.3542864" lon="12.296858"><ele>290.0</ele><time>2026-05-03T08:10:56.026Z</time></trkpt><trkpt lat="43.3544048" lon="12.2970596"><ele>290.0</ele><time>2026-05-03T08:10:57.026Z</time></trkpt><trkpt lat="43.3545202" lon="12.2972297"><ele>289.6</ele><time>2026-05-03T08:10:58.026Z</time></trkpt><trkpt lat="43.3546325" lon="12.2973699"><ele>289.2</ele><time>2026-05-03T08:10:59.026Z</time></trkpt><trkpt lat="43.3547103" lon="12.2974939"><ele>288.8</ele><time>2026-05-03T08:11:00.027Z</time></trkpt><trkpt lat="43.3547489" lon="12.2975709"><ele>288.4</ele><time>2026-05-03T08:11:01.026Z</time></trkpt><trkpt lat="43.3547482" lon="12.297666"><ele>288.0</ele><time>2026-05-03T08:11:03.026Z</time></trkpt><trkpt lat="43.3546439" lon="12.2976724"><ele>288.4</ele><time>2026-05-03T08:11:05.027Z</time></trkpt><trkpt lat="43.3545723" lon="12.2976026"><ele>288.8</ele><time>2026-05-03T08:11:06.026Z</time></trkpt><trkpt lat="43.3544947" lon="12.2975224"><ele>289.2</ele><time>2026-05-03T08:11:07.027Z</time></trkpt><trkpt lat="43.3544004" lon="12.297424"><ele>289.6</ele><time>2026-05-03T08:11:08.026Z</time></trkpt><trkpt lat="43.3542949" lon="12.2973198"><ele>290.0</ele><time>2026-05-03T08:11:09.027Z</time></trkpt><trkpt lat="43.354173" lon="12.2972064"><ele>290.0</ele><time>2026-05-03T08:11:10.026Z</time></trkpt><trkpt lat="43.3540469" lon="12.2970843"><ele>290.0</ele><time>2026-05-03T08:11:11.026Z</time></trkpt><trkpt lat="43.3539283" lon="12.2969876"><ele>290.0</ele><time>2026-05-03T08:11:12.026Z</time></trkpt><trkpt lat="43.3538419" lon="12.2969067"><ele>290.0</ele><time>2026-05-03T08:11:13.026Z</time></trkpt><trkpt lat="43.3537646" lon="12.296853"><ele>293.0</ele><time>2026-05-03T08:11:14.026Z</time></trkpt><trkpt lat="43.3536873" lon="12.2968485"><ele>296.0</ele><time>2026-05-03T08:11:15.026Z</time></trkpt><trkpt lat="43.3536228" lon="12.2968892"><ele>299.0</ele><time>2026-05-03T08:11:16.026Z</time></trkpt><trkpt lat="43.3535985" lon="12.2969774"><ele>302.0</ele><time>2026-05-03T08:11:17.026Z</time></trkpt><trkpt lat="43.3536145" lon="12.2970815"><ele>305.0</ele><time>2026-05-03T08:11:18.026Z</time></trkpt><trkpt lat="43.35363" lon="12.2971832"><ele>308.0</ele><time>2026-05-03T08:11:19.027Z</time></trkpt><trkpt lat="43.353745" lon="12.2972948"><ele>308.0</ele><time>2026-05-03T08:11:20.026Z</time></trkpt><trkpt lat="43.3538338" lon="12.29743"><ele>308.0</ele><time>2026-05-03T08:11:21.026Z</time></trkpt><trkpt lat="43.3539252" lon="12.2975834"><ele>308.0</ele><time>2026-05-03T08:11:22.026Z</time></trkpt><trkpt lat="43.3540222" lon="12.2977444"><ele>308.0</ele><time>2026-05-03T08:11:23.026Z</time></trkpt><trkpt lat="43.3541039" lon="12.2978839"><ele>308.0</ele><time>2026-05-03T08:11:24.026Z</time></trkpt><trkpt lat="43.3541703" lon="12.2979887"><ele>308.0</ele><time>2026-05-03T08:11:25.026Z</time></trkpt><trkpt lat="43.3542121" lon="12.2980732"><ele>308.0</ele><time>2026-05-03T08:11:26.027Z</time></trkpt><trkpt lat="43.354255" lon="12.2981983"><ele>308.0</ele><time>2026-05-03T08:11:28.026Z</time></trkpt><trkpt lat="43.3541859" lon="12.2982871"><ele>308.0</ele><time>2026-05-03T08:11:30.026Z</time></trkpt><trkpt lat="43.3540751" lon="12.2982077"><ele>308.0</ele><time>2026-05-03T08:11:32.026Z</time></trkpt><trkpt lat="43.354022" lon="12.2981088"><ele>308.0</ele><time>2026-05-03T08:11:33.026Z</time></trkpt><trkpt lat="43.3539531" lon="12.2979839"><ele>308.0</ele><time>2026-05-03T08:11:34.026Z</time></trkpt><trkpt lat="43.3538977" lon="12.2978903"><ele>308.0</ele><time>2026-05-03T08:11:35.027Z</time></trkpt><trkpt lat="43.3538415" lon="12.2978176"><ele>308.0</ele><time>2026-05-03T08:11:36.026Z</time></trkpt><trkpt lat="43.35378" lon="12.2977737"><ele>308.0</ele><time>2026-05-03T08:11:37.027Z</time></trkpt><trkpt lat="43.3537131" lon="12.2978073"><ele>311.75</ele><time>2026-05-03T08:11:38.026Z</time></trkpt><trkpt lat="43.3536618" lon="12.2979888"><ele>315.5</ele><time>2026-05-03T08:11:40.027Z</time></trkpt><trkpt lat="43.3536863" lon="12.2981043"><ele>319.25</ele><time>2026-05-03T08:11:41.026Z</time></trkpt><trkpt lat="43.3537812" lon="12.2982142"><ele>323.0</ele><time>2026-05-03T08:11:42.026Z</time></trkpt><trkpt lat="43.3538593" lon="12.2983378"><ele>322.79999999999995</ele><time>2026-05-03T08:11:43.026Z</time></trkpt><trkpt lat="43.3539343" lon="12.2984321"><ele>322.6</ele><time>2026-05-03T08:11:44.026Z</time></trkpt><trkpt lat="43.3539589" lon="12.2985452"><ele>322.4</ele><time>2026-05-03T08:11:45.026Z</time></trkpt><trkpt lat="43.3539717" lon="12.2986757"><ele>322.20000000000005</ele><time>2026-05-03T08:11:46.026Z</time></trkpt><trkpt lat="43.3539368" lon="12.2988175"><ele>322.0</ele><time>2026-05-03T08:11:47.026Z</time></trkpt><trkpt lat="43.3538888" lon="12.2989624"><ele>322.0</ele><time>2026-05-03T08:11:48.026Z</time></trkpt><trkpt lat="43.3538434" lon="12.2991098"><ele>322.0</ele><time>2026-05-03T08:11:49.026Z</time></trkpt><trkpt lat="43.3538218" lon="12.2992653"><ele>322.0</ele><time>2026-05-03T08:11:50.027Z</time></trkpt><trkpt lat="43.3538387" lon="12.2994335"><ele>322.0</ele><time>2026-05-03T08:11:51.026Z</time></trkpt><trkpt lat="43.3538724" lon="12.2996024"><ele>322.0</ele><time>2026-05-03T08:11:52.026Z</time></trkpt><trkpt lat="43.3539712" lon="12.2997402"><ele>322.0</ele><time>2026-05-03T08:11:53.026Z</time></trkpt><trkpt lat="43.354076" lon="12.299898"><ele>322.0</ele><time>2026-05-03T08:11:54.026Z</time></trkpt><trkpt lat="43.3542028" lon="12.3000693"><ele>322.0</ele><time>2026-05-03T08:11:55.026Z</time></trkpt><trkpt lat="43.3543374" lon="12.3002543"><ele>322.0</ele><time>2026-05-03T08:11:56.026Z</time></trkpt><trkpt lat="43.3544544" lon="12.30043"><ele>322.0</ele><time>2026-05-03T08:11:57.027Z</time></trkpt><trkpt lat="43.3545637" lon="12.3005956"><ele>322.0</ele><time>2026-05-03T08:11:58.026Z</time></trkpt><trkpt lat="43.3546716" lon="12.3007658"><ele>322.0</ele><time>2026-05-03T08:11:59.026Z</time></trkpt><trkpt lat="43.3547787" lon="12.3009275"><ele>322.0</ele><time>2026-05-03T08:12:00.026Z</time></trkpt><trkpt lat="43.3548883" lon="12.3010817"><ele>322.5</ele><time>2026-05-03T08:12:01.026Z</time></trkpt><trkpt lat="43.3549942" lon="12.3012289"><ele>323.0</ele><time>2026-05-03T08:12:02.026Z</time></trkpt><trkpt lat="43.3550959" lon="12.301368"><ele>323.5</ele><time>2026-05-03T08:12:03.026Z</time></trkpt><trkpt lat="43.3551923" lon="12.301501"><ele>324.0</ele><time>2026-05-03T08:12:04.026Z</time></trkpt><trkpt lat="43.3552781" lon="12.3016214"><ele>325.79999999999995</ele><time>2026-05-03T08:12:05.026Z</time></trkpt><trkpt lat="43.3553529" lon="12.3017222"><ele>327.59999999999997</ele><time>2026-05-03T08:12:06.026Z</time></trkpt><trkpt lat="43.3554134" lon="12.3018181"><ele>329.4</ele><time>2026-05-03T08:12:07.026Z</time></trkpt><trkpt lat="43.3554681" lon="12.3019249"><ele>331.2</ele><time>2026-05-03T08:12:08.026Z</time></trkpt><trkpt lat="43.3555137" lon="12.3020588"><ele>333.0</ele><time>2026-05-03T08:12:09.026Z</time></trkpt><trkpt lat="43.355544" lon="12.3022204"><ele>334.5</ele><time>2026-05-03T08:12:10.026Z</time></trkpt><trkpt lat="43.3555667" lon="12.302395"><ele>336.0</ele><time>2026-05-03T08:12:11.027Z</time></trkpt><trkpt lat="43.3555668" lon="12.3025612"><ele>337.5</ele><time>2026-05-03T08:12:12.026Z</time></trkpt><trkpt lat="43.3555265" lon="12.3027465"><ele>339.0</ele><time>2026-05-03T08:12:13.026Z</time></trkpt><trkpt lat="43.3554689" lon="12.3029181"><ele>341.0</ele><time>2026-05-03T08:12:14.026Z</time></trkpt><trkpt lat="43.3553742" lon="12.3030828"><ele>343.0</ele><time>2026-05-03T08:12:15.026Z</time></trkpt><trkpt lat="43.3552479" lon="12.3032108"><ele>345.0</ele><time>2026-05-03T08:12:16.026Z</time></trkpt><trkpt lat="43.3550819" lon="12.3033389"><ele>345.0</ele><time>2026-05-03T08:12:17.026Z</time></trkpt><trkpt lat="43.3549299" lon="12.3034494"><ele>345.0</ele><time>2026-05-03T08:12:18.026Z</time></trkpt><trkpt lat="43.3547903" lon="12.3035436"><ele>345.0</ele><time>2026-05-03T08:12:19.026Z</time></trkpt><trkpt lat="43.354678" lon="12.3036218"><ele>344.6</ele><time>2026-05-03T08:12:20.026Z</time></trkpt><trkpt lat="43.3545918" lon="12.3037107"><ele>344.2</ele><time>2026-05-03T08:12:21.026Z</time></trkpt><trkpt lat="43.354548" lon="12.3038209"><ele>343.79999999999995</ele><time>2026-05-03T08:12:22.026Z</time></trkpt><trkpt lat="43.3545353" lon="12.303948"><ele>343.4</ele><time>2026-05-03T08:12:23.026Z</time></trkpt><trkpt lat="43.3545602" lon="12.3040637"><ele>343.0</ele><time>2026-05-03T08:12:24.026Z</time></trkpt><trkpt lat="43.3546288" lon="12.3041607"><ele>345.75</ele><time>2026-05-03T08:12:25.026Z</time></trkpt><trkpt lat="43.3547353" lon="12.3042515"><ele>348.5</ele><time>2026-05-03T08:12:26.026Z</time></trkpt><trkpt lat="43.354869" lon="12.304338"><ele>351.25</ele><time>2026-05-03T08:12:27.026Z</time></trkpt><trkpt lat="43.355013" lon="12.3044294"><ele>354.0</ele><time>2026-05-03T08:12:28.026Z</time></trkpt><trkpt lat="43.3551664" lon="12.3045241"><ele>354.0</ele><time>2026-05-03T08:12:29.026Z</time></trkpt><trkpt lat="43.3553279" lon="12.3046227"><ele>354.0</ele><time>2026-05-03T08:12:30.026Z</time></trkpt><trkpt lat="43.355474" lon="12.3047214"><ele>354.0</ele><time>2026-05-03T08:12:31.026Z</time></trkpt><trkpt lat="43.3556112" lon="12.3048178"><ele>357.5</ele><time>2026-05-03T08:12:32.026Z</time></trkpt><trkpt lat="43.3557386" lon="12.3049038"><ele>361.0</ele><time>2026-05-03T08:12:33.026Z</time></trkpt><trkpt lat="43.3558499" lon="12.3049783"><ele>364.5</ele><time>2026-05-03T08:12:34.026Z</time></trkpt><trkpt lat="43.3559492" lon="12.3050308"><ele>368.0</ele><time>2026-05-03T08:12:35.026Z</time></trkpt><trkpt lat="43.3560398" lon="12.3050449"><ele>368.0</ele><time>2026-05-03T08:12:36.027Z</time></trkpt><trkpt lat="43.3561367" lon="12.3050184"><ele>368.0</ele><time>2026-05-03T08:12:37.026Z</time></trkpt><trkpt lat="43.356244" lon="12.3049155"><ele>368.0</ele><time>2026-05-03T08:12:38.026Z</time></trkpt><trkpt lat="43.3563391" lon="12.3048191"><ele>368.0</ele><time>2026-05-03T08:12:39.026Z</time></trkpt><trkpt lat="43.3564268" lon="12.304745"><ele>367.79999999999995</ele><time>2026-05-03T08:12:40.026Z</time></trkpt><trkpt lat="43.3565033" lon="12.3046878"><ele>367.6</ele><time>2026-05-03T08:12:41.026Z</time></trkpt><trkpt lat="43.3565807" lon="12.3046403"><ele>367.4</ele><time>2026-05-03T08:12:42.026Z</time></trkpt><trkpt lat="43.3566552" lon="12.3046239"><ele>367.20000000000005</ele><time>2026-05-03T08:12:43.026Z</time></trkpt><trkpt lat="43.3567547" lon="12.3047103"><ele>367.0</ele><time>2026-05-03T08:12:45.026Z</time></trkpt><trkpt lat="43.356737" lon="12.304869"><ele>367.20000000000005</ele><time>2026-05-03T08:12:47.026Z</time></trkpt><trkpt lat="43.3566761" lon="12.3049314"><ele>367.4</ele><time>2026-05-03T08:12:48.027Z</time></trkpt><trkpt lat="43.3565889" lon="12.3049775"><ele>367.6</ele><time>2026-05-03T08:12:49.027Z</time></trkpt><trkpt lat="43.3564935" lon="12.3050293"><ele>367.79999999999995</ele><time>2026-05-03T08:12:50.027Z</time></trkpt><trkpt lat="43.3563963" lon="12.305098"><ele>368.0</ele><time>2026-05-03T08:12:51.027Z</time></trkpt><trkpt lat="43.3563039" lon="12.3051797"><ele>368.0</ele><time>2026-05-03T08:12:52.027Z</time></trkpt><trkpt lat="43.3562224" lon="12.3052853"><ele>368.0</ele><time>2026-05-03T08:12:53.026Z</time></trkpt><trkpt lat="43.3561546" lon="12.3054154"><ele>368.0</ele><time>2026-05-03T08:12:54.026Z</time></trkpt><trkpt lat="43.3560913" lon="12.3055496"><ele>368.0</ele><time>2026-05-03T08:12:55.026Z</time></trkpt><trkpt lat="43.3560374" lon="12.3056922"><ele>370.0</ele><time>2026-05-03T08:12:56.026Z</time></trkpt><trkpt lat="43.3560043" lon="12.3058352"><ele>372.0</ele><time>2026-05-03T08:12:57.026Z</time></trkpt><trkpt lat="43.3559952" lon="12.3059877"><ele>374.0</ele><time>2026-05-03T08:12:58.026Z</time></trkpt><trkpt lat="43.356012" lon="12.3061492"><ele>376.0</ele><time>2026-05-03T08:12:59.026Z</time></trkpt><trkpt lat="43.3560386" lon="12.3063236"><ele>375.3333333333333</ele><time>2026-05-03T08:13:00.026Z</time></trkpt><trkpt lat="43.3560849" lon="12.3065157"><ele>374.6666666666667</ele><time>2026-05-03T08:13:01.026Z</time></trkpt><trkpt lat="43.3561464" lon="12.30671"><ele>374.0</ele><time>2026-05-03T08:13:02.026Z</time></trkpt><trkpt lat="43.3562201" lon="12.3068933"><ele>374.0</ele><time>2026-05-03T08:13:03.026Z</time></trkpt><trkpt lat="43.3562957" lon="12.3070789"><ele>374.0</ele><time>2026-05-03T08:13:04.026Z</time></trkpt><trkpt lat="43.3563752" lon="12.3072677"><ele>374.0</ele><time>2026-05-03T08:13:05.026Z</time></trkpt><trkpt lat="43.3564447" lon="12.3074399"><ele>377.75</ele><time>2026-05-03T08:13:06.026Z</time></trkpt><trkpt lat="43.3565073" lon="12.3076028"><ele>381.5</ele><time>2026-05-03T08:13:07.026Z</time></trkpt><trkpt lat="43.3565701" lon="12.3077567"><ele>385.25</ele><time>2026-05-03T08:13:08.026Z</time></trkpt><trkpt lat="43.3566257" lon="12.3079045"><ele>389.0</ele><time>2026-05-03T08:13:09.026Z</time></trkpt><trkpt lat="43.3566619" lon="12.3080579"><ele>388.0</ele><time>2026-05-03T08:13:10.026Z</time></trkpt><trkpt lat="43.3566658" lon="12.308236"><ele>387.0</ele><time>2026-05-03T08:13:11.026Z</time></trkpt><trkpt lat="43.35664" lon="12.3084411"><ele>386.0</ele><time>2026-05-03T08:13:12.027Z</time></trkpt><trkpt lat="43.3565951" lon="12.30867"><ele>386.0</ele><time>2026-05-03T08:13:13.026Z</time></trkpt><trkpt lat="43.3565336" lon="12.3089092"><ele>386.0</ele><time>2026-05-03T08:13:14.026Z</time></trkpt><trkpt lat="43.3564793" lon="12.3091255"><ele>386.0</ele><time>2026-05-03T08:13:15.026Z</time></trkpt><trkpt lat="43.3564341" lon="12.309328"><ele>387.5</ele><time>2026-05-03T08:13:16.026Z</time></trkpt><trkpt lat="43.3563977" lon="12.3095167"><ele>389.0</ele><time>2026-05-03T08:13:17.026Z</time></trkpt><trkpt lat="43.3563748" lon="12.3096873"><ele>390.5</ele><time>2026-05-03T08:13:18.026Z</time></trkpt><trkpt lat="43.3563752" lon="12.3098636"><ele>392.0</ele><time>2026-05-03T08:13:19.026Z</time></trkpt><trkpt lat="43.3564029" lon="12.3100601"><ele>392.0</ele><time>2026-05-03T08:13:20.027Z</time></trkpt><trkpt lat="43.356437" lon="12.3102786"><ele>392.0</ele><time>2026-05-03T08:13:21.026Z</time></trkpt><trkpt lat="43.3564721" lon="12.3105063"><ele>392.0</ele><time>2026-05-03T08:13:22.026Z</time></trkpt><trkpt lat="43.3565033" lon="12.3107203"><ele>393.25</ele><time>2026-05-03T08:13:23.026Z</time></trkpt><trkpt lat="43.356529" lon="12.3109035"><ele>394.5</ele><time>2026-05-03T08:13:24.026Z</time></trkpt><trkpt lat="43.3565392" lon="12.3110757"><ele>395.75</ele><time>2026-05-03T08:13:25.026Z</time></trkpt><trkpt lat="43.3565307" lon="12.311253"><ele>397.0</ele><time>2026-05-03T08:13:26.026Z</time></trkpt><trkpt lat="43.3565045" lon="12.3114459"><ele>398.0</ele><time>2026-05-03T08:13:27.026Z</time></trkpt><trkpt lat="43.3564665" lon="12.3116494"><ele>399.0</ele><time>2026-05-03T08:13:28.026Z</time></trkpt><trkpt lat="43.3564199" lon="12.3118674"><ele>400.0</ele><time>2026-05-03T08:13:29.026Z</time></trkpt><trkpt lat="43.3563692" lon="12.3120929"><ele>404.5</ele><time>2026-05-03T08:13:30.026Z</time></trkpt><trkpt lat="43.3563232" lon="12.3122881"><ele>409.0</ele><time>2026-05-03T08:13:31.026Z</time></trkpt><trkpt lat="43.3562832" lon="12.3124637"><ele>413.5</ele><time>2026-05-03T08:13:32.026Z</time></trkpt><trkpt lat="43.35624" lon="12.3126023"><ele>418.0</ele><time>2026-05-03T08:13:33.026Z</time></trkpt><trkpt lat="43.3561787" lon="12.3127047"><ele>418.0</ele><time>2026-05-03T08:13:34.026Z</time></trkpt><trkpt lat="43.3561032" lon="12.3127699"><ele>418.0</ele><time>2026-05-03T08:13:35.026Z</time></trkpt><trkpt lat="43.356008" lon="12.3127798"><ele>418.0</ele><time>2026-05-03T08:13:36.027Z</time></trkpt><trkpt lat="43.3559072" lon="12.3127351"><ele>418.0</ele><time>2026-05-03T08:13:37.026Z</time></trkpt><trkpt lat="43.3558245" lon="12.3126834"><ele>418.0</ele><time>2026-05-03T08:13:38.026Z</time></trkpt><trkpt lat="43.355758" lon="12.3126394"><ele>418.00000000000006</ele><time>2026-05-03T08:13:39.026Z</time></trkpt><trkpt lat="43.3556678" lon="12.3125808"><ele>418.0</ele><time>2026-05-03T08:13:41.026Z</time></trkpt><trkpt lat="43.3555825" lon="12.3125413"><ele>418.0</ele><time>2026-05-03T08:13:43.026Z</time></trkpt><trkpt lat="43.3554872" lon="12.3125452"><ele>418.0</ele><time>2026-05-03T08:13:45.026Z</time></trkpt><trkpt lat="43.3554154" lon="12.3125594"><ele>418.00000000000006</ele><time>2026-05-03T08:13:47.026Z</time></trkpt><trkpt lat="43.3553423" lon="12.3125902"><ele>418.0</ele><time>2026-05-03T08:13:49.026Z</time></trkpt><trkpt lat="43.3552591" lon="12.3126531"><ele>418.00000000000006</ele><time>2026-05-03T08:13:51.026Z</time></trkpt><trkpt lat="43.3552117" lon="12.3127429"><ele>418.0</ele><time>2026-05-03T08:13:53.026Z</time></trkpt><trkpt lat="43.3552463" lon="12.3128328"><ele>418.0</ele><time>2026-05-03T08:13:55.026Z</time></trkpt><trkpt lat="43.3553085" lon="12.3128598"><ele>418.0</ele><time>2026-05-03T08:13:56.026Z</time></trkpt><trkpt lat="43.3554012" lon="12.3128604"><ele>418.00000000000006</ele><time>2026-05-03T08:13:57.026Z</time></trkpt><trkpt lat="43.3554859" lon="12.3128759"><ele>418.0</ele><time>2026-05-03T08:13:58.026Z</time></trkpt><trkpt lat="43.355577" lon="12.3129292"><ele>418.0</ele><time>2026-05-03T08:13:59.026Z</time></trkpt><trkpt lat="43.3556725" lon="12.3130268"><ele>418.0</ele><time>2026-05-03T08:14:00.026Z</time></trkpt><trkpt lat="43.3557842" lon="12.3131468"><ele>418.0</ele><time>2026-05-03T08:14:01.026Z</time></trkpt><trkpt lat="43.355902" lon="12.3132323"><ele>418.0</ele><time>2026-05-03T08:14:02.027Z</time></trkpt><trkpt lat="43.3560187" lon="12.3132875"><ele>419.83333333333337</ele><time>2026-05-03T08:14:03.026Z</time></trkpt><trkpt lat="43.3561201" lon="12.313328"><ele>421.6666666666667</ele><time>2026-05-03T08:14:04.026Z</time></trkpt><trkpt lat="43.3562064" lon="12.3133633"><ele>423.5</ele><time>2026-05-03T08:14:05.026Z</time></trkpt><trkpt lat="43.3562644" lon="12.3134185"><ele>425.33333333333337</ele><time>2026-05-03T08:14:06.026Z</time></trkpt><trkpt lat="43.3562987" lon="12.313543"><ele>427.1666666666667</ele><time>2026-05-03T08:14:08.026Z</time></trkpt><trkpt lat="43.3562691" lon="12.3136409"><ele>429.0</ele><time>2026-05-03T08:14:10.026Z</time></trkpt><trkpt lat="43.3562533" lon="12.3137926"><ele>429.0</ele><time>2026-05-03T08:14:12.026Z</time></trkpt><trkpt lat="43.3562446" lon="12.3139032"><ele>429.0</ele><time>2026-05-03T08:14:13.026Z</time></trkpt><trkpt lat="43.3562335" lon="12.314022"><ele>429.0</ele><time>2026-05-03T08:14:14.026Z</time></trkpt><trkpt lat="43.3562195" lon="12.3141311"><ele>429.0</ele><time>2026-05-03T08:14:15.026Z</time></trkpt><trkpt lat="43.3562056" lon="12.3142283"><ele>429.0</ele><time>2026-05-03T08:14:16.026Z</time></trkpt><trkpt lat="43.3561904" lon="12.3143302"><ele>429.0</ele><time>2026-05-03T08:14:17.026Z</time></trkpt><trkpt lat="43.3561723" lon="12.3144493"><ele>430.2</ele><time>2026-05-03T08:14:18.026Z</time></trkpt><trkpt lat="43.3561509" lon="12.3145783"><ele>431.4</ele><time>2026-05-03T08:14:19.027Z</time></trkpt><trkpt lat="43.3561342" lon="12.314724"><ele>432.6</ele><time>2026-05-03T08:14:20.026Z</time></trkpt><trkpt lat="43.3561338" lon="12.3148757"><ele>433.8</ele><time>2026-05-03T08:14:21.026Z</time></trkpt><trkpt lat="43.3561535" lon="12.315031"><ele>435.0</ele><time>2026-05-03T08:14:22.026Z</time></trkpt><trkpt lat="43.3562048" lon="12.3151658"><ele>434.5</ele><time>2026-05-03T08:14:23.026Z</time></trkpt><trkpt lat="43.3562792" lon="12.3152955"><ele>434.0</ele><time>2026-05-03T08:14:24.026Z</time></trkpt><trkpt lat="43.3563662" lon="12.3154121"><ele>433.5</ele><time>2026-05-03T08:14:25.026Z</time></trkpt><trkpt lat="43.3564709" lon="12.3155116"><ele>433.0</ele><time>2026-05-03T08:14:26.026Z</time></trkpt><trkpt lat="43.3565877" lon="12.3155977"><ele>433.0</ele><time>2026-05-03T08:14:27.026Z</time></trkpt><trkpt lat="43.3567115" lon="12.315676"><ele>433.0</ele><time>2026-05-03T08:14:28.026Z</time></trkpt><trkpt lat="43.3568363" lon="12.3157409"><ele>433.0</ele><time>2026-05-03T08:14:29.026Z</time></trkpt><trkpt lat="43.3569667" lon="12.3157913"><ele>433.0</ele><time>2026-05-03T08:14:30.026Z</time></trkpt><trkpt lat="43.3570995" lon="12.3158244"><ele>432.25</ele><time>2026-05-03T08:14:31.026Z</time></trkpt><trkpt lat="43.3572351" lon="12.3158452"><ele>431.5</ele><time>2026-05-03T08:14:32.027Z</time></trkpt><trkpt lat="43.3573706" lon="12.3158479"><ele>430.75</ele><time>2026-05-03T08:14:33.026Z</time></trkpt><trkpt lat="43.3575129" lon="12.3158472"><ele>430.0</ele><time>2026-05-03T08:14:34.026Z</time></trkpt><trkpt lat="43.3576545" lon="12.3158421"><ele>430.0</ele><time>2026-05-03T08:14:35.026Z</time></trkpt><trkpt lat="43.3577988" lon="12.3158325"><ele>430.0</ele><time>2026-05-03T08:14:36.027Z</time></trkpt><trkpt lat="43.3579426" lon="12.3158256"><ele>430.0</ele><time>2026-05-03T08:14:37.026Z</time></trkpt><trkpt lat="43.3580898" lon="12.315824"><ele>430.0</ele><time>2026-05-03T08:14:38.026Z</time></trkpt><trkpt lat="43.3582383" lon="12.3158294"><ele>428.33333333333337</ele><time>2026-05-03T08:14:39.027Z</time></trkpt><trkpt lat="43.3583872" lon="12.3158624"><ele>426.66666666666663</ele><time>2026-05-03T08:14:40.026Z</time></trkpt><trkpt lat="43.3585346" lon="12.3159234"><ele>425.0</ele><time>2026-05-03T08:14:41.026Z</time></trkpt><trkpt lat="43.3586741" lon="12.3160188"><ele>425.0</ele><time>2026-05-03T08:14:42.026Z</time></trkpt><trkpt lat="43.3588066" lon="12.3161333"><ele>425.0</ele><time>2026-05-03T08:14:43.026Z</time></trkpt><trkpt lat="43.3589284" lon="12.3162585"><ele>425.0</ele><time>2026-05-03T08:14:44.026Z</time></trkpt><trkpt lat="43.3590439" lon="12.3163932"><ele>426.66666666666663</ele><time>2026-05-03T08:14:45.026Z</time></trkpt><trkpt lat="43.359155" lon="12.3165342"><ele>428.33333333333337</ele><time>2026-05-03T08:14:46.026Z</time></trkpt><trkpt lat="43.3592614" lon="12.3166783"><ele>430.0</ele><time>2026-05-03T08:14:47.026Z</time></trkpt><trkpt lat="43.3593584" lon="12.3168346"><ele>430.0</ele><time>2026-05-03T08:14:48.026Z</time></trkpt><trkpt lat="43.3594481" lon="12.3169928"><ele>430.0</ele><time>2026-05-03T08:14:49.026Z</time></trkpt><trkpt lat="43.3595264" lon="12.3171573"><ele>430.0</ele><time>2026-05-03T08:14:50.026Z</time></trkpt><trkpt lat="43.3595911" lon="12.317329"><ele>430.0</ele><time>2026-05-03T08:14:51.027Z</time></trkpt><trkpt lat="43.3596534" lon="12.3174946"><ele>429.75</ele><time>2026-05-03T08:14:52.026Z</time></trkpt><trkpt lat="43.359715" lon="12.3176642"><ele>429.5</ele><time>2026-05-03T08:14:53.026Z</time></trkpt><trkpt lat="43.3597722" lon="12.3178345"><ele>429.25</ele><time>2026-05-03T08:14:54.026Z</time></trkpt><trkpt lat="43.35983" lon="12.3180077"><ele>429.0</ele><time>2026-05-03T08:14:55.026Z</time></trkpt><trkpt lat="43.3598883" lon="12.3181842"><ele>429.0</ele><time>2026-05-03T08:14:56.027Z</time></trkpt><trkpt lat="43.3599487" lon="12.3183575"><ele>429.0</ele><time>2026-05-03T08:14:57.026Z</time></trkpt><trkpt lat="43.3600089" lon="12.3185376"><ele>429.0</ele><time>2026-05-03T08:14:58.026Z</time></trkpt><trkpt lat="43.3600694" lon="12.3187193"><ele>429.0</ele><time>2026-05-03T08:14:59.026Z</time></trkpt><trkpt lat="43.36013" lon="12.3189012"><ele>430.75</ele><time>2026-05-03T08:15:00.026Z</time></trkpt><trkpt lat="43.3601919" lon="12.3190821"><ele>432.5</ele><time>2026-05-03T08:15:01.026Z</time></trkpt><trkpt lat="43.3602551" lon="12.319264"><ele>434.25</ele><time>2026-05-03T08:15:02.026Z</time></trkpt><trkpt lat="43.3603173" lon="12.3194435"><ele>436.0</ele><time>2026-05-03T08:15:03.026Z</time></trkpt><trkpt lat="43.360378" lon="12.3196219"><ele>436.25</ele><time>2026-05-03T08:15:04.026Z</time></trkpt><trkpt lat="43.3604376" lon="12.3198015"><ele>436.5</ele><time>2026-05-03T08:15:05.026Z</time></trkpt><trkpt lat="43.3604987" lon="12.3199759"><ele>436.75</ele><time>2026-05-03T08:15:06.026Z</time></trkpt><trkpt lat="43.3605596" lon="12.3201468"><ele>437.0</ele><time>2026-05-03T08:15:07.026Z</time></trkpt><trkpt lat="43.3606193" lon="12.3203121"><ele>437.5</ele><time>2026-05-03T08:15:08.027Z</time></trkpt><trkpt lat="43.3606786" lon="12.3204815"><ele>438.0</ele><time>2026-05-03T08:15:09.027Z</time></trkpt><trkpt lat="43.3607389" lon="12.3206496"><ele>438.5</ele><time>2026-05-03T08:15:10.026Z</time></trkpt><trkpt lat="43.3607988" lon="12.3208204"><ele>439.0</ele><time>2026-05-03T08:15:11.026Z</time></trkpt><trkpt lat="43.3608587" lon="12.3209938"><ele>439.75</ele><time>2026-05-03T08:15:12.026Z</time></trkpt><trkpt lat="43.3609226" lon="12.3211689"><ele>440.5</ele><time>2026-05-03T08:15:13.026Z</time></trkpt><trkpt lat="43.3609796" lon="12.3213493"><ele>441.25</ele><time>2026-05-03T08:15:14.026Z</time></trkpt><trkpt lat="43.3610434" lon="12.3215279"><ele>442.0</ele><time>2026-05-03T08:15:15.026Z</time></trkpt><trkpt lat="43.3611171" lon="12.3217037"><ele>442.0</ele><time>2026-05-03T08:15:16.026Z</time></trkpt><trkpt lat="43.3612001" lon="12.3218737"><ele>442.0</ele><time>2026-05-03T08:15:17.026Z</time></trkpt><trkpt lat="43.3612931" lon="12.322037"><ele>442.0</ele><time>2026-05-03T08:15:18.026Z</time></trkpt><trkpt lat="43.3613919" lon="12.3222029"><ele>440.6666666666667</ele><time>2026-05-03T08:15:19.026Z</time></trkpt><trkpt lat="43.3614965" lon="12.3223661"><ele>439.33333333333337</ele><time>2026-05-03T08:15:20.026Z</time></trkpt><trkpt lat="43.3615976" lon="12.3225294"><ele>438.0</ele><time>2026-05-03T08:15:21.027Z</time></trkpt><trkpt lat="43.3617014" lon="12.3226906"><ele>438.0</ele><time>2026-05-03T08:15:22.026Z</time></trkpt><trkpt lat="43.3617986" lon="12.3228398"><ele>438.0</ele><time>2026-05-03T08:15:23.027Z</time></trkpt><trkpt lat="43.3618883" lon="12.3229822"><ele>438.0</ele><time>2026-05-03T08:15:24.026Z</time></trkpt><trkpt lat="43.3619723" lon="12.3231157"><ele>438.0</ele><time>2026-05-03T08:15:25.026Z</time></trkpt><trkpt lat="43.3620497" lon="12.3232454"><ele>437.4</ele><time>2026-05-03T08:15:26.026Z</time></trkpt><trkpt lat="43.3621215" lon="12.3233606"><ele>436.79999999999995</ele><time>2026-05-03T08:15:27.026Z</time></trkpt><trkpt lat="43.3621886" lon="12.3234717"><ele>436.2</ele><time>2026-05-03T08:15:28.026Z</time></trkpt><trkpt lat="43.3622582" lon="12.3235833"><ele>435.6</ele><time>2026-05-03T08:15:29.027Z</time></trkpt><trkpt lat="43.3623291" lon="12.323701"><ele>435.0</ele><time>2026-05-03T08:15:30.026Z</time></trkpt><trkpt lat="43.3624002" lon="12.3238173"><ele>437.5</ele><time>2026-05-03T08:15:31.026Z</time></trkpt><trkpt lat="43.3624724" lon="12.3239381"><ele>440.0</ele><time>2026-05-03T08:15:32.026Z</time></trkpt><trkpt lat="43.3625468" lon="12.3240574"><ele>442.5</ele><time>2026-05-03T08:15:33.026Z</time></trkpt><trkpt lat="43.3626245" lon="12.324169"><ele>445.0</ele><time>2026-05-03T08:15:34.026Z</time></trkpt><trkpt lat="43.3627069" lon="12.324282"><ele>445.0</ele><time>2026-05-03T08:15:35.026Z</time></trkpt><trkpt lat="43.3627818" lon="12.3243976"><ele>445.0</ele><time>2026-05-03T08:15:36.026Z</time></trkpt><trkpt lat="43.3628561" lon="12.3245084"><ele>445.0</ele><time>2026-05-03T08:15:37.026Z</time></trkpt><trkpt lat="43.362926" lon="12.3246245"><ele>445.0</ele><time>2026-05-03T08:15:38.026Z</time></trkpt><trkpt lat="43.363" lon="12.3247387"><ele>445.0</ele><time>2026-05-03T08:15:39.026Z</time></trkpt><trkpt lat="43.3630744" lon="12.3248459"><ele>445.4</ele><time>2026-05-03T08:15:40.026Z</time></trkpt><trkpt lat="43.3631447" lon="12.3249533"><ele>445.8</ele><time>2026-05-03T08:15:41.026Z</time></trkpt><trkpt lat="43.3632155" lon="12.3250552"><ele>446.20000000000005</ele><time>2026-05-03T08:15:42.027Z</time></trkpt><trkpt lat="43.3632833" lon="12.3251508"><ele>446.6</ele><time>2026-05-03T08:15:43.027Z</time></trkpt><trkpt lat="43.3633421" lon="12.3252126"><ele>447.0</ele><time>2026-05-03T08:15:44.026Z</time></trkpt><trkpt lat="43.3634089" lon="12.3252579"><ele>447.0</ele><time>2026-05-03T08:15:45.026Z</time></trkpt><trkpt lat="43.3634817" lon="12.3252816"><ele>447.00000000000006</ele><time>2026-05-03T08:15:46.026Z</time></trkpt><trkpt lat="43.3635556" lon="12.3252721"><ele>447.00000000000006</ele><time>2026-05-03T08:15:47.026Z</time></trkpt><trkpt lat="43.3636758" lon="12.3252724"><ele>447.0</ele><time>2026-05-03T08:15:49.026Z</time></trkpt><trkpt lat="43.3637669" lon="12.3252579"><ele>447.0</ele><time>2026-05-03T08:15:51.026Z</time></trkpt><trkpt lat="43.3638572" lon="12.3252419"><ele>445.8333333333333</ele><time>2026-05-03T08:15:53.026Z</time></trkpt><trkpt lat="43.3639226" lon="12.3252478"><ele>444.66666666666663</ele><time>2026-05-03T08:15:54.026Z</time></trkpt><trkpt lat="43.3640076" lon="12.3252366"><ele>443.5</ele><time>2026-05-03T08:15:55.026Z</time></trkpt><trkpt lat="43.3640956" lon="12.3252244"><ele>442.3333333333333</ele><time>2026-05-03T08:15:56.026Z</time></trkpt><trkpt lat="43.3641893" lon="12.3252246"><ele>441.16666666666663</ele><time>2026-05-03T08:15:57.026Z</time></trkpt><trkpt lat="43.3642843" lon="12.3252264"><ele>440.0</ele><time>2026-05-03T08:15:58.026Z</time></trkpt><trkpt lat="43.3643687" lon="12.3252172"><ele>439.99999999999994</ele><time>2026-05-03T08:15:59.026Z</time></trkpt><trkpt lat="43.3644447" lon="12.3252073"><ele>440.0</ele><time>2026-05-03T08:16:00.026Z</time></trkpt><trkpt lat="43.3645093" lon="12.3251986"><ele>440.0</ele><time>2026-05-03T08:16:01.026Z</time></trkpt><trkpt lat="43.3645873" lon="12.3252149"><ele>440.0</ele><time>2026-05-03T08:16:02.026Z</time></trkpt><trkpt lat="43.3646537" lon="12.3252535"><ele>440.0</ele><time>2026-05-03T08:16:03.026Z</time></trkpt><trkpt lat="43.3647073" lon="12.3253206"><ele>439.99999999999994</ele><time>2026-05-03T08:16:04.026Z</time></trkpt><trkpt lat="43.3647445" lon="12.3254104"><ele>440.0</ele><time>2026-05-03T08:16:05.026Z</time></trkpt><trkpt lat="43.3647731" lon="12.3255168"><ele>439.0</ele><time>2026-05-03T08:16:06.027Z</time></trkpt><trkpt lat="43.3648046" lon="12.325639"><ele>438.0</ele><time>2026-05-03T08:16:07.026Z</time></trkpt><trkpt lat="43.3648375" lon="12.3257778"><ele>437.0</ele><time>2026-05-03T08:16:08.026Z</time></trkpt><trkpt lat="43.3648784" lon="12.3259167"><ele>436.0</ele><time>2026-05-03T08:16:09.026Z</time></trkpt><trkpt lat="43.3649291" lon="12.3260659"><ele>435.0</ele><time>2026-05-03T08:16:10.026Z</time></trkpt><trkpt lat="43.3649554" lon="12.3262295"><ele>435.0</ele><time>2026-05-03T08:16:11.026Z</time></trkpt><trkpt lat="43.3649795" lon="12.3263857"><ele>435.0</ele><time>2026-05-03T08:16:12.026Z</time></trkpt><trkpt lat="43.3650033" lon="12.3265403"><ele>435.0</ele><time>2026-05-03T08:16:13.027Z</time></trkpt><trkpt lat="43.3650271" lon="12.3266914"><ele>435.0</ele><time>2026-05-03T08:16:14.026Z</time></trkpt><trkpt lat="43.3650621" lon="12.3268411"><ele>435.75</ele><time>2026-05-03T08:16:15.026Z</time></trkpt><trkpt lat="43.3651094" lon="12.3269847"><ele>436.5</ele><time>2026-05-03T08:16:16.026Z</time></trkpt><trkpt lat="43.3651656" lon="12.3271197"><ele>437.25</ele><time>2026-05-03T08:16:17.026Z</time></trkpt><trkpt lat="43.3652506" lon="12.3272296"><ele>438.0</ele><time>2026-05-03T08:16:18.026Z</time></trkpt><trkpt lat="43.3653412" lon="12.3273323"><ele>438.75</ele><time>2026-05-03T08:16:19.026Z</time></trkpt><trkpt lat="43.3654383" lon="12.3274278"><ele>439.5</ele><time>2026-05-03T08:16:20.026Z</time></trkpt><trkpt lat="43.3655496" lon="12.3275121"><ele>440.25</ele><time>2026-05-03T08:16:21.026Z</time></trkpt><trkpt lat="43.3656673" lon="12.3275944"><ele>441.0</ele><time>2026-05-03T08:16:22.026Z</time></trkpt><trkpt lat="43.3657837" lon="12.3276727"><ele>437.0</ele><time>2026-05-03T08:16:23.026Z</time></trkpt><trkpt lat="43.3659007" lon="12.3277542"><ele>433.0</ele><time>2026-05-03T08:16:24.027Z</time></trkpt><trkpt lat="43.3660184" lon="12.3278303"><ele>429.0</ele><time>2026-05-03T08:16:25.026Z</time></trkpt><trkpt lat="43.3661376" lon="12.3279096"><ele>425.0</ele><time>2026-05-03T08:16:26.026Z</time></trkpt><trkpt lat="43.3662478" lon="12.3279832"><ele>424.8</ele><time>2026-05-03T08:16:27.027Z</time></trkpt><trkpt lat="43.3663506" lon="12.3280608"><ele>424.6</ele><time>2026-05-03T08:16:28.026Z</time></trkpt><trkpt lat="43.3664498" lon="12.3281345"><ele>424.4</ele><time>2026-05-03T08:16:29.026Z</time></trkpt><trkpt lat="43.3665503" lon="12.3282071"><ele>424.2</ele><time>2026-05-03T08:16:30.026Z</time></trkpt><trkpt lat="43.3666442" lon="12.3282692"><ele>424.0</ele><time>2026-05-03T08:16:31.026Z</time></trkpt><trkpt lat="43.3667279" lon="12.3283355"><ele>424.00000000000006</ele><time>2026-05-03T08:16:32.026Z</time></trkpt><trkpt lat="43.3668005" lon="12.328405"><ele>424.0</ele><time>2026-05-03T08:16:33.026Z</time></trkpt><trkpt lat="43.3668468" lon="12.3284769"><ele>424.0</ele><time>2026-05-03T08:16:34.026Z</time></trkpt><trkpt lat="43.3668862" lon="12.3286467"><ele>424.0</ele><time>2026-05-03T08:16:36.026Z</time></trkpt><trkpt lat="43.3668733" lon="12.3287424"><ele>424.00000000000006</ele><time>2026-05-03T08:16:37.026Z</time></trkpt><trkpt lat="43.3668331" lon="12.3288232"><ele>424.0</ele><time>2026-05-03T08:16:38.026Z</time></trkpt><trkpt lat="43.3667717" lon="12.3288814"><ele>424.00000000000006</ele><time>2026-05-03T08:16:39.026Z</time></trkpt><trkpt lat="43.3666993" lon="12.3289071"><ele>424.0</ele><time>2026-05-03T08:16:40.026Z</time></trkpt><trkpt lat="43.3666188" lon="12.3288957"><ele>424.0</ele><time>2026-05-03T08:16:41.026Z</time></trkpt><trkpt lat="43.3665378" lon="12.3288674"><ele>424.0</ele><time>2026-05-03T08:16:42.026Z</time></trkpt><trkpt lat="43.3664624" lon="12.3288022"><ele>424.00000000000006</ele><time>2026-05-03T08:16:43.026Z</time></trkpt><trkpt lat="43.3663785" lon="12.3287398"><ele>424.0</ele><time>2026-05-03T08:16:44.026Z</time></trkpt><trkpt lat="43.3662882" lon="12.3286705"><ele>423.25</ele><time>2026-05-03T08:16:45.026Z</time></trkpt><trkpt lat="43.3661907" lon="12.3285995"><ele>422.5</ele><time>2026-05-03T08:16:46.026Z</time></trkpt><trkpt lat="43.3660825" lon="12.3285431"><ele>421.75</ele><time>2026-05-03T08:16:47.027Z</time></trkpt><trkpt lat="43.3659597" lon="12.3285231"><ele>421.0</ele><time>2026-05-03T08:16:48.026Z</time></trkpt><trkpt lat="43.3658264" lon="12.3285355"><ele>421.0</ele><time>2026-05-03T08:16:49.026Z</time></trkpt><trkpt lat="43.3656887" lon="12.3285782"><ele>421.0</ele><time>2026-05-03T08:16:50.026Z</time></trkpt><trkpt lat="43.3655554" lon="12.3286345"><ele>421.0</ele><time>2026-05-03T08:16:51.026Z</time></trkpt><trkpt lat="43.3654316" lon="12.3286761"><ele>421.0</ele><time>2026-05-03T08:16:52.026Z</time></trkpt><trkpt lat="43.3653122" lon="12.3286931"><ele>420.75</ele><time>2026-05-03T08:16:53.026Z</time></trkpt><trkpt lat="43.3651932" lon="12.3286922"><ele>420.5</ele><time>2026-05-03T08:16:54.026Z</time></trkpt><trkpt lat="43.3650746" lon="12.3286658"><ele>420.25</ele><time>2026-05-03T08:16:55.027Z</time></trkpt><trkpt lat="43.3649546" lon="12.328617"><ele>420.0</ele><time>2026-05-03T08:16:56.027Z</time></trkpt><trkpt lat="43.3648368" lon="12.3285436"><ele>420.0</ele><time>2026-05-03T08:16:57.026Z</time></trkpt><trkpt lat="43.3647154" lon="12.3284651"><ele>420.0</ele><time>2026-05-03T08:16:58.027Z</time></trkpt><trkpt lat="43.3645927" lon="12.3283858"><ele>420.0</ele><time>2026-05-03T08:16:59.027Z</time></trkpt><trkpt lat="43.364477" lon="12.3283086"><ele>420.0</ele><time>2026-05-03T08:17:00.026Z</time></trkpt><trkpt lat="43.3643638" lon="12.3282355"><ele>417.5</ele><time>2026-05-03T08:17:01.026Z</time></trkpt><trkpt lat="43.3642524" lon="12.328187"><ele>415.0</ele><time>2026-05-03T08:17:02.027Z</time></trkpt><trkpt lat="43.3641315" lon="12.3281811"><ele>412.5</ele><time>2026-05-03T08:17:03.026Z</time></trkpt><trkpt lat="43.3640056" lon="12.328213"><ele>410.0</ele><time>2026-05-03T08:17:04.026Z</time></trkpt><trkpt lat="43.3638767" lon="12.3282864"><ele>415.3333333333333</ele><time>2026-05-03T08:17:05.026Z</time></trkpt><trkpt lat="43.3637414" lon="12.3283893"><ele>420.66666666666663</ele><time>2026-05-03T08:17:06.026Z</time></trkpt><trkpt lat="43.3636036" lon="12.3285102"><ele>426.0</ele><time>2026-05-03T08:17:07.026Z</time></trkpt><trkpt lat="43.3634665" lon="12.328633"><ele>426.0</ele><time>2026-05-03T08:17:08.026Z</time></trkpt><trkpt lat="43.3633236" lon="12.3287464"><ele>426.0</ele><time>2026-05-03T08:17:09.026Z</time></trkpt><trkpt lat="43.3631779" lon="12.3288402"><ele>426.0</ele><time>2026-05-03T08:17:10.026Z</time></trkpt><trkpt lat="43.3630316" lon="12.3289239"><ele>421.75</ele><time>2026-05-03T08:17:11.026Z</time></trkpt><trkpt lat="43.3628853" lon="12.3289996"><ele>417.5</ele><time>2026-05-03T08:17:12.026Z</time></trkpt><trkpt lat="43.3627499" lon="12.3290747"><ele>413.25</ele><time>2026-05-03T08:17:13.026Z</time></trkpt><trkpt lat="43.3626172" lon="12.3291419"><ele>409.0</ele><time>2026-05-03T08:17:14.026Z</time></trkpt><trkpt lat="43.3624941" lon="12.3292131"><ele>409.0</ele><time>2026-05-03T08:17:15.026Z</time></trkpt><trkpt lat="43.3623821" lon="12.3292923"><ele>409.0</ele><time>2026-05-03T08:17:16.026Z</time></trkpt><trkpt lat="43.3622955" lon="12.3293693"><ele>409.0</ele><time>2026-05-03T08:17:17.026Z</time></trkpt><trkpt lat="43.3622365" lon="12.3294737"><ele>409.0</ele><time>2026-05-03T08:17:18.027Z</time></trkpt><trkpt lat="43.362207" lon="12.3295863"><ele>409.0</ele><time>2026-05-03T08:17:19.026Z</time></trkpt><trkpt lat="43.3622069" lon="12.3296937"><ele>403.79999999999995</ele><time>2026-05-03T08:17:20.027Z</time></trkpt><trkpt lat="43.3622416" lon="12.3297821"><ele>398.59999999999997</ele><time>2026-05-03T08:17:21.026Z</time></trkpt><trkpt lat="43.3623024" lon="12.3298361"><ele>393.4</ele><time>2026-05-03T08:17:22.026Z</time></trkpt><trkpt lat="43.3623805" lon="12.3298398"><ele>388.2</ele><time>2026-05-03T08:17:23.026Z</time></trkpt><trkpt lat="43.3624829" lon="12.3297884"><ele>383.0</ele><time>2026-05-03T08:17:24.026Z</time></trkpt><trkpt lat="43.362598" lon="12.3297324"><ele>386.5</ele><time>2026-05-03T08:17:25.026Z</time></trkpt><trkpt lat="43.3627182" lon="12.3296782"><ele>390.0</ele><time>2026-05-03T08:17:26.026Z</time></trkpt><trkpt lat="43.3628378" lon="12.32964"><ele>393.5</ele><time>2026-05-03T08:17:27.026Z</time></trkpt><trkpt lat="43.362954" lon="12.3296201"><ele>397.0</ele><time>2026-05-03T08:17:28.026Z</time></trkpt><trkpt lat="43.3630678" lon="12.329619"><ele>397.0</ele><time>2026-05-03T08:17:29.027Z</time></trkpt><trkpt lat="43.363189" lon="12.3296784"><ele>397.0</ele><time>2026-05-03T08:17:30.026Z</time></trkpt><trkpt lat="43.3633186" lon="12.3297306"><ele>397.0</ele><time>2026-05-03T08:17:31.026Z</time></trkpt><trkpt lat="43.3634576" lon="12.3297764"><ele>397.0</ele><time>2026-05-03T08:17:32.026Z</time></trkpt><trkpt lat="43.3636139" lon="12.3298017"><ele>392.75</ele><time>2026-05-03T08:17:33.026Z</time></trkpt><trkpt lat="43.363762" lon="12.3298238"><ele>388.5</ele><time>2026-05-03T08:17:34.026Z</time></trkpt><trkpt lat="43.3639078" lon="12.3298636"><ele>384.25</ele><time>2026-05-03T08:17:35.026Z</time></trkpt><trkpt lat="43.364036" lon="12.3299415"><ele>380.0</ele><time>2026-05-03T08:17:36.026Z</time></trkpt><trkpt lat="43.3641708" lon="12.3300181"><ele>380.0</ele><time>2026-05-03T08:17:37.026Z</time></trkpt><trkpt lat="43.3643111" lon="12.3300918"><ele>380.0</ele><time>2026-05-03T08:17:38.026Z</time></trkpt><trkpt lat="43.3644636" lon="12.3301366"><ele>380.0</ele><time>2026-05-03T08:17:39.026Z</time></trkpt><trkpt lat="43.364612" lon="12.3301817"><ele>381.0</ele><time>2026-05-03T08:17:40.026Z</time></trkpt><trkpt lat="43.3647619" lon="12.3302261"><ele>382.0</ele><time>2026-05-03T08:17:41.026Z</time></trkpt><trkpt lat="43.3649079" lon="12.3302833"><ele>383.0</ele><time>2026-05-03T08:17:42.027Z</time></trkpt><trkpt lat="43.3650543" lon="12.3303403"><ele>383.0</ele><time>2026-05-03T08:17:43.026Z</time></trkpt><trkpt lat="43.3652026" lon="12.3303954"><ele>383.0</ele><time>2026-05-03T08:17:44.026Z</time></trkpt><trkpt lat="43.3653539" lon="12.330445"><ele>383.0</ele><time>2026-05-03T08:17:45.026Z</time></trkpt><trkpt lat="43.3655068" lon="12.3304986"><ele>382.33333333333337</ele><time>2026-05-03T08:17:46.026Z</time></trkpt><trkpt lat="43.365661" lon="12.3305426"><ele>381.6666666666667</ele><time>2026-05-03T08:17:47.026Z</time></trkpt><trkpt lat="43.3658243" lon="12.3305824"><ele>381.0</ele><time>2026-05-03T08:17:48.026Z</time></trkpt><trkpt lat="43.3659681" lon="12.330619"><ele>379.0</ele><time>2026-05-03T08:17:49.026Z</time></trkpt><trkpt lat="43.3661025" lon="12.3306571"><ele>377.0</ele><time>2026-05-03T08:17:50.026Z</time></trkpt><trkpt lat="43.3662304" lon="12.3307198"><ele>375.0</ele><time>2026-05-03T08:17:51.027Z</time></trkpt><trkpt lat="43.3663532" lon="12.3308066"><ele>373.0</ele><time>2026-05-03T08:17:52.026Z</time></trkpt><trkpt lat="43.3664705" lon="12.3309078"><ele>373.0</ele><time>2026-05-03T08:17:53.026Z</time></trkpt><trkpt lat="43.3665897" lon="12.3310143"><ele>373.0</ele><time>2026-05-03T08:17:54.026Z</time></trkpt><trkpt lat="43.3666957" lon="12.3311604"><ele>373.0</ele><time>2026-05-03T08:17:55.026Z</time></trkpt><trkpt lat="43.3668095" lon="12.3313011"><ele>373.0</ele><time>2026-05-03T08:17:56.026Z</time></trkpt><trkpt lat="43.3669232" lon="12.331446"><ele>371.0</ele><time>2026-05-03T08:17:57.027Z</time></trkpt><trkpt lat="43.3670463" lon="12.3315808"><ele>369.0</ele><time>2026-05-03T08:17:58.026Z</time></trkpt><trkpt lat="43.36717" lon="12.3317039"><ele>367.0</ele><time>2026-05-03T08:17:59.026Z</time></trkpt><trkpt lat="43.3672844" lon="12.3318405"><ele>367.0</ele><time>2026-05-03T08:18:00.026Z</time></trkpt><trkpt lat="43.3673768" lon="12.3319923"><ele>367.0</ele><time>2026-05-03T08:18:01.026Z</time></trkpt><trkpt lat="43.3674506" lon="12.3321449"><ele>367.0</ele><time>2026-05-03T08:18:02.027Z</time></trkpt><trkpt lat="43.3675193" lon="12.3322898"><ele>367.0</ele><time>2026-05-03T08:18:03.026Z</time></trkpt><trkpt lat="43.3676111" lon="12.3323781"><ele>363.0</ele><time>2026-05-03T08:18:04.026Z</time></trkpt><trkpt lat="43.3677175" lon="12.3324518"><ele>359.0</ele><time>2026-05-03T08:18:05.026Z</time></trkpt><trkpt lat="43.3678357" lon="12.3324834"><ele>355.0</ele><time>2026-05-03T08:18:06.027Z</time></trkpt><trkpt lat="43.367966" lon="12.3324868"><ele>351.0</ele><time>2026-05-03T08:18:07.026Z</time></trkpt><trkpt lat="43.3680861" lon="12.3324924"><ele>351.0</ele><time>2026-05-03T08:18:08.026Z</time></trkpt><trkpt lat="43.3681987" lon="12.3324906"><ele>351.0</ele><time>2026-05-03T08:18:09.026Z</time></trkpt><trkpt lat="43.3683036" lon="12.3324952"><ele>351.0</ele><time>2026-05-03T08:18:10.026Z</time></trkpt><trkpt lat="43.3683967" lon="12.3325268"><ele>351.0</ele><time>2026-05-03T08:18:11.026Z</time></trkpt><trkpt lat="43.3684666" lon="12.3325887"><ele>351.0</ele><time>2026-05-03T08:18:12.027Z</time></trkpt><trkpt lat="43.368501" lon="12.3326826"><ele>351.0</ele><time>2026-05-03T08:18:13.026Z</time></trkpt><trkpt lat="43.3685147" lon="12.3327872"><ele>351.0</ele><time>2026-05-03T08:18:14.026Z</time></trkpt><trkpt lat="43.3685155" lon="12.3329751"><ele>351.0</ele><time>2026-05-03T08:18:16.026Z</time></trkpt><trkpt lat="43.3684646" lon="12.3330682"><ele>351.0</ele><time>2026-05-03T08:18:17.027Z</time></trkpt><trkpt lat="43.3683949" lon="12.3331465"><ele>351.0</ele><time>2026-05-03T08:18:18.026Z</time></trkpt><trkpt lat="43.368333" lon="12.3332374"><ele>349.4</ele><time>2026-05-03T08:18:19.026Z</time></trkpt><trkpt lat="43.3682845" lon="12.3333341"><ele>347.8</ele><time>2026-05-03T08:18:20.026Z</time></trkpt><trkpt lat="43.3682463" lon="12.3334542"><ele>346.2</ele><time>2026-05-03T08:18:21.026Z</time></trkpt><trkpt lat="43.3682104" lon="12.333593"><ele>344.59999999999997</ele><time>2026-05-03T08:18:22.026Z</time></trkpt><trkpt lat="43.3681826" lon="12.3337498"><ele>343.0</ele><time>2026-05-03T08:18:23.026Z</time></trkpt><trkpt lat="43.3681527" lon="12.3339167"><ele>343.0</ele><time>2026-05-03T08:18:24.026Z</time></trkpt><trkpt lat="43.3681194" lon="12.334091"><ele>343.0</ele><time>2026-05-03T08:18:25.026Z</time></trkpt><trkpt lat="43.3680691" lon="12.3342609"><ele>343.0</ele><time>2026-05-03T08:18:26.026Z</time></trkpt><trkpt lat="43.367998" lon="12.3343926"><ele>343.0</ele><time>2026-05-03T08:18:27.026Z</time></trkpt><trkpt lat="43.3679218" lon="12.3345122"><ele>342.2</ele><time>2026-05-03T08:18:28.026Z</time></trkpt><trkpt lat="43.3678786" lon="12.3346353"><ele>341.4</ele><time>2026-05-03T08:18:29.026Z</time></trkpt><trkpt lat="43.367877" lon="12.3347617"><ele>340.59999999999997</ele><time>2026-05-03T08:18:30.026Z</time></trkpt><trkpt lat="43.367911" lon="12.3349003"><ele>339.79999999999995</ele><time>2026-05-03T08:18:31.027Z</time></trkpt><trkpt lat="43.3679864" lon="12.3350518"><ele>339.0</ele><time>2026-05-03T08:18:32.026Z</time></trkpt><trkpt lat="43.3680568" lon="12.3352263"><ele>339.0</ele><time>2026-05-03T08:18:33.026Z</time></trkpt><trkpt lat="43.3681404" lon="12.3354208"><ele>339.0</ele><time>2026-05-03T08:18:34.026Z</time></trkpt><trkpt lat="43.3682317" lon="12.3356088"><ele>339.0</ele><time>2026-05-03T08:18:35.026Z</time></trkpt><trkpt lat="43.3683277" lon="12.3357823"><ele>334.75</ele><time>2026-05-03T08:18:36.027Z</time></trkpt><trkpt lat="43.3684187" lon="12.3359509"><ele>330.5</ele><time>2026-05-03T08:18:37.026Z</time></trkpt><trkpt lat="43.3685024" lon="12.3361143"><ele>326.25</ele><time>2026-05-03T08:18:38.026Z</time></trkpt><trkpt lat="43.368582" lon="12.3362778"><ele>322.0</ele><time>2026-05-03T08:18:39.026Z</time></trkpt><trkpt lat="43.3686723" lon="12.3364179"><ele>324.0</ele><time>2026-05-03T08:18:40.026Z</time></trkpt><trkpt lat="43.3687751" lon="12.3365413"><ele>326.0</ele><time>2026-05-03T08:18:41.026Z</time></trkpt><trkpt lat="43.3688914" lon="12.336646"><ele>328.0</ele><time>2026-05-03T08:18:42.026Z</time></trkpt><trkpt lat="43.3690093" lon="12.3367561"><ele>330.0</ele><time>2026-05-03T08:18:43.026Z</time></trkpt><trkpt lat="43.369115" lon="12.3368631"><ele>330.0</ele><time>2026-05-03T08:18:44.026Z</time></trkpt><trkpt lat="43.3692204" lon="12.3369639"><ele>330.0</ele><time>2026-05-03T08:18:45.026Z</time></trkpt><trkpt lat="43.3693162" lon="12.3370728"><ele>330.0</ele><time>2026-05-03T08:18:46.026Z</time></trkpt><trkpt lat="43.3693966" lon="12.3371927"><ele>330.0</ele><time>2026-05-03T08:18:47.026Z</time></trkpt><trkpt lat="43.3694605" lon="12.3373187"><ele>324.75</ele><time>2026-05-03T08:18:48.026Z</time></trkpt><trkpt lat="43.3694965" lon="12.3374667"><ele>319.5</ele><time>2026-05-03T08:18:49.026Z</time></trkpt><trkpt lat="43.369518" lon="12.3376261"><ele>314.25</ele><time>2026-05-03T08:18:50.026Z</time></trkpt><trkpt lat="43.3695487" lon="12.3377948"><ele>309.0</ele><time>2026-05-03T08:18:51.026Z</time></trkpt><trkpt lat="43.3696098" lon="12.3379686"><ele>306.6666666666667</ele><time>2026-05-03T08:18:52.026Z</time></trkpt><trkpt lat="43.3696906" lon="12.3381468"><ele>304.33333333333337</ele><time>2026-05-03T08:18:53.026Z</time></trkpt><trkpt lat="43.3697911" lon="12.3383341"><ele>302.0</ele><time>2026-05-03T08:18:54.026Z</time></trkpt><trkpt lat="43.3699025" lon="12.3385277"><ele>302.6666666666667</ele><time>2026-05-03T08:18:55.026Z</time></trkpt><trkpt lat="43.3700283" lon="12.3387265"><ele>303.3333333333333</ele><time>2026-05-03T08:18:56.026Z</time></trkpt><trkpt lat="43.3701595" lon="12.3389269"><ele>304.0</ele><time>2026-05-03T08:18:57.026Z</time></trkpt><trkpt lat="43.3703055" lon="12.3391311"><ele>304.0</ele><time>2026-05-03T08:18:58.026Z</time></trkpt><trkpt lat="43.3704443" lon="12.3393162"><ele>304.0</ele><time>2026-05-03T08:18:59.027Z</time></trkpt><trkpt lat="43.3705714" lon="12.3394915"><ele>304.0</ele><time>2026-05-03T08:19:00.026Z</time></trkpt><trkpt lat="43.3706913" lon="12.3396531"><ele>305.25</ele><time>2026-05-03T08:19:01.026Z</time></trkpt><trkpt lat="43.3708026" lon="12.3397913"><ele>306.5</ele><time>2026-05-03T08:19:02.026Z</time></trkpt><trkpt lat="43.3708944" lon="12.3399038"><ele>307.75</ele><time>2026-05-03T08:19:03.027Z</time></trkpt><trkpt lat="43.3709652" lon="12.3400003"><ele>309.0</ele><time>2026-05-03T08:19:04.026Z</time></trkpt><trkpt lat="43.3710203" lon="12.3400994"><ele>309.0</ele><time>2026-05-03T08:19:05.026Z</time></trkpt><trkpt lat="43.3710474" lon="12.3402164"><ele>309.0</ele><time>2026-05-03T08:19:06.026Z</time></trkpt><trkpt lat="43.3710539" lon="12.3403533"><ele>309.0</ele><time>2026-05-03T08:19:07.026Z</time></trkpt><trkpt lat="43.3710061" lon="12.340518"><ele>309.0</ele><time>2026-05-03T08:19:08.026Z</time></trkpt><trkpt lat="43.370948" lon="12.3406933"><ele>306.6666666666667</ele><time>2026-05-03T08:19:09.026Z</time></trkpt><trkpt lat="43.3708774" lon="12.3408752"><ele>304.33333333333337</ele><time>2026-05-03T08:19:10.027Z</time></trkpt><trkpt lat="43.370804" lon="12.3410729"><ele>302.0</ele><time>2026-05-03T08:19:11.026Z</time></trkpt><trkpt lat="43.3707255" lon="12.3412806"><ele>302.0</ele><time>2026-05-03T08:19:12.026Z</time></trkpt><trkpt lat="43.3706466" lon="12.3414832"><ele>302.0</ele><time>2026-05-03T08:19:13.026Z</time></trkpt><trkpt lat="43.3705719" lon="12.3416877"><ele>302.0</ele><time>2026-05-03T08:19:14.026Z</time></trkpt><trkpt lat="43.3704981" lon="12.3418781"><ele>302.0</ele><time>2026-05-03T08:19:15.026Z</time></trkpt><trkpt lat="43.3704271" lon="12.3420692"><ele>302.0</ele><time>2026-05-03T08:19:16.026Z</time></trkpt><trkpt lat="43.3703557" lon="12.3422508"><ele>302.0</ele><time>2026-05-03T08:19:17.026Z</time></trkpt><trkpt lat="43.3702892" lon="12.3424252"><ele>302.0</ele><time>2026-05-03T08:19:18.026Z</time></trkpt><trkpt lat="43.3702229" lon="12.3425948"><ele>302.0</ele><time>2026-05-03T08:19:19.026Z</time></trkpt><trkpt lat="43.3701596" lon="12.342757"><ele>302.0</ele><time>2026-05-03T08:19:20.026Z</time></trkpt><trkpt lat="43.3700999" lon="12.3429154"><ele>302.0</ele><time>2026-05-03T08:19:21.026Z</time></trkpt><trkpt lat="43.3700454" lon="12.3430619"><ele>302.0</ele><time>2026-05-03T08:19:22.026Z</time></trkpt><trkpt lat="43.37" lon="12.3431886"><ele>302.6666666666667</ele><time>2026-05-03T08:19:23.026Z</time></trkpt><trkpt lat="43.3699602" lon="12.3432934"><ele>303.33333333333337</ele><time>2026-05-03T08:19:24.026Z</time></trkpt><trkpt lat="43.3699245" lon="12.3433718"><ele>304.0</ele><time>2026-05-03T08:19:25.026Z</time></trkpt><trkpt lat="43.3698684" lon="12.3434576"><ele>304.6666666666667</ele><time>2026-05-03T08:19:27.026Z</time></trkpt><trkpt lat="43.3698428" lon="12.3435531"><ele>305.3333333333333</ele><time>2026-05-03T08:19:36.026Z</time></trkpt><trkpt lat="43.3698999" lon="12.3436448"><ele>306.0</ele><time>2026-05-03T08:19:38.026Z</time></trkpt><trkpt lat="43.3699816" lon="12.3437059"><ele>306.0</ele><time>2026-05-03T08:19:39.026Z</time></trkpt><trkpt lat="43.3700858" lon="12.3437715"><ele>306.0</ele><time>2026-05-03T08:19:40.026Z</time></trkpt><trkpt lat="43.370196" lon="12.3438445"><ele>306.0</ele><time>2026-05-03T08:19:41.027Z</time></trkpt><trkpt lat="43.3703183" lon="12.3439283"><ele>306.0</ele><time>2026-05-03T08:19:42.026Z</time></trkpt><trkpt lat="43.3704432" lon="12.3440168"><ele>307.5</ele><time>2026-05-03T08:19:43.026Z</time></trkpt><trkpt lat="43.3705677" lon="12.344103"><ele>309.0</ele><time>2026-05-03T08:19:44.026Z</time></trkpt><trkpt lat="43.3706928" lon="12.3441951"><ele>310.5</ele><time>2026-05-03T08:19:45.026Z</time></trkpt><trkpt lat="43.3708079" lon="12.3442796"><ele>312.0</ele><time>2026-05-03T08:19:46.026Z</time></trkpt><trkpt lat="43.3709069" lon="12.3443638"><ele>312.0</ele><time>2026-05-03T08:19:47.026Z</time></trkpt><trkpt lat="43.3709992" lon="12.3444616"><ele>312.0</ele><time>2026-05-03T08:19:48.027Z</time></trkpt><trkpt lat="43.3710433" lon="12.3445902"><ele>312.0</ele><time>2026-05-03T08:19:49.026Z</time></trkpt><trkpt lat="43.3710768" lon="12.3447336"><ele>312.0</ele><time>2026-05-03T08:19:50.026Z</time></trkpt><trkpt lat="43.371097" lon="12.3448918"><ele>312.0</ele><time>2026-05-03T08:19:51.026Z</time></trkpt><trkpt lat="43.3710821" lon="12.3450835"><ele>312.25</ele><time>2026-05-03T08:19:52.026Z</time></trkpt><trkpt lat="43.3710774" lon="12.3452746"><ele>312.5</ele><time>2026-05-03T08:19:53.026Z</time></trkpt><trkpt lat="43.371082" lon="12.3454647"><ele>312.75</ele><time>2026-05-03T08:19:54.026Z</time></trkpt><trkpt lat="43.371103" lon="12.3456517"><ele>313.0</ele><time>2026-05-03T08:19:55.027Z</time></trkpt><trkpt lat="43.3711587" lon="12.3458251"><ele>313.25</ele><time>2026-05-03T08:19:56.026Z</time></trkpt><trkpt lat="43.3712354" lon="12.3459873"><ele>313.5</ele><time>2026-05-03T08:19:57.026Z</time></trkpt><trkpt lat="43.3713217" lon="12.3461422"><ele>313.75</ele><time>2026-05-03T08:19:58.026Z</time></trkpt><trkpt lat="43.3714336" lon="12.346279"><ele>314.0</ele><time>2026-05-03T08:19:59.027Z</time></trkpt><trkpt lat="43.3715549" lon="12.3463981"><ele>314.25</ele><time>2026-05-03T08:20:00.026Z</time></trkpt><trkpt lat="43.3716622" lon="12.3465011"><ele>314.5</ele><time>2026-05-03T08:20:01.026Z</time></trkpt><trkpt lat="43.3717692" lon="12.3465723"><ele>314.75</ele><time>2026-05-03T08:20:02.026Z</time></trkpt><trkpt lat="43.3718891" lon="12.3465972"><ele>315.0</ele><time>2026-05-03T08:20:03.026Z</time></trkpt><trkpt lat="43.3720145" lon="12.3465922"><ele>315.0</ele><time>2026-05-03T08:20:04.026Z</time></trkpt><trkpt lat="43.3721374" lon="12.3466112"><ele>315.0</ele><time>2026-05-03T08:20:05.026Z</time></trkpt><trkpt lat="43.3722523" lon="12.3466764"><ele>315.0</ele><time>2026-05-03T08:20:06.026Z</time></trkpt><trkpt lat="43.3723575" lon="12.3467854"><ele>315.0</ele><time>2026-05-03T08:20:07.026Z</time></trkpt><trkpt lat="43.3724562" lon="12.3469226"><ele>318.3333333333333</ele><time>2026-05-03T08:20:08.026Z</time></trkpt><trkpt lat="43.3725424" lon="12.3470916"><ele>321.66666666666663</ele><time>2026-05-03T08:20:09.026Z</time></trkpt><trkpt lat="43.372609" lon="12.3472916"><ele>325.0</ele><time>2026-05-03T08:20:10.027Z</time></trkpt><trkpt lat="43.3726535" lon="12.3475192"><ele>325.0</ele><time>2026-05-03T08:20:11.026Z</time></trkpt><trkpt lat="43.3726994" lon="12.3477664"><ele>325.0</ele><time>2026-05-03T08:20:12.027Z</time></trkpt><trkpt lat="43.3727448" lon="12.3480314"><ele>325.0</ele><time>2026-05-03T08:20:13.026Z</time></trkpt><trkpt lat="43.3727919" lon="12.3483089"><ele>325.0</ele><time>2026-05-03T08:20:14.026Z</time></trkpt><trkpt lat="43.3728357" lon="12.3485792"><ele>325.0</ele><time>2026-05-03T08:20:15.026Z</time></trkpt><trkpt lat="43.3728777" lon="12.3488406"><ele>325.0</ele><time>2026-05-03T08:20:16.026Z</time></trkpt><trkpt lat="43.372914" lon="12.3490923"><ele>325.0</ele><time>2026-05-03T08:20:17.026Z</time></trkpt><trkpt lat="43.3729499" lon="12.3493342"><ele>325.0</ele><time>2026-05-03T08:20:18.026Z</time></trkpt><trkpt lat="43.3729777" lon="12.3495692"><ele>325.0</ele><time>2026-05-03T08:20:19.026Z</time></trkpt><trkpt lat="43.3730035" lon="12.3497921"><ele>325.66666666666663</ele><time>2026-05-03T08:20:20.027Z</time></trkpt><trkpt lat="43.3730163" lon="12.3500127"><ele>326.3333333333333</ele><time>2026-05-03T08:20:21.026Z</time></trkpt><trkpt lat="43.3730006" lon="12.3502355"><ele>327.0</ele><time>2026-05-03T08:20:22.026Z</time></trkpt><trkpt lat="43.3729731" lon="12.350444"><ele>327.5</ele><time>2026-05-03T08:20:23.026Z</time></trkpt><trkpt lat="43.3729446" lon="12.3506216"><ele>328.0</ele><time>2026-05-03T08:20:24.027Z</time></trkpt><trkpt lat="43.3729326" lon="12.3507881"><ele>328.5</ele><time>2026-05-03T08:20:25.026Z</time></trkpt><trkpt lat="43.3729397" lon="12.3509514"><ele>329.0</ele><time>2026-05-03T08:20:26.026Z</time></trkpt><trkpt lat="43.372988" lon="12.3511138"><ele>336.0</ele><time>2026-05-03T08:20:27.026Z</time></trkpt><trkpt lat="43.3730721" lon="12.3512891"><ele>343.0</ele><time>2026-05-03T08:20:28.026Z</time></trkpt><trkpt lat="43.3731789" lon="12.3514631"><ele>350.0</ele><time>2026-05-03T08:20:29.026Z</time></trkpt><trkpt lat="43.3733037" lon="12.3516348"><ele>350.0</ele><time>2026-05-03T08:20:30.026Z</time></trkpt><trkpt lat="43.3734665" lon="12.3517829"><ele>350.0</ele><time>2026-05-03T08:20:31.026Z</time></trkpt><trkpt lat="43.3736011" lon="12.351918"><ele>350.0</ele><time>2026-05-03T08:20:32.027Z</time></trkpt><trkpt lat="43.3737246" lon="12.3520532"><ele>344.6666666666667</ele><time>2026-05-03T08:20:33.026Z</time></trkpt><trkpt lat="43.3738276" lon="12.3522211"><ele>339.3333333333333</ele><time>2026-05-03T08:20:34.026Z</time></trkpt><trkpt lat="43.3739184" lon="12.3524178"><ele>334.0</ele><time>2026-05-03T08:20:35.026Z</time></trkpt><trkpt lat="43.3740215" lon="12.3526197"><ele>339.66666666666663</ele><time>2026-05-03T08:20:36.026Z</time></trkpt><trkpt lat="43.3741558" lon="12.3528264"><ele>345.3333333333333</ele><time>2026-05-03T08:20:37.026Z</time></trkpt><trkpt lat="43.3742898" lon="12.3530306"><ele>351.0</ele><time>2026-05-03T08:20:38.026Z</time></trkpt><trkpt lat="43.3744187" lon="12.3532106"><ele>351.0</ele><time>2026-05-03T08:20:39.026Z</time></trkpt><trkpt lat="43.3745478" lon="12.3533638"><ele>351.0</ele><time>2026-05-03T08:20:40.026Z</time></trkpt><trkpt lat="43.3746712" lon="12.3534994"><ele>351.0</ele><time>2026-05-03T08:20:41.026Z</time></trkpt><trkpt lat="43.3747977" lon="12.3536224"><ele>353.25</ele><time>2026-05-03T08:20:42.026Z</time></trkpt><trkpt lat="43.3749264" lon="12.3537139"><ele>355.5</ele><time>2026-05-03T08:20:43.027Z</time></trkpt><trkpt lat="43.3750533" lon="12.3537703"><ele>357.75</ele><time>2026-05-03T08:20:44.026Z</time></trkpt><trkpt lat="43.3751611" lon="12.3538358"><ele>360.0</ele><time>2026-05-03T08:20:45.027Z</time></trkpt><trkpt lat="43.3752434" lon="12.3539292"><ele>360.0</ele><time>2026-05-03T08:20:46.026Z</time></trkpt><trkpt lat="43.3753058" lon="12.3540473"><ele>360.0</ele><time>2026-05-03T08:20:47.026Z</time></trkpt><trkpt lat="43.375361" lon="12.354182"><ele>360.0</ele><time>2026-05-03T08:20:48.026Z</time></trkpt><trkpt lat="43.3754317" lon="12.3543053"><ele>360.0</ele><time>2026-05-03T08:20:49.027Z</time></trkpt><trkpt lat="43.3755258" lon="12.354416"><ele>367.25</ele><time>2026-05-03T08:20:50.026Z</time></trkpt><trkpt lat="43.3756355" lon="12.3545043"><ele>374.5</ele><time>2026-05-03T08:20:51.026Z</time></trkpt><trkpt lat="43.3757456" lon="12.3545628"><ele>381.75</ele><time>2026-05-03T08:20:52.026Z</time></trkpt><trkpt lat="43.3758548" lon="12.354597"><ele>389.0</ele><time>2026-05-03T08:20:53.026Z</time></trkpt><trkpt lat="43.3759653" lon="12.3545961"><ele>389.0</ele><time>2026-05-03T08:20:54.026Z</time></trkpt><trkpt lat="43.3760675" lon="12.354591"><ele>389.0</ele><time>2026-05-03T08:20:55.027Z</time></trkpt><trkpt lat="43.3761436" lon="12.3546279"><ele>389.0</ele><time>2026-05-03T08:20:56.026Z</time></trkpt><trkpt lat="43.376196" lon="12.3546995"><ele>389.0</ele><time>2026-05-03T08:20:57.026Z</time></trkpt><trkpt lat="43.3762204" lon="12.3548109"><ele>389.0</ele><time>2026-05-03T08:20:58.027Z</time></trkpt><trkpt lat="43.3762075" lon="12.3549595"><ele>384.25</ele><time>2026-05-03T08:20:59.026Z</time></trkpt><trkpt lat="43.3761741" lon="12.355137"><ele>379.5</ele><time>2026-05-03T08:21:00.026Z</time></trkpt><trkpt lat="43.376111" lon="12.3553223"><ele>374.75</ele><time>2026-05-03T08:21:01.026Z</time></trkpt><trkpt lat="43.3760184" lon="12.3555116"><ele>370.0</ele><time>2026-05-03T08:21:02.027Z</time></trkpt><trkpt lat="43.375919" lon="12.3557209"><ele>370.0</ele><time>2026-05-03T08:21:03.026Z</time></trkpt><trkpt lat="43.3758079" lon="12.3559387"><ele>370.0</ele><time>2026-05-03T08:21:04.026Z</time></trkpt><trkpt lat="43.3756848" lon="12.3561682"><ele>370.0</ele><time>2026-05-03T08:21:05.026Z</time></trkpt><trkpt lat="43.3755569" lon="12.3563871"><ele>366.0</ele><time>2026-05-03T08:21:06.026Z</time></trkpt><trkpt lat="43.3754369" lon="12.3565841"><ele>362.0</ele><time>2026-05-03T08:21:07.026Z</time></trkpt><trkpt lat="43.3753114" lon="12.3567529"><ele>358.0</ele><time>2026-05-03T08:21:08.026Z</time></trkpt><trkpt lat="43.3751872" lon="12.3569002"><ele>358.0</ele><time>2026-05-03T08:21:09.027Z</time></trkpt><trkpt lat="43.3750663" lon="12.3570307"><ele>358.0</ele><time>2026-05-03T08:21:10.026Z</time></trkpt><trkpt lat="43.374949" lon="12.3571325"><ele>358.0</ele><time>2026-05-03T08:21:11.026Z</time></trkpt><trkpt lat="43.3748386" lon="12.3572213"><ele>358.0</ele><time>2026-05-03T08:21:12.026Z</time></trkpt><trkpt lat="43.3747486" lon="12.357324"><ele>360.59999999999997</ele><time>2026-05-03T08:21:13.026Z</time></trkpt><trkpt lat="43.3746917" lon="12.3574556"><ele>363.2</ele><time>2026-05-03T08:21:14.026Z</time></trkpt><trkpt lat="43.3746783" lon="12.3576106"><ele>365.8</ele><time>2026-05-03T08:21:15.026Z</time></trkpt><trkpt lat="43.3747221" lon="12.3577359"><ele>368.4</ele><time>2026-05-03T08:21:16.026Z</time></trkpt><trkpt lat="43.3748128" lon="12.3578457"><ele>371.0</ele><time>2026-05-03T08:21:17.026Z</time></trkpt><trkpt lat="43.3749547" lon="12.3579545"><ele>366.33333333333337</ele><time>2026-05-03T08:21:18.026Z</time></trkpt><trkpt lat="43.3751135" lon="12.3580824"><ele>361.6666666666667</ele><time>2026-05-03T08:21:19.027Z</time></trkpt><trkpt lat="43.3752525" lon="12.3582294"><ele>357.0</ele><time>2026-05-03T08:21:20.026Z</time></trkpt><trkpt lat="43.3753878" lon="12.3584264"><ele>363.5</ele><time>2026-05-03T08:21:21.027Z</time></trkpt><trkpt lat="43.3755264" lon="12.358671"><ele>370.0</ele><time>2026-05-03T08:21:22.026Z</time></trkpt><trkpt lat="43.3756745" lon="12.3589378"><ele>370.0</ele><time>2026-05-03T08:21:23.026Z</time></trkpt><trkpt lat="43.3758003" lon="12.3591894"><ele>370.0</ele><time>2026-05-03T08:21:24.026Z</time></trkpt><trkpt lat="43.3759191" lon="12.3594383"><ele>370.0</ele><time>2026-05-03T08:21:25.026Z</time></trkpt><trkpt lat="43.3760154" lon="12.3596792"><ele>365.3333333333333</ele><time>2026-05-03T08:21:26.026Z</time></trkpt><trkpt lat="43.3760999" lon="12.359906"><ele>360.6666666666667</ele><time>2026-05-03T08:21:27.026Z</time></trkpt><trkpt lat="43.3761682" lon="12.3601406"><ele>356.0</ele><time>2026-05-03T08:21:28.026Z</time></trkpt><trkpt lat="43.3762315" lon="12.3603771"><ele>352.0</ele><time>2026-05-03T08:21:29.026Z</time></trkpt><trkpt lat="43.3762688" lon="12.3606129"><ele>348.0</ele><time>2026-05-03T08:21:30.026Z</time></trkpt><trkpt lat="43.3763021" lon="12.360829"><ele>344.0</ele><time>2026-05-03T08:21:31.026Z</time></trkpt><trkpt lat="43.3763437" lon="12.3610289"><ele>346.5</ele><time>2026-05-03T08:21:32.026Z</time></trkpt><trkpt lat="43.3764199" lon="12.3612137"><ele>349.0</ele><time>2026-05-03T08:21:33.026Z</time></trkpt><trkpt lat="43.3765006" lon="12.3613751"><ele>351.5</ele><time>2026-05-03T08:21:34.026Z</time></trkpt><trkpt lat="43.3765809" lon="12.3615158"><ele>354.0</ele><time>2026-05-03T08:21:35.027Z</time></trkpt><trkpt lat="43.376667" lon="12.3616374"><ele>354.0</ele><time>2026-05-03T08:21:36.026Z</time></trkpt><trkpt lat="43.3767886" lon="12.3616687"><ele>354.0</ele><time>2026-05-03T08:21:37.026Z</time></trkpt><trkpt lat="43.3769153" lon="12.3617102"><ele>354.0</ele><time>2026-05-03T08:21:38.026Z</time></trkpt><trkpt lat="43.3770572" lon="12.3617696"><ele>354.0</ele><time>2026-05-03T08:21:39.026Z</time></trkpt><trkpt lat="43.3771958" lon="12.3618669"><ele>352.6666666666667</ele><time>2026-05-03T08:21:40.026Z</time></trkpt><trkpt lat="43.3773381" lon="12.3619865"><ele>351.33333333333337</ele><time>2026-05-03T08:21:41.026Z</time></trkpt><trkpt lat="43.3774849" lon="12.3621162"><ele>350.0</ele><time>2026-05-03T08:21:42.026Z</time></trkpt><trkpt lat="43.3776386" lon="12.3622516"><ele>350.0</ele><time>2026-05-03T08:21:43.026Z</time></trkpt><trkpt lat="43.377789" lon="12.3623781"><ele>350.0</ele><time>2026-05-03T08:21:44.026Z</time></trkpt><trkpt lat="43.3779353" lon="12.3625089"><ele>350.0</ele><time>2026-05-03T08:21:45.026Z</time></trkpt><trkpt lat="43.3780688" lon="12.3626543"><ele>350.0</ele><time>2026-05-03T08:21:46.026Z</time></trkpt><trkpt lat="43.3781863" lon="12.3628165"><ele>350.0</ele><time>2026-05-03T08:21:47.026Z</time></trkpt><trkpt lat="43.3782929" lon="12.3629869"><ele>350.0</ele><time>2026-05-03T08:21:48.026Z</time></trkpt><trkpt lat="43.3783981" lon="12.3631569"><ele>350.0</ele><time>2026-05-03T08:21:49.027Z</time></trkpt><trkpt lat="43.3785022" lon="12.3633249"><ele>350.0</ele><time>2026-05-03T08:21:50.026Z</time></trkpt><trkpt lat="43.3786089" lon="12.3634853"><ele>350.0</ele><time>2026-05-03T08:21:51.026Z</time></trkpt><trkpt lat="43.3787004" lon="12.3636501"><ele>350.0</ele><time>2026-05-03T08:21:52.026Z</time></trkpt><trkpt lat="43.3787849" lon="12.3638377"><ele>350.0</ele><time>2026-05-03T08:21:53.026Z</time></trkpt><trkpt lat="43.3788539" lon="12.3640512"><ele>350.0</ele><time>2026-05-03T08:21:54.026Z</time></trkpt><trkpt lat="43.3789152" lon="12.364283"><ele>351.33333333333337</ele><time>2026-05-03T08:21:55.026Z</time></trkpt><trkpt lat="43.3789796" lon="12.3645329"><ele>352.6666666666667</ele><time>2026-05-03T08:21:56.026Z</time></trkpt><trkpt lat="43.3790501" lon="12.3647904"><ele>354.0</ele><time>2026-05-03T08:21:57.026Z</time></trkpt><trkpt lat="43.3791231" lon="12.3650215"><ele>354.0</ele><time>2026-05-03T08:21:58.026Z</time></trkpt><trkpt lat="43.3791972" lon="12.3652359"><ele>354.0</ele><time>2026-05-03T08:21:59.026Z</time></trkpt><trkpt lat="43.3792544" lon="12.365436"><ele>354.0</ele><time>2026-05-03T08:22:00.026Z</time></trkpt><trkpt lat="43.3792792" lon="12.3656352"><ele>353.5</ele><time>2026-05-03T08:22:01.027Z</time></trkpt><trkpt lat="43.3792645" lon="12.3658288"><ele>353.0</ele><time>2026-05-03T08:22:02.026Z</time></trkpt><trkpt lat="43.3792151" lon="12.3660147"><ele>352.5</ele><time>2026-05-03T08:22:03.026Z</time></trkpt><trkpt lat="43.3791504" lon="12.3662055"><ele>352.0</ele><time>2026-05-03T08:22:04.026Z</time></trkpt><trkpt lat="43.3790938" lon="12.3664173"><ele>352.0</ele><time>2026-05-03T08:22:05.026Z</time></trkpt><trkpt lat="43.3790493" lon="12.3666506"><ele>352.0</ele><time>2026-05-03T08:22:06.026Z</time></trkpt><trkpt lat="43.3790172" lon="12.3668967"><ele>352.0</ele><time>2026-05-03T08:22:07.026Z</time></trkpt><trkpt lat="43.3789865" lon="12.3671527"><ele>352.0</ele><time>2026-05-03T08:22:08.026Z</time></trkpt><trkpt lat="43.3789584" lon="12.3674059"><ele>352.0</ele><time>2026-05-03T08:22:09.026Z</time></trkpt><trkpt lat="43.3789333" lon="12.3676514"><ele>352.0</ele><time>2026-05-03T08:22:10.027Z</time></trkpt><trkpt lat="43.3789084" lon="12.3678955"><ele>349.3333333333333</ele><time>2026-05-03T08:22:11.026Z</time></trkpt><trkpt lat="43.3788839" lon="12.3681353"><ele>346.6666666666667</ele><time>2026-05-03T08:22:12.027Z</time></trkpt><trkpt lat="43.3788636" lon="12.3683723"><ele>344.0</ele><time>2026-05-03T08:22:13.026Z</time></trkpt><trkpt lat="43.3788425" lon="12.368603"><ele>344.0</ele><time>2026-05-03T08:22:14.026Z</time></trkpt><trkpt lat="43.3788211" lon="12.3688394"><ele>344.0</ele><time>2026-05-03T08:22:15.026Z</time></trkpt><trkpt lat="43.3787933" lon="12.3690701"><ele>344.0</ele><time>2026-05-03T08:22:16.026Z</time></trkpt><trkpt lat="43.378758" lon="12.3692926"><ele>343.6666666666667</ele><time>2026-05-03T08:22:17.026Z</time></trkpt><trkpt lat="43.3787161" lon="12.3695104"><ele>343.3333333333333</ele><time>2026-05-03T08:22:18.026Z</time></trkpt><trkpt lat="43.3786695" lon="12.3697213"><ele>343.0</ele><time>2026-05-03T08:22:19.026Z</time></trkpt><trkpt lat="43.378619" lon="12.3699325"><ele>343.0</ele><time>2026-05-03T08:22:20.027Z</time></trkpt><trkpt lat="43.3785716" lon="12.3701441"><ele>343.0</ele><time>2026-05-03T08:22:21.026Z</time></trkpt><trkpt lat="43.3785226" lon="12.3703558"><ele>343.0</ele><time>2026-05-03T08:22:22.026Z</time></trkpt><trkpt lat="43.378474" lon="12.3705675"><ele>345.3333333333333</ele><time>2026-05-03T08:22:23.026Z</time></trkpt><trkpt lat="43.3784247" lon="12.3707793"><ele>347.6666666666667</ele><time>2026-05-03T08:22:24.026Z</time></trkpt><trkpt lat="43.3783723" lon="12.3709849"><ele>350.0</ele><time>2026-05-03T08:22:25.026Z</time></trkpt><trkpt lat="43.3783231" lon="12.3711914"><ele>353.6666666666667</ele><time>2026-05-03T08:22:26.026Z</time></trkpt><trkpt lat="43.3782746" lon="12.3713992"><ele>357.3333333333333</ele><time>2026-05-03T08:22:27.026Z</time></trkpt><trkpt lat="43.3782274" lon="12.3716093"><ele>361.0</ele><time>2026-05-03T08:22:28.027Z</time></trkpt><trkpt lat="43.3781812" lon="12.3718243"><ele>361.0</ele><time>2026-05-03T08:22:29.026Z</time></trkpt><trkpt lat="43.3781356" lon="12.372027"><ele>361.0</ele><time>2026-05-03T08:22:30.027Z</time></trkpt><trkpt lat="43.3780949" lon="12.3722074"><ele>361.0</ele><time>2026-05-03T08:22:31.026Z</time></trkpt><trkpt lat="43.3780572" lon="12.3723722"><ele>361.0</ele><time>2026-05-03T08:22:32.026Z</time></trkpt><trkpt lat="43.3780305" lon="12.3725197"><ele>361.5</ele><time>2026-05-03T08:22:33.026Z</time></trkpt><trkpt lat="43.3780376" lon="12.3726639"><ele>362.0</ele><time>2026-05-03T08:22:34.026Z</time></trkpt><trkpt lat="43.3780827" lon="12.3728086"><ele>362.5</ele><time>2026-05-03T08:22:35.026Z</time></trkpt><trkpt lat="43.3781857" lon="12.3729436"><ele>363.0</ele><time>2026-05-03T08:22:36.026Z</time></trkpt><trkpt lat="43.3783148" lon="12.3730732"><ele>360.3333333333333</ele><time>2026-05-03T08:22:37.026Z</time></trkpt><trkpt lat="43.3784674" lon="12.3732071"><ele>357.66666666666663</ele><time>2026-05-03T08:22:38.027Z</time></trkpt><trkpt lat="43.3786301" lon="12.3733452"><ele>355.0</ele><time>2026-05-03T08:22:39.026Z</time></trkpt><trkpt lat="43.3787851" lon="12.3734868"><ele>362.3333333333333</ele><time>2026-05-03T08:22:40.026Z</time></trkpt><trkpt lat="43.3789273" lon="12.3736094"><ele>369.6666666666667</ele><time>2026-05-03T08:22:41.026Z</time></trkpt><trkpt lat="43.3790675" lon="12.3736947"><ele>377.0</ele><time>2026-05-03T08:22:42.026Z</time></trkpt><trkpt lat="43.3792148" lon="12.3737384"><ele>377.0</ele><time>2026-05-03T08:22:43.027Z</time></trkpt><trkpt lat="43.3793496" lon="12.3737449"><ele>377.0</ele><time>2026-05-03T08:22:44.026Z</time></trkpt><trkpt lat="43.3794656" lon="12.3737434"><ele>377.0</ele><time>2026-05-03T08:22:45.026Z</time></trkpt><trkpt lat="43.3795654" lon="12.3737532"><ele>377.0</ele><time>2026-05-03T08:22:46.026Z</time></trkpt><trkpt lat="43.3796328" lon="12.3738128"><ele>377.0</ele><time>2026-05-03T08:22:47.026Z</time></trkpt><trkpt lat="43.3796728" lon="12.3738957"><ele>374.40000000000003</ele><time>2026-05-03T08:22:48.026Z</time></trkpt><trkpt lat="43.3796666" lon="12.3739972"><ele>371.8</ele><time>2026-05-03T08:22:49.026Z</time></trkpt><trkpt lat="43.3796194" lon="12.3740916"><ele>369.2</ele><time>2026-05-03T08:22:50.026Z</time></trkpt><trkpt lat="43.3795353" lon="12.3741618"><ele>366.6</ele><time>2026-05-03T08:22:51.026Z</time></trkpt><trkpt lat="43.3794217" lon="12.3742144"><ele>364.0</ele><time>2026-05-03T08:22:52.027Z</time></trkpt><trkpt lat="43.379303" lon="12.3742691"><ele>364.0</ele><time>2026-05-03T08:22:53.026Z</time></trkpt><trkpt lat="43.3792047" lon="12.3743073"><ele>364.0</ele><time>2026-05-03T08:22:54.026Z</time></trkpt><trkpt lat="43.3791212" lon="12.3743523"><ele>364.0</ele><time>2026-05-03T08:22:55.027Z</time></trkpt><trkpt lat="43.379059" lon="12.3744216"><ele>364.0</ele><time>2026-05-03T08:22:56.026Z</time></trkpt><trkpt lat="43.3790314" lon="12.3745198"><ele>364.0</ele><time>2026-05-03T08:22:57.026Z</time></trkpt><trkpt lat="43.3790527" lon="12.3746261"><ele>364.0</ele><time>2026-05-03T08:22:58.026Z</time></trkpt><trkpt lat="43.3791295" lon="12.3747136"><ele>363.0</ele><time>2026-05-03T08:22:59.026Z</time></trkpt><trkpt lat="43.3792463" lon="12.3747905"><ele>362.0</ele><time>2026-05-03T08:23:00.026Z</time></trkpt><trkpt lat="43.3793911" lon="12.3748788"><ele>361.0</ele><time>2026-05-03T08:23:01.026Z</time></trkpt><trkpt lat="43.3795454" lon="12.3749876"><ele>361.0</ele><time>2026-05-03T08:23:02.026Z</time></trkpt><trkpt lat="43.3796814" lon="12.3751004"><ele>361.0</ele><time>2026-05-03T08:23:03.026Z</time></trkpt><trkpt lat="43.3797979" lon="12.3752251"><ele>361.0</ele><time>2026-05-03T08:23:04.026Z</time></trkpt><trkpt lat="43.3799036" lon="12.3753786"><ele>364.3333333333333</ele><time>2026-05-03T08:23:05.026Z</time></trkpt><trkpt lat="43.3800177" lon="12.3755691"><ele>367.6666666666667</ele><time>2026-05-03T08:23:06.026Z</time></trkpt><trkpt lat="43.3801341" lon="12.3757787"><ele>371.0</ele><time>2026-05-03T08:23:07.026Z</time></trkpt><trkpt lat="43.3802328" lon="12.3759808"><ele>371.0</ele><time>2026-05-03T08:23:08.026Z</time></trkpt><trkpt lat="43.3803167" lon="12.3761788"><ele>371.0</ele><time>2026-05-03T08:23:09.026Z</time></trkpt><trkpt lat="43.3803718" lon="12.376392"><ele>371.0</ele><time>2026-05-03T08:23:10.026Z</time></trkpt><trkpt lat="43.3804061" lon="12.3766165"><ele>373.6666666666667</ele><time>2026-05-03T08:23:11.026Z</time></trkpt><trkpt lat="43.3804294" lon="12.3768619"><ele>376.3333333333333</ele><time>2026-05-03T08:23:12.026Z</time></trkpt><trkpt lat="43.3804755" lon="12.3771239"><ele>379.0</ele><time>2026-05-03T08:23:13.026Z</time></trkpt><trkpt lat="43.3805405" lon="12.3773807"><ele>379.0</ele><time>2026-05-03T08:23:14.026Z</time></trkpt><trkpt lat="43.3806278" lon="12.3776425"><ele>379.0</ele><time>2026-05-03T08:23:15.026Z</time></trkpt><trkpt lat="43.3806998" lon="12.3778935"><ele>379.0</ele><time>2026-05-03T08:23:16.026Z</time></trkpt><trkpt lat="43.3807723" lon="12.3781233"><ele>375.66666666666663</ele><time>2026-05-03T08:23:17.026Z</time></trkpt><trkpt lat="43.3808366" lon="12.3783558"><ele>372.3333333333333</ele><time>2026-05-03T08:23:18.026Z</time></trkpt><trkpt lat="43.3808948" lon="12.37858"><ele>369.0</ele><time>2026-05-03T08:23:19.026Z</time></trkpt><trkpt lat="43.3809509" lon="12.378798"><ele>368.3333333333333</ele><time>2026-05-03T08:23:20.026Z</time></trkpt><trkpt lat="43.3810047" lon="12.3790085"><ele>367.66666666666663</ele><time>2026-05-03T08:23:21.027Z</time></trkpt><trkpt lat="43.3810538" lon="12.3792149"><ele>367.0</ele><time>2026-05-03T08:23:22.027Z</time></trkpt><trkpt lat="43.3810913" lon="12.3794241"><ele>367.0</ele><time>2026-05-03T08:23:23.026Z</time></trkpt><trkpt lat="43.381131" lon="12.3796252"><ele>367.0</ele><time>2026-05-03T08:23:24.026Z</time></trkpt><trkpt lat="43.3811632" lon="12.3798226"><ele>367.0</ele><time>2026-05-03T08:23:25.026Z</time></trkpt><trkpt lat="43.3811952" lon="12.3800026"><ele>367.0</ele><time>2026-05-03T08:23:26.026Z</time></trkpt><trkpt lat="43.381235" lon="12.3801757"><ele>367.25</ele><time>2026-05-03T08:23:27.026Z</time></trkpt><trkpt lat="43.3812987" lon="12.3803299"><ele>367.5</ele><time>2026-05-03T08:23:28.026Z</time></trkpt><trkpt lat="43.3813898" lon="12.3804847"><ele>367.75</ele><time>2026-05-03T08:23:29.026Z</time></trkpt><trkpt lat="43.3814965" lon="12.3806393"><ele>368.0</ele><time>2026-05-03T08:23:30.026Z</time></trkpt><trkpt lat="43.3816065" lon="12.3808058"><ele>368.0</ele><time>2026-05-03T08:23:31.026Z</time></trkpt><trkpt lat="43.3817054" lon="12.3810063"><ele>368.0</ele><time>2026-05-03T08:23:32.026Z</time></trkpt><trkpt lat="43.3817918" lon="12.381239"><ele>368.0</ele><time>2026-05-03T08:23:33.027Z</time></trkpt><trkpt lat="43.3818723" lon="12.381511"><ele>366.6666666666667</ele><time>2026-05-03T08:23:34.026Z</time></trkpt><trkpt lat="43.381949" lon="12.3818111"><ele>365.3333333333333</ele><time>2026-05-03T08:23:35.026Z</time></trkpt><trkpt lat="43.3820148" lon="12.3820907"><ele>364.0</ele><time>2026-05-03T08:23:36.027Z</time></trkpt><trkpt lat="43.382076" lon="12.382359"><ele>362.3333333333333</ele><time>2026-05-03T08:23:37.026Z</time></trkpt><trkpt lat="43.3821411" lon="12.3826112"><ele>360.6666666666667</ele><time>2026-05-03T08:23:38.026Z</time></trkpt><trkpt lat="43.3822116" lon="12.3828397"><ele>359.0</ele><time>2026-05-03T08:23:39.026Z</time></trkpt><trkpt lat="43.3822855" lon="12.3830516"><ele>362.33333333333337</ele><time>2026-05-03T08:23:40.026Z</time></trkpt><trkpt lat="43.3823474" lon="12.3832507"><ele>365.6666666666667</ele><time>2026-05-03T08:23:41.027Z</time></trkpt><trkpt lat="43.3824245" lon="12.3834403"><ele>369.0</ele><time>2026-05-03T08:23:42.026Z</time></trkpt><trkpt lat="43.3825226" lon="12.3836166"><ele>369.0</ele><time>2026-05-03T08:23:43.026Z</time></trkpt><trkpt lat="43.382625" lon="12.383799"><ele>369.0</ele><time>2026-05-03T08:23:44.026Z</time></trkpt><trkpt lat="43.3827451" lon="12.383967"><ele>369.0</ele><time>2026-05-03T08:23:45.026Z</time></trkpt><trkpt lat="43.3828745" lon="12.3841357"><ele>367.3333333333333</ele><time>2026-05-03T08:23:46.026Z</time></trkpt><trkpt lat="43.3830049" lon="12.3843015"><ele>365.66666666666663</ele><time>2026-05-03T08:23:47.026Z</time></trkpt><trkpt lat="43.3831458" lon="12.3844595"><ele>364.0</ele><time>2026-05-03T08:23:48.026Z</time></trkpt><trkpt lat="43.3832865" lon="12.3846192"><ele>367.3333333333333</ele><time>2026-05-03T08:23:49.026Z</time></trkpt><trkpt lat="43.383425" lon="12.384778"><ele>370.6666666666667</ele><time>2026-05-03T08:23:50.026Z</time></trkpt><trkpt lat="43.3835638" lon="12.3849341"><ele>374.0</ele><time>2026-05-03T08:23:51.026Z</time></trkpt><trkpt lat="43.38369" lon="12.3850747"><ele>374.0</ele><time>2026-05-03T08:23:52.026Z</time></trkpt><trkpt lat="43.3838071" lon="12.3852018"><ele>374.0</ele><time>2026-05-03T08:23:53.027Z</time></trkpt><trkpt lat="43.3839207" lon="12.3853266"><ele>374.0</ele><time>2026-05-03T08:23:54.026Z</time></trkpt><trkpt lat="43.3840173" lon="12.3854666"><ele>374.0</ele><time>2026-05-03T08:23:55.026Z</time></trkpt><trkpt lat="43.3840988" lon="12.3856316"><ele>375.6666666666667</ele><time>2026-05-03T08:23:56.026Z</time></trkpt><trkpt lat="43.3841765" lon="12.3858097"><ele>377.3333333333333</ele><time>2026-05-03T08:23:57.026Z</time></trkpt><trkpt lat="43.3842543" lon="12.3860073"><ele>379.0</ele><time>2026-05-03T08:23:58.026Z</time></trkpt><trkpt lat="43.3843353" lon="12.3862153"><ele>376.66666666666663</ele><time>2026-05-03T08:23:59.026Z</time></trkpt><trkpt lat="43.3844173" lon="12.3864286"><ele>374.3333333333333</ele><time>2026-05-03T08:24:00.026Z</time></trkpt><trkpt lat="43.3844981" lon="12.3866444"><ele>372.0</ele><time>2026-05-03T08:24:01.026Z</time></trkpt><trkpt lat="43.3845715" lon="12.3868689"><ele>372.0</ele><time>2026-05-03T08:24:02.026Z</time></trkpt><trkpt lat="43.3846385" lon="12.387098"><ele>372.0</ele><time>2026-05-03T08:24:03.026Z</time></trkpt><trkpt lat="43.3847006" lon="12.3873311"><ele>372.0</ele><time>2026-05-03T08:24:04.026Z</time></trkpt><trkpt lat="43.3847573" lon="12.3875619"><ele>374.0</ele><time>2026-05-03T08:24:05.026Z</time></trkpt><trkpt lat="43.3848174" lon="12.3877852"><ele>376.0</ele><time>2026-05-03T08:24:06.026Z</time></trkpt><trkpt lat="43.3848714" lon="12.3879875"><ele>378.0</ele><time>2026-05-03T08:24:07.026Z</time></trkpt><trkpt lat="43.3849224" lon="12.3881709"><ele>378.0</ele><time>2026-05-03T08:24:08.026Z</time></trkpt><trkpt lat="43.384966" lon="12.388339"><ele>378.0</ele><time>2026-05-03T08:24:09.026Z</time></trkpt><trkpt lat="43.3849941" lon="12.3884948"><ele>378.0</ele><time>2026-05-03T08:24:10.026Z</time></trkpt><trkpt lat="43.3849854" lon="12.3886516"><ele>378.0</ele><time>2026-05-03T08:24:11.026Z</time></trkpt><trkpt lat="43.384952" lon="12.3887924"><ele>378.0</ele><time>2026-05-03T08:24:12.026Z</time></trkpt><trkpt lat="43.3848577" lon="12.3889167"><ele>378.0</ele><time>2026-05-03T08:24:13.026Z</time></trkpt><trkpt lat="43.3847661" lon="12.3890049"><ele>378.0</ele><time>2026-05-03T08:24:14.026Z</time></trkpt><trkpt lat="43.3846891" lon="12.3891064"><ele>378.0</ele><time>2026-05-03T08:24:15.026Z</time></trkpt><trkpt lat="43.3846291" lon="12.3892292"><ele>375.5</ele><time>2026-05-03T08:24:16.027Z</time></trkpt><trkpt lat="43.3846061" lon="12.3894042"><ele>373.0</ele><time>2026-05-03T08:24:17.026Z</time></trkpt><trkpt lat="43.3845825" lon="12.3895926"><ele>370.5</ele><time>2026-05-03T08:24:18.026Z</time></trkpt><trkpt lat="43.3845701" lon="12.3897831"><ele>368.0</ele><time>2026-05-03T08:24:19.026Z</time></trkpt><trkpt lat="43.3845768" lon="12.3899546"><ele>368.0</ele><time>2026-05-03T08:24:20.026Z</time></trkpt><trkpt lat="43.3846113" lon="12.3901094"><ele>368.0</ele><time>2026-05-03T08:24:21.026Z</time></trkpt><trkpt lat="43.3846913" lon="12.3902379"><ele>368.0</ele><time>2026-05-03T08:24:22.026Z</time></trkpt><trkpt lat="43.3848111" lon="12.3903326"><ele>368.0</ele><time>2026-05-03T08:24:23.026Z</time></trkpt><trkpt lat="43.3849418" lon="12.3904226"><ele>369.6666666666667</ele><time>2026-05-03T08:24:24.026Z</time></trkpt><trkpt lat="43.3850828" lon="12.3905156"><ele>371.3333333333333</ele><time>2026-05-03T08:24:25.026Z</time></trkpt><trkpt lat="43.3852381" lon="12.3906125"><ele>373.0</ele><time>2026-05-03T08:24:26.026Z</time></trkpt><trkpt lat="43.3853956" lon="12.390705"><ele>380.0</ele><time>2026-05-03T08:24:27.026Z</time></trkpt><trkpt lat="43.3855553" lon="12.3908015"><ele>387.0</ele><time>2026-05-03T08:24:28.026Z</time></trkpt><trkpt lat="43.3857081" lon="12.3909205"><ele>394.0</ele><time>2026-05-03T08:24:29.026Z</time></trkpt><trkpt lat="43.3858442" lon="12.3910759"><ele>394.0</ele><time>2026-05-03T08:24:30.027Z</time></trkpt><trkpt lat="43.3859727" lon="12.3912464"><ele>394.0</ele><time>2026-05-03T08:24:31.026Z</time></trkpt><trkpt lat="43.3860836" lon="12.3914394"><ele>394.0</ele><time>2026-05-03T08:24:32.026Z</time></trkpt><trkpt lat="43.3861746" lon="12.3916471"><ele>389.0</ele><time>2026-05-03T08:24:33.026Z</time></trkpt><trkpt lat="43.3862468" lon="12.3918657"><ele>384.0</ele><time>2026-05-03T08:24:34.026Z</time></trkpt><trkpt lat="43.3862962" lon="12.3921"><ele>379.0</ele><time>2026-05-03T08:24:35.026Z</time></trkpt><trkpt lat="43.3863292" lon="12.3923279"><ele>382.5</ele><time>2026-05-03T08:24:36.026Z</time></trkpt><trkpt lat="43.38636" lon="12.3925352"><ele>386.0</ele><time>2026-05-03T08:24:37.026Z</time></trkpt><trkpt lat="43.3863962" lon="12.392721"><ele>389.5</ele><time>2026-05-03T08:24:38.026Z</time></trkpt><trkpt lat="43.3864496" lon="12.3928795"><ele>393.0</ele><time>2026-05-03T08:24:39.026Z</time></trkpt><trkpt lat="43.3865323" lon="12.3930103"><ele>393.0</ele><time>2026-05-03T08:24:40.026Z</time></trkpt><trkpt lat="43.386644" lon="12.3931002"><ele>393.0</ele><time>2026-05-03T08:24:41.026Z</time></trkpt><trkpt lat="43.3867889" lon="12.3931564"><ele>393.0</ele><time>2026-05-03T08:24:42.026Z</time></trkpt><trkpt lat="43.3869552" lon="12.3931924"><ele>393.0</ele><time>2026-05-03T08:24:43.026Z</time></trkpt><trkpt lat="43.3871262" lon="12.3932041"><ele>395.33333333333337</ele><time>2026-05-03T08:24:44.026Z</time></trkpt><trkpt lat="43.3873126" lon="12.3931818"><ele>397.6666666666667</ele><time>2026-05-03T08:24:45.026Z</time></trkpt><trkpt lat="43.3875047" lon="12.3931328"><ele>400.0</ele><time>2026-05-03T08:24:46.026Z</time></trkpt><trkpt lat="43.3876691" lon="12.3930578"><ele>406.33333333333337</ele><time>2026-05-03T08:24:47.026Z</time></trkpt><trkpt lat="43.3878217" lon="12.3929787"><ele>412.66666666666663</ele><time>2026-05-03T08:24:48.026Z</time></trkpt><trkpt lat="43.3879692" lon="12.3929207"><ele>419.0</ele><time>2026-05-03T08:24:49.027Z</time></trkpt><trkpt lat="43.3881129" lon="12.3928818"><ele>419.0</ele><time>2026-05-03T08:24:50.026Z</time></trkpt><trkpt lat="43.3882641" lon="12.3928514"><ele>419.0</ele><time>2026-05-03T08:24:51.026Z</time></trkpt><trkpt lat="43.3883997" lon="12.3928385"><ele>419.0</ele><time>2026-05-03T08:24:52.026Z</time></trkpt><trkpt lat="43.3885243" lon="12.3928388"><ele>419.0</ele><time>2026-05-03T08:24:53.027Z</time></trkpt><trkpt lat="43.3886196" lon="12.3928666"><ele>419.0</ele><time>2026-05-03T08:24:54.027Z</time></trkpt><trkpt lat="43.3886993" lon="12.3929278"><ele>419.0</ele><time>2026-05-03T08:24:55.026Z</time></trkpt><trkpt lat="43.3887503" lon="12.393025"><ele>419.0</ele><time>2026-05-03T08:24:56.026Z</time></trkpt><trkpt lat="43.3888017" lon="12.3931216"><ele>419.0</ele><time>2026-05-03T08:24:57.026Z</time></trkpt><trkpt lat="43.3887413" lon="12.3933039"><ele>419.0</ele><time>2026-05-03T08:24:58.026Z</time></trkpt><trkpt lat="43.3887054" lon="12.3934699"><ele>414.25</ele><time>2026-05-03T08:24:59.026Z</time></trkpt><trkpt lat="43.3886535" lon="12.3936302"><ele>409.5</ele><time>2026-05-03T08:25:00.026Z</time></trkpt><trkpt lat="43.388604" lon="12.3937857"><ele>404.75</ele><time>2026-05-03T08:25:01.027Z</time></trkpt><trkpt lat="43.3885698" lon="12.393947"><ele>400.0</ele><time>2026-05-03T08:25:02.026Z</time></trkpt><trkpt lat="43.3885624" lon="12.3941198"><ele>398.5</ele><time>2026-05-03T08:25:03.026Z</time></trkpt><trkpt lat="43.3885895" lon="12.394302"><ele>397.0</ele><time>2026-05-03T08:25:04.026Z</time></trkpt><trkpt lat="43.3886287" lon="12.3944683"><ele>395.5</ele><time>2026-05-03T08:25:05.026Z</time></trkpt><trkpt lat="43.3886711" lon="12.3946269"><ele>394.0</ele><time>2026-05-03T08:25:06.026Z</time></trkpt><trkpt lat="43.3887314" lon="12.3947875"><ele>392.5</ele><time>2026-05-03T08:25:07.026Z</time></trkpt><trkpt lat="43.3888113" lon="12.3949394"><ele>391.0</ele><time>2026-05-03T08:25:08.026Z</time></trkpt><trkpt lat="43.3889113" lon="12.39508"><ele>389.5</ele><time>2026-05-03T08:25:09.026Z</time></trkpt><trkpt lat="43.3890197" lon="12.3952162"><ele>388.0</ele><time>2026-05-03T08:25:10.026Z</time></trkpt><trkpt lat="43.3891317" lon="12.3953474"><ele>389.25</ele><time>2026-05-03T08:25:11.026Z</time></trkpt><trkpt lat="43.3892393" lon="12.3954729"><ele>390.5</ele><time>2026-05-03T08:25:12.026Z</time></trkpt><trkpt lat="43.3893515" lon="12.395609"><ele>391.75</ele><time>2026-05-03T08:25:13.027Z</time></trkpt><trkpt lat="43.389453" lon="12.395759"><ele>393.0</ele><time>2026-05-03T08:25:14.026Z</time></trkpt><trkpt lat="43.3895471" lon="12.3959141"><ele>393.0</ele><time>2026-05-03T08:25:15.026Z</time></trkpt><trkpt lat="43.3896413" lon="12.3960607"><ele>393.0</ele><time>2026-05-03T08:25:16.027Z</time></trkpt><trkpt lat="43.3897498" lon="12.3961977"><ele>393.0</ele><time>2026-05-03T08:25:17.027Z</time></trkpt><trkpt lat="43.3898817" lon="12.396323"><ele>391.66666666666663</ele><time>2026-05-03T08:25:18.027Z</time></trkpt><trkpt lat="43.3900303" lon="12.396433"><ele>390.3333333333333</ele><time>2026-05-03T08:25:19.026Z</time></trkpt><trkpt lat="43.3901723" lon="12.3965281"><ele>389.0</ele><time>2026-05-03T08:25:20.026Z</time></trkpt><trkpt lat="43.3903149" lon="12.3966082"><ele>389.0</ele><time>2026-05-03T08:25:21.027Z</time></trkpt><trkpt lat="43.3904483" lon="12.3966722"><ele>389.0</ele><time>2026-05-03T08:25:22.027Z</time></trkpt><trkpt lat="43.3905578" lon="12.3967449"><ele>389.0</ele><time>2026-05-03T08:25:23.026Z</time></trkpt><trkpt lat="43.3906502" lon="12.3968439"><ele>389.0</ele><time>2026-05-03T08:25:24.026Z</time></trkpt><trkpt lat="43.3907306" lon="12.396983"><ele>389.75</ele><time>2026-05-03T08:25:25.026Z</time></trkpt><trkpt lat="43.3907867" lon="12.3971505"><ele>390.5</ele><time>2026-05-03T08:25:26.026Z</time></trkpt><trkpt lat="43.3908291" lon="12.3973228"><ele>391.25</ele><time>2026-05-03T08:25:27.026Z</time></trkpt><trkpt lat="43.3908666" lon="12.3975003"><ele>392.0</ele><time>2026-05-03T08:25:28.027Z</time></trkpt><trkpt lat="43.3909027" lon="12.3976811"><ele>392.0</ele><time>2026-05-03T08:25:29.026Z</time></trkpt><trkpt lat="43.3909404" lon="12.397856"><ele>392.0</ele><time>2026-05-03T08:25:30.026Z</time></trkpt><trkpt lat="43.3909676" lon="12.3980246"><ele>392.0</ele><time>2026-05-03T08:25:31.026Z</time></trkpt><trkpt lat="43.3909622" lon="12.3982012"><ele>392.0</ele><time>2026-05-03T08:25:32.026Z</time></trkpt><trkpt lat="43.3909163" lon="12.3983895"><ele>391.66666666666663</ele><time>2026-05-03T08:25:33.026Z</time></trkpt><trkpt lat="43.3908451" lon="12.3985782"><ele>391.33333333333337</ele><time>2026-05-03T08:25:34.026Z</time></trkpt><trkpt lat="43.390754" lon="12.39877"><ele>391.0</ele><time>2026-05-03T08:25:35.026Z</time></trkpt><trkpt lat="43.3906639" lon="12.3989713"><ele>392.75</ele><time>2026-05-03T08:25:36.026Z</time></trkpt><trkpt lat="43.3905804" lon="12.3991533"><ele>394.5</ele><time>2026-05-03T08:25:37.026Z</time></trkpt><trkpt lat="43.3905004" lon="12.3993223"><ele>396.25</ele><time>2026-05-03T08:25:38.026Z</time></trkpt><trkpt lat="43.3904327" lon="12.3994803"><ele>398.0</ele><time>2026-05-03T08:25:39.026Z</time></trkpt><trkpt lat="43.3903792" lon="12.3996479"><ele>395.25</ele><time>2026-05-03T08:25:40.026Z</time></trkpt><trkpt lat="43.390351" lon="12.3998326"><ele>392.5</ele><time>2026-05-03T08:25:41.026Z</time></trkpt><trkpt lat="43.390354" lon="12.400038"><ele>389.75</ele><time>2026-05-03T08:25:42.026Z</time></trkpt><trkpt lat="43.390375" lon="12.4002555"><ele>387.0</ele><time>2026-05-03T08:25:43.026Z</time></trkpt><trkpt lat="43.390401" lon="12.4004818"><ele>388.66666666666663</ele><time>2026-05-03T08:25:44.026Z</time></trkpt><trkpt lat="43.3904296" lon="12.4007158"><ele>390.3333333333333</ele><time>2026-05-03T08:25:45.026Z</time></trkpt><trkpt lat="43.3904664" lon="12.4009546"><ele>392.0</ele><time>2026-05-03T08:25:46.026Z</time></trkpt><trkpt lat="43.390507" lon="12.4011983"><ele>397.66666666666663</ele><time>2026-05-03T08:25:47.026Z</time></trkpt><trkpt lat="43.390538" lon="12.4014362"><ele>403.33333333333337</ele><time>2026-05-03T08:25:48.026Z</time></trkpt><trkpt lat="43.3905677" lon="12.401657"><ele>409.0</ele><time>2026-05-03T08:25:49.027Z</time></trkpt><trkpt lat="43.3905924" lon="12.4018624"><ele>409.0</ele><time>2026-05-03T08:25:50.026Z</time></trkpt><trkpt lat="43.3906139" lon="12.402056"><ele>409.0</ele><time>2026-05-03T08:25:51.026Z</time></trkpt><trkpt lat="43.3906206" lon="12.4022415"><ele>409.0</ele><time>2026-05-03T08:25:52.026Z</time></trkpt><trkpt lat="43.3905997" lon="12.4024425"><ele>409.0</ele><time>2026-05-03T08:25:53.026Z</time></trkpt><trkpt lat="43.3905433" lon="12.4026412"><ele>403.6666666666667</ele><time>2026-05-03T08:25:54.026Z</time></trkpt><trkpt lat="43.3904583" lon="12.4028394"><ele>398.33333333333337</ele><time>2026-05-03T08:25:55.026Z</time></trkpt><trkpt lat="43.3903555" lon="12.4030475"><ele>393.0</ele><time>2026-05-03T08:25:56.026Z</time></trkpt><trkpt lat="43.3902497" lon="12.4032694"><ele>393.0</ele><time>2026-05-03T08:25:57.027Z</time></trkpt><trkpt lat="43.3901507" lon="12.4034713"><ele>393.0</ele><time>2026-05-03T08:25:58.027Z</time></trkpt><trkpt lat="43.3900564" lon="12.403661"><ele>393.0</ele><time>2026-05-03T08:25:59.026Z</time></trkpt><trkpt lat="43.3899751" lon="12.40384"><ele>393.0</ele><time>2026-05-03T08:26:00.026Z</time></trkpt><trkpt lat="43.389918" lon="12.4040195"><ele>393.0</ele><time>2026-05-03T08:26:01.026Z</time></trkpt><trkpt lat="43.3898871" lon="12.4042141"><ele>393.0</ele><time>2026-05-03T08:26:02.026Z</time></trkpt><trkpt lat="43.3898954" lon="12.4044151"><ele>393.0</ele><time>2026-05-03T08:26:03.026Z</time></trkpt><trkpt lat="43.3899432" lon="12.40461"><ele>392.66666666666663</ele><time>2026-05-03T08:26:04.026Z</time></trkpt><trkpt lat="43.3900221" lon="12.4048019"><ele>392.3333333333333</ele><time>2026-05-03T08:26:05.026Z</time></trkpt><trkpt lat="43.3901098" lon="12.404994"><ele>392.0</ele><time>2026-05-03T08:26:06.026Z</time></trkpt><trkpt lat="43.3901966" lon="12.405179"><ele>392.0</ele><time>2026-05-03T08:26:07.026Z</time></trkpt><trkpt lat="43.3902679" lon="12.4053663"><ele>392.0</ele><time>2026-05-03T08:26:08.026Z</time></trkpt><trkpt lat="43.3903057" lon="12.4055756"><ele>392.0</ele><time>2026-05-03T08:26:09.027Z</time></trkpt><trkpt lat="43.3903277" lon="12.4057931"><ele>391.66666666666663</ele><time>2026-05-03T08:26:10.026Z</time></trkpt><trkpt lat="43.3903135" lon="12.406034"><ele>391.33333333333337</ele><time>2026-05-03T08:26:11.026Z</time></trkpt><trkpt lat="43.3903067" lon="12.4062589"><ele>391.0</ele><time>2026-05-03T08:26:12.026Z</time></trkpt><trkpt lat="43.3903152" lon="12.4064965"><ele>390.6666666666667</ele><time>2026-05-03T08:26:13.026Z</time></trkpt><trkpt lat="43.3903523" lon="12.4067357"><ele>390.33333333333337</ele><time>2026-05-03T08:26:14.026Z</time></trkpt><trkpt lat="43.3904043" lon="12.4069713"><ele>390.0</ele><time>2026-05-03T08:26:15.026Z</time></trkpt><trkpt lat="43.3904516" lon="12.4071804"><ele>389.75</ele><time>2026-05-03T08:26:16.027Z</time></trkpt><trkpt lat="43.3904907" lon="12.4073741"><ele>389.5</ele><time>2026-05-03T08:26:17.026Z</time></trkpt><trkpt lat="43.3905134" lon="12.4075634"><ele>389.25</ele><time>2026-05-03T08:26:18.026Z</time></trkpt><trkpt lat="43.3905097" lon="12.4077537"><ele>389.0</ele><time>2026-05-03T08:26:19.026Z</time></trkpt><trkpt lat="43.3904922" lon="12.4079458"><ele>389.75</ele><time>2026-05-03T08:26:20.026Z</time></trkpt><trkpt lat="43.3904704" lon="12.4081411"><ele>390.5</ele><time>2026-05-03T08:26:21.026Z</time></trkpt><trkpt lat="43.3904501" lon="12.4083387"><ele>391.25</ele><time>2026-05-03T08:26:22.026Z</time></trkpt><trkpt lat="43.3904325" lon="12.4085463"><ele>392.0</ele><time>2026-05-03T08:26:23.026Z</time></trkpt><trkpt lat="43.3904145" lon="12.4087684"><ele>392.66666666666663</ele><time>2026-05-03T08:26:24.027Z</time></trkpt><trkpt lat="43.3903977" lon="12.4089939"><ele>393.33333333333337</ele><time>2026-05-03T08:26:25.026Z</time></trkpt><trkpt lat="43.3903833" lon="12.4092213"><ele>394.0</ele><time>2026-05-03T08:26:26.026Z</time></trkpt><trkpt lat="43.3903704" lon="12.4094498"><ele>393.6666666666667</ele><time>2026-05-03T08:26:27.026Z</time></trkpt><trkpt lat="43.3903614" lon="12.4096826"><ele>393.33333333333337</ele><time>2026-05-03T08:26:28.027Z</time></trkpt><trkpt lat="43.3903502" lon="12.4099179"><ele>393.0</ele><time>2026-05-03T08:26:29.027Z</time></trkpt><trkpt lat="43.3903365" lon="12.4101561"><ele>393.0</ele><time>2026-05-03T08:26:30.026Z</time></trkpt><trkpt lat="43.39032" lon="12.4103989"><ele>393.0</ele><time>2026-05-03T08:26:31.026Z</time></trkpt><trkpt lat="43.3902937" lon="12.4106435"><ele>393.0</ele><time>2026-05-03T08:26:32.026Z</time></trkpt><trkpt lat="43.3902593" lon="12.4108876"><ele>393.33333333333337</ele><time>2026-05-03T08:26:33.026Z</time></trkpt><trkpt lat="43.3902199" lon="12.4111339"><ele>393.6666666666667</ele><time>2026-05-03T08:26:34.026Z</time></trkpt><trkpt lat="43.3901807" lon="12.4113828"><ele>394.0</ele><time>2026-05-03T08:26:35.027Z</time></trkpt><trkpt lat="43.3901391" lon="12.4116327"><ele>396.0</ele><time>2026-05-03T08:26:36.026Z</time></trkpt><trkpt lat="43.390098" lon="12.4118832"><ele>398.0</ele><time>2026-05-03T08:26:37.026Z</time></trkpt><trkpt lat="43.3900541" lon="12.4121331"><ele>400.0</ele><time>2026-05-03T08:26:38.026Z</time></trkpt><trkpt lat="43.3900189" lon="12.4123693"><ele>400.6666666666667</ele><time>2026-05-03T08:26:39.026Z</time></trkpt><trkpt lat="43.3899958" lon="12.4125919"><ele>401.33333333333337</ele><time>2026-05-03T08:26:40.026Z</time></trkpt><trkpt lat="43.3899885" lon="12.4128092"><ele>402.0</ele><time>2026-05-03T08:26:41.027Z</time></trkpt><trkpt lat="43.3900405" lon="12.4130022"><ele>402.0</ele><time>2026-05-03T08:26:42.026Z</time></trkpt><trkpt lat="43.3901179" lon="12.4131927"><ele>402.0</ele><time>2026-05-03T08:26:43.026Z</time></trkpt><trkpt lat="43.3902335" lon="12.4133633"><ele>402.0</ele><time>2026-05-03T08:26:44.026Z</time></trkpt><trkpt lat="43.3903805" lon="12.4135179"><ele>406.0</ele><time>2026-05-03T08:26:45.026Z</time></trkpt><trkpt lat="43.3905374" lon="12.4136695"><ele>410.0</ele><time>2026-05-03T08:26:46.026Z</time></trkpt><trkpt lat="43.3906849" lon="12.4138274"><ele>414.0</ele><time>2026-05-03T08:26:47.026Z</time></trkpt><trkpt lat="43.3908237" lon="12.4139915"><ele>414.0</ele><time>2026-05-03T08:26:48.026Z</time></trkpt><trkpt lat="43.3909484" lon="12.4141734"><ele>414.0</ele><time>2026-05-03T08:26:49.026Z</time></trkpt><trkpt lat="43.391064" lon="12.4143666"><ele>414.0</ele><time>2026-05-03T08:26:50.026Z</time></trkpt><trkpt lat="43.391161" lon="12.4145492"><ele>409.66666666666663</ele><time>2026-05-03T08:26:51.026Z</time></trkpt><trkpt lat="43.3912474" lon="12.4147243"><ele>405.3333333333333</ele><time>2026-05-03T08:26:52.026Z</time></trkpt><trkpt lat="43.3913059" lon="12.4149076"><ele>401.0</ele><time>2026-05-03T08:26:53.026Z</time></trkpt><trkpt lat="43.3913394" lon="12.4151103"><ele>401.0</ele><time>2026-05-03T08:26:54.026Z</time></trkpt><trkpt lat="43.3913454" lon="12.4153347"><ele>401.0</ele><time>2026-05-03T08:26:55.026Z</time></trkpt><trkpt lat="43.3913314" lon="12.4155764"><ele>401.0</ele><time>2026-05-03T08:26:56.026Z</time></trkpt><trkpt lat="43.3913062" lon="12.4158165"><ele>401.0</ele><time>2026-05-03T08:26:57.026Z</time></trkpt><trkpt lat="43.3912811" lon="12.4160432"><ele>401.0</ele><time>2026-05-03T08:26:58.026Z</time></trkpt><trkpt lat="43.3912588" lon="12.4162608"><ele>401.0</ele><time>2026-05-03T08:26:59.026Z</time></trkpt><trkpt lat="43.3912524" lon="12.4164625"><ele>401.0</ele><time>2026-05-03T08:27:00.026Z</time></trkpt><trkpt lat="43.3912717" lon="12.416662"><ele>401.0</ele><time>2026-05-03T08:27:01.026Z</time></trkpt><trkpt lat="43.3913098" lon="12.4168606"><ele>401.0</ele><time>2026-05-03T08:27:02.026Z</time></trkpt><trkpt lat="43.3914111" lon="12.4170517"><ele>402.66666666666663</ele><time>2026-05-03T08:27:03.026Z</time></trkpt><trkpt lat="43.3915114" lon="12.4172497"><ele>404.33333333333337</ele><time>2026-05-03T08:27:04.026Z</time></trkpt><trkpt lat="43.3916182" lon="12.4174471"><ele>406.0</ele><time>2026-05-03T08:27:05.026Z</time></trkpt><trkpt lat="43.3917277" lon="12.4176402"><ele>406.0</ele><time>2026-05-03T08:27:06.026Z</time></trkpt><trkpt lat="43.3918592" lon="12.4178151"><ele>406.0</ele><time>2026-05-03T08:27:07.026Z</time></trkpt><trkpt lat="43.3920078" lon="12.4179643"><ele>406.0</ele><time>2026-05-03T08:27:08.026Z</time></trkpt><trkpt lat="43.3921682" lon="12.4180982"><ele>406.6666666666667</ele><time>2026-05-03T08:27:09.026Z</time></trkpt><trkpt lat="43.3923277" lon="12.4182193"><ele>407.33333333333337</ele><time>2026-05-03T08:27:10.026Z</time></trkpt><trkpt lat="43.3924803" lon="12.4183328"><ele>408.0</ele><time>2026-05-03T08:27:11.026Z</time></trkpt><trkpt lat="43.392622" lon="12.4184361"><ele>408.0</ele><time>2026-05-03T08:27:12.027Z</time></trkpt><trkpt lat="43.3927633" lon="12.4185207"><ele>408.0</ele><time>2026-05-03T08:27:13.027Z</time></trkpt><trkpt lat="43.3929074" lon="12.4185817"><ele>408.0</ele><time>2026-05-03T08:27:14.026Z</time></trkpt><trkpt lat="43.3930646" lon="12.4186161"><ele>409.66666666666663</ele><time>2026-05-03T08:27:15.027Z</time></trkpt><trkpt lat="43.3932252" lon="12.4186296"><ele>411.3333333333333</ele><time>2026-05-03T08:27:16.026Z</time></trkpt><trkpt lat="43.3933915" lon="12.4186394"><ele>413.0</ele><time>2026-05-03T08:27:17.026Z</time></trkpt><trkpt lat="43.3935569" lon="12.4186464"><ele>413.0</ele><time>2026-05-03T08:27:18.026Z</time></trkpt><trkpt lat="43.3937165" lon="12.4186426"><ele>413.0</ele><time>2026-05-03T08:27:19.026Z</time></trkpt><trkpt lat="43.3938737" lon="12.4186476"><ele>413.0</ele><time>2026-05-03T08:27:20.026Z</time></trkpt><trkpt lat="43.3940288" lon="12.418647"><ele>415.0</ele><time>2026-05-03T08:27:21.027Z</time></trkpt><trkpt lat="43.3941855" lon="12.4186399"><ele>417.0</ele><time>2026-05-03T08:27:22.026Z</time></trkpt><trkpt lat="43.3943439" lon="12.4186502"><ele>419.0</ele><time>2026-05-03T08:27:23.026Z</time></trkpt><trkpt lat="43.3944952" lon="12.4186508"><ele>419.0</ele><time>2026-05-03T08:27:24.026Z</time></trkpt><trkpt lat="43.3946432" lon="12.4186517"><ele>419.0</ele><time>2026-05-03T08:27:25.026Z</time></trkpt><trkpt lat="43.3947795" lon="12.4186554"><ele>419.0</ele><time>2026-05-03T08:27:26.026Z</time></trkpt><trkpt lat="43.394908" lon="12.4186931"><ele>419.0</ele><time>2026-05-03T08:27:27.026Z</time></trkpt><trkpt lat="43.3950274" lon="12.4187621"><ele>418.25</ele><time>2026-05-03T08:27:28.026Z</time></trkpt><trkpt lat="43.395134" lon="12.4188789"><ele>417.5</ele><time>2026-05-03T08:27:29.027Z</time></trkpt><trkpt lat="43.3952131" lon="12.4190335"><ele>416.75</ele><time>2026-05-03T08:27:30.026Z</time></trkpt><trkpt lat="43.395256" lon="12.4192184"><ele>416.0</ele><time>2026-05-03T08:27:31.026Z</time></trkpt><trkpt lat="43.3952653" lon="12.4194161"><ele>416.0</ele><time>2026-05-03T08:27:32.026Z</time></trkpt><trkpt lat="43.3952602" lon="12.4196219"><ele>416.0</ele><time>2026-05-03T08:27:33.026Z</time></trkpt><trkpt lat="43.3952487" lon="12.4198383"><ele>416.0</ele><time>2026-05-03T08:27:34.026Z</time></trkpt><trkpt lat="43.3952364" lon="12.4200606"><ele>415.0</ele><time>2026-05-03T08:27:35.026Z</time></trkpt><trkpt lat="43.3952209" lon="12.420286"><ele>414.0</ele><time>2026-05-03T08:27:36.026Z</time></trkpt><trkpt lat="43.3952071" lon="12.4205227"><ele>413.0</ele><time>2026-05-03T08:27:37.026Z</time></trkpt><trkpt lat="43.3951902" lon="12.4207659"><ele>413.0</ele><time>2026-05-03T08:27:38.026Z</time></trkpt><trkpt lat="43.3951728" lon="12.4209851"><ele>413.0</ele><time>2026-05-03T08:27:39.026Z</time></trkpt><trkpt lat="43.3951672" lon="12.4211918"><ele>413.0</ele><time>2026-05-03T08:27:40.027Z</time></trkpt><trkpt lat="43.3951749" lon="12.4213831"><ele>412.75</ele><time>2026-05-03T08:27:41.026Z</time></trkpt><trkpt lat="43.3952128" lon="12.4215529"><ele>412.5</ele><time>2026-05-03T08:27:42.026Z</time></trkpt><trkpt lat="43.3952843" lon="12.4217082"><ele>412.25</ele><time>2026-05-03T08:27:43.026Z</time></trkpt><trkpt lat="43.3953933" lon="12.4218352"><ele>412.0</ele><time>2026-05-03T08:27:44.026Z</time></trkpt><trkpt lat="43.3955484" lon="12.4219383"><ele>413.6666666666667</ele><time>2026-05-03T08:27:45.026Z</time></trkpt><trkpt lat="43.3957392" lon="12.4220177"><ele>415.33333333333337</ele><time>2026-05-03T08:27:46.026Z</time></trkpt><trkpt lat="43.3959663" lon="12.4220888"><ele>417.0</ele><time>2026-05-03T08:27:47.026Z</time></trkpt><trkpt lat="43.3962184" lon="12.4221684"><ele>417.0</ele><time>2026-05-03T08:27:48.026Z</time></trkpt><trkpt lat="43.3964751" lon="12.4222442"><ele>417.0</ele><time>2026-05-03T08:27:49.026Z</time></trkpt><trkpt lat="43.3967107" lon="12.4223182"><ele>417.0</ele><time>2026-05-03T08:27:50.027Z</time></trkpt><trkpt lat="43.3969344" lon="12.4223778"><ele>417.0</ele><time>2026-05-03T08:27:51.026Z</time></trkpt><trkpt lat="43.3971409" lon="12.4224313"><ele>417.0</ele><time>2026-05-03T08:27:52.026Z</time></trkpt><trkpt lat="43.3973338" lon="12.422488"><ele>421.33333333333337</ele><time>2026-05-03T08:27:53.026Z</time></trkpt><trkpt lat="43.3975183" lon="12.4225586"><ele>425.6666666666667</ele><time>2026-05-03T08:27:54.026Z</time></trkpt><trkpt lat="43.3976909" lon="12.4226449"><ele>430.0</ele><time>2026-05-03T08:27:55.026Z</time></trkpt><trkpt lat="43.3978589" lon="12.4227547"><ele>428.33333333333337</ele><time>2026-05-03T08:27:56.026Z</time></trkpt><trkpt lat="43.3980274" lon="12.422882"><ele>426.66666666666663</ele><time>2026-05-03T08:27:57.026Z</time></trkpt><trkpt lat="43.3981951" lon="12.4230171"><ele>425.0</ele><time>2026-05-03T08:27:58.026Z</time></trkpt><trkpt lat="43.3983576" lon="12.423151"><ele>425.0</ele><time>2026-05-03T08:27:59.026Z</time></trkpt><trkpt lat="43.3985183" lon="12.4232869"><ele>425.0</ele><time>2026-05-03T08:28:00.026Z</time></trkpt><trkpt lat="43.3986757" lon="12.4234214"><ele>425.0</ele><time>2026-05-03T08:28:01.026Z</time></trkpt><trkpt lat="43.398833" lon="12.4235513"><ele>424.0</ele><time>2026-05-03T08:28:02.026Z</time></trkpt><trkpt lat="43.3989931" lon="12.4236828"><ele>423.0</ele><time>2026-05-03T08:28:03.026Z</time></trkpt><trkpt lat="43.399148" lon="12.4238116"><ele>422.0</ele><time>2026-05-03T08:28:04.026Z</time></trkpt><trkpt lat="43.3993191" lon="12.4239495"><ele>422.0</ele><time>2026-05-03T08:28:05.026Z</time></trkpt><trkpt lat="43.3994866" lon="12.4240885"><ele>422.0</ele><time>2026-05-03T08:28:06.026Z</time></trkpt><trkpt lat="43.3996426" lon="12.42421"><ele>422.0</ele><time>2026-05-03T08:28:07.026Z</time></trkpt><trkpt lat="43.3997843" lon="12.4243268"><ele>422.66666666666663</ele><time>2026-05-03T08:28:08.026Z</time></trkpt><trkpt lat="43.3999128" lon="12.4244478"><ele>423.33333333333337</ele><time>2026-05-03T08:28:09.026Z</time></trkpt><trkpt lat="43.4000244" lon="12.4245908"><ele>424.0</ele><time>2026-05-03T08:28:10.026Z</time></trkpt><trkpt lat="43.4001308" lon="12.4247581"><ele>424.6666666666667</ele><time>2026-05-03T08:28:11.026Z</time></trkpt><trkpt lat="43.4002305" lon="12.424951"><ele>425.33333333333337</ele><time>2026-05-03T08:28:12.026Z</time></trkpt><trkpt lat="43.4003268" lon="12.4251641"><ele>426.0</ele><time>2026-05-03T08:28:13.026Z</time></trkpt><trkpt lat="43.4004274" lon="12.425377"><ele>431.33333333333337</ele><time>2026-05-03T08:28:14.027Z</time></trkpt><trkpt lat="43.4005161" lon="12.4255715"><ele>436.6666666666667</ele><time>2026-05-03T08:28:15.026Z</time></trkpt><trkpt lat="43.4005912" lon="12.4257595"><ele>442.0</ele><time>2026-05-03T08:28:16.026Z</time></trkpt><trkpt lat="43.400658" lon="12.4259565"><ele>442.0</ele><time>2026-05-03T08:28:17.026Z</time></trkpt><trkpt lat="43.4006682" lon="12.4261966"><ele>442.0</ele><time>2026-05-03T08:28:18.026Z</time></trkpt><trkpt lat="43.4006883" lon="12.426414"><ele>442.0</ele><time>2026-05-03T08:28:19.026Z</time></trkpt><trkpt lat="43.4007045" lon="12.4266361"><ele>441.0</ele><time>2026-05-03T08:28:20.026Z</time></trkpt><trkpt lat="43.4007506" lon="12.4268612"><ele>440.0</ele><time>2026-05-03T08:28:21.027Z</time></trkpt><trkpt lat="43.4008164" lon="12.4270838"><ele>439.0</ele><time>2026-05-03T08:28:22.026Z</time></trkpt><trkpt lat="43.4008732" lon="12.4272813"><ele>437.75</ele><time>2026-05-03T08:28:23.026Z</time></trkpt><trkpt lat="43.4009281" lon="12.4274699"><ele>436.5</ele><time>2026-05-03T08:28:24.026Z</time></trkpt><trkpt lat="43.400975" lon="12.4276421"><ele>435.25</ele><time>2026-05-03T08:28:25.026Z</time></trkpt><trkpt lat="43.4010247" lon="12.4278004"><ele>434.0</ele><time>2026-05-03T08:28:26.026Z</time></trkpt><trkpt lat="43.4010948" lon="12.4279171"><ele>436.0</ele><time>2026-05-03T08:28:27.026Z</time></trkpt><trkpt lat="43.4012006" lon="12.4279989"><ele>438.0</ele><time>2026-05-03T08:28:28.026Z</time></trkpt><trkpt lat="43.4013377" lon="12.4280501"><ele>440.0</ele><time>2026-05-03T08:28:29.027Z</time></trkpt><trkpt lat="43.4014986" lon="12.4280808"><ele>442.0</ele><time>2026-05-03T08:28:30.026Z</time></trkpt><trkpt lat="43.401646" lon="12.4280983"><ele>442.0</ele><time>2026-05-03T08:28:31.026Z</time></trkpt><trkpt lat="43.4017855" lon="12.4281123"><ele>442.0</ele><time>2026-05-03T08:28:32.026Z</time></trkpt><trkpt lat="43.401919" lon="12.4281584"><ele>442.0</ele><time>2026-05-03T08:28:33.026Z</time></trkpt><trkpt lat="43.4020569" lon="12.4282276"><ele>442.0</ele><time>2026-05-03T08:28:34.026Z</time></trkpt><trkpt lat="43.40219" lon="12.428311"><ele>442.0</ele><time>2026-05-03T08:28:35.026Z</time></trkpt><trkpt lat="43.4023292" lon="12.428402"><ele>442.0</ele><time>2026-05-03T08:28:36.026Z</time></trkpt><trkpt lat="43.4024677" lon="12.4284963"><ele>442.0</ele><time>2026-05-03T08:28:37.026Z</time></trkpt><trkpt lat="43.4026052" lon="12.4285925"><ele>442.0</ele><time>2026-05-03T08:28:38.026Z</time></trkpt><trkpt lat="43.402741" lon="12.4286852"><ele>442.0</ele><time>2026-05-03T08:28:39.026Z</time></trkpt><trkpt lat="43.4028765" lon="12.4287735"><ele>442.0</ele><time>2026-05-03T08:28:40.027Z</time></trkpt><trkpt lat="43.4030128" lon="12.4288504"><ele>442.0</ele><time>2026-05-03T08:28:41.027Z</time></trkpt><trkpt lat="43.4031519" lon="12.4289254"><ele>443.6666666666667</ele><time>2026-05-03T08:28:42.026Z</time></trkpt><trkpt lat="43.4032853" lon="12.4290256"><ele>445.33333333333337</ele><time>2026-05-03T08:28:43.026Z</time></trkpt><trkpt lat="43.4034094" lon="12.429157"><ele>447.0</ele><time>2026-05-03T08:28:44.026Z</time></trkpt><trkpt lat="43.4035224" lon="12.4293249"><ele>447.0</ele><time>2026-05-03T08:28:45.026Z</time></trkpt><trkpt lat="43.4036206" lon="12.4294884"><ele>447.0</ele><time>2026-05-03T08:28:46.026Z</time></trkpt><trkpt lat="43.4037267" lon="12.4296223"><ele>447.0</ele><time>2026-05-03T08:28:47.027Z</time></trkpt><trkpt lat="43.4038516" lon="12.4297393"><ele>447.0</ele><time>2026-05-03T08:28:48.026Z</time></trkpt><trkpt lat="43.404016" lon="12.4298065"><ele>451.66666666666663</ele><time>2026-05-03T08:28:49.026Z</time></trkpt><trkpt lat="43.4041819" lon="12.4298513"><ele>456.3333333333333</ele><time>2026-05-03T08:28:50.026Z</time></trkpt><trkpt lat="43.4043487" lon="12.4298963"><ele>461.0</ele><time>2026-05-03T08:28:51.026Z</time></trkpt><trkpt lat="43.404504" lon="12.4299421"><ele>461.0</ele><time>2026-05-03T08:28:52.027Z</time></trkpt><trkpt lat="43.4046573" lon="12.4299858"><ele>461.0</ele><time>2026-05-03T08:28:53.026Z</time></trkpt><trkpt lat="43.4048075" lon="12.430035"><ele>461.0</ele><time>2026-05-03T08:28:54.026Z</time></trkpt><trkpt lat="43.4049479" lon="12.430097"><ele>460.5</ele><time>2026-05-03T08:28:55.026Z</time></trkpt><trkpt lat="43.4050757" lon="12.4301627"><ele>460.0</ele><time>2026-05-03T08:28:56.026Z</time></trkpt><trkpt lat="43.4051907" lon="12.4302174"><ele>459.5</ele><time>2026-05-03T08:28:57.026Z</time></trkpt><trkpt lat="43.4053168" lon="12.4302608"><ele>459.0</ele><time>2026-05-03T08:28:58.026Z</time></trkpt><trkpt lat="43.4054636" lon="12.4302692"><ele>458.66666666666663</ele><time>2026-05-03T08:28:59.026Z</time></trkpt><trkpt lat="43.4056203" lon="12.4302721"><ele>458.3333333333333</ele><time>2026-05-03T08:29:00.026Z</time></trkpt><trkpt lat="43.405793" lon="12.4302715"><ele>458.0</ele><time>2026-05-03T08:29:01.026Z</time></trkpt><trkpt lat="43.4059699" lon="12.430268"><ele>458.0</ele><time>2026-05-03T08:29:02.026Z</time></trkpt><trkpt lat="43.4061567" lon="12.4302604"><ele>458.0</ele><time>2026-05-03T08:29:03.026Z</time></trkpt><trkpt lat="43.4063485" lon="12.4302481"><ele>458.0</ele><time>2026-05-03T08:29:04.026Z</time></trkpt><trkpt lat="43.4065353" lon="12.4302368"><ele>458.0</ele><time>2026-05-03T08:29:05.026Z</time></trkpt><trkpt lat="43.4067049" lon="12.4302304"><ele>458.0</ele><time>2026-05-03T08:29:06.026Z</time></trkpt><trkpt lat="43.4068675" lon="12.4302302"><ele>458.0</ele><time>2026-05-03T08:29:07.026Z</time></trkpt><trkpt lat="43.4070134" lon="12.4302343"><ele>458.0</ele><time>2026-05-03T08:29:08.026Z</time></trkpt><trkpt lat="43.4071478" lon="12.4302503"><ele>458.0</ele><time>2026-05-03T08:29:09.026Z</time></trkpt><trkpt lat="43.4072911" lon="12.4302971"><ele>458.0</ele><time>2026-05-03T08:29:10.026Z</time></trkpt><trkpt lat="43.4074391" lon="12.4303694"><ele>458.0</ele><time>2026-05-03T08:29:11.026Z</time></trkpt><trkpt lat="43.4075986" lon="12.4304555"><ele>466.0</ele><time>2026-05-03T08:29:12.026Z</time></trkpt><trkpt lat="43.4077543" lon="12.4305396"><ele>474.0</ele><time>2026-05-03T08:29:13.026Z</time></trkpt><trkpt lat="43.4078982" lon="12.4305989"><ele>482.0</ele><time>2026-05-03T08:29:14.026Z</time></trkpt><trkpt lat="43.4080447" lon="12.4306245"><ele>483.0</ele><time>2026-05-03T08:29:15.027Z</time></trkpt><trkpt lat="43.408195" lon="12.4306252"><ele>484.0</ele><time>2026-05-03T08:29:16.026Z</time></trkpt><trkpt lat="43.4083383" lon="12.4306038"><ele>485.0</ele><time>2026-05-03T08:29:17.026Z</time></trkpt><trkpt lat="43.4084779" lon="12.4305347"><ele>486.0</ele><time>2026-05-03T08:29:18.027Z</time></trkpt><trkpt lat="43.4086024" lon="12.4304314"><ele>486.0</ele><time>2026-05-03T08:29:19.026Z</time></trkpt><trkpt lat="43.4087189" lon="12.4302997"><ele>486.0</ele><time>2026-05-03T08:29:20.026Z</time></trkpt><trkpt lat="43.4088226" lon="12.4301471"><ele>486.0</ele><time>2026-05-03T08:29:21.026Z</time></trkpt><trkpt lat="43.4089101" lon="12.4299869"><ele>486.0</ele><time>2026-05-03T08:29:22.026Z</time></trkpt><trkpt lat="43.4090042" lon="12.4298384"><ele>486.0</ele><time>2026-05-03T08:29:23.026Z</time></trkpt><trkpt lat="43.4091102" lon="12.4297177"><ele>486.0</ele><time>2026-05-03T08:29:24.026Z</time></trkpt><trkpt lat="43.4092367" lon="12.4296261"><ele>486.0</ele><time>2026-05-03T08:29:25.026Z</time></trkpt><trkpt lat="43.4093732" lon="12.4295523"><ele>486.0</ele><time>2026-05-03T08:29:26.026Z</time></trkpt><trkpt lat="43.4095203" lon="12.4295002"><ele>484.25</ele><time>2026-05-03T08:29:27.026Z</time></trkpt><trkpt lat="43.4096618" lon="12.4294732"><ele>482.5</ele><time>2026-05-03T08:29:28.026Z</time></trkpt><trkpt lat="43.4097876" lon="12.4294746"><ele>480.75</ele><time>2026-05-03T08:29:29.026Z</time></trkpt><trkpt lat="43.4099071" lon="12.4295049"><ele>479.0</ele><time>2026-05-03T08:29:30.026Z</time></trkpt><trkpt lat="43.41001" lon="12.4295807"><ele>482.0</ele><time>2026-05-03T08:29:31.026Z</time></trkpt><trkpt lat="43.410089" lon="12.4297143"><ele>485.0</ele><time>2026-05-03T08:29:32.026Z</time></trkpt><trkpt lat="43.4101613" lon="12.429848"><ele>488.0</ele><time>2026-05-03T08:29:33.026Z</time></trkpt><trkpt lat="43.4102207" lon="12.4299627"><ele>491.0</ele><time>2026-05-03T08:29:34.027Z</time></trkpt><trkpt lat="43.4103076" lon="12.4300251"><ele>494.0</ele><time>2026-05-03T08:29:35.026Z</time></trkpt><trkpt lat="43.4104246" lon="12.4300555"><ele>494.0</ele><time>2026-05-03T08:29:36.026Z</time></trkpt><trkpt lat="43.4105368" lon="12.4300866"><ele>494.0</ele><time>2026-05-03T08:29:37.026Z</time></trkpt><trkpt lat="43.4106376" lon="12.4301019"><ele>494.0</ele><time>2026-05-03T08:29:38.026Z</time></trkpt><trkpt lat="43.4107363" lon="12.4300994"><ele>494.0</ele><time>2026-05-03T08:29:39.027Z</time></trkpt><trkpt lat="43.4108229" lon="12.430065"><ele>494.0</ele><time>2026-05-03T08:29:40.027Z</time></trkpt><trkpt lat="43.4108891" lon="12.4299654"><ele>494.0</ele><time>2026-05-03T08:29:41.026Z</time></trkpt><trkpt lat="43.410943" lon="12.4298322"><ele>494.0</ele><time>2026-05-03T08:29:42.026Z</time></trkpt><trkpt lat="43.4109793" lon="12.4296758"><ele>494.0</ele><time>2026-05-03T08:29:43.026Z</time></trkpt><trkpt lat="43.4110209" lon="12.4295311"><ele>494.0</ele><time>2026-05-03T08:29:44.026Z</time></trkpt><trkpt lat="43.4110844" lon="12.4294241"><ele>494.0</ele><time>2026-05-03T08:29:45.026Z</time></trkpt><trkpt lat="43.411162" lon="12.4293668"><ele>490.75</ele><time>2026-05-03T08:29:46.026Z</time></trkpt><trkpt lat="43.4112553" lon="12.4293654"><ele>487.5</ele><time>2026-05-03T08:29:47.026Z</time></trkpt><trkpt lat="43.4113845" lon="12.4294039"><ele>484.25</ele><time>2026-05-03T08:29:48.026Z</time></trkpt><trkpt lat="43.4115239" lon="12.4294704"><ele>481.0</ele><time>2026-05-03T08:29:49.026Z</time></trkpt><trkpt lat="43.411682" lon="12.4295078"><ele>480.6666666666667</ele><time>2026-05-03T08:29:50.027Z</time></trkpt><trkpt lat="43.4118486" lon="12.4295332"><ele>480.33333333333337</ele><time>2026-05-03T08:29:51.026Z</time></trkpt><trkpt lat="43.4120163" lon="12.4295968"><ele>480.0</ele><time>2026-05-03T08:29:52.026Z</time></trkpt><trkpt lat="43.4121772" lon="12.4296866"><ele>486.33333333333337</ele><time>2026-05-03T08:29:53.026Z</time></trkpt><trkpt lat="43.4123384" lon="12.4297908"><ele>492.6666666666667</ele><time>2026-05-03T08:29:54.026Z</time></trkpt><trkpt lat="43.4125009" lon="12.4298998"><ele>499.0</ele><time>2026-05-03T08:29:55.027Z</time></trkpt><trkpt lat="43.412673" lon="12.43001"><ele>499.0</ele><time>2026-05-03T08:29:56.026Z</time></trkpt><trkpt lat="43.4128557" lon="12.4301174"><ele>499.0</ele><time>2026-05-03T08:29:57.026Z</time></trkpt><trkpt lat="43.4130228" lon="12.4301993"><ele>499.0</ele><time>2026-05-03T08:29:58.026Z</time></trkpt><trkpt lat="43.4131768" lon="12.4302656"><ele>498.75</ele><time>2026-05-03T08:29:59.026Z</time></trkpt><trkpt lat="43.4133218" lon="12.4302907"><ele>498.5</ele><time>2026-05-03T08:30:00.026Z</time></trkpt><trkpt lat="43.4134566" lon="12.4302852"><ele>498.25</ele><time>2026-05-03T08:30:01.026Z</time></trkpt><trkpt lat="43.4135855" lon="12.4302848"><ele>498.0</ele><time>2026-05-03T08:30:02.026Z</time></trkpt><trkpt lat="43.4137091" lon="12.4303295"><ele>498.0</ele><time>2026-05-03T08:30:03.026Z</time></trkpt><trkpt lat="43.4138153" lon="12.4304091"><ele>498.0</ele><time>2026-05-03T08:30:04.026Z</time></trkpt><trkpt lat="43.4139116" lon="12.430538"><ele>498.0</ele><time>2026-05-03T08:30:05.027Z</time></trkpt><trkpt lat="43.4139911" lon="12.4306889"><ele>498.0</ele><time>2026-05-03T08:30:06.026Z</time></trkpt><trkpt lat="43.4140731" lon="12.4308348"><ele>499.5</ele><time>2026-05-03T08:30:07.026Z</time></trkpt><trkpt lat="43.414146" lon="12.4309715"><ele>501.0</ele><time>2026-05-03T08:30:08.026Z</time></trkpt><trkpt lat="43.4142283" lon="12.431101"><ele>502.5</ele><time>2026-05-03T08:30:09.026Z</time></trkpt><trkpt lat="43.4143137" lon="12.4312073"><ele>504.0</ele><time>2026-05-03T08:30:10.027Z</time></trkpt><trkpt lat="43.414404" lon="12.4312971"><ele>504.0</ele><time>2026-05-03T08:30:11.027Z</time></trkpt><trkpt lat="43.4145662" lon="12.4312866"><ele>504.0</ele><time>2026-05-03T08:30:12.027Z</time></trkpt><trkpt lat="43.4147401" lon="12.4312006"><ele>504.0</ele><time>2026-05-03T08:30:13.026Z</time></trkpt><trkpt lat="43.4148832" lon="12.4312018"><ele>500.75</ele><time>2026-05-03T08:30:14.026Z</time></trkpt><trkpt lat="43.4150318" lon="12.431208"><ele>497.5</ele><time>2026-05-03T08:30:15.026Z</time></trkpt><trkpt lat="43.4151763" lon="12.4312245"><ele>494.25</ele><time>2026-05-03T08:30:16.027Z</time></trkpt><trkpt lat="43.4153179" lon="12.4312438"><ele>491.0</ele><time>2026-05-03T08:30:17.027Z</time></trkpt><trkpt lat="43.4154576" lon="12.4312747"><ele>495.5</ele><time>2026-05-03T08:30:18.026Z</time></trkpt><trkpt lat="43.4155931" lon="12.4313205"><ele>500.0</ele><time>2026-05-03T08:30:19.027Z</time></trkpt><trkpt lat="43.415726" lon="12.431374"><ele>504.5</ele><time>2026-05-03T08:30:20.026Z</time></trkpt><trkpt lat="43.4158594" lon="12.4314369"><ele>509.0</ele><time>2026-05-03T08:30:21.026Z</time></trkpt><trkpt lat="43.4159749" lon="12.4315154"><ele>509.0</ele><time>2026-05-03T08:30:22.026Z</time></trkpt><trkpt lat="43.4160702" lon="12.4316092"><ele>509.0</ele><time>2026-05-03T08:30:23.026Z</time></trkpt><trkpt lat="43.4161399" lon="12.4317312"><ele>509.0</ele><time>2026-05-03T08:30:24.026Z</time></trkpt><trkpt lat="43.416177" lon="12.4318849"><ele>509.0</ele><time>2026-05-03T08:30:25.026Z</time></trkpt><trkpt lat="43.4161833" lon="12.4320808"><ele>511.75</ele><time>2026-05-03T08:30:26.026Z</time></trkpt><trkpt lat="43.416179" lon="12.4322681"><ele>514.5</ele><time>2026-05-03T08:30:27.026Z</time></trkpt><trkpt lat="43.4161987" lon="12.4324449"><ele>517.25</ele><time>2026-05-03T08:30:28.026Z</time></trkpt><trkpt lat="43.4162401" lon="12.4326019"><ele>520.0</ele><time>2026-05-03T08:30:29.027Z</time></trkpt><trkpt lat="43.4163068" lon="12.4327284"><ele>514.5</ele><time>2026-05-03T08:30:30.027Z</time></trkpt><trkpt lat="43.4164019" lon="12.432826"><ele>509.0</ele><time>2026-05-03T08:30:31.026Z</time></trkpt><trkpt lat="43.4165269" lon="12.4328765"><ele>503.5</ele><time>2026-05-03T08:30:32.026Z</time></trkpt><trkpt lat="43.4166615" lon="12.4328582"><ele>498.0</ele><time>2026-05-03T08:30:33.027Z</time></trkpt><trkpt lat="43.4167963" lon="12.4328179"><ele>498.0</ele><time>2026-05-03T08:30:34.026Z</time></trkpt><trkpt lat="43.4169244" lon="12.4328042"><ele>498.0</ele><time>2026-05-03T08:30:35.027Z</time></trkpt><trkpt lat="43.4170661" lon="12.4328569"><ele>498.0</ele><time>2026-05-03T08:30:36.026Z</time></trkpt><trkpt lat="43.4171795" lon="12.4329544"><ele>498.0</ele><time>2026-05-03T08:30:37.026Z</time></trkpt><trkpt lat="43.4173003" lon="12.4330721"><ele>500.66666666666663</ele><time>2026-05-03T08:30:38.026Z</time></trkpt><trkpt lat="43.417428" lon="12.4331948"><ele>503.3333333333333</ele><time>2026-05-03T08:30:39.026Z</time></trkpt><trkpt lat="43.4175771" lon="12.4333046"><ele>506.0</ele><time>2026-05-03T08:30:40.027Z</time></trkpt><trkpt lat="43.4177395" lon="12.433396"><ele>506.0</ele><time>2026-05-03T08:30:41.026Z</time></trkpt><trkpt lat="43.4178945" lon="12.4334606"><ele>506.0</ele><time>2026-05-03T08:30:42.026Z</time></trkpt><trkpt lat="43.4180517" lon="12.4335096"><ele>506.0</ele><time>2026-05-03T08:30:43.026Z</time></trkpt><trkpt lat="43.4182001" lon="12.4335047"><ele>500.3333333333333</ele><time>2026-05-03T08:30:44.026Z</time></trkpt><trkpt lat="43.4183483" lon="12.433498"><ele>494.66666666666663</ele><time>2026-05-03T08:30:45.026Z</time></trkpt><trkpt lat="43.4185053" lon="12.4335303"><ele>489.0</ele><time>2026-05-03T08:30:46.026Z</time></trkpt><trkpt lat="43.4186532" lon="12.4335744"><ele>489.0</ele><time>2026-05-03T08:30:47.026Z</time></trkpt><trkpt lat="43.418791" lon="12.4336227"><ele>489.0</ele><time>2026-05-03T08:30:48.026Z</time></trkpt><trkpt lat="43.4189266" lon="12.4336763"><ele>489.0</ele><time>2026-05-03T08:30:49.026Z</time></trkpt><trkpt lat="43.4190661" lon="12.4337441"><ele>489.0</ele><time>2026-05-03T08:30:50.026Z</time></trkpt><trkpt lat="43.4192037" lon="12.4338294"><ele>489.0</ele><time>2026-05-03T08:30:51.026Z</time></trkpt><trkpt lat="43.4193456" lon="12.4339095"><ele>489.0</ele><time>2026-05-03T08:30:52.026Z</time></trkpt><trkpt lat="43.4194971" lon="12.4339855"><ele>489.0</ele><time>2026-05-03T08:30:53.026Z</time></trkpt><trkpt lat="43.4196561" lon="12.4340628"><ele>489.0</ele><time>2026-05-03T08:30:54.026Z</time></trkpt><trkpt lat="43.4198344" lon="12.4341218"><ele>489.0</ele><time>2026-05-03T08:30:55.026Z</time></trkpt><trkpt lat="43.4200279" lon="12.4341573"><ele>489.0</ele><time>2026-05-03T08:30:56.026Z</time></trkpt><trkpt lat="43.4202333" lon="12.4341649"><ele>489.0</ele><time>2026-05-03T08:30:57.026Z</time></trkpt><trkpt lat="43.4204253" lon="12.4341698"><ele>489.0</ele><time>2026-05-03T08:30:58.026Z</time></trkpt><trkpt lat="43.4206154" lon="12.4341654"><ele>489.0</ele><time>2026-05-03T08:30:59.026Z</time></trkpt><trkpt lat="43.4208015" lon="12.434167"><ele>489.0</ele><time>2026-05-03T08:31:00.026Z</time></trkpt><trkpt lat="43.4209852" lon="12.4341661"><ele>489.0</ele><time>2026-05-03T08:31:01.026Z</time></trkpt><trkpt lat="43.4211655" lon="12.4341684"><ele>489.0</ele><time>2026-05-03T08:31:02.027Z</time></trkpt><trkpt lat="43.4213463" lon="12.4341634"><ele>489.0</ele><time>2026-05-03T08:31:03.026Z</time></trkpt><trkpt lat="43.4215244" lon="12.4341638"><ele>489.0</ele><time>2026-05-03T08:31:04.027Z</time></trkpt><trkpt lat="43.421699" lon="12.434164"><ele>489.0</ele><time>2026-05-03T08:31:05.026Z</time></trkpt><trkpt lat="43.4218679" lon="12.4341617"><ele>489.0</ele><time>2026-05-03T08:31:06.026Z</time></trkpt><trkpt lat="43.4220254" lon="12.434165"><ele>489.0</ele><time>2026-05-03T08:31:07.026Z</time></trkpt><trkpt lat="43.4221833" lon="12.4341822"><ele>489.0</ele><time>2026-05-03T08:31:08.026Z</time></trkpt><trkpt lat="43.4223412" lon="12.4342208"><ele>488.66666666666663</ele><time>2026-05-03T08:31:09.027Z</time></trkpt><trkpt lat="43.4225079" lon="12.4342973"><ele>488.3333333333333</ele><time>2026-05-03T08:31:10.027Z</time></trkpt><trkpt lat="43.4226769" lon="12.4344004"><ele>488.0</ele><time>2026-05-03T08:31:11.026Z</time></trkpt><trkpt lat="43.4228451" lon="12.4345246"><ele>492.3333333333333</ele><time>2026-05-03T08:31:12.026Z</time></trkpt><trkpt lat="43.4230105" lon="12.434641"><ele>496.66666666666663</ele><time>2026-05-03T08:31:13.026Z</time></trkpt><trkpt lat="43.4231916" lon="12.4347393"><ele>501.0</ele><time>2026-05-03T08:31:14.026Z</time></trkpt><trkpt lat="43.4233879" lon="12.4347928"><ele>501.0</ele><time>2026-05-03T08:31:15.026Z</time></trkpt><trkpt lat="43.4235692" lon="12.4348289"><ele>501.0</ele><time>2026-05-03T08:31:16.026Z</time></trkpt><trkpt lat="43.4237416" lon="12.4348607"><ele>501.0</ele><time>2026-05-03T08:31:17.026Z</time></trkpt><trkpt lat="43.4238922" lon="12.4348983"><ele>497.33333333333337</ele><time>2026-05-03T08:31:18.027Z</time></trkpt><trkpt lat="43.4240318" lon="12.4349723"><ele>493.6666666666667</ele><time>2026-05-03T08:31:19.026Z</time></trkpt><trkpt lat="43.424165" lon="12.4350937"><ele>490.0</ele><time>2026-05-03T08:31:20.026Z</time></trkpt><trkpt lat="43.4242926" lon="12.4352374"><ele>490.0</ele><time>2026-05-03T08:31:21.027Z</time></trkpt><trkpt lat="43.4244262" lon="12.435395"><ele>490.0</ele><time>2026-05-03T08:31:22.026Z</time></trkpt><trkpt lat="43.4245673" lon="12.4355639"><ele>490.0</ele><time>2026-05-03T08:31:23.026Z</time></trkpt><trkpt lat="43.4247164" lon="12.4357378"><ele>491.6666666666667</ele><time>2026-05-03T08:31:24.026Z</time></trkpt><trkpt lat="43.4248552" lon="12.4358992"><ele>493.33333333333337</ele><time>2026-05-03T08:31:25.026Z</time></trkpt><trkpt lat="43.4249868" lon="12.4360402"><ele>495.0</ele><time>2026-05-03T08:31:26.026Z</time></trkpt><trkpt lat="43.4251143" lon="12.4361389"><ele>495.0</ele><time>2026-05-03T08:31:27.026Z</time></trkpt><trkpt lat="43.4252425" lon="12.4361969"><ele>495.0</ele><time>2026-05-03T08:31:28.026Z</time></trkpt><trkpt lat="43.4253748" lon="12.4362013"><ele>495.0</ele><time>2026-05-03T08:31:29.027Z</time></trkpt><trkpt lat="43.4255082" lon="12.4361649"><ele>495.0</ele><time>2026-05-03T08:31:30.026Z</time></trkpt><trkpt lat="43.4256438" lon="12.4361136"><ele>494.5</ele><time>2026-05-03T08:31:31.026Z</time></trkpt><trkpt lat="43.4257801" lon="12.4360573"><ele>494.0</ele><time>2026-05-03T08:31:32.026Z</time></trkpt><trkpt lat="43.4259217" lon="12.435997"><ele>493.5</ele><time>2026-05-03T08:31:33.026Z</time></trkpt><trkpt lat="43.4260599" lon="12.4359292"><ele>493.0</ele><time>2026-05-03T08:31:34.026Z</time></trkpt><trkpt lat="43.426202" lon="12.4358783"><ele>495.0</ele><time>2026-05-03T08:31:35.026Z</time></trkpt><trkpt lat="43.4263526" lon="12.4358495"><ele>497.0</ele><time>2026-05-03T08:31:36.026Z</time></trkpt><trkpt lat="43.4265163" lon="12.43584"><ele>499.0</ele><time>2026-05-03T08:31:37.026Z</time></trkpt><trkpt lat="43.4266827" lon="12.4358416"><ele>499.0</ele><time>2026-05-03T08:31:38.026Z</time></trkpt><trkpt lat="43.4268571" lon="12.4358541"><ele>499.0</ele><time>2026-05-03T08:31:39.026Z</time></trkpt><trkpt lat="43.4270126" lon="12.4358486"><ele>499.0</ele><time>2026-05-03T08:31:40.026Z</time></trkpt><trkpt lat="43.4271618" lon="12.4358185"><ele>499.0</ele><time>2026-05-03T08:31:41.026Z</time></trkpt><trkpt lat="43.4273069" lon="12.4357554"><ele>499.0</ele><time>2026-05-03T08:31:42.026Z</time></trkpt><trkpt lat="43.4274461" lon="12.4356751"><ele>499.0</ele><time>2026-05-03T08:31:43.026Z</time></trkpt><trkpt lat="43.4275913" lon="12.4356097"><ele>499.0</ele><time>2026-05-03T08:31:44.026Z</time></trkpt><trkpt lat="43.4277469" lon="12.4355689"><ele>499.0</ele><time>2026-05-03T08:31:45.026Z</time></trkpt><trkpt lat="43.4279077" lon="12.4355498"><ele>499.0</ele><time>2026-05-03T08:31:46.026Z</time></trkpt><trkpt lat="43.4280681" lon="12.4355263"><ele>500.0</ele><time>2026-05-03T08:31:47.026Z</time></trkpt><trkpt lat="43.428227" lon="12.4355003"><ele>501.0</ele><time>2026-05-03T08:31:48.026Z</time></trkpt><trkpt lat="43.4283778" lon="12.4354788"><ele>502.0</ele><time>2026-05-03T08:31:49.026Z</time></trkpt><trkpt lat="43.428523" lon="12.4354502"><ele>500.5</ele><time>2026-05-03T08:31:50.026Z</time></trkpt><trkpt lat="43.4286536" lon="12.4353988"><ele>499.0</ele><time>2026-05-03T08:31:51.026Z</time></trkpt><trkpt lat="43.4287772" lon="12.4353374"><ele>497.5</ele><time>2026-05-03T08:31:52.026Z</time></trkpt><trkpt lat="43.4288835" lon="12.4352661"><ele>496.0</ele><time>2026-05-03T08:31:53.027Z</time></trkpt><trkpt lat="43.4289904" lon="12.435192"><ele>496.0</ele><time>2026-05-03T08:31:54.026Z</time></trkpt><trkpt lat="43.4290948" lon="12.4351078"><ele>496.0</ele><time>2026-05-03T08:31:55.026Z</time></trkpt><trkpt lat="43.4292007" lon="12.4350148"><ele>496.0</ele><time>2026-05-03T08:31:56.026Z</time></trkpt><trkpt lat="43.4293011" lon="12.4349026"><ele>496.0</ele><time>2026-05-03T08:31:57.026Z</time></trkpt><trkpt lat="43.4293989" lon="12.4347734"><ele>496.5</ele><time>2026-05-03T08:31:58.026Z</time></trkpt><trkpt lat="43.4294963" lon="12.4346311"><ele>497.0</ele><time>2026-05-03T08:31:59.026Z</time></trkpt><trkpt lat="43.4296129" lon="12.4345117"><ele>497.5</ele><time>2026-05-03T08:32:00.026Z</time></trkpt><trkpt lat="43.4297452" lon="12.4344103"><ele>498.0</ele><time>2026-05-03T08:32:01.026Z</time></trkpt><trkpt lat="43.4298969" lon="12.4343321"><ele>498.0</ele><time>2026-05-03T08:32:02.026Z</time></trkpt><trkpt lat="43.4300563" lon="12.4342636"><ele>498.0</ele><time>2026-05-03T08:32:03.026Z</time></trkpt><trkpt lat="43.4302151" lon="12.4341901"><ele>498.0</ele><time>2026-05-03T08:32:04.026Z</time></trkpt><trkpt lat="43.4303788" lon="12.4341215"><ele>500.0</ele><time>2026-05-03T08:32:05.026Z</time></trkpt><trkpt lat="43.4305405" lon="12.4340546"><ele>502.0</ele><time>2026-05-03T08:32:06.026Z</time></trkpt><trkpt lat="43.430687" lon="12.4339918"><ele>504.0</ele><time>2026-05-03T08:32:07.026Z</time></trkpt><trkpt lat="43.4308224" lon="12.4339454"><ele>504.0</ele><time>2026-05-03T08:32:08.026Z</time></trkpt><trkpt lat="43.4309516" lon="12.4339021"><ele>504.0</ele><time>2026-05-03T08:32:09.027Z</time></trkpt><trkpt lat="43.4310982" lon="12.4338653"><ele>504.0</ele><time>2026-05-03T08:32:10.027Z</time></trkpt><trkpt lat="43.431247" lon="12.4338243"><ele>504.0</ele><time>2026-05-03T08:32:11.026Z</time></trkpt><trkpt lat="43.4314022" lon="12.4337895"><ele>501.33333333333337</ele><time>2026-05-03T08:32:12.026Z</time></trkpt><trkpt lat="43.4315668" lon="12.4337507"><ele>498.6666666666667</ele><time>2026-05-03T08:32:13.026Z</time></trkpt><trkpt lat="43.4317316" lon="12.4337192"><ele>496.0</ele><time>2026-05-03T08:32:14.026Z</time></trkpt><trkpt lat="43.4318905" lon="12.4337024"><ele>496.0</ele><time>2026-05-03T08:32:15.027Z</time></trkpt><trkpt lat="43.4320457" lon="12.4336963"><ele>496.0</ele><time>2026-05-03T08:32:16.026Z</time></trkpt><trkpt lat="43.4322061" lon="12.4337047"><ele>496.0</ele><time>2026-05-03T08:32:17.026Z</time></trkpt><trkpt lat="43.4323658" lon="12.43372"><ele>496.6666666666667</ele><time>2026-05-03T08:32:18.026Z</time></trkpt><trkpt lat="43.4325291" lon="12.4337444"><ele>497.33333333333337</ele><time>2026-05-03T08:32:19.027Z</time></trkpt><trkpt lat="43.4326956" lon="12.4337644"><ele>498.0</ele><time>2026-05-03T08:32:20.026Z</time></trkpt><trkpt lat="43.4328616" lon="12.433788"><ele>501.25</ele><time>2026-05-03T08:32:21.026Z</time></trkpt><trkpt lat="43.4330138" lon="12.4338132"><ele>504.5</ele><time>2026-05-03T08:32:22.026Z</time></trkpt><trkpt lat="43.4331594" lon="12.4338361"><ele>507.75</ele><time>2026-05-03T08:32:23.027Z</time></trkpt><trkpt lat="43.4332964" lon="12.4338556"><ele>511.0</ele><time>2026-05-03T08:32:24.026Z</time></trkpt><trkpt lat="43.4334345" lon="12.4338767"><ele>511.0</ele><time>2026-05-03T08:32:25.026Z</time></trkpt><trkpt lat="43.4335727" lon="12.4338888"><ele>511.0</ele><time>2026-05-03T08:32:26.026Z</time></trkpt><trkpt lat="43.4337081" lon="12.4339035"><ele>511.0</ele><time>2026-05-03T08:32:27.026Z</time></trkpt><trkpt lat="43.4338428" lon="12.4339191"><ele>511.0</ele><time>2026-05-03T08:32:28.027Z</time></trkpt><trkpt lat="43.4339771" lon="12.4339374"><ele>510.0</ele><time>2026-05-03T08:32:29.026Z</time></trkpt><trkpt lat="43.4341135" lon="12.4339617"><ele>509.0</ele><time>2026-05-03T08:32:30.026Z</time></trkpt><trkpt lat="43.4342486" lon="12.4339847"><ele>508.0</ele><time>2026-05-03T08:32:31.026Z</time></trkpt><trkpt lat="43.434382" lon="12.434006"><ele>507.0</ele><time>2026-05-03T08:32:32.026Z</time></trkpt><trkpt lat="43.434512" lon="12.4340241"><ele>507.0</ele><time>2026-05-03T08:32:33.026Z</time></trkpt><trkpt lat="43.434645" lon="12.4340311"><ele>507.0</ele><time>2026-05-03T08:32:34.026Z</time></trkpt><trkpt lat="43.4347783" lon="12.4340531"><ele>507.0</ele><time>2026-05-03T08:32:35.026Z</time></trkpt><trkpt lat="43.4349102" lon="12.4340649"><ele>507.0</ele><time>2026-05-03T08:32:36.026Z</time></trkpt><trkpt lat="43.4350451" lon="12.4340722"><ele>507.0</ele><time>2026-05-03T08:32:37.026Z</time></trkpt><trkpt lat="43.435183" lon="12.4340732"><ele>507.0</ele><time>2026-05-03T08:32:38.027Z</time></trkpt><trkpt lat="43.4353252" lon="12.4340662"><ele>507.0</ele><time>2026-05-03T08:32:39.026Z</time></trkpt><trkpt lat="43.4354666" lon="12.4340571"><ele>507.0</ele><time>2026-05-03T08:32:40.026Z</time></trkpt><trkpt lat="43.4356094" lon="12.4340541"><ele>508.0</ele><time>2026-05-03T08:32:41.026Z</time></trkpt><trkpt lat="43.4357507" lon="12.434046"><ele>509.0</ele><time>2026-05-03T08:32:42.026Z</time></trkpt><trkpt lat="43.4358922" lon="12.4340338"><ele>510.0</ele><time>2026-05-03T08:32:43.026Z</time></trkpt><trkpt lat="43.4360309" lon="12.4340261"><ele>511.0</ele><time>2026-05-03T08:32:44.026Z</time></trkpt><trkpt lat="43.4361574" lon="12.4340219"><ele>511.0</ele><time>2026-05-03T08:32:45.026Z</time></trkpt><trkpt lat="43.4362705" lon="12.4340199"><ele>511.0</ele><time>2026-05-03T08:32:46.026Z</time></trkpt><trkpt lat="43.4363747" lon="12.4340108"><ele>511.0</ele><time>2026-05-03T08:32:47.026Z</time></trkpt><trkpt lat="43.4364742" lon="12.4340068"><ele>511.0</ele><time>2026-05-03T08:32:48.026Z</time></trkpt><trkpt lat="43.4365772" lon="12.4339996"><ele>511.0</ele><time>2026-05-03T08:32:49.026Z</time></trkpt><trkpt lat="43.4366738" lon="12.4339962"><ele>511.1666666666667</ele><time>2026-05-03T08:32:50.026Z</time></trkpt><trkpt lat="43.4367625" lon="12.4340034"><ele>511.33333333333337</ele><time>2026-05-03T08:32:51.026Z</time></trkpt><trkpt lat="43.4368482" lon="12.4340167"><ele>511.5</ele><time>2026-05-03T08:32:52.026Z</time></trkpt><trkpt lat="43.4369298" lon="12.4340364"><ele>511.66666666666663</ele><time>2026-05-03T08:32:53.026Z</time></trkpt><trkpt lat="43.4370041" lon="12.4340544"><ele>511.8333333333333</ele><time>2026-05-03T08:32:54.026Z</time></trkpt><trkpt lat="43.4370761" lon="12.4340719"><ele>512.0</ele><time>2026-05-03T08:32:55.026Z</time></trkpt><trkpt lat="43.4371532" lon="12.4340872"><ele>511.3333333333333</ele><time>2026-05-03T08:32:56.027Z</time></trkpt><trkpt lat="43.4372327" lon="12.4340979"><ele>510.66666666666663</ele><time>2026-05-03T08:32:57.026Z</time></trkpt><trkpt lat="43.4373052" lon="12.4341176"><ele>510.0</ele><time>2026-05-03T08:32:58.026Z</time></trkpt><trkpt lat="43.4373763" lon="12.4341453"><ele>509.33333333333337</ele><time>2026-05-03T08:32:59.026Z</time></trkpt><trkpt lat="43.4374952" lon="12.434176"><ele>508.6666666666667</ele><time>2026-05-03T08:33:01.027Z</time></trkpt><trkpt lat="43.4375737" lon="12.4341906"><ele>508.0</ele><time>2026-05-03T08:33:02.026Z</time></trkpt><trkpt lat="43.4376628" lon="12.4342115"><ele>508.0</ele><time>2026-05-03T08:33:03.026Z</time></trkpt><trkpt lat="43.4377621" lon="12.4342355"><ele>507.99999999999994</ele><time>2026-05-03T08:33:04.026Z</time></trkpt><trkpt lat="43.4378627" lon="12.4342512"><ele>507.99999999999994</ele><time>2026-05-03T08:33:05.026Z</time></trkpt><trkpt lat="43.437958" lon="12.4342774"><ele>508.0</ele><time>2026-05-03T08:33:06.026Z</time></trkpt><trkpt lat="43.4380554" lon="12.4342976"><ele>508.0</ele><time>2026-05-03T08:33:07.027Z</time></trkpt><trkpt lat="43.4381447" lon="12.434319"><ele>507.00000000000006</ele><time>2026-05-03T08:33:08.026Z</time></trkpt><trkpt lat="43.4382303" lon="12.4343418"><ele>506.0</ele><time>2026-05-03T08:33:09.026Z</time></trkpt><trkpt lat="43.4383149" lon="12.4343702"><ele>505.0</ele><time>2026-05-03T08:33:10.026Z</time></trkpt><trkpt lat="43.4383934" lon="12.4343864"><ele>504.0</ele><time>2026-05-03T08:33:11.026Z</time></trkpt><trkpt lat="43.4384699" lon="12.4344081"><ele>503.00000000000006</ele><time>2026-05-03T08:33:12.026Z</time></trkpt><trkpt lat="43.4385484" lon="12.4344182"><ele>502.0</ele><time>2026-05-03T08:33:13.026Z</time></trkpt><trkpt lat="43.4386183" lon="12.4344289"><ele>502.0</ele><time>2026-05-03T08:33:14.026Z</time></trkpt><trkpt lat="43.4386816" lon="12.4344397"><ele>502.00000000000006</ele><time>2026-05-03T08:33:15.026Z</time></trkpt><trkpt lat="43.4387901" lon="12.4344538"><ele>502.00000000000006</ele><time>2026-05-03T08:33:17.026Z</time></trkpt><trkpt lat="43.4389095" lon="12.4344567"><ele>502.0</ele><time>2026-05-03T08:33:19.026Z</time></trkpt><trkpt lat="43.4390253" lon="12.4344859"><ele>502.0</ele><time>2026-05-03T08:33:21.026Z</time></trkpt><trkpt lat="43.4391171" lon="12.4345626"><ele>501.83333333333337</ele><time>2026-05-03T08:33:23.026Z</time></trkpt><trkpt lat="43.4392133" lon="12.4345814"><ele>501.6666666666667</ele><time>2026-05-03T08:33:25.026Z</time></trkpt><trkpt lat="43.4393103" lon="12.4345054"><ele>501.5</ele><time>2026-05-03T08:33:27.026Z</time></trkpt><trkpt lat="43.4393695" lon="12.4344696"><ele>501.33333333333337</ele><time>2026-05-03T08:33:28.026Z</time></trkpt><trkpt lat="43.4394454" lon="12.4344465"><ele>501.1666666666667</ele><time>2026-05-03T08:33:29.026Z</time></trkpt><trkpt lat="43.4395247" lon="12.4344323"><ele>501.0</ele><time>2026-05-03T08:33:30.026Z</time></trkpt><trkpt lat="43.4396593" lon="12.4344427"><ele>501.5</ele><time>2026-05-03T08:33:31.027Z</time></trkpt><trkpt lat="43.4397819" lon="12.434439"><ele>502.0</ele><time>2026-05-03T08:33:32.026Z</time></trkpt><trkpt lat="43.4399149" lon="12.4344443"><ele>502.5</ele><time>2026-05-03T08:33:33.026Z</time></trkpt><trkpt lat="43.4400577" lon="12.4344447"><ele>503.0</ele><time>2026-05-03T08:33:34.027Z</time></trkpt><trkpt lat="43.4402103" lon="12.4344457"><ele>503.0</ele><time>2026-05-03T08:33:35.026Z</time></trkpt><trkpt lat="43.440369" lon="12.4344335"><ele>503.0</ele><time>2026-05-03T08:33:36.026Z</time></trkpt><trkpt lat="43.4405247" lon="12.4344362"><ele>503.0</ele><time>2026-05-03T08:33:37.026Z</time></trkpt><trkpt lat="43.4406752" lon="12.4344374"><ele>504.25</ele><time>2026-05-03T08:33:38.026Z</time></trkpt><trkpt lat="43.4408229" lon="12.4344336"><ele>505.5</ele><time>2026-05-03T08:33:39.026Z</time></trkpt><trkpt lat="43.4409651" lon="12.4344316"><ele>506.75</ele><time>2026-05-03T08:33:40.026Z</time></trkpt><trkpt lat="43.4410988" lon="12.4344347"><ele>508.0</ele><time>2026-05-03T08:33:41.026Z</time></trkpt><trkpt lat="43.441226" lon="12.4344324"><ele>509.0</ele><time>2026-05-03T08:33:42.026Z</time></trkpt><trkpt lat="43.4413497" lon="12.4344344"><ele>510.0</ele><time>2026-05-03T08:33:43.026Z</time></trkpt><trkpt lat="43.4414767" lon="12.434432"><ele>511.0</ele><time>2026-05-03T08:33:44.026Z</time></trkpt><trkpt lat="43.4416081" lon="12.4344331"><ele>512.0</ele><time>2026-05-03T08:33:45.026Z</time></trkpt><trkpt lat="43.4417331" lon="12.4344317"><ele>512.0</ele><time>2026-05-03T08:33:46.027Z</time></trkpt><trkpt lat="43.4418622" lon="12.4344335"><ele>512.0</ele><time>2026-05-03T08:33:47.026Z</time></trkpt><trkpt lat="43.4419942" lon="12.4344425"><ele>512.0</ele><time>2026-05-03T08:33:48.026Z</time></trkpt><trkpt lat="43.4421275" lon="12.4344671"><ele>512.0</ele><time>2026-05-03T08:33:49.027Z</time></trkpt><trkpt lat="43.4422659" lon="12.4345051"><ele>512.25</ele><time>2026-05-03T08:33:50.026Z</time></trkpt><trkpt lat="43.4424053" lon="12.4345474"><ele>512.5</ele><time>2026-05-03T08:33:51.026Z</time></trkpt><trkpt lat="43.4425484" lon="12.4345998"><ele>512.75</ele><time>2026-05-03T08:33:52.026Z</time></trkpt><trkpt lat="43.4426934" lon="12.4346522"><ele>513.0</ele><time>2026-05-03T08:33:53.026Z</time></trkpt><trkpt lat="43.4428371" lon="12.4347012"><ele>517.6666666666666</ele><time>2026-05-03T08:33:54.026Z</time></trkpt><trkpt lat="43.4429869" lon="12.4347509"><ele>522.3333333333333</ele><time>2026-05-03T08:33:55.026Z</time></trkpt><trkpt lat="43.4431329" lon="12.4347983"><ele>527.0</ele><time>2026-05-03T08:33:56.026Z</time></trkpt><trkpt lat="43.443285" lon="12.4348392"><ele>527.0</ele><time>2026-05-03T08:33:57.026Z</time></trkpt><trkpt lat="43.4434353" lon="12.4348802"><ele>527.0</ele><time>2026-05-03T08:33:58.026Z</time></trkpt><trkpt lat="43.4435852" lon="12.4349176"><ele>527.0</ele><time>2026-05-03T08:33:59.026Z</time></trkpt><trkpt lat="43.4437365" lon="12.4349488"><ele>526.75</ele><time>2026-05-03T08:34:00.026Z</time></trkpt><trkpt lat="43.4438768" lon="12.4349925"><ele>526.5</ele><time>2026-05-03T08:34:01.026Z</time></trkpt><trkpt lat="43.444" lon="12.4350364"><ele>526.25</ele><time>2026-05-03T08:34:02.026Z</time></trkpt><trkpt lat="43.4441072" lon="12.435078"><ele>526.0</ele><time>2026-05-03T08:34:03.026Z</time></trkpt><trkpt lat="43.4442041" lon="12.4351123"><ele>526.0</ele><time>2026-05-03T08:34:04.027Z</time></trkpt><trkpt lat="43.4443056" lon="12.4351465"><ele>526.0</ele><time>2026-05-03T08:34:05.026Z</time></trkpt><trkpt lat="43.4444199" lon="12.4351844"><ele>526.0</ele><time>2026-05-03T08:34:06.026Z</time></trkpt><trkpt lat="43.4445354" lon="12.4352238"><ele>526.0</ele><time>2026-05-03T08:34:07.026Z</time></trkpt><trkpt lat="43.4446479" lon="12.4352603"><ele>524.25</ele><time>2026-05-03T08:34:08.026Z</time></trkpt><trkpt lat="43.444766" lon="12.4352987"><ele>522.5</ele><time>2026-05-03T08:34:09.026Z</time></trkpt><trkpt lat="43.4448866" lon="12.4353408"><ele>520.75</ele><time>2026-05-03T08:34:10.026Z</time></trkpt><trkpt lat="43.4450107" lon="12.4353865"><ele>519.0</ele><time>2026-05-03T08:34:11.026Z</time></trkpt><trkpt lat="43.445138" lon="12.4354295"><ele>520.5</ele><time>2026-05-03T08:34:12.026Z</time></trkpt><trkpt lat="43.4452698" lon="12.4354735"><ele>522.0</ele><time>2026-05-03T08:34:13.026Z</time></trkpt><trkpt lat="43.445403" lon="12.4355127"><ele>523.5</ele><time>2026-05-03T08:34:14.026Z</time></trkpt><trkpt lat="43.4455393" lon="12.4355498"><ele>525.0</ele><time>2026-05-03T08:34:15.026Z</time></trkpt><trkpt lat="43.445669" lon="12.4355864"><ele>525.0</ele><time>2026-05-03T08:34:16.026Z</time></trkpt><trkpt lat="43.4457922" lon="12.4356184"><ele>525.0</ele><time>2026-05-03T08:34:17.026Z</time></trkpt><trkpt lat="43.4459052" lon="12.4356441"><ele>525.0</ele><time>2026-05-03T08:34:18.026Z</time></trkpt><trkpt lat="43.4460056" lon="12.4356609"><ele>525.0</ele><time>2026-05-03T08:34:19.026Z</time></trkpt><trkpt lat="43.4461038" lon="12.4356722"><ele>525.0</ele><time>2026-05-03T08:34:20.026Z</time></trkpt><trkpt lat="43.446186" lon="12.4356791"><ele>525.0</ele><time>2026-05-03T08:34:21.026Z</time></trkpt><trkpt lat="43.4462554" lon="12.4356696"><ele>525.0</ele><time>2026-05-03T08:34:22.026Z</time></trkpt><trkpt lat="43.4463441" lon="12.4355926"><ele>525.0</ele><time>2026-05-03T08:34:24.026Z</time></trkpt><trkpt lat="43.4463666" lon="12.4354319"><ele>525.0</ele><time>2026-05-03T08:34:26.026Z</time></trkpt><trkpt lat="43.4463757" lon="12.4353246"><ele>525.0</ele><time>2026-05-03T08:34:27.026Z</time></trkpt><trkpt lat="43.4463858" lon="12.4352157"><ele>523.1666666666666</ele><time>2026-05-03T08:34:28.026Z</time></trkpt><trkpt lat="43.4463972" lon="12.4351013"><ele>521.3333333333334</ele><time>2026-05-03T08:34:29.026Z</time></trkpt><trkpt lat="43.4464111" lon="12.4349796"><ele>519.5</ele><time>2026-05-03T08:34:30.026Z</time></trkpt><trkpt lat="43.44642" lon="12.4348682"><ele>517.6666666666667</ele><time>2026-05-03T08:34:31.026Z</time></trkpt><trkpt lat="43.4464332" lon="12.434753"><ele>515.8333333333334</ele><time>2026-05-03T08:34:32.026Z</time></trkpt><trkpt lat="43.4464503" lon="12.4346231"><ele>514.0</ele><time>2026-05-03T08:34:33.027Z</time></trkpt><trkpt lat="43.4464664" lon="12.4344818"><ele>513.5</ele><time>2026-05-03T08:34:34.026Z</time></trkpt><trkpt lat="43.4464905" lon="12.4343252"><ele>513.0</ele><time>2026-05-03T08:34:35.026Z</time></trkpt><trkpt lat="43.4465242" lon="12.4341644"><ele>512.5</ele><time>2026-05-03T08:34:36.026Z</time></trkpt><trkpt lat="43.4465691" lon="12.4340069"><ele>512.0</ele><time>2026-05-03T08:34:37.026Z</time></trkpt><trkpt lat="43.4466242" lon="12.43385"><ele>512.0</ele><time>2026-05-03T08:34:38.026Z</time></trkpt><trkpt lat="43.4466869" lon="12.4337008"><ele>512.0</ele><time>2026-05-03T08:34:39.026Z</time></trkpt><trkpt lat="43.4467546" lon="12.4335523"><ele>512.0</ele><time>2026-05-03T08:34:40.026Z</time></trkpt><trkpt lat="43.4468298" lon="12.4334041"><ele>512.0</ele><time>2026-05-03T08:34:41.026Z</time></trkpt><trkpt lat="43.4469081" lon="12.4332618"><ele>512.0</ele><time>2026-05-03T08:34:42.026Z</time></trkpt><trkpt lat="43.4469793" lon="12.4331259"><ele>512.0</ele><time>2026-05-03T08:34:43.026Z</time></trkpt><trkpt lat="43.4470514" lon="12.4329905"><ele>512.0</ele><time>2026-05-03T08:34:44.026Z</time></trkpt><trkpt lat="43.4471288" lon="12.4328436"><ele>512.0</ele><time>2026-05-03T08:34:45.026Z</time></trkpt><trkpt lat="43.4472085" lon="12.4326875"><ele>513.6666666666666</ele><time>2026-05-03T08:34:46.026Z</time></trkpt><trkpt lat="43.4472947" lon="12.4325242"><ele>515.3333333333334</ele><time>2026-05-03T08:34:47.026Z</time></trkpt><trkpt lat="43.4473856" lon="12.4323558"><ele>517.0</ele><time>2026-05-03T08:34:48.027Z</time></trkpt><trkpt lat="43.4474777" lon="12.4321819"><ele>518.3333333333334</ele><time>2026-05-03T08:34:49.026Z</time></trkpt><trkpt lat="43.4475688" lon="12.4320087"><ele>519.6666666666666</ele><time>2026-05-03T08:34:50.026Z</time></trkpt><trkpt lat="43.4476525" lon="12.4318362"><ele>521.0</ele><time>2026-05-03T08:34:51.026Z</time></trkpt><trkpt lat="43.4477319" lon="12.4316614"><ele>521.0</ele><time>2026-05-03T08:34:52.026Z</time></trkpt><trkpt lat="43.4478067" lon="12.4314847"><ele>521.0</ele><time>2026-05-03T08:34:53.026Z</time></trkpt><trkpt lat="43.4478726" lon="12.4313026"><ele>521.0</ele><time>2026-05-03T08:34:54.026Z</time></trkpt><trkpt lat="43.4479385" lon="12.4311072"><ele>527.6666666666666</ele><time>2026-05-03T08:34:55.027Z</time></trkpt><trkpt lat="43.4480011" lon="12.4309015"><ele>534.3333333333334</ele><time>2026-05-03T08:34:56.027Z</time></trkpt><trkpt lat="43.448067" lon="12.4306867"><ele>541.0</ele><time>2026-05-03T08:34:57.027Z</time></trkpt><trkpt lat="43.4481357" lon="12.4304728"><ele>541.3333333333334</ele><time>2026-05-03T08:34:58.027Z</time></trkpt><trkpt lat="43.4482102" lon="12.4302585"><ele>541.6666666666666</ele><time>2026-05-03T08:34:59.026Z</time></trkpt><trkpt lat="43.44829" lon="12.430044"><ele>542.0</ele><time>2026-05-03T08:35:00.026Z</time></trkpt><trkpt lat="43.4483709" lon="12.4298278"><ele>540.3333333333333</ele><time>2026-05-03T08:35:01.026Z</time></trkpt><trkpt lat="43.4484577" lon="12.4296105"><ele>538.6666666666666</ele><time>2026-05-03T08:35:02.027Z</time></trkpt><trkpt lat="43.4485424" lon="12.4293885"><ele>537.0</ele><time>2026-05-03T08:35:03.026Z</time></trkpt><trkpt lat="43.4486325" lon="12.4291678"><ele>537.0</ele><time>2026-05-03T08:35:04.026Z</time></trkpt><trkpt lat="43.4487164" lon="12.428953"><ele>537.0</ele><time>2026-05-03T08:35:05.026Z</time></trkpt><trkpt lat="43.4488004" lon="12.428743"><ele>537.0</ele><time>2026-05-03T08:35:06.026Z</time></trkpt><trkpt lat="43.4488812" lon="12.4285431"><ele>540.5</ele><time>2026-05-03T08:35:07.026Z</time></trkpt><trkpt lat="43.4489542" lon="12.4283653"><ele>544.0</ele><time>2026-05-03T08:35:08.026Z</time></trkpt><trkpt lat="43.4490257" lon="12.4282116"><ele>547.5</ele><time>2026-05-03T08:35:09.027Z</time></trkpt><trkpt lat="43.449103" lon="12.4280699"><ele>551.0</ele><time>2026-05-03T08:35:10.026Z</time></trkpt><trkpt lat="43.4491882" lon="12.4279397"><ele>551.0</ele><time>2026-05-03T08:35:11.026Z</time></trkpt><trkpt lat="43.4492822" lon="12.427816"><ele>551.0</ele><time>2026-05-03T08:35:12.026Z</time></trkpt><trkpt lat="43.4493831" lon="12.4276956"><ele>551.0</ele><time>2026-05-03T08:35:13.026Z</time></trkpt><trkpt lat="43.4494881" lon="12.4275744"><ele>551.0</ele><time>2026-05-03T08:35:14.026Z</time></trkpt><trkpt lat="43.4495969" lon="12.4274543"><ele>553.8</ele><time>2026-05-03T08:35:15.027Z</time></trkpt><trkpt lat="43.4497005" lon="12.4273514"><ele>556.6</ele><time>2026-05-03T08:35:16.026Z</time></trkpt><trkpt lat="43.4497898" lon="12.4272589"><ele>559.4</ele><time>2026-05-03T08:35:17.026Z</time></trkpt><trkpt lat="43.4498688" lon="12.4271779"><ele>562.2</ele><time>2026-05-03T08:35:18.026Z</time></trkpt><trkpt lat="43.4499285" lon="12.4271075"><ele>565.0</ele><time>2026-05-03T08:35:19.026Z</time></trkpt><trkpt lat="43.4499812" lon="12.4270266"><ele>566.0</ele><time>2026-05-03T08:35:20.027Z</time></trkpt><trkpt lat="43.4500081" lon="12.426919"><ele>567.0</ele><time>2026-05-03T08:35:21.026Z</time></trkpt><trkpt lat="43.4500056" lon="12.4267778"><ele>568.0</ele><time>2026-05-03T08:35:22.026Z</time></trkpt><trkpt lat="43.449964" lon="12.4266302"><ele>569.0</ele><time>2026-05-03T08:35:23.026Z</time></trkpt><trkpt lat="43.4498875" lon="12.4264881"><ele>570.0</ele><time>2026-05-03T08:35:24.026Z</time></trkpt><trkpt lat="43.4497804" lon="12.4263614"><ele>573.3333333333334</ele><time>2026-05-03T08:35:25.026Z</time></trkpt><trkpt lat="43.4496526" lon="12.4262623"><ele>576.6666666666667</ele><time>2026-05-03T08:35:26.026Z</time></trkpt><trkpt lat="43.4494948" lon="12.4261811"><ele>580.0</ele><time>2026-05-03T08:35:27.026Z</time></trkpt><trkpt lat="43.4493127" lon="12.4261147"><ele>580.0</ele><time>2026-05-03T08:35:28.026Z</time></trkpt><trkpt lat="43.4491284" lon="12.4260468"><ele>580.0</ele><time>2026-05-03T08:35:29.026Z</time></trkpt><trkpt lat="43.4489527" lon="12.4259771"><ele>580.0</ele><time>2026-05-03T08:35:30.027Z</time></trkpt><trkpt lat="43.4487816" lon="12.4259138"><ele>579.6666666666667</ele><time>2026-05-03T08:35:31.026Z</time></trkpt><trkpt lat="43.4486233" lon="12.4258616"><ele>579.3333333333334</ele><time>2026-05-03T08:35:32.026Z</time></trkpt><trkpt lat="43.4484836" lon="12.4258245"><ele>579.0</ele><time>2026-05-03T08:35:33.027Z</time></trkpt><trkpt lat="43.4483358" lon="12.4258108"><ele>579.0</ele><time>2026-05-03T08:35:34.027Z</time></trkpt><trkpt lat="43.4481859" lon="12.4258254"><ele>579.0</ele><time>2026-05-03T08:35:35.026Z</time></trkpt><trkpt lat="43.4480283" lon="12.4258682"><ele>579.0</ele><time>2026-05-03T08:35:36.026Z</time></trkpt><trkpt lat="43.4478732" lon="12.425926"><ele>580.6666666666666</ele><time>2026-05-03T08:35:37.026Z</time></trkpt><trkpt lat="43.4477167" lon="12.4259939"><ele>582.3333333333333</ele><time>2026-05-03T08:35:38.026Z</time></trkpt><trkpt lat="43.4475579" lon="12.4260662"><ele>584.0</ele><time>2026-05-03T08:35:39.026Z</time></trkpt><trkpt lat="43.4474157" lon="12.4261393"><ele>584.0</ele><time>2026-05-03T08:35:40.026Z</time></trkpt><trkpt lat="43.4472844" lon="12.4262061"><ele>584.0</ele><time>2026-05-03T08:35:41.026Z</time></trkpt><trkpt lat="43.4471773" lon="12.4262342"><ele>584.0</ele><time>2026-05-03T08:35:42.026Z</time></trkpt><trkpt lat="43.44707" lon="12.4262518"><ele>584.0</ele><time>2026-05-03T08:35:43.026Z</time></trkpt><trkpt lat="43.4469811" lon="12.4262427"><ele>584.0</ele><time>2026-05-03T08:35:44.026Z</time></trkpt><trkpt lat="43.4469105" lon="12.4262112"><ele>583.2</ele><time>2026-05-03T08:35:45.026Z</time></trkpt><trkpt lat="43.4468547" lon="12.4261577"><ele>582.4</ele><time>2026-05-03T08:35:46.026Z</time></trkpt><trkpt lat="43.4467894" lon="12.4259923"><ele>581.6</ele><time>2026-05-03T08:35:48.026Z</time></trkpt><trkpt lat="43.4467849" lon="12.4258639"><ele>580.8</ele><time>2026-05-03T08:35:49.026Z</time></trkpt><trkpt lat="43.4467954" lon="12.425718"><ele>580.0</ele><time>2026-05-03T08:35:50.026Z</time></trkpt><trkpt lat="43.4468136" lon="12.4255862"><ele>578.4</ele><time>2026-05-03T08:35:51.027Z</time></trkpt><trkpt lat="43.4468321" lon="12.4254566"><ele>576.8</ele><time>2026-05-03T08:35:52.026Z</time></trkpt><trkpt lat="43.4468489" lon="12.4253332"><ele>575.2</ele><time>2026-05-03T08:35:53.027Z</time></trkpt><trkpt lat="43.446865" lon="12.4252207"><ele>573.6</ele><time>2026-05-03T08:35:54.027Z</time></trkpt><trkpt lat="43.4468796" lon="12.4251014"><ele>572.0</ele><time>2026-05-03T08:35:55.026Z</time></trkpt><trkpt lat="43.4468955" lon="12.4249744"><ele>572.0</ele><time>2026-05-03T08:35:56.026Z</time></trkpt><trkpt lat="43.446909" lon="12.4248354"><ele>572.0</ele><time>2026-05-03T08:35:57.027Z</time></trkpt><trkpt lat="43.4469326" lon="12.4247027"><ele>572.0</ele><time>2026-05-03T08:35:58.026Z</time></trkpt><trkpt lat="43.4469489" lon="12.4245742"><ele>572.0</ele><time>2026-05-03T08:35:59.026Z</time></trkpt><trkpt lat="43.4469655" lon="12.4244533"><ele>572.0</ele><time>2026-05-03T08:36:00.027Z</time></trkpt><trkpt lat="43.4469886" lon="12.4243454"><ele>570.3333333333333</ele><time>2026-05-03T08:36:01.026Z</time></trkpt><trkpt lat="43.4470166" lon="12.4242591"><ele>568.6666666666666</ele><time>2026-05-03T08:36:02.026Z</time></trkpt><trkpt lat="43.447084" lon="12.4241507"><ele>567.0</ele><time>2026-05-03T08:36:04.026Z</time></trkpt><trkpt lat="43.4471263" lon="12.4240831"><ele>565.3333333333334</ele><time>2026-05-03T08:36:07.026Z</time></trkpt><trkpt lat="43.4470675" lon="12.424038"><ele>563.6666666666667</ele><time>2026-05-03T08:36:16.027Z</time></trkpt><trkpt lat="43.4470042" lon="12.4241876"><ele>562.0</ele><time>2026-05-03T08:36:18.027Z</time></trkpt><trkpt lat="43.4469749" lon="12.4242904"><ele>562.0000000000001</ele><time>2026-05-03T08:36:19.026Z</time></trkpt><trkpt lat="43.4469549" lon="12.424389"><ele>562.0</ele><time>2026-05-03T08:36:20.026Z</time></trkpt><trkpt lat="43.4469445" lon="12.4244915"><ele>562.0</ele><time>2026-05-03T08:36:21.026Z</time></trkpt><trkpt lat="43.4469324" lon="12.4245914"><ele>562.0</ele><time>2026-05-03T08:36:22.026Z</time></trkpt><trkpt lat="43.4469216" lon="12.4246927"><ele>562.0</ele><time>2026-05-03T08:36:23.026Z</time></trkpt><trkpt lat="43.4469068" lon="12.4247909"><ele>562.0000000000001</ele><time>2026-05-03T08:36:24.026Z</time></trkpt><trkpt lat="43.4468924" lon="12.4248861"><ele>562.0</ele><time>2026-05-03T08:36:25.026Z</time></trkpt><trkpt lat="43.4468781" lon="12.4249853"><ele>563.4285714285714</ele><time>2026-05-03T08:36:26.026Z</time></trkpt><trkpt lat="43.4468651" lon="12.4250816"><ele>564.8571428571429</ele><time>2026-05-03T08:36:27.026Z</time></trkpt><trkpt lat="43.446852" lon="12.4251776"><ele>566.2857142857142</ele><time>2026-05-03T08:36:28.026Z</time></trkpt><trkpt lat="43.4468361" lon="12.4252717"><ele>567.7142857142858</ele><time>2026-05-03T08:36:29.026Z</time></trkpt><trkpt lat="43.4468186" lon="12.4253665"><ele>569.1428571428571</ele><time>2026-05-03T08:36:30.027Z</time></trkpt><trkpt lat="43.4468073" lon="12.425461"><ele>570.5714285714286</ele><time>2026-05-03T08:36:31.026Z</time></trkpt><trkpt lat="43.446796" lon="12.4255516"><ele>572.0</ele><time>2026-05-03T08:36:32.026Z</time></trkpt><trkpt lat="43.4467851" lon="12.4256373"><ele>573.3333333333333</ele><time>2026-05-03T08:36:33.026Z</time></trkpt><trkpt lat="43.446777" lon="12.4257277"><ele>574.6666666666666</ele><time>2026-05-03T08:36:34.026Z</time></trkpt><trkpt lat="43.4467575" lon="12.425896"><ele>576.0</ele><time>2026-05-03T08:36:36.026Z</time></trkpt><trkpt lat="43.4467445" lon="12.4260415"><ele>577.3333333333334</ele><time>2026-05-03T08:36:38.026Z</time></trkpt><trkpt lat="43.4467671" lon="12.4261295"><ele>578.6666666666667</ele><time>2026-05-03T08:36:40.026Z</time></trkpt><trkpt lat="43.4468134" lon="12.4261918"><ele>580.0</ele><time>2026-05-03T08:36:42.026Z</time></trkpt><trkpt lat="43.446884" lon="12.4262429"><ele>580.0</ele><time>2026-05-03T08:36:45.026Z</time></trkpt><trkpt lat="43.4469573" lon="12.426259"><ele>580.0</ele><time>2026-05-03T08:36:48.026Z</time></trkpt><trkpt lat="43.4470131" lon="12.4261831"><ele>580.0</ele><time>2026-05-03T08:36:50.026Z</time></trkpt><trkpt lat="43.4470533" lon="12.4261105"><ele>580.0</ele><time>2026-05-03T08:36:51.026Z</time></trkpt><trkpt lat="43.4471053" lon="12.4260449"><ele>580.0</ele><time>2026-05-03T08:36:52.026Z</time></trkpt><trkpt lat="43.4471708" lon="12.4259925"><ele>580.0</ele><time>2026-05-03T08:36:53.026Z</time></trkpt><trkpt lat="43.4472404" lon="12.4259467"><ele>580.0</ele><time>2026-05-03T08:36:54.026Z</time></trkpt><trkpt lat="43.4473264" lon="12.425899"><ele>580.8</ele><time>2026-05-03T08:36:55.026Z</time></trkpt><trkpt lat="43.4474196" lon="12.4258379"><ele>581.6</ele><time>2026-05-03T08:36:56.026Z</time></trkpt><trkpt lat="43.447512" lon="12.4257754"><ele>582.4</ele><time>2026-05-03T08:36:57.027Z</time></trkpt><trkpt lat="43.4476057" lon="12.4257166"><ele>583.2</ele><time>2026-05-03T08:36:58.026Z</time></trkpt><trkpt lat="43.4477002" lon="12.4256534"><ele>584.0</ele><time>2026-05-03T08:36:59.026Z</time></trkpt><trkpt lat="43.4477947" lon="12.4255916"><ele>584.0</ele><time>2026-05-03T08:37:00.026Z</time></trkpt><trkpt lat="43.4478843" lon="12.4255219"><ele>584.0</ele><time>2026-05-03T08:37:01.026Z</time></trkpt><trkpt lat="43.4479756" lon="12.4254579"><ele>584.0</ele><time>2026-05-03T08:37:02.026Z</time></trkpt><trkpt lat="43.4480722" lon="12.4253988"><ele>584.0</ele><time>2026-05-03T08:37:03.026Z</time></trkpt><trkpt lat="43.4481604" lon="12.4253289"><ele>584.0</ele><time>2026-05-03T08:37:04.026Z</time></trkpt><trkpt lat="43.4482466" lon="12.4252668"><ele>585.1666666666666</ele><time>2026-05-03T08:37:05.026Z</time></trkpt><trkpt lat="43.4483331" lon="12.4252058"><ele>586.3333333333333</ele><time>2026-05-03T08:37:06.026Z</time></trkpt><trkpt lat="43.4484111" lon="12.4251448"><ele>587.5</ele><time>2026-05-03T08:37:07.026Z</time></trkpt><trkpt lat="43.4484811" lon="12.4250919"><ele>588.6666666666666</ele><time>2026-05-03T08:37:08.026Z</time></trkpt><trkpt lat="43.4485439" lon="12.4250398"><ele>589.8333333333334</ele><time>2026-05-03T08:37:09.027Z</time></trkpt><trkpt lat="43.4486011" lon="12.4249934"><ele>591.0</ele><time>2026-05-03T08:37:10.026Z</time></trkpt><trkpt lat="43.4486576" lon="12.4249318"><ele>591.0</ele><time>2026-05-03T08:37:11.026Z</time></trkpt><trkpt lat="43.4487187" lon="12.4248638"><ele>591.0</ele><time>2026-05-03T08:37:12.026Z</time></trkpt><trkpt lat="43.4487833" lon="12.4247776"><ele>591.0</ele><time>2026-05-03T08:37:13.026Z</time></trkpt><trkpt lat="43.4488448" lon="12.4246679"><ele>591.0</ele><time>2026-05-03T08:37:14.027Z</time></trkpt><trkpt lat="43.4489015" lon="12.4245521"><ele>591.0</ele><time>2026-05-03T08:37:15.026Z</time></trkpt><trkpt lat="43.4489565" lon="12.4244484"><ele>592.2</ele><time>2026-05-03T08:37:16.026Z</time></trkpt><trkpt lat="43.4490114" lon="12.4243472"><ele>593.4000000000001</ele><time>2026-05-03T08:37:17.026Z</time></trkpt><trkpt lat="43.4490809" lon="12.4242552"><ele>594.6</ele><time>2026-05-03T08:37:18.026Z</time></trkpt><trkpt lat="43.4491608" lon="12.4241601"><ele>595.8000000000001</ele><time>2026-05-03T08:37:19.026Z</time></trkpt><trkpt lat="43.4492487" lon="12.4240782"><ele>597.0</ele><time>2026-05-03T08:37:20.026Z</time></trkpt><trkpt lat="43.4493432" lon="12.4239907"><ele>597.0</ele><time>2026-05-03T08:37:21.027Z</time></trkpt><trkpt lat="43.4494499" lon="12.4238884"><ele>597.0</ele><time>2026-05-03T08:37:22.026Z</time></trkpt><trkpt lat="43.4495507" lon="12.4237826"><ele>597.0</ele><time>2026-05-03T08:37:23.026Z</time></trkpt><trkpt lat="43.4496375" lon="12.4236872"><ele>597.0</ele><time>2026-05-03T08:37:24.026Z</time></trkpt><trkpt lat="43.4497177" lon="12.4235968"><ele>595.6</ele><time>2026-05-03T08:37:25.026Z</time></trkpt><trkpt lat="43.4497927" lon="12.4235271"><ele>594.2</ele><time>2026-05-03T08:37:26.026Z</time></trkpt><trkpt lat="43.4498672" lon="12.4234747"><ele>592.8</ele><time>2026-05-03T08:37:27.026Z</time></trkpt><trkpt lat="43.4499527" lon="12.4234456"><ele>591.4</ele><time>2026-05-03T08:37:28.026Z</time></trkpt><trkpt lat="43.4500444" lon="12.4234475"><ele>590.0</ele><time>2026-05-03T08:37:29.026Z</time></trkpt><trkpt lat="43.4501474" lon="12.4234811"><ele>590.0</ele><time>2026-05-03T08:37:30.026Z</time></trkpt><trkpt lat="43.4502529" lon="12.4235247"><ele>590.0</ele><time>2026-05-03T08:37:31.026Z</time></trkpt><trkpt lat="43.450355" lon="12.4235752"><ele>590.0</ele><time>2026-05-03T08:37:32.026Z</time></trkpt><trkpt lat="43.4504505" lon="12.4236182"><ele>590.0</ele><time>2026-05-03T08:37:33.026Z</time></trkpt><trkpt lat="43.4505447" lon="12.4236447"><ele>590.0</ele><time>2026-05-03T08:37:34.026Z</time></trkpt><trkpt lat="43.4506396" lon="12.4236663"><ele>589.6</ele><time>2026-05-03T08:37:35.026Z</time></trkpt><trkpt lat="43.4507355" lon="12.4236822"><ele>589.2</ele><time>2026-05-03T08:37:36.026Z</time></trkpt><trkpt lat="43.4508338" lon="12.4236947"><ele>588.8</ele><time>2026-05-03T08:37:37.026Z</time></trkpt><trkpt lat="43.450938" lon="12.4236952"><ele>588.4</ele><time>2026-05-03T08:37:38.026Z</time></trkpt><trkpt lat="43.4510325" lon="12.4236793"><ele>588.0</ele><time>2026-05-03T08:37:39.026Z</time></trkpt><trkpt lat="43.4511159" lon="12.4236464"><ele>588.0</ele><time>2026-05-03T08:37:40.026Z</time></trkpt><trkpt lat="43.4511915" lon="12.4235903"><ele>588.0</ele><time>2026-05-03T08:37:41.026Z</time></trkpt><trkpt lat="43.4512612" lon="12.4235136"><ele>588.0</ele><time>2026-05-03T08:37:42.026Z</time></trkpt><trkpt lat="43.4513298" lon="12.4234257"><ele>588.0</ele><time>2026-05-03T08:37:43.026Z</time></trkpt><trkpt lat="43.4514082" lon="12.4233422"><ele>588.0</ele><time>2026-05-03T08:37:44.026Z</time></trkpt><trkpt lat="43.4514951" lon="12.4232778"><ele>587.3333333333334</ele><time>2026-05-03T08:37:45.026Z</time></trkpt><trkpt lat="43.4515664" lon="12.4232176"><ele>586.6666666666666</ele><time>2026-05-03T08:37:46.026Z</time></trkpt><trkpt lat="43.4516413" lon="12.4231745"><ele>586.0</ele><time>2026-05-03T08:37:47.026Z</time></trkpt><trkpt lat="43.451727" lon="12.4231486"><ele>585.3333333333333</ele><time>2026-05-03T08:37:48.026Z</time></trkpt><trkpt lat="43.4518127" lon="12.4231553"><ele>584.6666666666666</ele><time>2026-05-03T08:37:49.026Z</time></trkpt><trkpt lat="43.4518971" lon="12.4231947"><ele>584.0</ele><time>2026-05-03T08:37:50.026Z</time></trkpt><trkpt lat="43.45197" lon="12.4232643"><ele>584.0</ele><time>2026-05-03T08:37:51.026Z</time></trkpt><trkpt lat="43.4520344" lon="12.423354"><ele>584.0</ele><time>2026-05-03T08:37:52.026Z</time></trkpt><trkpt lat="43.4520976" lon="12.4234596"><ele>584.0</ele><time>2026-05-03T08:37:53.026Z</time></trkpt><trkpt lat="43.4521527" lon="12.4235539"><ele>584.0</ele><time>2026-05-03T08:37:54.026Z</time></trkpt><trkpt lat="43.4522186" lon="12.4236066"><ele>584.0</ele><time>2026-05-03T08:37:55.026Z</time></trkpt><trkpt lat="43.4522934" lon="12.4236279"><ele>584.0</ele><time>2026-05-03T08:37:56.026Z</time></trkpt><trkpt lat="43.4523862" lon="12.4236249"><ele>582.5</ele><time>2026-05-03T08:37:57.026Z</time></trkpt><trkpt lat="43.4524994" lon="12.4236392"><ele>581.0</ele><time>2026-05-03T08:37:58.026Z</time></trkpt><trkpt lat="43.4526257" lon="12.4236679"><ele>579.5</ele><time>2026-05-03T08:37:59.027Z</time></trkpt><trkpt lat="43.452761" lon="12.4237043"><ele>578.0</ele><time>2026-05-03T08:38:00.026Z</time></trkpt><trkpt lat="43.4529154" lon="12.4237369"><ele>577.25</ele><time>2026-05-03T08:38:01.026Z</time></trkpt><trkpt lat="43.4530522" lon="12.4237687"><ele>576.5</ele><time>2026-05-03T08:38:02.026Z</time></trkpt><trkpt lat="43.4531761" lon="12.423785"><ele>575.75</ele><time>2026-05-03T08:38:03.026Z</time></trkpt><trkpt lat="43.4532941" lon="12.4238144"><ele>575.0</ele><time>2026-05-03T08:38:04.026Z</time></trkpt><trkpt lat="43.4534121" lon="12.4238544"><ele>577.0</ele><time>2026-05-03T08:38:05.026Z</time></trkpt><trkpt lat="43.4535153" lon="12.4238895"><ele>579.0</ele><time>2026-05-03T08:38:06.026Z</time></trkpt><trkpt lat="43.4536034" lon="12.4239101"><ele>581.0</ele><time>2026-05-03T08:38:07.026Z</time></trkpt><trkpt lat="43.4536829" lon="12.4239045"><ele>583.0</ele><time>2026-05-03T08:38:08.027Z</time></trkpt><trkpt lat="43.4537631" lon="12.4238668"><ele>585.0</ele><time>2026-05-03T08:38:09.026Z</time></trkpt><trkpt lat="43.4538306" lon="12.4237926"><ele>587.0</ele><time>2026-05-03T08:38:10.026Z</time></trkpt><trkpt lat="43.4538833" lon="12.4236742"><ele>587.0</ele><time>2026-05-03T08:38:11.026Z</time></trkpt><trkpt lat="43.4539158" lon="12.4235496"><ele>587.0</ele><time>2026-05-03T08:38:12.026Z</time></trkpt><trkpt lat="43.4539532" lon="12.4234484"><ele>587.0</ele><time>2026-05-03T08:38:13.027Z</time></trkpt><trkpt lat="43.4540186" lon="12.4233506"><ele>587.0</ele><time>2026-05-03T08:38:14.026Z</time></trkpt><trkpt lat="43.4541094" lon="12.4232706"><ele>587.0</ele><time>2026-05-03T08:38:15.027Z</time></trkpt><trkpt lat="43.4542179" lon="12.4232172"><ele>587.0</ele><time>2026-05-03T08:38:16.027Z</time></trkpt><trkpt lat="43.4543367" lon="12.4231961"><ele>587.0</ele><time>2026-05-03T08:38:17.026Z</time></trkpt><trkpt lat="43.4544629" lon="12.4232052"><ele>587.0</ele><time>2026-05-03T08:38:18.027Z</time></trkpt><trkpt lat="43.4546055" lon="12.4232384"><ele>587.0</ele><time>2026-05-03T08:38:19.026Z</time></trkpt><trkpt lat="43.4547628" lon="12.4232927"><ele>587.0</ele><time>2026-05-03T08:38:20.026Z</time></trkpt><trkpt lat="43.4549336" lon="12.4233489"><ele>587.0</ele><time>2026-05-03T08:38:21.026Z</time></trkpt><trkpt lat="43.4551193" lon="12.4233948"><ele>587.0</ele><time>2026-05-03T08:38:22.026Z</time></trkpt><trkpt lat="43.4553095" lon="12.4234431"><ele>585.3333333333333</ele><time>2026-05-03T08:38:23.026Z</time></trkpt><trkpt lat="43.4554867" lon="12.4234908"><ele>583.6666666666666</ele><time>2026-05-03T08:38:24.026Z</time></trkpt><trkpt lat="43.4556511" lon="12.42353"><ele>582.0</ele><time>2026-05-03T08:38:25.026Z</time></trkpt><trkpt lat="43.4558059" lon="12.4235644"><ele>582.0</ele><time>2026-05-03T08:38:26.026Z</time></trkpt><trkpt lat="43.455953" lon="12.4235979"><ele>582.0</ele><time>2026-05-03T08:38:27.026Z</time></trkpt><trkpt lat="43.4560988" lon="12.4236464"><ele>582.0</ele><time>2026-05-03T08:38:28.027Z</time></trkpt><trkpt lat="43.4562411" lon="12.4236999"><ele>582.0</ele><time>2026-05-03T08:38:29.027Z</time></trkpt><trkpt lat="43.4563766" lon="12.4237482"><ele>582.4</ele><time>2026-05-03T08:38:30.027Z</time></trkpt><trkpt lat="43.4565167" lon="12.4237764"><ele>582.8000000000001</ele><time>2026-05-03T08:38:31.026Z</time></trkpt><trkpt lat="43.4566194" lon="12.4237831"><ele>583.2</ele><time>2026-05-03T08:38:32.026Z</time></trkpt><trkpt lat="43.456715" lon="12.4237611"><ele>583.6</ele><time>2026-05-03T08:38:33.026Z</time></trkpt><trkpt lat="43.4568026" lon="12.4237191"><ele>584.0</ele><time>2026-05-03T08:38:34.026Z</time></trkpt><trkpt lat="43.4568849" lon="12.4236275"><ele>584.0</ele><time>2026-05-03T08:38:35.027Z</time></trkpt><trkpt lat="43.4569722" lon="12.4235192"><ele>584.0</ele><time>2026-05-03T08:38:36.026Z</time></trkpt><trkpt lat="43.457055" lon="12.4234097"><ele>584.0</ele><time>2026-05-03T08:38:37.026Z</time></trkpt><trkpt lat="43.4571337" lon="12.4233069"><ele>584.0</ele><time>2026-05-03T08:38:38.026Z</time></trkpt><trkpt lat="43.45722" lon="12.4232106"><ele>582.8</ele><time>2026-05-03T08:38:39.026Z</time></trkpt><trkpt lat="43.4573017" lon="12.4231208"><ele>581.5999999999999</ele><time>2026-05-03T08:38:40.026Z</time></trkpt><trkpt lat="43.4573871" lon="12.4230321"><ele>580.4</ele><time>2026-05-03T08:38:41.026Z</time></trkpt><trkpt lat="43.457481" lon="12.4229443"><ele>579.1999999999999</ele><time>2026-05-03T08:38:42.026Z</time></trkpt><trkpt lat="43.4575704" lon="12.4228482"><ele>578.0</ele><time>2026-05-03T08:38:43.026Z</time></trkpt><trkpt lat="43.4576527" lon="12.4227642"><ele>578.0</ele><time>2026-05-03T08:38:44.026Z</time></trkpt><trkpt lat="43.4577312" lon="12.4226833"><ele>578.0</ele><time>2026-05-03T08:38:45.026Z</time></trkpt><trkpt lat="43.4578029" lon="12.4226163"><ele>578.0</ele><time>2026-05-03T08:38:46.026Z</time></trkpt><trkpt lat="43.4578649" lon="12.4225658"><ele>578.0</ele><time>2026-05-03T08:38:47.026Z</time></trkpt><trkpt lat="43.457931" lon="12.4225226"><ele>578.0</ele><time>2026-05-03T08:38:49.026Z</time></trkpt><trkpt lat="43.4580038" lon="12.4224185"><ele>578.0</ele><time>2026-05-03T08:38:52.027Z</time></trkpt><trkpt lat="43.4580647" lon="12.422289"><ele>576.8</ele><time>2026-05-03T08:38:54.026Z</time></trkpt><trkpt lat="43.4581029" lon="12.422133"><ele>575.5999999999999</ele><time>2026-05-03T08:38:56.026Z</time></trkpt><trkpt lat="43.458112" lon="12.421984"><ele>574.4000000000001</ele><time>2026-05-03T08:38:58.026Z</time></trkpt><trkpt lat="43.4581327" lon="12.4218722"><ele>573.2</ele><time>2026-05-03T08:39:00.026Z</time></trkpt><trkpt lat="43.4581752" lon="12.4217809"><ele>572.0</ele><time>2026-05-03T08:39:02.026Z</time></trkpt><trkpt lat="43.4582053" lon="12.4216868"><ele>572.0</ele><time>2026-05-03T08:39:04.026Z</time></trkpt><trkpt lat="43.4582063" lon="12.4215989"><ele>572.0</ele><time>2026-05-03T08:39:07.026Z</time></trkpt><trkpt lat="43.4581977" lon="12.4217033"><ele>572.0</ele><time>2026-05-03T08:39:29.026Z</time></trkpt><trkpt lat="43.4581634" lon="12.4217892"><ele>572.0</ele><time>2026-05-03T08:39:31.027Z</time></trkpt><trkpt lat="43.4581334" lon="12.4219041"><ele>572.0</ele><time>2026-05-03T08:39:33.026Z</time></trkpt><trkpt lat="43.4581116" lon="12.4220387"><ele>572.0</ele><time>2026-05-03T08:39:35.026Z</time></trkpt><trkpt lat="43.4580886" lon="12.4221778"><ele>573.6</ele><time>2026-05-03T08:39:37.026Z</time></trkpt><trkpt lat="43.4580435" lon="12.4223133"><ele>575.2</ele><time>2026-05-03T08:39:39.027Z</time></trkpt><trkpt lat="43.4579856" lon="12.4224255"><ele>576.8</ele><time>2026-05-03T08:39:41.026Z</time></trkpt><trkpt lat="43.4579692" lon="12.4225383"><ele>578.4</ele><time>2026-05-03T08:39:44.026Z</time></trkpt><trkpt lat="43.4580633" lon="12.422624"><ele>580.0</ele><time>2026-05-03T08:39:47.027Z</time></trkpt><trkpt lat="43.4581188" lon="12.4226758"><ele>580.0</ele><time>2026-05-03T08:39:48.026Z</time></trkpt><trkpt lat="43.4581794" lon="12.4227395"><ele>580.0</ele><time>2026-05-03T08:39:49.026Z</time></trkpt><trkpt lat="43.4582444" lon="12.4228136"><ele>580.0</ele><time>2026-05-03T08:39:50.026Z</time></trkpt><trkpt lat="43.4583175" lon="12.4228978"><ele>580.0</ele><time>2026-05-03T08:39:51.026Z</time></trkpt><trkpt lat="43.4583941" lon="12.422988"><ele>580.0</ele><time>2026-05-03T08:39:52.026Z</time></trkpt><trkpt lat="43.4584572" lon="12.4230757"><ele>580.0</ele><time>2026-05-03T08:39:53.027Z</time></trkpt><trkpt lat="43.4585135" lon="12.4231549"><ele>581.6</ele><time>2026-05-03T08:39:54.026Z</time></trkpt><trkpt lat="43.4585581" lon="12.4232279"><ele>583.2</ele><time>2026-05-03T08:39:55.026Z</time></trkpt><trkpt lat="43.4586318" lon="12.4233501"><ele>584.8</ele><time>2026-05-03T08:39:57.027Z</time></trkpt><trkpt lat="43.4586994" lon="12.423458"><ele>586.4</ele><time>2026-05-03T08:39:59.026Z</time></trkpt><trkpt lat="43.4587732" lon="12.4235776"><ele>588.0</ele><time>2026-05-03T08:40:01.027Z</time></trkpt><trkpt lat="43.4588083" lon="12.4236623"><ele>588.0</ele><time>2026-05-03T08:40:02.026Z</time></trkpt><trkpt lat="43.4588496" lon="12.4237541"><ele>588.0</ele><time>2026-05-03T08:40:03.026Z</time></trkpt><trkpt lat="43.4588915" lon="12.4238296"><ele>588.0</ele><time>2026-05-03T08:40:04.026Z</time></trkpt><trkpt lat="43.4589424" lon="12.4238913"><ele>588.0</ele><time>2026-05-03T08:40:05.026Z</time></trkpt><trkpt lat="43.4589994" lon="12.4239355"><ele>588.0</ele><time>2026-05-03T08:40:06.026Z</time></trkpt><trkpt lat="43.4590625" lon="12.4239696"><ele>588.0</ele><time>2026-05-03T08:40:07.026Z</time></trkpt><trkpt lat="43.4591437" lon="12.4239933"><ele>588.0</ele><time>2026-05-03T08:40:08.027Z</time></trkpt><trkpt lat="43.4592344" lon="12.4240201"><ele>590.4</ele><time>2026-05-03T08:40:09.027Z</time></trkpt><trkpt lat="43.4593314" lon="12.424036"><ele>592.8</ele><time>2026-05-03T08:40:10.026Z</time></trkpt><trkpt lat="43.4594399" lon="12.4240523"><ele>595.2</ele><time>2026-05-03T08:40:11.026Z</time></trkpt><trkpt lat="43.4595302" lon="12.4240594"><ele>597.6</ele><time>2026-05-03T08:40:12.026Z</time></trkpt><trkpt lat="43.4596089" lon="12.4240774"><ele>600.0</ele><time>2026-05-03T08:40:13.026Z</time></trkpt><trkpt lat="43.4596908" lon="12.4241119"><ele>601.0</ele><time>2026-05-03T08:40:14.027Z</time></trkpt><trkpt lat="43.4597594" lon="12.4241552"><ele>602.0</ele><time>2026-05-03T08:40:15.026Z</time></trkpt><trkpt lat="43.4598163" lon="12.4242076"><ele>603.0</ele><time>2026-05-03T08:40:16.026Z</time></trkpt><trkpt lat="43.4598863" lon="12.4243574"><ele>604.0</ele><time>2026-05-03T08:40:18.026Z</time></trkpt><trkpt lat="43.459925" lon="12.4244609"><ele>605.0</ele><time>2026-05-03T08:40:19.026Z</time></trkpt><trkpt lat="43.459953" lon="12.4245584"><ele>606.0</ele><time>2026-05-03T08:40:20.026Z</time></trkpt><trkpt lat="43.4599822" lon="12.4246462"><ele>607.3333333333334</ele><time>2026-05-03T08:40:21.026Z</time></trkpt><trkpt lat="43.4600178" lon="12.424728"><ele>608.6666666666666</ele><time>2026-05-03T08:40:22.026Z</time></trkpt><trkpt lat="43.460057" lon="12.4247987"><ele>610.0</ele><time>2026-05-03T08:40:23.026Z</time></trkpt><trkpt lat="43.4601546" lon="12.4248957"><ele>611.3333333333333</ele><time>2026-05-03T08:40:25.026Z</time></trkpt><trkpt lat="43.460218" lon="12.4249299"><ele>612.6666666666666</ele><time>2026-05-03T08:40:26.026Z</time></trkpt><trkpt lat="43.4603029" lon="12.4249497"><ele>614.0</ele><time>2026-05-03T08:40:27.026Z</time></trkpt><trkpt lat="43.4603858" lon="12.4249646"><ele>614.3333333333333</ele><time>2026-05-03T08:40:28.026Z</time></trkpt><trkpt lat="43.4604726" lon="12.424978"><ele>614.6666666666666</ele><time>2026-05-03T08:40:29.026Z</time></trkpt><trkpt lat="43.4605531" lon="12.4249955"><ele>615.0</ele><time>2026-05-03T08:40:30.026Z</time></trkpt><trkpt lat="43.460631" lon="12.4250065"><ele>615.3333333333334</ele><time>2026-05-03T08:40:31.026Z</time></trkpt><trkpt lat="43.4607139" lon="12.4250244"><ele>615.6666666666667</ele><time>2026-05-03T08:40:32.026Z</time></trkpt><trkpt lat="43.4608077" lon="12.4250384"><ele>616.0</ele><time>2026-05-03T08:40:33.027Z</time></trkpt><trkpt lat="43.460904" lon="12.4250563"><ele>616.0</ele><time>2026-05-03T08:40:34.026Z</time></trkpt><trkpt lat="43.4610019" lon="12.4250755"><ele>616.0</ele><time>2026-05-03T08:40:35.026Z</time></trkpt><trkpt lat="43.461107" lon="12.4250912"><ele>616.0</ele><time>2026-05-03T08:40:36.026Z</time></trkpt><trkpt lat="43.4612063" lon="12.4251094"><ele>616.0</ele><time>2026-05-03T08:40:37.026Z</time></trkpt><trkpt lat="43.4612921" lon="12.4251151"><ele>616.0</ele><time>2026-05-03T08:40:38.026Z</time></trkpt><trkpt lat="43.4614105" lon="12.4251325"><ele>616.0</ele><time>2026-05-03T08:40:40.026Z</time></trkpt><trkpt lat="43.4614758" lon="12.4251267"><ele>616.0</ele><time>2026-05-03T08:40:42.026Z</time></trkpt><trkpt lat="43.4615516" lon="12.4251674"><ele>616.0</ele><time>2026-05-03T08:40:51.026Z</time></trkpt><trkpt lat="43.4615029" lon="12.4252432"><ele>616.0</ele><time>2026-05-03T08:40:54.026Z</time></trkpt><trkpt lat="43.461411" lon="12.4252797"><ele>616.0</ele><time>2026-05-03T08:40:56.026Z</time></trkpt><trkpt lat="43.4613432" lon="12.4252933"><ele>616.0</ele><time>2026-05-03T08:40:57.026Z</time></trkpt><trkpt lat="43.4612803" lon="12.4253073"><ele>616.0</ele><time>2026-05-03T08:40:58.026Z</time></trkpt><trkpt lat="43.46117" lon="12.4253215"><ele>616.0</ele><time>2026-05-03T08:41:00.026Z</time></trkpt><trkpt lat="43.4610704" lon="12.4253427"><ele>616.0</ele><time>2026-05-03T08:41:02.026Z</time></trkpt><trkpt lat="43.460965" lon="12.4254104"><ele>616.0</ele><time>2026-05-03T08:41:04.026Z</time></trkpt><trkpt lat="43.4609077" lon="12.4254648"><ele>616.0</ele><time>2026-05-03T08:41:05.027Z</time></trkpt><trkpt lat="43.4608556" lon="12.4255198"><ele>616.0</ele><time>2026-05-03T08:41:06.026Z</time></trkpt><trkpt lat="43.4607843" lon="12.4256088"><ele>616.0</ele><time>2026-05-03T08:41:08.027Z</time></trkpt><trkpt lat="43.4607268" lon="12.4256696"><ele>617.2</ele><time>2026-05-03T08:41:10.026Z</time></trkpt><trkpt lat="43.4606385" lon="12.4256861"><ele>618.4000000000001</ele><time>2026-05-03T08:41:12.026Z</time></trkpt><trkpt lat="43.4605229" lon="12.4256894"><ele>619.6</ele><time>2026-05-03T08:41:14.027Z</time></trkpt><trkpt lat="43.4604553" lon="12.4256957"><ele>620.8000000000001</ele><time>2026-05-03T08:41:15.026Z</time></trkpt><trkpt lat="43.460325" lon="12.4257352"><ele>622.0</ele><time>2026-05-03T08:41:17.026Z</time></trkpt><trkpt lat="43.4602473" lon="12.425774"><ele>622.0</ele><time>2026-05-03T08:41:18.026Z</time></trkpt><trkpt lat="43.4601723" lon="12.4258212"><ele>622.0</ele><time>2026-05-03T08:41:19.026Z</time></trkpt><trkpt lat="43.4600903" lon="12.4258748"><ele>622.0</ele><time>2026-05-03T08:41:20.026Z</time></trkpt><trkpt lat="43.4600011" lon="12.4259394"><ele>622.0</ele><time>2026-05-03T08:41:21.026Z</time></trkpt><trkpt lat="43.4599142" lon="12.4260027"><ele>622.0</ele><time>2026-05-03T08:41:22.026Z</time></trkpt><trkpt lat="43.4598354" lon="12.4260545"><ele>622.0</ele><time>2026-05-03T08:41:23.026Z</time></trkpt><trkpt lat="43.4597617" lon="12.4261089"><ele>622.0</ele><time>2026-05-03T08:41:24.026Z</time></trkpt><trkpt lat="43.4596952" lon="12.4261611"><ele>622.0</ele><time>2026-05-03T08:41:25.027Z</time></trkpt><trkpt lat="43.4596334" lon="12.4262162"><ele>622.0</ele><time>2026-05-03T08:41:26.026Z</time></trkpt><trkpt lat="43.4595677" lon="12.4262821"><ele>622.0</ele><time>2026-05-03T08:41:27.026Z</time></trkpt><trkpt lat="43.4594991" lon="12.4263526"><ele>622.0</ele><time>2026-05-03T08:41:28.026Z</time></trkpt><trkpt lat="43.459424" lon="12.4264235"><ele>623.8000000000001</ele><time>2026-05-03T08:41:29.026Z</time></trkpt><trkpt lat="43.4593516" lon="12.4264974"><ele>625.6</ele><time>2026-05-03T08:41:30.027Z</time></trkpt><trkpt lat="43.4592719" lon="12.426556"><ele>627.4000000000001</ele><time>2026-05-03T08:41:31.026Z</time></trkpt><trkpt lat="43.4591834" lon="12.4266005"><ele>629.2</ele><time>2026-05-03T08:41:32.026Z</time></trkpt><trkpt lat="43.4590956" lon="12.4266317"><ele>631.0</ele><time>2026-05-03T08:41:33.026Z</time></trkpt><trkpt lat="43.4589998" lon="12.4266532"><ele>631.0</ele><time>2026-05-03T08:41:34.027Z</time></trkpt><trkpt lat="43.4589035" lon="12.426663"><ele>631.0</ele><time>2026-05-03T08:41:35.026Z</time></trkpt><trkpt lat="43.4588058" lon="12.4266717"><ele>631.0</ele><time>2026-05-03T08:41:36.026Z</time></trkpt><trkpt lat="43.4587076" lon="12.4266625"><ele>631.0</ele><time>2026-05-03T08:41:37.026Z</time></trkpt><trkpt lat="43.4586097" lon="12.4266532"><ele>631.0</ele><time>2026-05-03T08:41:38.026Z</time></trkpt><trkpt lat="43.4584966" lon="12.4266336"><ele>632.5</ele><time>2026-05-03T08:41:39.026Z</time></trkpt><trkpt lat="43.4583685" lon="12.4265959"><ele>634.0</ele><time>2026-05-03T08:41:40.026Z</time></trkpt><trkpt lat="43.4582416" lon="12.4265514"><ele>635.5</ele><time>2026-05-03T08:41:41.026Z</time></trkpt><trkpt lat="43.4581144" lon="12.4264913"><ele>637.0</ele><time>2026-05-03T08:41:42.026Z</time></trkpt><trkpt lat="43.4579958" lon="12.426411"><ele>636.4</ele><time>2026-05-03T08:41:43.026Z</time></trkpt><trkpt lat="43.4578842" lon="12.4263349"><ele>635.8000000000001</ele><time>2026-05-03T08:41:44.027Z</time></trkpt><trkpt lat="43.4577804" lon="12.4262653"><ele>635.2</ele><time>2026-05-03T08:41:45.026Z</time></trkpt><trkpt lat="43.4576824" lon="12.4262063"><ele>634.6</ele><time>2026-05-03T08:41:46.026Z</time></trkpt><trkpt lat="43.4576" lon="12.4261602"><ele>634.0</ele><time>2026-05-03T08:41:47.027Z</time></trkpt><trkpt lat="43.4575337" lon="12.4261353"><ele>634.0</ele><time>2026-05-03T08:41:48.026Z</time></trkpt><trkpt lat="43.4574123" lon="12.4260867"><ele>634.0</ele><time>2026-05-03T08:41:50.026Z</time></trkpt><trkpt lat="43.4573305" lon="12.4260464"><ele>634.0</ele><time>2026-05-03T08:41:52.026Z</time></trkpt><trkpt lat="43.4572486" lon="12.4259935"><ele>634.0</ele><time>2026-05-03T08:41:54.027Z</time></trkpt><trkpt lat="43.4571648" lon="12.4259521"><ele>634.0</ele><time>2026-05-03T08:41:56.026Z</time></trkpt><trkpt lat="43.4570396" lon="12.4259745"><ele>633.6666666666667</ele><time>2026-05-03T08:41:58.026Z</time></trkpt><trkpt lat="43.4569673" lon="12.4260027"><ele>633.3333333333334</ele><time>2026-05-03T08:41:59.026Z</time></trkpt><trkpt lat="43.456893" lon="12.4260469"><ele>633.0</ele><time>2026-05-03T08:42:00.026Z</time></trkpt><trkpt lat="43.4568154" lon="12.4260984"><ele>632.6666666666666</ele><time>2026-05-03T08:42:01.026Z</time></trkpt><trkpt lat="43.4567339" lon="12.4261581"><ele>632.3333333333333</ele><time>2026-05-03T08:42:02.026Z</time></trkpt><trkpt lat="43.4566462" lon="12.4262082"><ele>632.0</ele><time>2026-05-03T08:42:03.027Z</time></trkpt><trkpt lat="43.4565616" lon="12.4262617"><ele>633.6</ele><time>2026-05-03T08:42:04.026Z</time></trkpt><trkpt lat="43.4564891" lon="12.4263138"><ele>635.2</ele><time>2026-05-03T08:42:05.026Z</time></trkpt><trkpt lat="43.4564332" lon="12.4263646"><ele>636.8</ele><time>2026-05-03T08:42:06.027Z</time></trkpt><trkpt lat="43.4563662" lon="12.4264626"><ele>638.4</ele><time>2026-05-03T08:42:08.026Z</time></trkpt><trkpt lat="43.4563124" lon="12.4265836"><ele>640.0</ele><time>2026-05-03T08:42:10.026Z</time></trkpt><trkpt lat="43.4562376" lon="12.4266856"><ele>640.0</ele><time>2026-05-03T08:42:12.026Z</time></trkpt><trkpt lat="43.4561683" lon="12.4267654"><ele>640.0</ele><time>2026-05-03T08:42:14.026Z</time></trkpt><trkpt lat="43.456095" lon="12.4268513"><ele>640.0</ele><time>2026-05-03T08:42:17.026Z</time></trkpt><trkpt lat="43.4560417" lon="12.4269182"><ele>640.0</ele><time>2026-05-03T08:42:19.026Z</time></trkpt><trkpt lat="43.4559671" lon="12.4269975"><ele>640.0</ele><time>2026-05-03T08:42:21.026Z</time></trkpt><trkpt lat="43.4558719" lon="12.4271026"><ele>639.4</ele><time>2026-05-03T08:42:23.026Z</time></trkpt><trkpt lat="43.4557866" lon="12.4272048"><ele>638.8</ele><time>2026-05-03T08:42:25.026Z</time></trkpt><trkpt lat="43.4556875" lon="12.4272793"><ele>638.2</ele><time>2026-05-03T08:42:27.026Z</time></trkpt><trkpt lat="43.455619" lon="12.4273065"><ele>637.6</ele><time>2026-05-03T08:42:28.026Z</time></trkpt><trkpt lat="43.4555436" lon="12.4273275"><ele>637.0</ele><time>2026-05-03T08:42:29.026Z</time></trkpt><trkpt lat="43.4554645" lon="12.4273439"><ele>637.0</ele><time>2026-05-03T08:42:30.026Z</time></trkpt><trkpt lat="43.4553808" lon="12.4273585"><ele>637.0</ele><time>2026-05-03T08:42:31.026Z</time></trkpt><trkpt lat="43.4552931" lon="12.4273789"><ele>637.0</ele><time>2026-05-03T08:42:32.027Z</time></trkpt><trkpt lat="43.4552111" lon="12.4273912"><ele>637.0</ele><time>2026-05-03T08:42:33.026Z</time></trkpt><trkpt lat="43.4551405" lon="12.4274103"><ele>637.0</ele><time>2026-05-03T08:42:34.026Z</time></trkpt><trkpt lat="43.455077" lon="12.4274314"><ele>637.0</ele><time>2026-05-03T08:42:35.026Z</time></trkpt><trkpt lat="43.4550179" lon="12.4274688"><ele>637.0</ele><time>2026-05-03T08:42:36.026Z</time></trkpt><trkpt lat="43.4549701" lon="12.4275362"><ele>637.0</ele><time>2026-05-03T08:42:37.026Z</time></trkpt><trkpt lat="43.4549324" lon="12.4276242"><ele>637.0</ele><time>2026-05-03T08:42:38.027Z</time></trkpt><trkpt lat="43.4549115" lon="12.4277307"><ele>637.0</ele><time>2026-05-03T08:42:39.026Z</time></trkpt><trkpt lat="43.4549042" lon="12.4278404"><ele>637.0</ele><time>2026-05-03T08:42:40.026Z</time></trkpt><trkpt lat="43.4548871" lon="12.4279601"><ele>637.0</ele><time>2026-05-03T08:42:41.026Z</time></trkpt><trkpt lat="43.4548755" lon="12.4280798"><ele>634.2</ele><time>2026-05-03T08:42:42.026Z</time></trkpt><trkpt lat="43.4548563" lon="12.4281988"><ele>631.4000000000001</ele><time>2026-05-03T08:42:43.026Z</time></trkpt><trkpt lat="43.4548307" lon="12.4283174"><ele>628.5999999999999</ele><time>2026-05-03T08:42:44.026Z</time></trkpt><trkpt lat="43.4547967" lon="12.4284363"><ele>625.8</ele><time>2026-05-03T08:42:45.026Z</time></trkpt><trkpt lat="43.4547606" lon="12.428551"><ele>623.0</ele><time>2026-05-03T08:42:46.026Z</time></trkpt><trkpt lat="43.4547226" lon="12.4286603"><ele>623.0</ele><time>2026-05-03T08:42:47.026Z</time></trkpt><trkpt lat="43.4546823" lon="12.4287618"><ele>623.0</ele><time>2026-05-03T08:42:48.026Z</time></trkpt><trkpt lat="43.454643" lon="12.4288541"><ele>623.0</ele><time>2026-05-03T08:42:49.027Z</time></trkpt><trkpt lat="43.4545878" lon="12.4289255"><ele>623.0</ele><time>2026-05-03T08:42:50.026Z</time></trkpt><trkpt lat="43.4545208" lon="12.4289684"><ele>623.0</ele><time>2026-05-03T08:42:51.027Z</time></trkpt><trkpt lat="43.4544429" lon="12.4289873"><ele>623.0</ele><time>2026-05-03T08:42:52.026Z</time></trkpt><trkpt lat="43.4543475" lon="12.4289742"><ele>625.25</ele><time>2026-05-03T08:42:53.026Z</time></trkpt><trkpt lat="43.4542447" lon="12.4289413"><ele>627.5</ele><time>2026-05-03T08:42:54.026Z</time></trkpt><trkpt lat="43.454132" lon="12.4288801"><ele>629.75</ele><time>2026-05-03T08:42:55.026Z</time></trkpt><trkpt lat="43.4540201" lon="12.4288283"><ele>632.0</ele><time>2026-05-03T08:42:56.027Z</time></trkpt><trkpt lat="43.4538991" lon="12.428775"><ele>628.25</ele><time>2026-05-03T08:42:57.027Z</time></trkpt><trkpt lat="43.4537819" lon="12.4287261"><ele>624.5</ele><time>2026-05-03T08:42:58.026Z</time></trkpt><trkpt lat="43.4536719" lon="12.4286861"><ele>620.75</ele><time>2026-05-03T08:42:59.027Z</time></trkpt><trkpt lat="43.4535618" lon="12.4286561"><ele>617.0</ele><time>2026-05-03T08:43:00.026Z</time></trkpt><trkpt lat="43.4534574" lon="12.4286278"><ele>617.0</ele><time>2026-05-03T08:43:01.026Z</time></trkpt><trkpt lat="43.4533536" lon="12.428599"><ele>617.0</ele><time>2026-05-03T08:43:02.026Z</time></trkpt><trkpt lat="43.453249" lon="12.428569"><ele>617.0</ele><time>2026-05-03T08:43:03.026Z</time></trkpt><trkpt lat="43.453142" lon="12.4285343"><ele>617.0</ele><time>2026-05-03T08:43:04.026Z</time></trkpt><trkpt lat="43.4530326" lon="12.4284914"><ele>617.0</ele><time>2026-05-03T08:43:05.026Z</time></trkpt><trkpt lat="43.4529175" lon="12.4284371"><ele>613.75</ele><time>2026-05-03T08:43:06.026Z</time></trkpt><trkpt lat="43.4528045" lon="12.4283683"><ele>610.5</ele><time>2026-05-03T08:43:07.027Z</time></trkpt><trkpt lat="43.4526794" lon="12.428298"><ele>607.25</ele><time>2026-05-03T08:43:08.026Z</time></trkpt><trkpt lat="43.4525523" lon="12.4282305"><ele>604.0</ele><time>2026-05-03T08:43:09.027Z</time></trkpt><trkpt lat="43.452431" lon="12.4281709"><ele>604.0</ele><time>2026-05-03T08:43:10.027Z</time></trkpt><trkpt lat="43.4523116" lon="12.4281292"><ele>604.0</ele><time>2026-05-03T08:43:11.026Z</time></trkpt><trkpt lat="43.4521956" lon="12.4281049"><ele>604.0</ele><time>2026-05-03T08:43:12.026Z</time></trkpt><trkpt lat="43.4520877" lon="12.4280993"><ele>604.0</ele><time>2026-05-03T08:43:13.026Z</time></trkpt><trkpt lat="43.4519879" lon="12.4281131"><ele>604.0</ele><time>2026-05-03T08:43:14.026Z</time></trkpt><trkpt lat="43.4518974" lon="12.4281477"><ele>602.6666666666667</ele><time>2026-05-03T08:43:15.026Z</time></trkpt><trkpt lat="43.4518134" lon="12.4282024"><ele>601.3333333333334</ele><time>2026-05-03T08:43:16.026Z</time></trkpt><trkpt lat="43.4517554" lon="12.4282491"><ele>600.0</ele><time>2026-05-03T08:43:17.026Z</time></trkpt><trkpt lat="43.4517118" lon="12.4283175"><ele>598.6666666666666</ele><time>2026-05-03T08:43:19.027Z</time></trkpt><trkpt lat="43.4516588" lon="12.4284061"><ele>597.3333333333333</ele><time>2026-05-03T08:43:23.026Z</time></trkpt><trkpt lat="43.4515913" lon="12.4284971"><ele>596.0</ele><time>2026-05-03T08:43:25.026Z</time></trkpt><trkpt lat="43.4515461" lon="12.4286792"><ele>596.0</ele><time>2026-05-03T08:43:27.026Z</time></trkpt><trkpt lat="43.4515421" lon="12.4287973"><ele>596.0</ele><time>2026-05-03T08:43:28.026Z</time></trkpt><trkpt lat="43.4515408" lon="12.4289195"><ele>596.0</ele><time>2026-05-03T08:43:29.026Z</time></trkpt><trkpt lat="43.451544" lon="12.42905"><ele>596.0</ele><time>2026-05-03T08:43:30.027Z</time></trkpt><trkpt lat="43.451546" lon="12.4291883"><ele>596.0</ele><time>2026-05-03T08:43:31.026Z</time></trkpt><trkpt lat="43.4515504" lon="12.4293283"><ele>594.8571428571429</ele><time>2026-05-03T08:43:32.027Z</time></trkpt><trkpt lat="43.4515583" lon="12.4294511"><ele>593.7142857142857</ele><time>2026-05-03T08:43:33.026Z</time></trkpt><trkpt lat="43.4515635" lon="12.4295553"><ele>592.5714285714286</ele><time>2026-05-03T08:43:34.026Z</time></trkpt><trkpt lat="43.4515584" lon="12.4296488"><ele>591.4285714285714</ele><time>2026-05-03T08:43:35.026Z</time></trkpt><trkpt lat="43.4515375" lon="12.4297332"><ele>590.2857142857142</ele><time>2026-05-03T08:43:36.026Z</time></trkpt><trkpt lat="43.4514943" lon="12.4298033"><ele>589.1428571428571</ele><time>2026-05-03T08:43:37.026Z</time></trkpt><trkpt lat="43.4514275" lon="12.4298478"><ele>588.0</ele><time>2026-05-03T08:43:38.026Z</time></trkpt><trkpt lat="43.4513467" lon="12.4298756"><ele>586.6</ele><time>2026-05-03T08:43:39.026Z</time></trkpt><trkpt lat="43.4512516" lon="12.429881"><ele>585.1999999999999</ele><time>2026-05-03T08:43:40.026Z</time></trkpt><trkpt lat="43.451149" lon="12.4298977"><ele>583.8</ele><time>2026-05-03T08:43:41.026Z</time></trkpt><trkpt lat="43.4510429" lon="12.4299218"><ele>582.4</ele><time>2026-05-03T08:43:42.026Z</time></trkpt><trkpt lat="43.4509342" lon="12.4300003"><ele>581.0</ele><time>2026-05-03T08:43:43.026Z</time></trkpt><trkpt lat="43.4508411" lon="12.4300746"><ele>581.0</ele><time>2026-05-03T08:43:44.026Z</time></trkpt><trkpt lat="43.4507492" lon="12.4301346"><ele>581.0</ele><time>2026-05-03T08:43:45.026Z</time></trkpt><trkpt lat="43.4506648" lon="12.430173"><ele>581.0</ele><time>2026-05-03T08:43:46.026Z</time></trkpt><trkpt lat="43.4505793" lon="12.4301972"><ele>581.0</ele><time>2026-05-03T08:43:47.026Z</time></trkpt><trkpt lat="43.4504941" lon="12.4301746"><ele>581.0</ele><time>2026-05-03T08:43:48.026Z</time></trkpt><trkpt lat="43.4503995" lon="12.4301395"><ele>580.0</ele><time>2026-05-03T08:43:49.026Z</time></trkpt><trkpt lat="43.4503066" lon="12.4300731"><ele>579.0</ele><time>2026-05-03T08:43:50.026Z</time></trkpt><trkpt lat="43.4502085" lon="12.4299943"><ele>578.0</ele><time>2026-05-03T08:43:51.026Z</time></trkpt><trkpt lat="43.4501161" lon="12.4299192"><ele>577.0</ele><time>2026-05-03T08:43:52.026Z</time></trkpt><trkpt lat="43.4500295" lon="12.4298594"><ele>576.0</ele><time>2026-05-03T08:43:53.026Z</time></trkpt><trkpt lat="43.4499488" lon="12.4297959"><ele>576.0</ele><time>2026-05-03T08:43:54.027Z</time></trkpt><trkpt lat="43.4498745" lon="12.4297237"><ele>576.0</ele><time>2026-05-03T08:43:55.026Z</time></trkpt><trkpt lat="43.4498012" lon="12.4296487"><ele>576.0</ele><time>2026-05-03T08:43:56.026Z</time></trkpt><trkpt lat="43.4497429" lon="12.4295567"><ele>576.0</ele><time>2026-05-03T08:43:57.026Z</time></trkpt><trkpt lat="43.4496947" lon="12.4294541"><ele>576.0</ele><time>2026-05-03T08:43:58.026Z</time></trkpt><trkpt lat="43.4496594" lon="12.42933"><ele>575.6</ele><time>2026-05-03T08:43:59.026Z</time></trkpt><trkpt lat="43.4496413" lon="12.4292124"><ele>575.2</ele><time>2026-05-03T08:44:00.026Z</time></trkpt><trkpt lat="43.4496381" lon="12.4290861"><ele>574.8</ele><time>2026-05-03T08:44:01.026Z</time></trkpt><trkpt lat="43.449647" lon="12.4289476"><ele>574.4</ele><time>2026-05-03T08:44:02.026Z</time></trkpt><trkpt lat="43.4496699" lon="12.4288062"><ele>574.0</ele><time>2026-05-03T08:44:03.026Z</time></trkpt><trkpt lat="43.4496965" lon="12.42865"><ele>574.0</ele><time>2026-05-03T08:44:04.026Z</time></trkpt><trkpt lat="43.4497251" lon="12.4284943"><ele>574.0</ele><time>2026-05-03T08:44:05.027Z</time></trkpt><trkpt lat="43.4497596" lon="12.4283566"><ele>574.0</ele><time>2026-05-03T08:44:06.027Z</time></trkpt><trkpt lat="43.4498195" lon="12.4282105"><ele>574.0</ele><time>2026-05-03T08:44:07.026Z</time></trkpt><trkpt lat="43.4499072" lon="12.4280654"><ele>572.2</ele><time>2026-05-03T08:44:08.026Z</time></trkpt><trkpt lat="43.4499927" lon="12.4279257"><ele>570.4</ele><time>2026-05-03T08:44:09.026Z</time></trkpt><trkpt lat="43.4500658" lon="12.4278078"><ele>568.6</ele><time>2026-05-03T08:44:10.026Z</time></trkpt><trkpt lat="43.4501274" lon="12.4276959"><ele>566.8</ele><time>2026-05-03T08:44:11.027Z</time></trkpt><trkpt lat="43.4501717" lon="12.4275895"><ele>565.0</ele><time>2026-05-03T08:44:12.026Z</time></trkpt><trkpt lat="43.4501896" lon="12.4274786"><ele>565.0</ele><time>2026-05-03T08:44:13.026Z</time></trkpt><trkpt lat="43.4501869" lon="12.4273765"><ele>565.0</ele><time>2026-05-03T08:44:14.026Z</time></trkpt><trkpt lat="43.45017" lon="12.4272752"><ele>565.0</ele><time>2026-05-03T08:44:15.026Z</time></trkpt><trkpt lat="43.4501457" lon="12.4271905"><ele>565.0</ele><time>2026-05-03T08:44:16.026Z</time></trkpt><trkpt lat="43.4500948" lon="12.4270572"><ele>565.0</ele><time>2026-05-03T08:44:18.026Z</time></trkpt><trkpt lat="43.4500565" lon="12.4269822"><ele>565.0</ele><time>2026-05-03T08:44:21.026Z</time></trkpt><trkpt lat="43.4500282" lon="12.4269029"><ele>565.8333333333334</ele><time>2026-05-03T08:46:04.026Z</time></trkpt><trkpt lat="43.4500062" lon="12.4268209"><ele>566.6666666666667</ele><time>2026-05-03T08:46:05.026Z</time></trkpt><trkpt lat="43.449982" lon="12.4267348"><ele>567.5</ele><time>2026-05-03T08:46:06.026Z</time></trkpt><trkpt lat="43.4499527" lon="12.4266445"><ele>568.3333333333334</ele><time>2026-05-03T08:46:07.026Z</time></trkpt><trkpt lat="43.4499105" lon="12.4265567"><ele>569.1666666666666</ele><time>2026-05-03T08:46:08.026Z</time></trkpt><trkpt lat="43.4498579" lon="12.4264709"><ele>570.0</ele><time>2026-05-03T08:46:09.026Z</time></trkpt><trkpt lat="43.4497868" lon="12.4263852"><ele>572.5</ele><time>2026-05-03T08:46:10.026Z</time></trkpt><trkpt lat="43.4497039" lon="12.4263037"><ele>575.0</ele><time>2026-05-03T08:46:11.026Z</time></trkpt><trkpt lat="43.4495921" lon="12.4262426"><ele>577.5</ele><time>2026-05-03T08:46:12.027Z</time></trkpt><trkpt lat="43.4494698" lon="12.4261875"><ele>580.0</ele><time>2026-05-03T08:46:13.026Z</time></trkpt><trkpt lat="43.4493338" lon="12.4261396"><ele>580.0</ele><time>2026-05-03T08:46:14.026Z</time></trkpt><trkpt lat="43.4491882" lon="12.4260808"><ele>580.0</ele><time>2026-05-03T08:46:15.026Z</time></trkpt><trkpt lat="43.4490349" lon="12.4260202"><ele>580.0</ele><time>2026-05-03T08:46:16.026Z</time></trkpt><trkpt lat="43.4488816" lon="12.4259591"><ele>579.75</ele><time>2026-05-03T08:46:17.026Z</time></trkpt><trkpt lat="43.4487282" lon="12.4259014"><ele>579.5</ele><time>2026-05-03T08:46:18.026Z</time></trkpt><trkpt lat="43.4485919" lon="12.4258549"><ele>579.25</ele><time>2026-05-03T08:46:19.026Z</time></trkpt><trkpt lat="43.4484668" lon="12.4258212"><ele>579.0</ele><time>2026-05-03T08:46:20.026Z</time></trkpt><trkpt lat="43.4483313" lon="12.4258124"><ele>579.0</ele><time>2026-05-03T08:46:21.026Z</time></trkpt><trkpt lat="43.4481777" lon="12.4258344"><ele>579.0</ele><time>2026-05-03T08:46:22.026Z</time></trkpt><trkpt lat="43.4480241" lon="12.4258747"><ele>579.0</ele><time>2026-05-03T08:46:23.026Z</time></trkpt><trkpt lat="43.4478615" lon="12.4259368"><ele>580.6666666666666</ele><time>2026-05-03T08:46:24.026Z</time></trkpt><trkpt lat="43.4476976" lon="12.4260042"><ele>582.3333333333333</ele><time>2026-05-03T08:46:25.026Z</time></trkpt><trkpt lat="43.4475503" lon="12.4260745"><ele>584.0</ele><time>2026-05-03T08:46:26.026Z</time></trkpt><trkpt lat="43.4474172" lon="12.4261423"><ele>584.0</ele><time>2026-05-03T08:46:27.026Z</time></trkpt><trkpt lat="43.4472974" lon="12.4261967"><ele>584.0</ele><time>2026-05-03T08:46:28.026Z</time></trkpt><trkpt lat="43.4471861" lon="12.4262329"><ele>584.0</ele><time>2026-05-03T08:46:29.026Z</time></trkpt><trkpt lat="43.4470869" lon="12.4262527"><ele>584.0</ele><time>2026-05-03T08:46:30.026Z</time></trkpt><trkpt lat="43.4469963" lon="12.4262544"><ele>584.0</ele><time>2026-05-03T08:46:31.026Z</time></trkpt><trkpt lat="43.446919" lon="12.4262239"><ele>583.2</ele><time>2026-05-03T08:46:32.026Z</time></trkpt><trkpt lat="43.4468552" lon="12.426168"><ele>582.4</ele><time>2026-05-03T08:46:33.026Z</time></trkpt><trkpt lat="43.4468048" lon="12.4260792"><ele>581.6</ele><time>2026-05-03T08:46:34.026Z</time></trkpt><trkpt lat="43.4467794" lon="12.4259657"><ele>580.8</ele><time>2026-05-03T08:46:35.026Z</time></trkpt><trkpt lat="43.4467803" lon="12.4258235"><ele>580.0</ele><time>2026-05-03T08:46:36.026Z</time></trkpt><trkpt lat="43.4467967" lon="12.4256477"><ele>577.3333333333334</ele><time>2026-05-03T08:46:37.026Z</time></trkpt><trkpt lat="43.446823" lon="12.4254508"><ele>574.6666666666666</ele><time>2026-05-03T08:46:38.026Z</time></trkpt><trkpt lat="43.4468509" lon="12.4252373"><ele>572.0</ele><time>2026-05-03T08:46:39.026Z</time></trkpt><trkpt lat="43.4468787" lon="12.4250264"><ele>572.0</ele><time>2026-05-03T08:46:40.026Z</time></trkpt><trkpt lat="43.4469042" lon="12.4248243"><ele>572.0</ele><time>2026-05-03T08:46:41.026Z</time></trkpt><trkpt lat="43.4469293" lon="12.4246292"><ele>572.0</ele><time>2026-05-03T08:46:42.026Z</time></trkpt><trkpt lat="43.4469538" lon="12.4244464"><ele>572.0</ele><time>2026-05-03T08:46:43.026Z</time></trkpt><trkpt lat="43.4469909" lon="12.4242792"><ele>572.75</ele><time>2026-05-03T08:46:44.026Z</time></trkpt><trkpt lat="43.4470542" lon="12.4241328"><ele>573.5</ele><time>2026-05-03T08:46:45.026Z</time></trkpt><trkpt lat="43.4471377" lon="12.4239884"><ele>574.25</ele><time>2026-05-03T08:46:46.026Z</time></trkpt><trkpt lat="43.447234" lon="12.4238602"><ele>575.0</ele><time>2026-05-03T08:46:47.026Z</time></trkpt><trkpt lat="43.4473203" lon="12.4237372"><ele>571.25</ele><time>2026-05-03T08:46:48.026Z</time></trkpt><trkpt lat="43.4473976" lon="12.4235949"><ele>567.5</ele><time>2026-05-03T08:46:49.026Z</time></trkpt><trkpt lat="43.4474446" lon="12.4234414"><ele>563.75</ele><time>2026-05-03T08:46:50.026Z</time></trkpt><trkpt lat="43.4474695" lon="12.4232773"><ele>560.0</ele><time>2026-05-03T08:46:51.026Z</time></trkpt><trkpt lat="43.4474673" lon="12.4231019"><ele>559.0</ele><time>2026-05-03T08:46:52.026Z</time></trkpt><trkpt lat="43.4474311" lon="12.4229239"><ele>558.0</ele><time>2026-05-03T08:46:53.026Z</time></trkpt><trkpt lat="43.4473773" lon="12.422738"><ele>557.0</ele><time>2026-05-03T08:46:54.026Z</time></trkpt><trkpt lat="43.4473118" lon="12.422558"><ele>556.0</ele><time>2026-05-03T08:46:55.026Z</time></trkpt><trkpt lat="43.4472505" lon="12.4223826"><ele>556.0</ele><time>2026-05-03T08:46:56.026Z</time></trkpt><trkpt lat="43.4472042" lon="12.4222091"><ele>556.0</ele><time>2026-05-03T08:46:57.026Z</time></trkpt><trkpt lat="43.4471694" lon="12.4220378"><ele>556.0</ele><time>2026-05-03T08:46:58.026Z</time></trkpt><trkpt lat="43.4471441" lon="12.4218596"><ele>556.0</ele><time>2026-05-03T08:46:59.026Z</time></trkpt><trkpt lat="43.4471313" lon="12.4216805"><ele>555.0</ele><time>2026-05-03T08:47:00.026Z</time></trkpt><trkpt lat="43.4471263" lon="12.4215087"><ele>554.0</ele><time>2026-05-03T08:47:01.026Z</time></trkpt><trkpt lat="43.4471394" lon="12.4213404"><ele>553.0</ele><time>2026-05-03T08:47:02.026Z</time></trkpt><trkpt lat="43.4471706" lon="12.4211846"><ele>552.0</ele><time>2026-05-03T08:47:03.026Z</time></trkpt><trkpt lat="43.4472274" lon="12.4210522"><ele>548.25</ele><time>2026-05-03T08:47:04.026Z</time></trkpt><trkpt lat="43.4472805" lon="12.4209242"><ele>544.5</ele><time>2026-05-03T08:47:05.026Z</time></trkpt><trkpt lat="43.4474145" lon="12.4208918"><ele>540.75</ele><time>2026-05-03T08:47:06.026Z</time></trkpt><trkpt lat="43.447511" lon="12.420829"><ele>537.0</ele><time>2026-05-03T08:47:07.026Z</time></trkpt><trkpt lat="43.4476837" lon="12.4209079"><ele>537.0</ele><time>2026-05-03T08:47:08.026Z</time></trkpt><trkpt lat="43.4478363" lon="12.4209558"><ele>537.0</ele><time>2026-05-03T08:47:09.026Z</time></trkpt><trkpt lat="43.4479957" lon="12.421007"><ele>537.0</ele><time>2026-05-03T08:47:10.027Z</time></trkpt><trkpt lat="43.44816" lon="12.4210583"><ele>535.3333333333334</ele><time>2026-05-03T08:47:11.026Z</time></trkpt><trkpt lat="43.4483217" lon="12.4211068"><ele>533.6666666666667</ele><time>2026-05-03T08:47:12.026Z</time></trkpt><trkpt lat="43.4484873" lon="12.4211548"><ele>532.0</ele><time>2026-05-03T08:47:13.026Z</time></trkpt><trkpt lat="43.4486537" lon="12.4211938"><ele>529.0</ele><time>2026-05-03T08:47:14.026Z</time></trkpt><trkpt lat="43.44882" lon="12.4212307"><ele>526.0</ele><time>2026-05-03T08:47:15.026Z</time></trkpt><trkpt lat="43.4489779" lon="12.4212639"><ele>523.0</ele><time>2026-05-03T08:47:16.027Z</time></trkpt><trkpt lat="43.4491228" lon="12.4213008"><ele>523.0</ele><time>2026-05-03T08:47:17.026Z</time></trkpt><trkpt lat="43.4492593" lon="12.4213244"><ele>523.0</ele><time>2026-05-03T08:47:18.026Z</time></trkpt><trkpt lat="43.4493977" lon="12.4213199"><ele>523.0</ele><time>2026-05-03T08:47:19.026Z</time></trkpt><trkpt lat="43.4495415" lon="12.4212859"><ele>523.0</ele><time>2026-05-03T08:47:20.026Z</time></trkpt><trkpt lat="43.4496913" lon="12.4212315"><ele>521.3333333333334</ele><time>2026-05-03T08:47:21.026Z</time></trkpt><trkpt lat="43.4498432" lon="12.4211715"><ele>519.6666666666666</ele><time>2026-05-03T08:47:22.026Z</time></trkpt><trkpt lat="43.4499981" lon="12.4211116"><ele>518.0</ele><time>2026-05-03T08:47:23.026Z</time></trkpt><trkpt lat="43.4501608" lon="12.4210593"><ele>518.0</ele><time>2026-05-03T08:47:24.026Z</time></trkpt><trkpt lat="43.4503197" lon="12.4210014"><ele>518.0</ele><time>2026-05-03T08:47:25.026Z</time></trkpt><trkpt lat="43.4504749" lon="12.4209483"><ele>518.0</ele><time>2026-05-03T08:47:26.026Z</time></trkpt><trkpt lat="43.4506253" lon="12.4209152"><ele>517.6666666666666</ele><time>2026-05-03T08:47:27.027Z</time></trkpt><trkpt lat="43.4507784" lon="12.4209085"><ele>517.3333333333334</ele><time>2026-05-03T08:47:28.026Z</time></trkpt><trkpt lat="43.4509273" lon="12.4209011"><ele>517.0</ele><time>2026-05-03T08:47:29.026Z</time></trkpt><trkpt lat="43.451075" lon="12.4208991"><ele>517.0</ele><time>2026-05-03T08:47:30.027Z</time></trkpt><trkpt lat="43.4512144" lon="12.4208886"><ele>517.0</ele><time>2026-05-03T08:47:31.026Z</time></trkpt><trkpt lat="43.4513457" lon="12.4208496"><ele>517.0</ele><time>2026-05-03T08:47:32.026Z</time></trkpt><trkpt lat="43.4514721" lon="12.4207781"><ele>517.0</ele><time>2026-05-03T08:47:33.026Z</time></trkpt><trkpt lat="43.4515814" lon="12.4206754"><ele>517.5</ele><time>2026-05-03T08:47:34.026Z</time></trkpt><trkpt lat="43.4516902" lon="12.4205735"><ele>518.0</ele><time>2026-05-03T08:47:35.026Z</time></trkpt><trkpt lat="43.4518165" lon="12.4204835"><ele>518.5</ele><time>2026-05-03T08:47:36.027Z</time></trkpt><trkpt lat="43.4519444" lon="12.4204124"><ele>519.0</ele><time>2026-05-03T08:47:37.026Z</time></trkpt><trkpt lat="43.452076" lon="12.4203527"><ele>515.0</ele><time>2026-05-03T08:47:38.026Z</time></trkpt><trkpt lat="43.4522185" lon="12.4203353"><ele>511.0</ele><time>2026-05-03T08:47:39.027Z</time></trkpt><trkpt lat="43.4523471" lon="12.4203013"><ele>507.0</ele><time>2026-05-03T08:47:40.026Z</time></trkpt><trkpt lat="43.4524704" lon="12.4202573"><ele>503.0</ele><time>2026-05-03T08:47:41.026Z</time></trkpt><trkpt lat="43.4525698" lon="12.4201913"><ele>503.0</ele><time>2026-05-03T08:47:42.026Z</time></trkpt><trkpt lat="43.4526591" lon="12.4201002"><ele>503.0</ele><time>2026-05-03T08:47:43.026Z</time></trkpt><trkpt lat="43.4527286" lon="12.4199681"><ele>503.0</ele><time>2026-05-03T08:47:44.026Z</time></trkpt><trkpt lat="43.4527877" lon="12.4198282"><ele>503.0</ele><time>2026-05-03T08:47:45.026Z</time></trkpt><trkpt lat="43.4528545" lon="12.4196938"><ele>501.0</ele><time>2026-05-03T08:47:46.026Z</time></trkpt><trkpt lat="43.4529466" lon="12.4195834"><ele>499.0</ele><time>2026-05-03T08:47:47.026Z</time></trkpt><trkpt lat="43.4530564" lon="12.419497"><ele>497.0</ele><time>2026-05-03T08:47:48.026Z</time></trkpt><trkpt lat="43.4531806" lon="12.4194255"><ele>495.0</ele><time>2026-05-03T08:47:49.026Z</time></trkpt><trkpt lat="43.4533167" lon="12.4193544"><ele>495.0</ele><time>2026-05-03T08:47:50.026Z</time></trkpt><trkpt lat="43.453456" lon="12.4192804"><ele>495.0</ele><time>2026-05-03T08:47:51.026Z</time></trkpt><trkpt lat="43.4535945" lon="12.4192015"><ele>495.0</ele><time>2026-05-03T08:47:52.026Z</time></trkpt><trkpt lat="43.4537448" lon="12.4191224"><ele>499.0</ele><time>2026-05-03T08:47:53.027Z</time></trkpt><trkpt lat="43.4539039" lon="12.41905"><ele>503.0</ele><time>2026-05-03T08:47:54.026Z</time></trkpt><trkpt lat="43.454072" lon="12.4189876"><ele>507.0</ele><time>2026-05-03T08:47:55.026Z</time></trkpt><trkpt lat="43.4542393" lon="12.4189366"><ele>507.0</ele><time>2026-05-03T08:47:56.026Z</time></trkpt><trkpt lat="43.4543987" lon="12.4188925"><ele>507.0</ele><time>2026-05-03T08:47:57.026Z</time></trkpt><trkpt lat="43.4545514" lon="12.4188259"><ele>507.0</ele><time>2026-05-03T08:47:58.026Z</time></trkpt><trkpt lat="43.4547061" lon="12.4187461"><ele>499.0</ele><time>2026-05-03T08:47:59.026Z</time></trkpt><trkpt lat="43.4548584" lon="12.4186513"><ele>491.0</ele><time>2026-05-03T08:48:00.026Z</time></trkpt><trkpt lat="43.4550093" lon="12.4185575"><ele>483.0</ele><time>2026-05-03T08:48:01.026Z</time></trkpt><trkpt lat="43.4551565" lon="12.4184659"><ele>483.0</ele><time>2026-05-03T08:48:02.026Z</time></trkpt><trkpt lat="43.4552986" lon="12.4183755"><ele>483.0</ele><time>2026-05-03T08:48:03.027Z</time></trkpt><trkpt lat="43.4554401" lon="12.4182938"><ele>483.0</ele><time>2026-05-03T08:48:04.026Z</time></trkpt><trkpt lat="43.4555757" lon="12.4182101"><ele>484.25</ele><time>2026-05-03T08:48:05.026Z</time></trkpt><trkpt lat="43.4557052" lon="12.4181337"><ele>485.5</ele><time>2026-05-03T08:48:06.027Z</time></trkpt><trkpt lat="43.4558189" lon="12.4180641"><ele>486.75</ele><time>2026-05-03T08:48:07.026Z</time></trkpt><trkpt lat="43.4559181" lon="12.4179895"><ele>488.0</ele><time>2026-05-03T08:48:08.026Z</time></trkpt><trkpt lat="43.4560007" lon="12.4179015"><ele>485.0</ele><time>2026-05-03T08:48:09.026Z</time></trkpt><trkpt lat="43.4560617" lon="12.4178059"><ele>481.99999999999994</ele><time>2026-05-03T08:48:10.026Z</time></trkpt><trkpt lat="43.4561126" lon="12.4176893"><ele>478.99999999999994</ele><time>2026-05-03T08:48:11.026Z</time></trkpt><trkpt lat="43.4561505" lon="12.4175572"><ele>476.0</ele><time>2026-05-03T08:48:12.026Z</time></trkpt><trkpt lat="43.4561736" lon="12.4174117"><ele>473.0</ele><time>2026-05-03T08:48:13.026Z</time></trkpt><trkpt lat="43.456181" lon="12.4172525"><ele>471.59999999999997</ele><time>2026-05-03T08:48:14.026Z</time></trkpt><trkpt lat="43.4561708" lon="12.4171054"><ele>470.19999999999993</ele><time>2026-05-03T08:48:15.026Z</time></trkpt><trkpt lat="43.4561458" lon="12.4169634"><ele>468.8</ele><time>2026-05-03T08:48:16.026Z</time></trkpt><trkpt lat="43.4561019" lon="12.4168221"><ele>467.4</ele><time>2026-05-03T08:48:17.026Z</time></trkpt><trkpt lat="43.4560437" lon="12.4166834"><ele>466.0</ele><time>2026-05-03T08:48:18.026Z</time></trkpt><trkpt lat="43.4559622" lon="12.4165472"><ele>466.0</ele><time>2026-05-03T08:48:19.026Z</time></trkpt><trkpt lat="43.4558715" lon="12.4164136"><ele>466.0</ele><time>2026-05-03T08:48:20.026Z</time></trkpt><trkpt lat="43.4557719" lon="12.4162817"><ele>466.0</ele><time>2026-05-03T08:48:21.026Z</time></trkpt><trkpt lat="43.455669" lon="12.4161459"><ele>466.0</ele><time>2026-05-03T08:48:22.026Z</time></trkpt><trkpt lat="43.4555674" lon="12.4160071"><ele>465.5</ele><time>2026-05-03T08:48:23.026Z</time></trkpt><trkpt lat="43.4554628" lon="12.4158638"><ele>465.0</ele><time>2026-05-03T08:48:24.026Z</time></trkpt><trkpt lat="43.4553596" lon="12.4157209"><ele>464.5</ele><time>2026-05-03T08:48:25.026Z</time></trkpt><trkpt lat="43.4552548" lon="12.4155784"><ele>464.0</ele><time>2026-05-03T08:48:26.026Z</time></trkpt><trkpt lat="43.4551589" lon="12.4154513"><ele>467.0</ele><time>2026-05-03T08:48:27.026Z</time></trkpt><trkpt lat="43.4550588" lon="12.4153359"><ele>470.0</ele><time>2026-05-03T08:48:28.026Z</time></trkpt><trkpt lat="43.4549438" lon="12.4152415"><ele>473.0</ele><time>2026-05-03T08:48:29.027Z</time></trkpt><trkpt lat="43.4548124" lon="12.4151834"><ele>476.0</ele><time>2026-05-03T08:48:30.026Z</time></trkpt><trkpt lat="43.4546466" lon="12.4151633"><ele>476.66666666666663</ele><time>2026-05-03T08:48:31.026Z</time></trkpt><trkpt lat="43.4544646" lon="12.4152011"><ele>477.33333333333337</ele><time>2026-05-03T08:48:32.026Z</time></trkpt><trkpt lat="43.4542782" lon="12.4152639"><ele>478.0</ele><time>2026-05-03T08:48:33.026Z</time></trkpt><trkpt lat="43.4540849" lon="12.4153301"><ele>478.0</ele><time>2026-05-03T08:48:34.026Z</time></trkpt><trkpt lat="43.4538939" lon="12.4153847"><ele>478.0</ele><time>2026-05-03T08:48:35.026Z</time></trkpt><trkpt lat="43.4537242" lon="12.4154311"><ele>478.0</ele><time>2026-05-03T08:48:36.026Z</time></trkpt><trkpt lat="43.4535711" lon="12.4154718"><ele>477.33333333333337</ele><time>2026-05-03T08:48:37.026Z</time></trkpt><trkpt lat="43.4534225" lon="12.4154964"><ele>476.66666666666663</ele><time>2026-05-03T08:48:38.027Z</time></trkpt><trkpt lat="43.4532705" lon="12.4154856"><ele>476.0</ele><time>2026-05-03T08:48:39.026Z</time></trkpt><trkpt lat="43.4531159" lon="12.4154496"><ele>481.66666666666663</ele><time>2026-05-03T08:48:40.026Z</time></trkpt><trkpt lat="43.4529556" lon="12.4153936"><ele>487.33333333333337</ele><time>2026-05-03T08:48:41.026Z</time></trkpt><trkpt lat="43.4528027" lon="12.4153252"><ele>493.0</ele><time>2026-05-03T08:48:42.027Z</time></trkpt><trkpt lat="43.452656" lon="12.4152433"><ele>493.0</ele><time>2026-05-03T08:48:43.026Z</time></trkpt><trkpt lat="43.4525069" lon="12.4151318"><ele>493.0</ele><time>2026-05-03T08:48:44.026Z</time></trkpt><trkpt lat="43.4523708" lon="12.4150136"><ele>493.0</ele><time>2026-05-03T08:48:45.026Z</time></trkpt><trkpt lat="43.4522648" lon="12.414901"><ele>493.0</ele><time>2026-05-03T08:48:46.026Z</time></trkpt><trkpt lat="43.4521751" lon="12.4147894"><ele>492.99999999999994</ele><time>2026-05-03T08:48:47.026Z</time></trkpt><trkpt lat="43.4521219" lon="12.4146877"><ele>492.99999999999994</ele><time>2026-05-03T08:48:48.026Z</time></trkpt><trkpt lat="43.4521023" lon="12.4145832"><ele>493.0</ele><time>2026-05-03T08:48:49.026Z</time></trkpt><trkpt lat="43.4521118" lon="12.4144664"><ele>493.0</ele><time>2026-05-03T08:48:50.026Z</time></trkpt><trkpt lat="43.4521606" lon="12.41435"><ele>496.75</ele><time>2026-05-03T08:48:51.026Z</time></trkpt><trkpt lat="43.4522458" lon="12.4142515"><ele>500.5</ele><time>2026-05-03T08:48:52.026Z</time></trkpt><trkpt lat="43.4523496" lon="12.4141543"><ele>504.25</ele><time>2026-05-03T08:48:53.026Z</time></trkpt><trkpt lat="43.4524595" lon="12.4140696"><ele>508.0</ele><time>2026-05-03T08:48:54.026Z</time></trkpt><trkpt lat="43.4525753" lon="12.4140213"><ele>508.0</ele><time>2026-05-03T08:48:55.026Z</time></trkpt><trkpt lat="43.4526907" lon="12.4140109"><ele>508.0</ele><time>2026-05-03T08:48:56.026Z</time></trkpt><trkpt lat="43.4528167" lon="12.4140564"><ele>508.0</ele><time>2026-05-03T08:48:57.026Z</time></trkpt><trkpt lat="43.4529211" lon="12.4141264"><ele>508.0</ele><time>2026-05-03T08:48:58.026Z</time></trkpt><trkpt lat="43.4530149" lon="12.4141904"><ele>508.0</ele><time>2026-05-03T08:48:59.026Z</time></trkpt><trkpt lat="43.4530957" lon="12.414226"><ele>507.99999999999994</ele><time>2026-05-03T08:49:00.026Z</time></trkpt><trkpt lat="43.4531833" lon="12.4142167"><ele>507.99999999999994</ele><time>2026-05-03T08:49:01.026Z</time></trkpt><trkpt lat="43.4532674" lon="12.4141569"><ele>508.0</ele><time>2026-05-03T08:49:02.026Z</time></trkpt><trkpt lat="43.4533259" lon="12.4140508"><ele>508.0</ele><time>2026-05-03T08:49:03.026Z</time></trkpt><trkpt lat="43.453359" lon="12.4139005"><ele>511.33333333333337</ele><time>2026-05-03T08:49:04.026Z</time></trkpt><trkpt lat="43.4533798" lon="12.4137105"><ele>514.6666666666666</ele><time>2026-05-03T08:49:05.026Z</time></trkpt><trkpt lat="43.4533952" lon="12.4134972"><ele>518.0</ele><time>2026-05-03T08:49:06.026Z</time></trkpt><trkpt lat="43.4534146" lon="12.4132745"><ele>518.0</ele><time>2026-05-03T08:49:07.026Z</time></trkpt><trkpt lat="43.4534272" lon="12.4130781"><ele>518.0</ele><time>2026-05-03T08:49:08.026Z</time></trkpt><trkpt lat="43.4534264" lon="12.4129038"><ele>518.0</ele><time>2026-05-03T08:49:09.026Z</time></trkpt><trkpt lat="43.4533945" lon="12.4127541"><ele>518.0</ele><time>2026-05-03T08:49:10.027Z</time></trkpt><trkpt lat="43.4533258" lon="12.4126057"><ele>518.5</ele><time>2026-05-03T08:49:11.027Z</time></trkpt><trkpt lat="43.4532279" lon="12.4124631"><ele>519.0</ele><time>2026-05-03T08:49:12.026Z</time></trkpt><trkpt lat="43.4531392" lon="12.4123261"><ele>519.5</ele><time>2026-05-03T08:49:13.026Z</time></trkpt><trkpt lat="43.4530662" lon="12.4121945"><ele>520.0</ele><time>2026-05-03T08:49:14.026Z</time></trkpt><trkpt lat="43.4529968" lon="12.4120586"><ele>525.25</ele><time>2026-05-03T08:49:15.027Z</time></trkpt><trkpt lat="43.4529441" lon="12.4118905"><ele>530.5</ele><time>2026-05-03T08:49:16.026Z</time></trkpt><trkpt lat="43.4529154" lon="12.4117046"><ele>535.75</ele><time>2026-05-03T08:49:17.026Z</time></trkpt><trkpt lat="43.4528892" lon="12.4115379"><ele>541.0</ele><time>2026-05-03T08:49:18.026Z</time></trkpt><trkpt lat="43.4528551" lon="12.4113899"><ele>541.25</ele><time>2026-05-03T08:49:19.026Z</time></trkpt><trkpt lat="43.4527887" lon="12.4112332"><ele>541.5</ele><time>2026-05-03T08:49:20.026Z</time></trkpt><trkpt lat="43.4527005" lon="12.4110726"><ele>541.75</ele><time>2026-05-03T08:49:21.026Z</time></trkpt><trkpt lat="43.4525852" lon="12.4109359"><ele>542.0</ele><time>2026-05-03T08:49:22.027Z</time></trkpt><trkpt lat="43.4524875" lon="12.4108308"><ele>542.0</ele><time>2026-05-03T08:49:23.027Z</time></trkpt><trkpt lat="43.4523736" lon="12.4107552"><ele>542.0</ele><time>2026-05-03T08:49:24.026Z</time></trkpt><trkpt lat="43.4522451" lon="12.4107211"><ele>542.0</ele><time>2026-05-03T08:49:25.027Z</time></trkpt><trkpt lat="43.4521021" lon="12.4107369"><ele>542.0</ele><time>2026-05-03T08:49:26.026Z</time></trkpt><trkpt lat="43.4519421" lon="12.4107905"><ele>549.3333333333333</ele><time>2026-05-03T08:49:27.026Z</time></trkpt><trkpt lat="43.4517739" lon="12.4108653"><ele>556.6666666666666</ele><time>2026-05-03T08:49:28.026Z</time></trkpt><trkpt lat="43.4516008" lon="12.4109489"><ele>564.0</ele><time>2026-05-03T08:49:29.026Z</time></trkpt><trkpt lat="43.4514161" lon="12.4110279"><ele>571.0</ele><time>2026-05-03T08:49:30.026Z</time></trkpt><trkpt lat="43.4512225" lon="12.4111274"><ele>578.0</ele><time>2026-05-03T08:49:31.027Z</time></trkpt><trkpt lat="43.4510528" lon="12.4112098"><ele>585.0</ele><time>2026-05-03T08:49:32.026Z</time></trkpt><trkpt lat="43.450898" lon="12.4112922"><ele>580.75</ele><time>2026-05-03T08:49:33.026Z</time></trkpt><trkpt lat="43.4507648" lon="12.4113556"><ele>576.5</ele><time>2026-05-03T08:49:34.026Z</time></trkpt><trkpt lat="43.4506409" lon="12.4114022"><ele>572.25</ele><time>2026-05-03T08:49:35.027Z</time></trkpt><trkpt lat="43.4505076" lon="12.4114246"><ele>568.0</ele><time>2026-05-03T08:49:36.027Z</time></trkpt><trkpt lat="43.4503579" lon="12.4114122"><ele>568.0</ele><time>2026-05-03T08:49:37.027Z</time></trkpt><trkpt lat="43.4501977" lon="12.4113607"><ele>568.0</ele><time>2026-05-03T08:49:38.026Z</time></trkpt><trkpt lat="43.4500181" lon="12.4112739"><ele>568.0</ele><time>2026-05-03T08:49:39.026Z</time></trkpt><trkpt lat="43.4498108" lon="12.4111685"><ele>575.3333333333334</ele><time>2026-05-03T08:49:40.026Z</time></trkpt><trkpt lat="43.4496179" lon="12.4110687"><ele>582.6666666666666</ele><time>2026-05-03T08:49:41.026Z</time></trkpt><trkpt lat="43.4494457" lon="12.4109747"><ele>590.0</ele><time>2026-05-03T08:49:42.026Z</time></trkpt><trkpt lat="43.4492762" lon="12.4109084"><ele>590.0</ele><time>2026-05-03T08:49:43.026Z</time></trkpt><trkpt lat="43.4490916" lon="12.4108882"><ele>590.0</ele><time>2026-05-03T08:49:44.026Z</time></trkpt><trkpt lat="43.4489195" lon="12.410889"><ele>590.0</ele><time>2026-05-03T08:49:45.027Z</time></trkpt><trkpt lat="43.4487899" lon="12.4109003"><ele>589.0</ele><time>2026-05-03T08:49:46.026Z</time></trkpt><trkpt lat="43.4486741" lon="12.4108846"><ele>588.0</ele><time>2026-05-03T08:49:47.026Z</time></trkpt><trkpt lat="43.4485688" lon="12.4108386"><ele>587.0</ele><time>2026-05-03T08:49:48.026Z</time></trkpt><trkpt lat="43.448463" lon="12.4107357"><ele>586.0</ele><time>2026-05-03T08:49:49.026Z</time></trkpt><trkpt lat="43.4483467" lon="12.4105657"><ele>592.3333333333334</ele><time>2026-05-03T08:49:50.026Z</time></trkpt><trkpt lat="43.4482245" lon="12.4103619"><ele>598.6666666666666</ele><time>2026-05-03T08:49:51.026Z</time></trkpt><trkpt lat="43.4480997" lon="12.410156"><ele>605.0</ele><time>2026-05-03T08:49:52.026Z</time></trkpt><trkpt lat="43.447989" lon="12.4099747"><ele>605.6666666666666</ele><time>2026-05-03T08:49:53.026Z</time></trkpt><trkpt lat="43.447876" lon="12.4097639"><ele>606.3333333333334</ele><time>2026-05-03T08:49:54.026Z</time></trkpt><trkpt lat="43.4478096" lon="12.4095546"><ele>607.0</ele><time>2026-05-03T08:49:55.027Z</time></trkpt><trkpt lat="43.4477439" lon="12.4093796"><ele>607.0</ele><time>2026-05-03T08:49:56.026Z</time></trkpt><trkpt lat="43.4477117" lon="12.4092493"><ele>607.0</ele><time>2026-05-03T08:49:57.026Z</time></trkpt><trkpt lat="43.4476971" lon="12.4091375"><ele>607.0</ele><time>2026-05-03T08:49:58.026Z</time></trkpt><trkpt lat="43.4477037" lon="12.4090359"><ele>607.0</ele><time>2026-05-03T08:49:59.026Z</time></trkpt><trkpt lat="43.4477306" lon="12.4089299"><ele>607.0</ele><time>2026-05-03T08:50:00.026Z</time></trkpt><trkpt lat="43.4477791" lon="12.4088369"><ele>607.0</ele><time>2026-05-03T08:50:01.026Z</time></trkpt><trkpt lat="43.4478444" lon="12.4087625"><ele>606.2</ele><time>2026-05-03T08:50:02.026Z</time></trkpt><trkpt lat="43.4479283" lon="12.408726"><ele>605.4000000000001</ele><time>2026-05-03T08:50:03.026Z</time></trkpt><trkpt lat="43.4480238" lon="12.4087292"><ele>604.5999999999999</ele><time>2026-05-03T08:50:04.026Z</time></trkpt><trkpt lat="43.448139" lon="12.4087765"><ele>603.8</ele><time>2026-05-03T08:50:05.026Z</time></trkpt><trkpt lat="43.4482637" lon="12.4088432"><ele>603.0</ele><time>2026-05-03T08:50:06.026Z</time></trkpt><trkpt lat="43.4483835" lon="12.4089041"><ele>606.75</ele><time>2026-05-03T08:50:07.026Z</time></trkpt><trkpt lat="43.4484881" lon="12.4089527"><ele>610.5</ele><time>2026-05-03T08:50:08.027Z</time></trkpt><trkpt lat="43.4486018" lon="12.4089813"><ele>614.25</ele><time>2026-05-03T08:50:09.027Z</time></trkpt><trkpt lat="43.4487256" lon="12.4089527"><ele>618.0</ele><time>2026-05-03T08:50:10.026Z</time></trkpt><trkpt lat="43.4488514" lon="12.40886"><ele>622.0</ele><time>2026-05-03T08:50:11.026Z</time></trkpt><trkpt lat="43.4489614" lon="12.4087239"><ele>626.0</ele><time>2026-05-03T08:50:12.026Z</time></trkpt><trkpt lat="43.4490548" lon="12.4085066"><ele>630.0</ele><time>2026-05-03T08:50:13.026Z</time></trkpt><trkpt lat="43.4491637" lon="12.4082839"><ele>630.0</ele><time>2026-05-03T08:50:14.026Z</time></trkpt><trkpt lat="43.4492762" lon="12.4080496"><ele>630.0</ele><time>2026-05-03T08:50:15.027Z</time></trkpt><trkpt lat="43.4493898" lon="12.4077962"><ele>630.0</ele><time>2026-05-03T08:50:16.027Z</time></trkpt><trkpt lat="43.4494997" lon="12.4075423"><ele>629.3333333333334</ele><time>2026-05-03T08:50:17.026Z</time></trkpt><trkpt lat="43.4496132" lon="12.4072874"><ele>628.6666666666667</ele><time>2026-05-03T08:50:18.026Z</time></trkpt><trkpt lat="43.4497185" lon="12.4070507"><ele>628.0</ele><time>2026-05-03T08:50:19.026Z</time></trkpt><trkpt lat="43.4498213" lon="12.4068306"><ele>632.0</ele><time>2026-05-03T08:50:20.026Z</time></trkpt><trkpt lat="43.4499164" lon="12.406624"><ele>636.0</ele><time>2026-05-03T08:50:21.026Z</time></trkpt><trkpt lat="43.4500098" lon="12.4064311"><ele>640.0</ele><time>2026-05-03T08:50:22.026Z</time></trkpt><trkpt lat="43.4500915" lon="12.4062535"><ele>641.0</ele><time>2026-05-03T08:50:23.026Z</time></trkpt><trkpt lat="43.450172" lon="12.4060724"><ele>642.0</ele><time>2026-05-03T08:50:24.026Z</time></trkpt><trkpt lat="43.4502571" lon="12.4058908"><ele>643.0</ele><time>2026-05-03T08:50:25.026Z</time></trkpt><trkpt lat="43.4503432" lon="12.4056992"><ele>643.0</ele><time>2026-05-03T08:50:26.026Z</time></trkpt><trkpt lat="43.4504321" lon="12.4055007"><ele>643.0</ele><time>2026-05-03T08:50:27.026Z</time></trkpt><trkpt lat="43.4505274" lon="12.4052929"><ele>643.0</ele><time>2026-05-03T08:50:28.026Z</time></trkpt><trkpt lat="43.4506214" lon="12.4050765"><ele>645.0</ele><time>2026-05-03T08:50:29.026Z</time></trkpt><trkpt lat="43.450723" lon="12.4048477"><ele>647.0</ele><time>2026-05-03T08:50:30.026Z</time></trkpt><trkpt lat="43.4508302" lon="12.4046125"><ele>649.0</ele><time>2026-05-03T08:50:31.026Z</time></trkpt><trkpt lat="43.4509395" lon="12.4043706"><ele>652.0</ele><time>2026-05-03T08:50:32.026Z</time></trkpt><trkpt lat="43.4510499" lon="12.4041259"><ele>655.0</ele><time>2026-05-03T08:50:33.026Z</time></trkpt><trkpt lat="43.4511593" lon="12.4038817"><ele>658.0</ele><time>2026-05-03T08:50:34.026Z</time></trkpt><trkpt lat="43.4512675" lon="12.4036378"><ele>658.0</ele><time>2026-05-03T08:50:35.026Z</time></trkpt><trkpt lat="43.4513757" lon="12.403398"><ele>658.0</ele><time>2026-05-03T08:50:36.027Z</time></trkpt><trkpt lat="43.4514823" lon="12.4031628"><ele>658.0</ele><time>2026-05-03T08:50:37.026Z</time></trkpt><trkpt lat="43.4515871" lon="12.4029359"><ele>663.0</ele><time>2026-05-03T08:50:38.026Z</time></trkpt><trkpt lat="43.4516988" lon="12.4027209"><ele>668.0</ele><time>2026-05-03T08:50:39.026Z</time></trkpt><trkpt lat="43.451828" lon="12.40251"><ele>673.0</ele><time>2026-05-03T08:50:40.027Z</time></trkpt><trkpt lat="43.4519491" lon="12.4023397"><ele>673.0</ele><time>2026-05-03T08:50:41.026Z</time></trkpt><trkpt lat="43.4520607" lon="12.4021782"><ele>673.0</ele><time>2026-05-03T08:50:42.026Z</time></trkpt><trkpt lat="43.4521627" lon="12.4020404"><ele>673.0</ele><time>2026-05-03T08:50:43.026Z</time></trkpt><trkpt lat="43.4522618" lon="12.4018899"><ele>673.3333333333334</ele><time>2026-05-03T08:50:44.026Z</time></trkpt><trkpt lat="43.4523517" lon="12.4017027"><ele>673.6666666666666</ele><time>2026-05-03T08:50:45.026Z</time></trkpt><trkpt lat="43.4524371" lon="12.4014771"><ele>674.0</ele><time>2026-05-03T08:50:46.027Z</time></trkpt><trkpt lat="43.4525161" lon="12.4012529"><ele>676.3333333333333</ele><time>2026-05-03T08:50:47.026Z</time></trkpt><trkpt lat="43.4525878" lon="12.4010494"><ele>678.6666666666666</ele><time>2026-05-03T08:50:48.027Z</time></trkpt><trkpt lat="43.4526604" lon="12.4008651"><ele>681.0</ele><time>2026-05-03T08:50:49.026Z</time></trkpt><trkpt lat="43.4527404" lon="12.4006875"><ele>681.0</ele><time>2026-05-03T08:50:50.026Z</time></trkpt><trkpt lat="43.4528506" lon="12.4005148"><ele>681.0</ele><time>2026-05-03T08:50:51.026Z</time></trkpt><trkpt lat="43.4529924" lon="12.4003609"><ele>681.0</ele><time>2026-05-03T08:50:52.026Z</time></trkpt><trkpt lat="43.4531585" lon="12.4002214"><ele>681.0</ele><time>2026-05-03T08:50:53.026Z</time></trkpt><trkpt lat="43.4533331" lon="12.4000847"><ele>681.0</ele><time>2026-05-03T08:50:54.026Z</time></trkpt><trkpt lat="43.4535102" lon="12.3999465"><ele>681.0</ele><time>2026-05-03T08:50:55.026Z</time></trkpt><trkpt lat="43.4536841" lon="12.3997934"><ele>684.5</ele><time>2026-05-03T08:50:56.027Z</time></trkpt><trkpt lat="43.4538565" lon="12.3996011"><ele>688.0</ele><time>2026-05-03T08:50:57.027Z</time></trkpt><trkpt lat="43.4540262" lon="12.3993898"><ele>688.0</ele><time>2026-05-03T08:50:58.027Z</time></trkpt><trkpt lat="43.4541791" lon="12.3991557"><ele>688.0</ele><time>2026-05-03T08:50:59.026Z</time></trkpt><trkpt lat="43.4543238" lon="12.39888"><ele>684.6666666666667</ele><time>2026-05-03T08:51:00.026Z</time></trkpt><trkpt lat="43.4544458" lon="12.3986009"><ele>681.3333333333334</ele><time>2026-05-03T08:51:01.026Z</time></trkpt><trkpt lat="43.4545508" lon="12.3983519"><ele>678.0</ele><time>2026-05-03T08:51:02.026Z</time></trkpt><trkpt lat="43.4546432" lon="12.3981302"><ele>685.0</ele><time>2026-05-03T08:51:03.026Z</time></trkpt><trkpt lat="43.4547363" lon="12.3979286"><ele>692.0</ele><time>2026-05-03T08:51:04.027Z</time></trkpt><trkpt lat="43.45485" lon="12.3977532"><ele>699.0</ele><time>2026-05-03T08:51:05.026Z</time></trkpt><trkpt lat="43.4549751" lon="12.3975918"><ele>699.0</ele><time>2026-05-03T08:51:06.026Z</time></trkpt><trkpt lat="43.4551045" lon="12.3974335"><ele>699.0</ele><time>2026-05-03T08:51:07.026Z</time></trkpt><trkpt lat="43.4552391" lon="12.3972723"><ele>699.0</ele><time>2026-05-03T08:51:08.026Z</time></trkpt><trkpt lat="43.4553728" lon="12.397113"><ele>700.6666666666666</ele><time>2026-05-03T08:51:09.026Z</time></trkpt><trkpt lat="43.4555035" lon="12.3969515"><ele>702.3333333333333</ele><time>2026-05-03T08:51:10.026Z</time></trkpt><trkpt lat="43.4556329" lon="12.3967997"><ele>704.0</ele><time>2026-05-03T08:51:11.026Z</time></trkpt><trkpt lat="43.4557623" lon="12.3966426"><ele>704.0</ele><time>2026-05-03T08:51:12.026Z</time></trkpt><trkpt lat="43.4558875" lon="12.3964876"><ele>704.0</ele><time>2026-05-03T08:51:13.026Z</time></trkpt><trkpt lat="43.4560091" lon="12.3963347"><ele>704.0</ele><time>2026-05-03T08:51:14.026Z</time></trkpt><trkpt lat="43.4561256" lon="12.3961888"><ele>705.0</ele><time>2026-05-03T08:51:15.026Z</time></trkpt><trkpt lat="43.4562407" lon="12.3960471"><ele>706.0</ele><time>2026-05-03T08:51:16.026Z</time></trkpt><trkpt lat="43.4563489" lon="12.3959129"><ele>707.0</ele><time>2026-05-03T08:51:17.026Z</time></trkpt><trkpt lat="43.4564707" lon="12.3957653"><ele>707.0</ele><time>2026-05-03T08:51:18.026Z</time></trkpt><trkpt lat="43.4566159" lon="12.3956197"><ele>707.0</ele><time>2026-05-03T08:51:19.026Z</time></trkpt><trkpt lat="43.4567891" lon="12.3955086"><ele>707.0</ele><time>2026-05-03T08:51:20.026Z</time></trkpt><trkpt lat="43.4569796" lon="12.3954079"><ele>714.6666666666666</ele><time>2026-05-03T08:51:21.027Z</time></trkpt><trkpt lat="43.4571781" lon="12.3953026"><ele>722.3333333333334</ele><time>2026-05-03T08:51:22.026Z</time></trkpt><trkpt lat="43.4573678" lon="12.3952129"><ele>730.0</ele><time>2026-05-03T08:51:23.026Z</time></trkpt><trkpt lat="43.4575384" lon="12.3951304"><ele>730.0</ele><time>2026-05-03T08:51:24.026Z</time></trkpt><trkpt lat="43.4576874" lon="12.3950475"><ele>730.0</ele><time>2026-05-03T08:51:25.026Z</time></trkpt><trkpt lat="43.4578071" lon="12.3949648"><ele>730.0</ele><time>2026-05-03T08:51:26.026Z</time></trkpt><trkpt lat="43.4579016" lon="12.3948722"><ele>730.0</ele><time>2026-05-03T08:51:27.026Z</time></trkpt><trkpt lat="43.4579821" lon="12.394747"><ele>734.0</ele><time>2026-05-03T08:51:28.026Z</time></trkpt><trkpt lat="43.4580075" lon="12.3945781"><ele>738.0</ele><time>2026-05-03T08:51:29.026Z</time></trkpt><trkpt lat="43.4580088" lon="12.3943815"><ele>742.0</ele><time>2026-05-03T08:51:30.026Z</time></trkpt><trkpt lat="43.4579898" lon="12.3941894"><ele>746.0</ele><time>2026-05-03T08:51:31.026Z</time></trkpt><trkpt lat="43.4579479" lon="12.3939426"><ele>742.0</ele><time>2026-05-03T08:51:32.027Z</time></trkpt><trkpt lat="43.4579045" lon="12.3936962"><ele>738.0</ele><time>2026-05-03T08:51:33.026Z</time></trkpt><trkpt lat="43.4578729" lon="12.3934779"><ele>734.0</ele><time>2026-05-03T08:51:34.026Z</time></trkpt><trkpt lat="43.4578572" lon="12.3932955"><ele>734.0</ele><time>2026-05-03T08:51:35.026Z</time></trkpt><trkpt lat="43.4578712" lon="12.3931258"><ele>734.0</ele><time>2026-05-03T08:51:36.026Z</time></trkpt><trkpt lat="43.457912" lon="12.3929594"><ele>734.0</ele><time>2026-05-03T08:51:37.026Z</time></trkpt><trkpt lat="43.458011" lon="12.3927901"><ele>734.0</ele><time>2026-05-03T08:51:38.026Z</time></trkpt><trkpt lat="43.4581358" lon="12.3926278"><ele>730.6666666666666</ele><time>2026-05-03T08:51:39.026Z</time></trkpt><trkpt lat="43.4582983" lon="12.3924773"><ele>727.3333333333334</ele><time>2026-05-03T08:51:40.026Z</time></trkpt><trkpt lat="43.4584736" lon="12.3922959"><ele>724.0</ele><time>2026-05-03T08:51:41.026Z</time></trkpt><trkpt lat="43.458646" lon="12.3921227"><ele>727.3333333333334</ele><time>2026-05-03T08:51:42.026Z</time></trkpt><trkpt lat="43.4588051" lon="12.3919543"><ele>730.6666666666666</ele><time>2026-05-03T08:51:43.027Z</time></trkpt><trkpt lat="43.4589697" lon="12.3917959"><ele>734.0</ele><time>2026-05-03T08:51:44.026Z</time></trkpt><trkpt lat="43.4591184" lon="12.3916514"><ele>734.0</ele><time>2026-05-03T08:51:45.027Z</time></trkpt><trkpt lat="43.4592697" lon="12.3915153"><ele>734.0</ele><time>2026-05-03T08:51:46.027Z</time></trkpt><trkpt lat="43.4594435" lon="12.3913798"><ele>734.0</ele><time>2026-05-03T08:51:47.026Z</time></trkpt><trkpt lat="43.4596319" lon="12.3912535"><ele>729.5</ele><time>2026-05-03T08:51:48.026Z</time></trkpt><trkpt lat="43.4598507" lon="12.3911397"><ele>725.0</ele><time>2026-05-03T08:51:49.026Z</time></trkpt><trkpt lat="43.4600601" lon="12.3910033"><ele>725.0</ele><time>2026-05-03T08:51:50.027Z</time></trkpt><trkpt lat="43.4602664" lon="12.3908767"><ele>725.0</ele><time>2026-05-03T08:51:51.026Z</time></trkpt><trkpt lat="43.4604656" lon="12.3907585"><ele>725.0</ele><time>2026-05-03T08:51:52.026Z</time></trkpt><trkpt lat="43.4606573" lon="12.3906488"><ele>722.0</ele><time>2026-05-03T08:51:53.026Z</time></trkpt><trkpt lat="43.4608462" lon="12.3905428"><ele>719.0</ele><time>2026-05-03T08:51:54.026Z</time></trkpt><trkpt lat="43.4610176" lon="12.3904418"><ele>716.0</ele><time>2026-05-03T08:51:55.026Z</time></trkpt><trkpt lat="43.4611829" lon="12.390337"><ele>716.3333333333333</ele><time>2026-05-03T08:51:56.026Z</time></trkpt><trkpt lat="43.4613287" lon="12.3902202"><ele>716.6666666666666</ele><time>2026-05-03T08:51:57.026Z</time></trkpt><trkpt lat="43.4614677" lon="12.3900842"><ele>717.0</ele><time>2026-05-03T08:51:58.026Z</time></trkpt><trkpt lat="43.4616065" lon="12.3899181"><ele>717.0</ele><time>2026-05-03T08:51:59.026Z</time></trkpt><trkpt lat="43.4617452" lon="12.3897135"><ele>717.0</ele><time>2026-05-03T08:52:00.026Z</time></trkpt><trkpt lat="43.4618897" lon="12.3894823"><ele>717.0</ele><time>2026-05-03T08:52:01.026Z</time></trkpt><trkpt lat="43.4620432" lon="12.3892295"><ele>720.5</ele><time>2026-05-03T08:52:02.027Z</time></trkpt><trkpt lat="43.4621957" lon="12.3889669"><ele>724.0</ele><time>2026-05-03T08:52:03.026Z</time></trkpt><trkpt lat="43.4623368" lon="12.3887283"><ele>724.0</ele><time>2026-05-03T08:52:04.027Z</time></trkpt><trkpt lat="43.4624675" lon="12.3885079"><ele>724.0</ele><time>2026-05-03T08:52:05.026Z</time></trkpt><trkpt lat="43.4625883" lon="12.3883007"><ele>724.0</ele><time>2026-05-03T08:52:06.027Z</time></trkpt><trkpt lat="43.4626889" lon="12.3880995"><ele>727.6666666666667</ele><time>2026-05-03T08:52:07.026Z</time></trkpt><trkpt lat="43.462776" lon="12.3878852"><ele>731.3333333333334</ele><time>2026-05-03T08:52:08.026Z</time></trkpt><trkpt lat="43.4628539" lon="12.3876521"><ele>735.0</ele><time>2026-05-03T08:52:09.027Z</time></trkpt><trkpt lat="43.4629028" lon="12.3873829"><ele>731.6666666666666</ele><time>2026-05-03T08:52:10.026Z</time></trkpt><trkpt lat="43.4629477" lon="12.3871303"><ele>728.3333333333333</ele><time>2026-05-03T08:52:11.026Z</time></trkpt><trkpt lat="43.4629874" lon="12.3869029"><ele>725.0</ele><time>2026-05-03T08:52:12.026Z</time></trkpt><trkpt lat="43.4630181" lon="12.3866916"><ele>725.0</ele><time>2026-05-03T08:52:13.026Z</time></trkpt><trkpt lat="43.4630626" lon="12.3865009"><ele>725.0</ele><time>2026-05-03T08:52:14.026Z</time></trkpt><trkpt lat="43.4631281" lon="12.3863126"><ele>725.0</ele><time>2026-05-03T08:52:15.026Z</time></trkpt><trkpt lat="43.4632197" lon="12.3861383"><ele>729.6666666666666</ele><time>2026-05-03T08:52:16.026Z</time></trkpt><trkpt lat="43.4633434" lon="12.3859902"><ele>734.3333333333334</ele><time>2026-05-03T08:52:17.027Z</time></trkpt><trkpt lat="43.4634593" lon="12.3858136"><ele>739.0</ele><time>2026-05-03T08:52:18.026Z</time></trkpt><trkpt lat="43.46357" lon="12.385618"><ele>739.6666666666667</ele><time>2026-05-03T08:52:19.026Z</time></trkpt><trkpt lat="43.463674" lon="12.3854145"><ele>740.3333333333334</ele><time>2026-05-03T08:52:20.026Z</time></trkpt><trkpt lat="43.4637696" lon="12.3852318"><ele>741.0</ele><time>2026-05-03T08:52:21.026Z</time></trkpt><trkpt lat="43.4638761" lon="12.3850668"><ele>739.25</ele><time>2026-05-03T08:52:22.026Z</time></trkpt><trkpt lat="43.4639836" lon="12.3849144"><ele>737.5</ele><time>2026-05-03T08:52:23.026Z</time></trkpt><trkpt lat="43.4640919" lon="12.3847694"><ele>735.75</ele><time>2026-05-03T08:52:24.026Z</time></trkpt><trkpt lat="43.4641939" lon="12.3846333"><ele>734.0</ele><time>2026-05-03T08:52:25.026Z</time></trkpt><trkpt lat="43.4642861" lon="12.3844927"><ele>734.0</ele><time>2026-05-03T08:52:26.026Z</time></trkpt><trkpt lat="43.4643643" lon="12.3843497"><ele>734.0</ele><time>2026-05-03T08:52:27.026Z</time></trkpt><trkpt lat="43.4644184" lon="12.3841857"><ele>734.0</ele><time>2026-05-03T08:52:28.026Z</time></trkpt><trkpt lat="43.4644767" lon="12.3840072"><ele>734.0</ele><time>2026-05-03T08:52:29.026Z</time></trkpt><trkpt lat="43.4644222" lon="12.3837472"><ele>735.0</ele><time>2026-05-03T08:52:30.027Z</time></trkpt><trkpt lat="43.4644078" lon="12.3835337"><ele>736.0</ele><time>2026-05-03T08:52:31.026Z</time></trkpt><trkpt lat="43.4643996" lon="12.3833332"><ele>737.0</ele><time>2026-05-03T08:52:32.026Z</time></trkpt><trkpt lat="43.4644055" lon="12.3831274"><ele>737.5</ele><time>2026-05-03T08:52:33.026Z</time></trkpt><trkpt lat="43.4644401" lon="12.3829421"><ele>738.0</ele><time>2026-05-03T08:52:34.026Z</time></trkpt><trkpt lat="43.4645019" lon="12.3827653"><ele>738.5</ele><time>2026-05-03T08:52:35.026Z</time></trkpt><trkpt lat="43.4646093" lon="12.3826089"><ele>739.0</ele><time>2026-05-03T08:52:36.026Z</time></trkpt><trkpt lat="43.4647218" lon="12.3824607"><ele>744.25</ele><time>2026-05-03T08:52:37.026Z</time></trkpt><trkpt lat="43.4648263" lon="12.3823232"><ele>749.5</ele><time>2026-05-03T08:52:38.026Z</time></trkpt><trkpt lat="43.4649227" lon="12.3821936"><ele>754.75</ele><time>2026-05-03T08:52:39.026Z</time></trkpt><trkpt lat="43.4649925" lon="12.3820451"><ele>760.0</ele><time>2026-05-03T08:52:40.026Z</time></trkpt><trkpt lat="43.4650349" lon="12.3818747"><ele>760.5</ele><time>2026-05-03T08:52:41.026Z</time></trkpt><trkpt lat="43.465053" lon="12.3816947"><ele>761.0</ele><time>2026-05-03T08:52:42.027Z</time></trkpt><trkpt lat="43.4650375" lon="12.3815169"><ele>761.5</ele><time>2026-05-03T08:52:43.026Z</time></trkpt><trkpt lat="43.4649848" lon="12.3813419"><ele>762.0</ele><time>2026-05-03T08:52:44.027Z</time></trkpt><trkpt lat="43.4649054" lon="12.381184"><ele>762.5</ele><time>2026-05-03T08:52:45.026Z</time></trkpt><trkpt lat="43.4648" lon="12.3810591"><ele>763.0</ele><time>2026-05-03T08:52:46.026Z</time></trkpt><trkpt lat="43.464666" lon="12.3809714"><ele>763.5</ele><time>2026-05-03T08:52:47.027Z</time></trkpt><trkpt lat="43.4645097" lon="12.3809244"><ele>764.0</ele><time>2026-05-03T08:52:48.026Z</time></trkpt><trkpt lat="43.4643632" lon="12.3808907"><ele>764.0</ele><time>2026-05-03T08:52:49.026Z</time></trkpt><trkpt lat="43.4642345" lon="12.3808665"><ele>764.0</ele><time>2026-05-03T08:52:50.026Z</time></trkpt><trkpt lat="43.4641181" lon="12.3808368"><ele>764.0</ele><time>2026-05-03T08:52:51.026Z</time></trkpt><trkpt lat="43.464022" lon="12.3807711"><ele>764.0</ele><time>2026-05-03T08:52:52.026Z</time></trkpt><trkpt lat="43.4639504" lon="12.3806769"><ele>764.0</ele><time>2026-05-03T08:52:53.026Z</time></trkpt><trkpt lat="43.4639205" lon="12.3805666"><ele>764.0</ele><time>2026-05-03T08:52:54.026Z</time></trkpt><trkpt lat="43.46392" lon="12.380422"><ele>764.0</ele><time>2026-05-03T08:52:55.026Z</time></trkpt><trkpt lat="43.46397" lon="12.3802712"><ele>764.0</ele><time>2026-05-03T08:52:56.026Z</time></trkpt><trkpt lat="43.464054" lon="12.3801329"><ele>764.0</ele><time>2026-05-03T08:52:57.026Z</time></trkpt><trkpt lat="43.4641697" lon="12.3800376"><ele>765.6666666666666</ele><time>2026-05-03T08:52:58.027Z</time></trkpt><trkpt lat="43.4642914" lon="12.3799249"><ele>767.3333333333333</ele><time>2026-05-03T08:52:59.026Z</time></trkpt><trkpt lat="43.4643872" lon="12.3797674"><ele>769.0</ele><time>2026-05-03T08:53:00.026Z</time></trkpt><trkpt lat="43.4644643" lon="12.379575"><ele>769.0</ele><time>2026-05-03T08:53:01.026Z</time></trkpt><trkpt lat="43.4645167" lon="12.3793511"><ele>769.0</ele><time>2026-05-03T08:53:02.026Z</time></trkpt><trkpt lat="43.4645384" lon="12.3790829"><ele>769.0</ele><time>2026-05-03T08:53:03.026Z</time></trkpt><trkpt lat="43.4645474" lon="12.3787976"><ele>769.0</ele><time>2026-05-03T08:53:04.026Z</time></trkpt><trkpt lat="43.4645458" lon="12.3784868"><ele>769.0</ele><time>2026-05-03T08:53:05.026Z</time></trkpt><trkpt lat="43.4645484" lon="12.3781946"><ele>769.0</ele><time>2026-05-03T08:53:06.027Z</time></trkpt><trkpt lat="43.4645488" lon="12.3779263"><ele>772.6666666666666</ele><time>2026-05-03T08:53:07.026Z</time></trkpt><trkpt lat="43.4645423" lon="12.3776822"><ele>776.3333333333333</ele><time>2026-05-03T08:53:08.026Z</time></trkpt><trkpt lat="43.4645309" lon="12.3774467"><ele>780.0</ele><time>2026-05-03T08:53:09.026Z</time></trkpt><trkpt lat="43.464456" lon="12.3772624"><ele>781.25</ele><time>2026-05-03T08:53:10.026Z</time></trkpt><trkpt lat="43.464401" lon="12.3770794"><ele>782.5</ele><time>2026-05-03T08:53:11.027Z</time></trkpt><trkpt lat="43.4643447" lon="12.3769076"><ele>783.75</ele><time>2026-05-03T08:53:12.026Z</time></trkpt><trkpt lat="43.4642943" lon="12.3767554"><ele>785.0</ele><time>2026-05-03T08:53:13.026Z</time></trkpt><trkpt lat="43.4642403" lon="12.3766138"><ele>785.0</ele><time>2026-05-03T08:53:14.026Z</time></trkpt><trkpt lat="43.4641757" lon="12.3764849"><ele>785.0</ele><time>2026-05-03T08:53:15.027Z</time></trkpt><trkpt lat="43.4640912" lon="12.3763631"><ele>785.0</ele><time>2026-05-03T08:53:16.027Z</time></trkpt><trkpt lat="43.4639937" lon="12.3762423"><ele>785.0</ele><time>2026-05-03T08:53:17.026Z</time></trkpt><trkpt lat="43.4638483" lon="12.3761694"><ele>784.4</ele><time>2026-05-03T08:53:18.026Z</time></trkpt><trkpt lat="43.4637311" lon="12.3760836"><ele>783.8</ele><time>2026-05-03T08:53:19.026Z</time></trkpt><trkpt lat="43.463622" lon="12.3760129"><ele>783.2</ele><time>2026-05-03T08:53:20.026Z</time></trkpt><trkpt lat="43.4635401" lon="12.3759386"><ele>782.6</ele><time>2026-05-03T08:53:21.026Z</time></trkpt><trkpt lat="43.4634864" lon="12.3758515"><ele>782.0</ele><time>2026-05-03T08:53:22.026Z</time></trkpt><trkpt lat="43.463464" lon="12.375746"><ele>782.0</ele><time>2026-05-03T08:53:23.027Z</time></trkpt><trkpt lat="43.4634785" lon="12.3756314"><ele>782.0</ele><time>2026-05-03T08:53:24.026Z</time></trkpt><trkpt lat="43.4635353" lon="12.3755223"><ele>782.0</ele><time>2026-05-03T08:53:25.026Z</time></trkpt><trkpt lat="43.4636233" lon="12.3754469"><ele>782.0</ele><time>2026-05-03T08:53:26.026Z</time></trkpt><trkpt lat="43.4637193" lon="12.3754268"><ele>782.0</ele><time>2026-05-03T08:53:27.026Z</time></trkpt><trkpt lat="43.4638355" lon="12.3754693"><ele>779.75</ele><time>2026-05-03T08:53:28.026Z</time></trkpt><trkpt lat="43.4639561" lon="12.375534"><ele>777.5</ele><time>2026-05-03T08:53:29.027Z</time></trkpt><trkpt lat="43.4640915" lon="12.3756078"><ele>775.25</ele><time>2026-05-03T08:53:30.026Z</time></trkpt><trkpt lat="43.4642302" lon="12.3756828"><ele>773.0</ele><time>2026-05-03T08:53:31.027Z</time></trkpt><trkpt lat="43.4643605" lon="12.3757563"><ele>773.0</ele><time>2026-05-03T08:53:32.026Z</time></trkpt><trkpt lat="43.4644961" lon="12.3758094"><ele>773.0</ele><time>2026-05-03T08:53:33.027Z</time></trkpt><trkpt lat="43.4646246" lon="12.375836"><ele>773.0</ele><time>2026-05-03T08:53:34.026Z</time></trkpt><trkpt lat="43.4647534" lon="12.3758173"><ele>773.0</ele><time>2026-05-03T08:53:35.026Z</time></trkpt><trkpt lat="43.4648802" lon="12.3757661"><ele>771.6666666666667</ele><time>2026-05-03T08:53:36.026Z</time></trkpt><trkpt lat="43.465001" lon="12.3756586"><ele>770.3333333333333</ele><time>2026-05-03T08:53:37.026Z</time></trkpt><trkpt lat="43.4651174" lon="12.3755161"><ele>769.0</ele><time>2026-05-03T08:53:38.026Z</time></trkpt><trkpt lat="43.4652336" lon="12.3753495"><ele>766.0</ele><time>2026-05-03T08:53:39.026Z</time></trkpt><trkpt lat="43.4653473" lon="12.3751738"><ele>763.0</ele><time>2026-05-03T08:53:40.026Z</time></trkpt><trkpt lat="43.4654496" lon="12.3749992"><ele>760.0</ele><time>2026-05-03T08:53:41.026Z</time></trkpt><trkpt lat="43.465542" lon="12.374819"><ele>754.6666666666667</ele><time>2026-05-03T08:53:42.027Z</time></trkpt><trkpt lat="43.4656126" lon="12.3746303"><ele>749.3333333333334</ele><time>2026-05-03T08:53:43.026Z</time></trkpt><trkpt lat="43.4656557" lon="12.3744341"><ele>744.0</ele><time>2026-05-03T08:53:44.026Z</time></trkpt><trkpt lat="43.4656759" lon="12.3742196"><ele>744.0</ele><time>2026-05-03T08:53:45.026Z</time></trkpt><trkpt lat="43.4656733" lon="12.3739987"><ele>744.0</ele><time>2026-05-03T08:53:46.026Z</time></trkpt><trkpt lat="43.4656582" lon="12.3737665"><ele>744.0</ele><time>2026-05-03T08:53:47.026Z</time></trkpt><trkpt lat="43.4656436" lon="12.3735247"><ele>742.3333333333334</ele><time>2026-05-03T08:53:48.026Z</time></trkpt><trkpt lat="43.4656212" lon="12.3732803"><ele>740.6666666666667</ele><time>2026-05-03T08:53:49.026Z</time></trkpt><trkpt lat="43.4655976" lon="12.3730465"><ele>739.0</ele><time>2026-05-03T08:53:50.026Z</time></trkpt><trkpt lat="43.465573" lon="12.3728217"><ele>739.0</ele><time>2026-05-03T08:53:51.026Z</time></trkpt><trkpt lat="43.465537" lon="12.3726161"><ele>739.0</ele><time>2026-05-03T08:53:52.026Z</time></trkpt><trkpt lat="43.4654782" lon="12.3724235"><ele>739.0</ele><time>2026-05-03T08:53:53.026Z</time></trkpt><trkpt lat="43.4654123" lon="12.3722501"><ele>739.0</ele><time>2026-05-03T08:53:54.026Z</time></trkpt><trkpt lat="43.4653407" lon="12.3720893"><ele>737.8000000000001</ele><time>2026-05-03T08:53:55.026Z</time></trkpt><trkpt lat="43.4652721" lon="12.3719384"><ele>736.6</ele><time>2026-05-03T08:53:56.026Z</time></trkpt><trkpt lat="43.4652177" lon="12.3718043"><ele>735.4</ele><time>2026-05-03T08:53:57.027Z</time></trkpt><trkpt lat="43.4651844" lon="12.3716832"><ele>734.2</ele><time>2026-05-03T08:53:58.026Z</time></trkpt><trkpt lat="43.4651782" lon="12.3715609"><ele>733.0</ele><time>2026-05-03T08:53:59.027Z</time></trkpt><trkpt lat="43.4652128" lon="12.3714567"><ele>733.0</ele><time>2026-05-03T08:54:00.026Z</time></trkpt><trkpt lat="43.4652875" lon="12.3713868"><ele>733.0</ele><time>2026-05-03T08:54:01.027Z</time></trkpt><trkpt lat="43.4653903" lon="12.3713613"><ele>733.0</ele><time>2026-05-03T08:54:02.026Z</time></trkpt><trkpt lat="43.4654984" lon="12.3714008"><ele>733.0</ele><time>2026-05-03T08:54:03.026Z</time></trkpt><trkpt lat="43.465608" lon="12.3714763"><ele>733.0</ele><time>2026-05-03T08:54:04.026Z</time></trkpt><trkpt lat="43.4657339" lon="12.3715546"><ele>732.0</ele><time>2026-05-03T08:54:05.026Z</time></trkpt><trkpt lat="43.4658618" lon="12.3716342"><ele>731.0</ele><time>2026-05-03T08:54:06.026Z</time></trkpt><trkpt lat="43.4659908" lon="12.3716989"><ele>730.0</ele><time>2026-05-03T08:54:07.027Z</time></trkpt><trkpt lat="43.466118" lon="12.3717294"><ele>729.0</ele><time>2026-05-03T08:54:08.026Z</time></trkpt><trkpt lat="43.4662447" lon="12.3717215"><ele>729.5</ele><time>2026-05-03T08:54:09.026Z</time></trkpt><trkpt lat="43.4663698" lon="12.3716613"><ele>730.0</ele><time>2026-05-03T08:54:10.026Z</time></trkpt><trkpt lat="43.4664876" lon="12.3715617"><ele>730.5</ele><time>2026-05-03T08:54:11.027Z</time></trkpt><trkpt lat="43.4665823" lon="12.371381"><ele>731.0</ele><time>2026-05-03T08:54:12.026Z</time></trkpt><trkpt lat="43.4666695" lon="12.3711911"><ele>725.6666666666666</ele><time>2026-05-03T08:54:13.026Z</time></trkpt><trkpt lat="43.4667431" lon="12.3710066"><ele>720.3333333333334</ele><time>2026-05-03T08:54:14.027Z</time></trkpt><trkpt lat="43.4667977" lon="12.3708106"><ele>715.0</ele><time>2026-05-03T08:54:15.026Z</time></trkpt><trkpt lat="43.4668343" lon="12.3706095"><ele>711.6666666666667</ele><time>2026-05-03T08:54:16.026Z</time></trkpt><trkpt lat="43.466854" lon="12.3703889"><ele>708.3333333333334</ele><time>2026-05-03T08:54:17.026Z</time></trkpt><trkpt lat="43.4668755" lon="12.3701593"><ele>705.0</ele><time>2026-05-03T08:54:18.026Z</time></trkpt><trkpt lat="43.4668898" lon="12.3699357"><ele>705.0</ele><time>2026-05-03T08:54:19.026Z</time></trkpt><trkpt lat="43.4668948" lon="12.3697271"><ele>705.0</ele><time>2026-05-03T08:54:20.027Z</time></trkpt><trkpt lat="43.4668771" lon="12.3695244"><ele>705.0</ele><time>2026-05-03T08:54:21.026Z</time></trkpt><trkpt lat="43.4668203" lon="12.3693334"><ele>705.0</ele><time>2026-05-03T08:54:22.026Z</time></trkpt><trkpt lat="43.4667254" lon="12.3691138"><ele>705.0</ele><time>2026-05-03T08:54:23.027Z</time></trkpt><trkpt lat="43.4666311" lon="12.3689204"><ele>705.0</ele><time>2026-05-03T08:54:24.026Z</time></trkpt><trkpt lat="43.4665328" lon="12.3687516"><ele>705.0</ele><time>2026-05-03T08:54:25.026Z</time></trkpt><trkpt lat="43.466457" lon="12.368575"><ele>704.75</ele><time>2026-05-03T08:54:26.026Z</time></trkpt><trkpt lat="43.4663917" lon="12.3684046"><ele>704.5</ele><time>2026-05-03T08:54:27.026Z</time></trkpt><trkpt lat="43.4663431" lon="12.368241"><ele>704.25</ele><time>2026-05-03T08:54:28.026Z</time></trkpt><trkpt lat="43.4663047" lon="12.3680859"><ele>704.0</ele><time>2026-05-03T08:54:29.026Z</time></trkpt><trkpt lat="43.4662779" lon="12.3679246"><ele>700.5</ele><time>2026-05-03T08:54:30.026Z</time></trkpt><trkpt lat="43.466242" lon="12.3677623"><ele>697.0</ele><time>2026-05-03T08:54:31.026Z</time></trkpt><trkpt lat="43.4662077" lon="12.3675867"><ele>693.5</ele><time>2026-05-03T08:54:32.027Z</time></trkpt><trkpt lat="43.4661743" lon="12.3674001"><ele>690.0</ele><time>2026-05-03T08:54:33.027Z</time></trkpt><trkpt lat="43.4661473" lon="12.3672"><ele>689.25</ele><time>2026-05-03T08:54:34.026Z</time></trkpt><trkpt lat="43.4661334" lon="12.3670072"><ele>688.5</ele><time>2026-05-03T08:54:35.027Z</time></trkpt><trkpt lat="43.4661262" lon="12.3668174"><ele>687.75</ele><time>2026-05-03T08:54:36.027Z</time></trkpt><trkpt lat="43.4661245" lon="12.3666598"><ele>687.0</ele><time>2026-05-03T08:54:37.026Z</time></trkpt><trkpt lat="43.4661229" lon="12.3665291"><ele>687.0</ele><time>2026-05-03T08:54:38.027Z</time></trkpt><trkpt lat="43.4661226" lon="12.3664068"><ele>687.0</ele><time>2026-05-03T08:54:39.026Z</time></trkpt><trkpt lat="43.4661098" lon="12.3662902"><ele>687.0</ele><time>2026-05-03T08:54:40.026Z</time></trkpt><trkpt lat="43.4660715" lon="12.3661895"><ele>687.0</ele><time>2026-05-03T08:54:41.026Z</time></trkpt><trkpt lat="43.4660092" lon="12.3661084"><ele>687.0</ele><time>2026-05-03T08:54:42.027Z</time></trkpt><trkpt lat="43.465919" lon="12.3660492"><ele>687.0</ele><time>2026-05-03T08:54:43.026Z</time></trkpt><trkpt lat="43.465802" lon="12.3660131"><ele>686.75</ele><time>2026-05-03T08:54:44.026Z</time></trkpt><trkpt lat="43.4656669" lon="12.3659809"><ele>686.5</ele><time>2026-05-03T08:54:45.026Z</time></trkpt><trkpt lat="43.4655425" lon="12.365951"><ele>686.25</ele><time>2026-05-03T08:54:46.026Z</time></trkpt><trkpt lat="43.4654235" lon="12.3659032"><ele>686.0</ele><time>2026-05-03T08:54:47.026Z</time></trkpt><trkpt lat="43.4653101" lon="12.3658155"><ele>681.75</ele><time>2026-05-03T08:54:48.026Z</time></trkpt><trkpt lat="43.465206" lon="12.3656965"><ele>677.5</ele><time>2026-05-03T08:54:49.026Z</time></trkpt><trkpt lat="43.4651187" lon="12.3655731"><ele>673.25</ele><time>2026-05-03T08:54:50.026Z</time></trkpt><trkpt lat="43.4650455" lon="12.3654348"><ele>669.0</ele><time>2026-05-03T08:54:51.026Z</time></trkpt><trkpt lat="43.4650003" lon="12.365266"><ele>669.0</ele><time>2026-05-03T08:54:52.026Z</time></trkpt><trkpt lat="43.4649697" lon="12.3650892"><ele>669.0</ele><time>2026-05-03T08:54:53.026Z</time></trkpt><trkpt lat="43.4649533" lon="12.3648944"><ele>669.0</ele><time>2026-05-03T08:54:54.027Z</time></trkpt><trkpt lat="43.4649458" lon="12.3646763"><ele>669.0</ele><time>2026-05-03T08:54:55.026Z</time></trkpt><trkpt lat="43.4649369" lon="12.3644439"><ele>665.6666666666666</ele><time>2026-05-03T08:54:56.026Z</time></trkpt><trkpt lat="43.4649304" lon="12.3642011"><ele>662.3333333333333</ele><time>2026-05-03T08:54:57.026Z</time></trkpt><trkpt lat="43.4649227" lon="12.3639684"><ele>659.0</ele><time>2026-05-03T08:54:58.026Z</time></trkpt><trkpt lat="43.4649039" lon="12.3637397"><ele>656.3333333333333</ele><time>2026-05-03T08:54:59.026Z</time></trkpt><trkpt lat="43.4648796" lon="12.3635172"><ele>653.6666666666666</ele><time>2026-05-03T08:55:00.026Z</time></trkpt><trkpt lat="43.4648523" lon="12.3633037"><ele>651.0</ele><time>2026-05-03T08:55:01.026Z</time></trkpt><trkpt lat="43.4648215" lon="12.3630955"><ele>648.0</ele><time>2026-05-03T08:55:02.026Z</time></trkpt><trkpt lat="43.4647914" lon="12.3628919"><ele>645.0</ele><time>2026-05-03T08:55:03.026Z</time></trkpt><trkpt lat="43.4647489" lon="12.3626921"><ele>642.0</ele><time>2026-05-03T08:55:04.026Z</time></trkpt><trkpt lat="43.4647012" lon="12.362485"><ele>642.0</ele><time>2026-05-03T08:55:05.026Z</time></trkpt><trkpt lat="43.4646496" lon="12.3622834"><ele>642.0</ele><time>2026-05-03T08:55:06.026Z</time></trkpt><trkpt lat="43.4645887" lon="12.362083"><ele>642.0</ele><time>2026-05-03T08:55:07.026Z</time></trkpt><trkpt lat="43.464535" lon="12.3619065"><ele>639.0</ele><time>2026-05-03T08:55:08.027Z</time></trkpt><trkpt lat="43.4644931" lon="12.3617571"><ele>636.0</ele><time>2026-05-03T08:55:09.027Z</time></trkpt><trkpt lat="43.4644629" lon="12.3616336"><ele>633.0</ele><time>2026-05-03T08:55:10.026Z</time></trkpt><trkpt lat="43.4644554" lon="12.3615237"><ele>630.0</ele><time>2026-05-03T08:55:11.026Z</time></trkpt><trkpt lat="43.4644741" lon="12.3614243"><ele>627.0</ele><time>2026-05-03T08:55:12.027Z</time></trkpt><trkpt lat="43.4645437" lon="12.3613443"><ele>626.8000000000001</ele><time>2026-05-03T08:55:13.027Z</time></trkpt><trkpt lat="43.464612" lon="12.3612859"><ele>626.6</ele><time>2026-05-03T08:55:14.026Z</time></trkpt><trkpt lat="43.4647403" lon="12.3612804"><ele>626.4000000000001</ele><time>2026-05-03T08:55:15.026Z</time></trkpt><trkpt lat="43.464832" lon="12.3612664"><ele>626.2</ele><time>2026-05-03T08:55:16.026Z</time></trkpt><trkpt lat="43.4649212" lon="12.3612584"><ele>626.0</ele><time>2026-05-03T08:55:17.026Z</time></trkpt><trkpt lat="43.4650214" lon="12.3612452"><ele>626.0</ele><time>2026-05-03T08:55:19.027Z</time></trkpt><trkpt lat="43.4650852" lon="12.361224"><ele>626.0</ele><time>2026-05-03T08:55:22.027Z</time></trkpt></trkseg><trkseg><trkpt lat="43.465095" lon="12.3611049"><ele>626.0</ele><time>2026-05-03T09:05:23.029Z</time></trkpt><trkpt lat="43.4651213" lon="12.3609716"><ele>626.0</ele><time>2026-05-03T09:05:25.029Z</time></trkpt><trkpt lat="43.465135" lon="12.3608744"><ele>626.0</ele><time>2026-05-03T09:05:26.029Z</time></trkpt><trkpt lat="43.4651481" lon="12.3607706"><ele>626.0</ele><time>2026-05-03T09:05:27.029Z</time></trkpt><trkpt lat="43.4651659" lon="12.3606619"><ele>626.0</ele><time>2026-05-03T09:05:28.029Z</time></trkpt><trkpt lat="43.465166" lon="12.3605426"><ele>626.0</ele><time>2026-05-03T09:05:29.029Z</time></trkpt><trkpt lat="43.4651605" lon="12.360412"><ele>624.4</ele><time>2026-05-03T09:05:30.029Z</time></trkpt><trkpt lat="43.4651431" lon="12.3602753"><ele>622.8</ele><time>2026-05-03T09:05:31.029Z</time></trkpt><trkpt lat="43.4651173" lon="12.360139"><ele>621.1999999999999</ele><time>2026-05-03T09:05:32.03Z</time></trkpt><trkpt lat="43.465074" lon="12.3600026"><ele>619.6</ele><time>2026-05-03T09:05:33.029Z</time></trkpt><trkpt lat="43.4650257" lon="12.3598686"><ele>618.0</ele><time>2026-05-03T09:05:34.029Z</time></trkpt><trkpt lat="43.4649726" lon="12.35973"><ele>617.6</ele><time>2026-05-03T09:05:35.03Z</time></trkpt><trkpt lat="43.4649198" lon="12.3595982"><ele>617.1999999999999</ele><time>2026-05-03T09:05:36.029Z</time></trkpt><trkpt lat="43.4648697" lon="12.3594761"><ele>616.8</ele><time>2026-05-03T09:05:37.029Z</time></trkpt><trkpt lat="43.4648244" lon="12.3593539"><ele>616.4</ele><time>2026-05-03T09:05:38.029Z</time></trkpt><trkpt lat="43.4647847" lon="12.359239"><ele>616.0</ele><time>2026-05-03T09:05:39.029Z</time></trkpt><trkpt lat="43.4647559" lon="12.3591228"><ele>616.0</ele><time>2026-05-03T09:05:40.029Z</time></trkpt><trkpt lat="43.4647479" lon="12.3590051"><ele>616.0</ele><time>2026-05-03T09:05:41.029Z</time></trkpt><trkpt lat="43.4647569" lon="12.3588761"><ele>616.0</ele><time>2026-05-03T09:05:42.029Z</time></trkpt><trkpt lat="43.4647916" lon="12.3587326"><ele>616.0</ele><time>2026-05-03T09:05:43.029Z</time></trkpt><trkpt lat="43.4648264" lon="12.3585991"><ele>616.0</ele><time>2026-05-03T09:05:44.029Z</time></trkpt><trkpt lat="43.4648631" lon="12.3584856"><ele>613.0</ele><time>2026-05-03T09:05:45.029Z</time></trkpt><trkpt lat="43.4648969" lon="12.3584102"><ele>610.0</ele><time>2026-05-03T09:05:46.029Z</time></trkpt><trkpt lat="43.4649963" lon="12.3583394"><ele>607.0</ele><time>2026-05-03T09:05:48.029Z</time></trkpt><trkpt lat="43.4651206" lon="12.3583734"><ele>604.0</ele><time>2026-05-03T09:05:50.029Z</time></trkpt><trkpt lat="43.465234" lon="12.3583962"><ele>601.0</ele><time>2026-05-03T09:05:52.03Z</time></trkpt><trkpt lat="43.4653197" lon="12.3583078"><ele>601.0</ele><time>2026-05-03T09:05:54.029Z</time></trkpt><trkpt lat="43.4653349" lon="12.3581285"><ele>601.0</ele><time>2026-05-03T09:05:56.029Z</time></trkpt><trkpt lat="43.4653023" lon="12.3580277"><ele>601.0</ele><time>2026-05-03T09:05:57.029Z</time></trkpt><trkpt lat="43.4652542" lon="12.3579247"><ele>601.0</ele><time>2026-05-03T09:05:58.03Z</time></trkpt><trkpt lat="43.4651938" lon="12.35782"><ele>601.0</ele><time>2026-05-03T09:05:59.029Z</time></trkpt><trkpt lat="43.4651262" lon="12.357709"><ele>597.0</ele><time>2026-05-03T09:06:00.029Z</time></trkpt><trkpt lat="43.4650531" lon="12.3575868"><ele>593.0</ele><time>2026-05-03T09:06:01.03Z</time></trkpt><trkpt lat="43.4649815" lon="12.3574627"><ele>589.0</ele><time>2026-05-03T09:06:02.029Z</time></trkpt><trkpt lat="43.4649065" lon="12.3573405"><ele>585.0</ele><time>2026-05-03T09:06:03.029Z</time></trkpt><trkpt lat="43.4648313" lon="12.3572224"><ele>581.6</ele><time>2026-05-03T09:06:04.029Z</time></trkpt><trkpt lat="43.4647587" lon="12.3571048"><ele>578.2</ele><time>2026-05-03T09:06:05.029Z</time></trkpt><trkpt lat="43.4646959" lon="12.356981"><ele>574.8</ele><time>2026-05-03T09:06:06.029Z</time></trkpt><trkpt lat="43.4646502" lon="12.3568438"><ele>571.4</ele><time>2026-05-03T09:06:07.029Z</time></trkpt><trkpt lat="43.4646268" lon="12.3566921"><ele>568.0</ele><time>2026-05-03T09:06:08.029Z</time></trkpt><trkpt lat="43.4646269" lon="12.3565254"><ele>565.25</ele><time>2026-05-03T09:06:09.029Z</time></trkpt><trkpt lat="43.4646439" lon="12.3563492"><ele>562.5</ele><time>2026-05-03T09:06:10.03Z</time></trkpt><trkpt lat="43.4646607" lon="12.3561645"><ele>559.75</ele><time>2026-05-03T09:06:11.03Z</time></trkpt><trkpt lat="43.4646523" lon="12.3559849"><ele>557.0</ele><time>2026-05-03T09:06:12.029Z</time></trkpt><trkpt lat="43.464627" lon="12.3558299"><ele>555.8333333333333</ele><time>2026-05-03T09:06:13.03Z</time></trkpt><trkpt lat="43.464595" lon="12.3556935"><ele>554.6666666666666</ele><time>2026-05-03T09:06:14.029Z</time></trkpt><trkpt lat="43.4645801" lon="12.3555694"><ele>553.5</ele><time>2026-05-03T09:06:15.029Z</time></trkpt><trkpt lat="43.4645909" lon="12.355449"><ele>552.3333333333334</ele><time>2026-05-03T09:06:16.029Z</time></trkpt><trkpt lat="43.4646337" lon="12.3553535"><ele>551.1666666666667</ele><time>2026-05-03T09:06:17.03Z</time></trkpt><trkpt lat="43.4646902" lon="12.3552802"><ele>550.0</ele><time>2026-05-03T09:06:18.03Z</time></trkpt><trkpt lat="43.4647786" lon="12.3552736"><ele>550.0</ele><time>2026-05-03T09:06:19.029Z</time></trkpt><trkpt lat="43.464854" lon="12.3553"><ele>550.0</ele><time>2026-05-03T09:06:20.029Z</time></trkpt><trkpt lat="43.4649143" lon="12.3553707"><ele>550.0</ele><time>2026-05-03T09:06:21.029Z</time></trkpt><trkpt lat="43.4649567" lon="12.3554795"><ele>550.0</ele><time>2026-05-03T09:06:22.029Z</time></trkpt><trkpt lat="43.4649946" lon="12.3556079"><ele>550.0</ele><time>2026-05-03T09:06:23.029Z</time></trkpt><trkpt lat="43.4650474" lon="12.3557257"><ele>550.0</ele><time>2026-05-03T09:06:24.029Z</time></trkpt><trkpt lat="43.4651411" lon="12.3558131"><ele>551.75</ele><time>2026-05-03T09:06:25.029Z</time></trkpt><trkpt lat="43.4652498" lon="12.3558837"><ele>553.5</ele><time>2026-05-03T09:06:26.029Z</time></trkpt><trkpt lat="43.4653719" lon="12.3559519"><ele>555.25</ele><time>2026-05-03T09:06:27.03Z</time></trkpt><trkpt lat="43.4655038" lon="12.3560153"><ele>557.0</ele><time>2026-05-03T09:06:28.029Z</time></trkpt><trkpt lat="43.4656302" lon="12.3560656"><ele>553.8000000000001</ele><time>2026-05-03T09:06:29.029Z</time></trkpt><trkpt lat="43.4657379" lon="12.3561084"><ele>550.6</ele><time>2026-05-03T09:06:30.029Z</time></trkpt><trkpt lat="43.4658319" lon="12.356137"><ele>547.4000000000001</ele><time>2026-05-03T09:06:31.03Z</time></trkpt><trkpt lat="43.4659232" lon="12.3561456"><ele>544.2</ele><time>2026-05-03T09:06:32.029Z</time></trkpt><trkpt lat="43.4660042" lon="12.3561157"><ele>541.0</ele><time>2026-05-03T09:06:33.029Z</time></trkpt><trkpt lat="43.4660708" lon="12.3560392"><ele>541.0</ele><time>2026-05-03T09:06:34.029Z</time></trkpt><trkpt lat="43.4661197" lon="12.3559299"><ele>541.0</ele><time>2026-05-03T09:06:35.029Z</time></trkpt><trkpt lat="43.4661394" lon="12.355801"><ele>541.0</ele><time>2026-05-03T09:06:36.029Z</time></trkpt><trkpt lat="43.4661281" lon="12.3556748"><ele>541.0</ele><time>2026-05-03T09:06:37.029Z</time></trkpt><trkpt lat="43.4660917" lon="12.3555663"><ele>541.0</ele><time>2026-05-03T09:06:38.029Z</time></trkpt><trkpt lat="43.4660343" lon="12.3554747"><ele>537.5</ele><time>2026-05-03T09:06:39.029Z</time></trkpt><trkpt lat="43.4659607" lon="12.3553907"><ele>534.0</ele><time>2026-05-03T09:06:40.029Z</time></trkpt><trkpt lat="43.4658706" lon="12.3553008"><ele>530.5</ele><time>2026-05-03T09:06:41.029Z</time></trkpt><trkpt lat="43.4657814" lon="12.3551937"><ele>527.0</ele><time>2026-05-03T09:06:42.029Z</time></trkpt><trkpt lat="43.4656921" lon="12.3550672"><ele>527.0</ele><time>2026-05-03T09:06:43.029Z</time></trkpt><trkpt lat="43.465609" lon="12.3549149"><ele>527.0</ele><time>2026-05-03T09:06:44.029Z</time></trkpt><trkpt lat="43.465533" lon="12.35475"><ele>527.0</ele><time>2026-05-03T09:06:45.029Z</time></trkpt><trkpt lat="43.4654536" lon="12.3545841"><ele>527.0</ele><time>2026-05-03T09:06:46.029Z</time></trkpt><trkpt lat="43.4653759" lon="12.3544182"><ele>525.4</ele><time>2026-05-03T09:06:47.029Z</time></trkpt><trkpt lat="43.4653036" lon="12.3542535"><ele>523.8000000000001</ele><time>2026-05-03T09:06:48.029Z</time></trkpt><trkpt lat="43.4652407" lon="12.3541136"><ele>522.2</ele><time>2026-05-03T09:06:49.03Z</time></trkpt><trkpt lat="43.4651876" lon="12.3539923"><ele>520.6</ele><time>2026-05-03T09:06:50.029Z</time></trkpt><trkpt lat="43.465151" lon="12.3538929"><ele>519.0</ele><time>2026-05-03T09:06:51.029Z</time></trkpt><trkpt lat="43.4651309" lon="12.353808"><ele>519.0</ele><time>2026-05-03T09:06:52.03Z</time></trkpt><trkpt lat="43.4651701" lon="12.3536788"><ele>519.0</ele><time>2026-05-03T09:06:54.029Z</time></trkpt><trkpt lat="43.4652901" lon="12.3536557"><ele>519.0</ele><time>2026-05-03T09:06:56.029Z</time></trkpt><trkpt lat="43.4653672" lon="12.3537053"><ele>519.0</ele><time>2026-05-03T09:06:57.029Z</time></trkpt><trkpt lat="43.4654384" lon="12.3537748"><ele>519.0</ele><time>2026-05-03T09:06:58.029Z</time></trkpt><trkpt lat="43.465524" lon="12.3538418"><ele>518.2</ele><time>2026-05-03T09:06:59.03Z</time></trkpt><trkpt lat="43.4656277" lon="12.3538746"><ele>517.4</ele><time>2026-05-03T09:07:00.029Z</time></trkpt><trkpt lat="43.4657372" lon="12.3538785"><ele>516.6</ele><time>2026-05-03T09:07:01.029Z</time></trkpt><trkpt lat="43.4658493" lon="12.3538646"><ele>515.8</ele><time>2026-05-03T09:07:02.03Z</time></trkpt><trkpt lat="43.4659567" lon="12.35388"><ele>515.0</ele><time>2026-05-03T09:07:03.029Z</time></trkpt><trkpt lat="43.4660507" lon="12.35393"><ele>515.0</ele><time>2026-05-03T09:07:04.029Z</time></trkpt><trkpt lat="43.4661355" lon="12.3539913"><ele>515.0</ele><time>2026-05-03T09:07:05.029Z</time></trkpt><trkpt lat="43.4662063" lon="12.3540326"><ele>515.0</ele><time>2026-05-03T09:07:06.029Z</time></trkpt><trkpt lat="43.4662757" lon="12.3540595"><ele>515.0</ele><time>2026-05-03T09:07:07.029Z</time></trkpt><trkpt lat="43.4663451" lon="12.3540593"><ele>515.0</ele><time>2026-05-03T09:07:08.029Z</time></trkpt><trkpt lat="43.4664006" lon="12.3540158"><ele>515.0</ele><time>2026-05-03T09:07:09.029Z</time></trkpt><trkpt lat="43.4664166" lon="12.3538444"><ele>512.2</ele><time>2026-05-03T09:07:11.029Z</time></trkpt><trkpt lat="43.4663731" lon="12.3537567"><ele>509.4</ele><time>2026-05-03T09:07:12.029Z</time></trkpt><trkpt lat="43.4663023" lon="12.3536678"><ele>506.6</ele><time>2026-05-03T09:07:13.029Z</time></trkpt><trkpt lat="43.4662155" lon="12.353584"><ele>503.8</ele><time>2026-05-03T09:07:14.029Z</time></trkpt><trkpt lat="43.4661231" lon="12.353489"><ele>501.0</ele><time>2026-05-03T09:07:15.03Z</time></trkpt><trkpt lat="43.4660221" lon="12.3533863"><ele>499.75</ele><time>2026-05-03T09:07:16.029Z</time></trkpt><trkpt lat="43.4659111" lon="12.3532876"><ele>498.5</ele><time>2026-05-03T09:07:17.029Z</time></trkpt><trkpt lat="43.4657956" lon="12.3531996"><ele>497.25</ele><time>2026-05-03T09:07:18.029Z</time></trkpt><trkpt lat="43.465674" lon="12.3531246"><ele>496.0</ele><time>2026-05-03T09:07:19.029Z</time></trkpt><trkpt lat="43.4655572" lon="12.3530502"><ele>494.75</ele><time>2026-05-03T09:07:20.03Z</time></trkpt><trkpt lat="43.4654419" lon="12.352975"><ele>493.5</ele><time>2026-05-03T09:07:21.029Z</time></trkpt><trkpt lat="43.4653191" lon="12.3528923"><ele>492.25</ele><time>2026-05-03T09:07:22.029Z</time></trkpt><trkpt lat="43.4651953" lon="12.3528046"><ele>491.0</ele><time>2026-05-03T09:07:23.03Z</time></trkpt><trkpt lat="43.4650705" lon="12.3527107"><ele>491.0</ele><time>2026-05-03T09:07:24.029Z</time></trkpt><trkpt lat="43.464952" lon="12.3526148"><ele>491.0</ele><time>2026-05-03T09:07:25.029Z</time></trkpt><trkpt lat="43.4648324" lon="12.3525228"><ele>491.0</ele><time>2026-05-03T09:07:26.029Z</time></trkpt><trkpt lat="43.464714" lon="12.3524407"><ele>491.0</ele><time>2026-05-03T09:07:27.029Z</time></trkpt><trkpt lat="43.4646014" lon="12.3523487"><ele>489.75</ele><time>2026-05-03T09:07:28.029Z</time></trkpt><trkpt lat="43.4644821" lon="12.3522728"><ele>488.5</ele><time>2026-05-03T09:07:29.029Z</time></trkpt><trkpt lat="43.4643563" lon="12.3521953"><ele>487.25</ele><time>2026-05-03T09:07:30.029Z</time></trkpt><trkpt lat="43.464232" lon="12.3521223"><ele>486.0</ele><time>2026-05-03T09:07:31.03Z</time></trkpt><trkpt lat="43.4641089" lon="12.3520484"><ele>482.25</ele><time>2026-05-03T09:07:32.029Z</time></trkpt><trkpt lat="43.4639882" lon="12.351974"><ele>478.5</ele><time>2026-05-03T09:07:33.03Z</time></trkpt><trkpt lat="43.4638718" lon="12.3519077"><ele>474.75</ele><time>2026-05-03T09:07:34.029Z</time></trkpt><trkpt lat="43.4637562" lon="12.351854"><ele>471.0</ele><time>2026-05-03T09:07:35.029Z</time></trkpt><trkpt lat="43.4636402" lon="12.3518106"><ele>469.4</ele><time>2026-05-03T09:07:36.029Z</time></trkpt><trkpt lat="43.4635357" lon="12.3517617"><ele>467.8</ele><time>2026-05-03T09:07:37.029Z</time></trkpt><trkpt lat="43.4634496" lon="12.3516985"><ele>466.19999999999993</ele><time>2026-05-03T09:07:38.029Z</time></trkpt><trkpt lat="43.4633738" lon="12.3516113"><ele>464.59999999999997</ele><time>2026-05-03T09:07:39.03Z</time></trkpt><trkpt lat="43.4633167" lon="12.3514943"><ele>463.0</ele><time>2026-05-03T09:07:40.029Z</time></trkpt><trkpt lat="43.463292" lon="12.3513496"><ele>461.75</ele><time>2026-05-03T09:07:41.029Z</time></trkpt><trkpt lat="43.4632936" lon="12.3511807"><ele>460.5</ele><time>2026-05-03T09:07:42.029Z</time></trkpt><trkpt lat="43.4633147" lon="12.3510034"><ele>459.25</ele><time>2026-05-03T09:07:43.029Z</time></trkpt><trkpt lat="43.4633384" lon="12.350808"><ele>458.0</ele><time>2026-05-03T09:07:44.029Z</time></trkpt><trkpt lat="43.4633552" lon="12.3506142"><ele>459.3333333333333</ele><time>2026-05-03T09:07:45.029Z</time></trkpt><trkpt lat="43.463347" lon="12.3504156"><ele>460.66666666666663</ele><time>2026-05-03T09:07:46.029Z</time></trkpt><trkpt lat="43.4633093" lon="12.3501926"><ele>462.0</ele><time>2026-05-03T09:07:47.03Z</time></trkpt><trkpt lat="43.4632618" lon="12.349955"><ele>462.0</ele><time>2026-05-03T09:07:48.03Z</time></trkpt><trkpt lat="43.4632106" lon="12.3497241"><ele>462.0</ele><time>2026-05-03T09:07:49.029Z</time></trkpt><trkpt lat="43.4631653" lon="12.3495016"><ele>462.0</ele><time>2026-05-03T09:07:50.029Z</time></trkpt><trkpt lat="43.4631325" lon="12.3492899"><ele>462.5</ele><time>2026-05-03T09:07:51.029Z</time></trkpt><trkpt lat="43.4631101" lon="12.3490853"><ele>463.0</ele><time>2026-05-03T09:07:52.029Z</time></trkpt><trkpt lat="43.4631074" lon="12.3488921"><ele>463.5</ele><time>2026-05-03T09:07:53.029Z</time></trkpt><trkpt lat="43.4631219" lon="12.3487117"><ele>464.0</ele><time>2026-05-03T09:07:54.029Z</time></trkpt><trkpt lat="43.4631612" lon="12.3485366"><ele>464.0</ele><time>2026-05-03T09:07:55.029Z</time></trkpt><trkpt lat="43.4631853" lon="12.3483708"><ele>464.0</ele><time>2026-05-03T09:07:56.03Z</time></trkpt><trkpt lat="43.4631899" lon="12.3482166"><ele>464.0</ele><time>2026-05-03T09:07:57.029Z</time></trkpt><trkpt lat="43.4631516" lon="12.3480594"><ele>464.0</ele><time>2026-05-03T09:07:58.029Z</time></trkpt><trkpt lat="43.4630838" lon="12.3478985"><ele>464.0</ele><time>2026-05-03T09:07:59.029Z</time></trkpt><trkpt lat="43.4630209" lon="12.3477411"><ele>464.0</ele><time>2026-05-03T09:08:00.029Z</time></trkpt><trkpt lat="43.4629416" lon="12.3475787"><ele>464.0</ele><time>2026-05-03T09:08:01.029Z</time></trkpt><trkpt lat="43.4628599" lon="12.3474237"><ele>464.0</ele><time>2026-05-03T09:08:02.029Z</time></trkpt><trkpt lat="43.4627732" lon="12.3472661"><ele>460.5</ele><time>2026-05-03T09:08:03.029Z</time></trkpt><trkpt lat="43.4627003" lon="12.3470942"><ele>457.0</ele><time>2026-05-03T09:08:04.029Z</time></trkpt><trkpt lat="43.4626398" lon="12.3469086"><ele>453.5</ele><time>2026-05-03T09:08:05.029Z</time></trkpt><trkpt lat="43.4625903" lon="12.3467142"><ele>450.0</ele><time>2026-05-03T09:08:06.03Z</time></trkpt><trkpt lat="43.4625323" lon="12.3465232"><ele>451.66666666666663</ele><time>2026-05-03T09:08:07.029Z</time></trkpt><trkpt lat="43.4624443" lon="12.3463463"><ele>453.3333333333333</ele><time>2026-05-03T09:08:08.029Z</time></trkpt><trkpt lat="43.4623555" lon="12.3461767"><ele>455.0</ele><time>2026-05-03T09:08:09.029Z</time></trkpt><trkpt lat="43.4622694" lon="12.3460204"><ele>455.0</ele><time>2026-05-03T09:08:10.029Z</time></trkpt><trkpt lat="43.4621899" lon="12.3458702"><ele>455.0</ele><time>2026-05-03T09:08:11.029Z</time></trkpt><trkpt lat="43.4621405" lon="12.345717"><ele>455.0</ele><time>2026-05-03T09:08:12.029Z</time></trkpt><trkpt lat="43.4621112" lon="12.345562"><ele>455.0</ele><time>2026-05-03T09:08:13.029Z</time></trkpt><trkpt lat="43.4621164" lon="12.3454087"><ele>453.0</ele><time>2026-05-03T09:08:14.029Z</time></trkpt><trkpt lat="43.4621512" lon="12.3452645"><ele>451.0</ele><time>2026-05-03T09:08:15.029Z</time></trkpt><trkpt lat="43.4622201" lon="12.3451139"><ele>449.0</ele><time>2026-05-03T09:08:16.029Z</time></trkpt><trkpt lat="43.4623096" lon="12.3449738"><ele>447.0</ele><time>2026-05-03T09:08:17.03Z</time></trkpt><trkpt lat="43.4624209" lon="12.3448264"><ele>440.66666666666663</ele><time>2026-05-03T09:08:18.029Z</time></trkpt><trkpt lat="43.4625395" lon="12.3446697"><ele>434.3333333333333</ele><time>2026-05-03T09:08:19.029Z</time></trkpt><trkpt lat="43.4626552" lon="12.3444943"><ele>428.0</ele><time>2026-05-03T09:08:20.029Z</time></trkpt><trkpt lat="43.4627767" lon="12.3442959"><ele>428.0</ele><time>2026-05-03T09:08:21.029Z</time></trkpt><trkpt lat="43.4628987" lon="12.3440837"><ele>428.0</ele><time>2026-05-03T09:08:22.03Z</time></trkpt><trkpt lat="43.4630164" lon="12.3438643"><ele>428.0</ele><time>2026-05-03T09:08:23.029Z</time></trkpt><trkpt lat="43.4631273" lon="12.3436348"><ele>429.3333333333333</ele><time>2026-05-03T09:08:24.029Z</time></trkpt><trkpt lat="43.4632355" lon="12.3434111"><ele>430.66666666666663</ele><time>2026-05-03T09:08:25.03Z</time></trkpt><trkpt lat="43.4633337" lon="12.3431924"><ele>432.0</ele><time>2026-05-03T09:08:26.029Z</time></trkpt><trkpt lat="43.4634214" lon="12.3429804"><ele>429.5</ele><time>2026-05-03T09:08:27.029Z</time></trkpt><trkpt lat="43.4635053" lon="12.3427766"><ele>427.0</ele><time>2026-05-03T09:08:28.029Z</time></trkpt><trkpt lat="43.4635741" lon="12.3426059"><ele>424.5</ele><time>2026-05-03T09:08:29.029Z</time></trkpt><trkpt lat="43.4636271" lon="12.3424331"><ele>422.0</ele><time>2026-05-03T09:08:30.03Z</time></trkpt><trkpt lat="43.4636359" lon="12.342258"><ele>421.75</ele><time>2026-05-03T09:08:31.03Z</time></trkpt><trkpt lat="43.4636131" lon="12.3420959"><ele>421.5</ele><time>2026-05-03T09:08:32.029Z</time></trkpt><trkpt lat="43.4635922" lon="12.3419127"><ele>421.25</ele><time>2026-05-03T09:08:33.029Z</time></trkpt><trkpt lat="43.4635721" lon="12.3417249"><ele>421.0</ele><time>2026-05-03T09:08:34.029Z</time></trkpt><trkpt lat="43.4635592" lon="12.3415269"><ele>421.0</ele><time>2026-05-03T09:08:35.029Z</time></trkpt><trkpt lat="43.4635544" lon="12.3413317"><ele>421.0</ele><time>2026-05-03T09:08:36.029Z</time></trkpt><trkpt lat="43.4635563" lon="12.3411368"><ele>421.0</ele><time>2026-05-03T09:08:37.029Z</time></trkpt><trkpt lat="43.4635668" lon="12.340951"><ele>421.0</ele><time>2026-05-03T09:08:38.029Z</time></trkpt><trkpt lat="43.4635804" lon="12.340782"><ele>421.0</ele><time>2026-05-03T09:08:39.029Z</time></trkpt><trkpt lat="43.4636056" lon="12.3406249"><ele>421.0</ele><time>2026-05-03T09:08:40.029Z</time></trkpt><trkpt lat="43.4636457" lon="12.3404693"><ele>421.0</ele><time>2026-05-03T09:08:41.029Z</time></trkpt><trkpt lat="43.4637006" lon="12.3403082"><ele>421.0</ele><time>2026-05-03T09:08:42.029Z</time></trkpt><trkpt lat="43.4637727" lon="12.3401458"><ele>419.0</ele><time>2026-05-03T09:08:43.029Z</time></trkpt><trkpt lat="43.4638581" lon="12.3399743"><ele>417.0</ele><time>2026-05-03T09:08:44.03Z</time></trkpt><trkpt lat="43.4639557" lon="12.3398004"><ele>415.0</ele><time>2026-05-03T09:08:45.029Z</time></trkpt><trkpt lat="43.4640607" lon="12.3396136"><ele>415.0</ele><time>2026-05-03T09:08:46.029Z</time></trkpt><trkpt lat="43.4641661" lon="12.3394048"><ele>415.0</ele><time>2026-05-03T09:08:47.029Z</time></trkpt><trkpt lat="43.4642735" lon="12.3391755"><ele>415.0</ele><time>2026-05-03T09:08:48.029Z</time></trkpt><trkpt lat="43.4643848" lon="12.3389457"><ele>412.0</ele><time>2026-05-03T09:08:49.029Z</time></trkpt><trkpt lat="43.4644922" lon="12.3387334"><ele>409.0</ele><time>2026-05-03T09:08:50.029Z</time></trkpt><trkpt lat="43.4645954" lon="12.3385294"><ele>406.0</ele><time>2026-05-03T09:08:51.029Z</time></trkpt><trkpt lat="43.4647064" lon="12.338343"><ele>406.6666666666667</ele><time>2026-05-03T09:08:52.029Z</time></trkpt><trkpt lat="43.4648342" lon="12.3381695"><ele>407.33333333333337</ele><time>2026-05-03T09:08:53.029Z</time></trkpt><trkpt lat="43.4649702" lon="12.337999"><ele>408.0</ele><time>2026-05-03T09:08:54.029Z</time></trkpt><trkpt lat="43.4651092" lon="12.3378366"><ele>408.0</ele><time>2026-05-03T09:08:55.029Z</time></trkpt><trkpt lat="43.4652453" lon="12.3376781"><ele>408.0</ele><time>2026-05-03T09:08:56.029Z</time></trkpt><trkpt lat="43.4653797" lon="12.3375403"><ele>408.0</ele><time>2026-05-03T09:08:57.029Z</time></trkpt><trkpt lat="43.4655196" lon="12.3374583"><ele>407.25</ele><time>2026-05-03T09:08:58.029Z</time></trkpt><trkpt lat="43.4656302" lon="12.3373833"><ele>406.5</ele><time>2026-05-03T09:08:59.029Z</time></trkpt><trkpt lat="43.465726" lon="12.3372809"><ele>405.75</ele><time>2026-05-03T09:09:00.029Z</time></trkpt><trkpt lat="43.4657765" lon="12.3371342"><ele>405.0</ele><time>2026-05-03T09:09:01.029Z</time></trkpt><trkpt lat="43.4658202" lon="12.3369919"><ele>405.0</ele><time>2026-05-03T09:09:02.029Z</time></trkpt><trkpt lat="43.4657935" lon="12.3367817"><ele>405.0</ele><time>2026-05-03T09:09:03.029Z</time></trkpt><trkpt lat="43.4658129" lon="12.3365767"><ele>405.0</ele><time>2026-05-03T09:09:04.029Z</time></trkpt><trkpt lat="43.4658349" lon="12.3363495"><ele>403.33333333333337</ele><time>2026-05-03T09:09:05.029Z</time></trkpt><trkpt lat="43.4658628" lon="12.3361136"><ele>401.6666666666667</ele><time>2026-05-03T09:09:06.029Z</time></trkpt><trkpt lat="43.4658986" lon="12.335883"><ele>400.0</ele><time>2026-05-03T09:09:07.029Z</time></trkpt><trkpt lat="43.465942" lon="12.3356659"><ele>401.0</ele><time>2026-05-03T09:09:08.029Z</time></trkpt><trkpt lat="43.4659954" lon="12.335465"><ele>402.0</ele><time>2026-05-03T09:09:09.029Z</time></trkpt><trkpt lat="43.4660537" lon="12.3352738"><ele>403.0</ele><time>2026-05-03T09:09:10.03Z</time></trkpt><trkpt lat="43.4661186" lon="12.3350794"><ele>403.0</ele><time>2026-05-03T09:09:11.029Z</time></trkpt><trkpt lat="43.4661845" lon="12.3348817"><ele>403.0</ele><time>2026-05-03T09:09:12.029Z</time></trkpt><trkpt lat="43.4662633" lon="12.3346853"><ele>403.0</ele><time>2026-05-03T09:09:13.029Z</time></trkpt><trkpt lat="43.4663435" lon="12.3344952"><ele>400.0</ele><time>2026-05-03T09:09:14.029Z</time></trkpt><trkpt lat="43.466423" lon="12.3343129"><ele>397.0</ele><time>2026-05-03T09:09:15.029Z</time></trkpt><trkpt lat="43.4664917" lon="12.3341341"><ele>394.0</ele><time>2026-05-03T09:09:16.03Z</time></trkpt><trkpt lat="43.4665407" lon="12.3339584"><ele>391.0</ele><time>2026-05-03T09:09:17.029Z</time></trkpt><trkpt lat="43.466556" lon="12.3337729"><ele>390.33333333333337</ele><time>2026-05-03T09:09:18.029Z</time></trkpt><trkpt lat="43.4665411" lon="12.3335736"><ele>389.66666666666663</ele><time>2026-05-03T09:09:19.03Z</time></trkpt><trkpt lat="43.4665067" lon="12.3333661"><ele>389.0</ele><time>2026-05-03T09:09:20.029Z</time></trkpt><trkpt lat="43.4664674" lon="12.3331531"><ele>387.66666666666663</ele><time>2026-05-03T09:09:21.029Z</time></trkpt><trkpt lat="43.4664286" lon="12.3329441"><ele>386.33333333333337</ele><time>2026-05-03T09:09:22.03Z</time></trkpt><trkpt lat="43.4663799" lon="12.3327341"><ele>385.0</ele><time>2026-05-03T09:09:23.029Z</time></trkpt><trkpt lat="43.4663253" lon="12.3325243"><ele>385.0</ele><time>2026-05-03T09:09:24.029Z</time></trkpt><trkpt lat="43.4662924" lon="12.3323106"><ele>385.0</ele><time>2026-05-03T09:09:25.029Z</time></trkpt><trkpt lat="43.4662751" lon="12.3320842"><ele>385.0</ele><time>2026-05-03T09:09:26.029Z</time></trkpt><trkpt lat="43.4662634" lon="12.3318496"><ele>385.0</ele><time>2026-05-03T09:09:27.029Z</time></trkpt><trkpt lat="43.4662611" lon="12.3316077"><ele>385.0</ele><time>2026-05-03T09:09:28.029Z</time></trkpt><trkpt lat="43.4662671" lon="12.3313644"><ele>385.0</ele><time>2026-05-03T09:09:29.029Z</time></trkpt><trkpt lat="43.4662767" lon="12.3311151"><ele>387.0</ele><time>2026-05-03T09:09:30.029Z</time></trkpt><trkpt lat="43.4663157" lon="12.3308775"><ele>389.0</ele><time>2026-05-03T09:09:31.029Z</time></trkpt><trkpt lat="43.4663537" lon="12.3306578"><ele>391.0</ele><time>2026-05-03T09:09:32.029Z</time></trkpt><trkpt lat="43.4663892" lon="12.3304547"><ele>392.25</ele><time>2026-05-03T09:09:33.03Z</time></trkpt><trkpt lat="43.466423" lon="12.3302741"><ele>393.5</ele><time>2026-05-03T09:09:34.029Z</time></trkpt><trkpt lat="43.4664548" lon="12.33011"><ele>394.75</ele><time>2026-05-03T09:09:35.029Z</time></trkpt><trkpt lat="43.4664765" lon="12.3299395"><ele>396.0</ele><time>2026-05-03T09:09:36.03Z</time></trkpt><trkpt lat="43.4664806" lon="12.3297714"><ele>397.25</ele><time>2026-05-03T09:09:37.029Z</time></trkpt><trkpt lat="43.4664788" lon="12.3295919"><ele>398.5</ele><time>2026-05-03T09:09:38.029Z</time></trkpt><trkpt lat="43.466471" lon="12.329412"><ele>399.75</ele><time>2026-05-03T09:09:39.029Z</time></trkpt><trkpt lat="43.4664516" lon="12.3292375"><ele>401.0</ele><time>2026-05-03T09:09:40.029Z</time></trkpt><trkpt lat="43.4664293" lon="12.3290629"><ele>401.0</ele><time>2026-05-03T09:09:41.029Z</time></trkpt><trkpt lat="43.4664083" lon="12.3288999"><ele>401.0</ele><time>2026-05-03T09:09:42.029Z</time></trkpt><trkpt lat="43.4663822" lon="12.3287448"><ele>401.0</ele><time>2026-05-03T09:09:43.029Z</time></trkpt><trkpt lat="43.4663499" lon="12.3285956"><ele>401.0</ele><time>2026-05-03T09:09:44.029Z</time></trkpt><trkpt lat="43.4663027" lon="12.3284513"><ele>399.0</ele><time>2026-05-03T09:09:45.029Z</time></trkpt><trkpt lat="43.4662507" lon="12.3283121"><ele>397.0</ele><time>2026-05-03T09:09:46.029Z</time></trkpt><trkpt lat="43.4661871" lon="12.3281735"><ele>395.0</ele><time>2026-05-03T09:09:47.029Z</time></trkpt><trkpt lat="43.4661215" lon="12.3280255"><ele>393.0</ele><time>2026-05-03T09:09:48.029Z</time></trkpt><trkpt lat="43.4660332" lon="12.32787"><ele>393.0</ele><time>2026-05-03T09:09:49.029Z</time></trkpt><trkpt lat="43.4659471" lon="12.3276871"><ele>393.0</ele><time>2026-05-03T09:09:50.029Z</time></trkpt><trkpt lat="43.4658567" lon="12.3274765"><ele>393.0</ele><time>2026-05-03T09:09:51.029Z</time></trkpt><trkpt lat="43.4657477" lon="12.3272587"><ele>390.66666666666663</ele><time>2026-05-03T09:09:52.029Z</time></trkpt><trkpt lat="43.4656311" lon="12.3270487"><ele>388.3333333333333</ele><time>2026-05-03T09:09:53.029Z</time></trkpt><trkpt lat="43.4655186" lon="12.3268533"><ele>386.0</ele><time>2026-05-03T09:09:54.03Z</time></trkpt><trkpt lat="43.4654061" lon="12.3266705"><ele>386.0</ele><time>2026-05-03T09:09:55.029Z</time></trkpt><trkpt lat="43.4652994" lon="12.3265019"><ele>386.0</ele><time>2026-05-03T09:09:56.029Z</time></trkpt><trkpt lat="43.4651994" lon="12.3263455"><ele>386.0</ele><time>2026-05-03T09:09:57.03Z</time></trkpt><trkpt lat="43.4650987" lon="12.3261913"><ele>388.5</ele><time>2026-05-03T09:09:58.03Z</time></trkpt><trkpt lat="43.4649994" lon="12.326039"><ele>391.0</ele><time>2026-05-03T09:09:59.029Z</time></trkpt><trkpt lat="43.4649086" lon="12.325886"><ele>393.5</ele><time>2026-05-03T09:10:00.03Z</time></trkpt><trkpt lat="43.4648351" lon="12.325727"><ele>396.0</ele><time>2026-05-03T09:10:01.029Z</time></trkpt><trkpt lat="43.4647858" lon="12.325548"><ele>398.33333333333337</ele><time>2026-05-03T09:10:02.029Z</time></trkpt><trkpt lat="43.4647603" lon="12.3253214"><ele>400.6666666666667</ele><time>2026-05-03T09:10:03.029Z</time></trkpt><trkpt lat="43.4647412" lon="12.3250681"><ele>403.0</ele><time>2026-05-03T09:10:04.029Z</time></trkpt><trkpt lat="43.4646956" lon="12.324782"><ele>405.0</ele><time>2026-05-03T09:10:05.029Z</time></trkpt><trkpt lat="43.4646275" lon="12.3244751"><ele>407.0</ele><time>2026-05-03T09:10:06.03Z</time></trkpt><trkpt lat="43.4645371" lon="12.3241452"><ele>395.0</ele><time>2026-05-03T09:10:07.029Z</time></trkpt><trkpt lat="43.4644404" lon="12.3238047"><ele>383.0</ele><time>2026-05-03T09:10:08.03Z</time></trkpt><trkpt lat="43.4643605" lon="12.3234844"><ele>383.0</ele><time>2026-05-03T09:10:09.029Z</time></trkpt><trkpt lat="43.464279" lon="12.3231856"><ele>383.0</ele><time>2026-05-03T09:10:10.029Z</time></trkpt><trkpt lat="43.4642014" lon="12.3228976"><ele>384.0</ele><time>2026-05-03T09:10:11.029Z</time></trkpt><trkpt lat="43.4641299" lon="12.3226315"><ele>385.0</ele><time>2026-05-03T09:10:12.029Z</time></trkpt><trkpt lat="43.4640709" lon="12.322398"><ele>386.0</ele><time>2026-05-03T09:10:13.029Z</time></trkpt><trkpt lat="43.4640284" lon="12.3221838"><ele>387.66666666666663</ele><time>2026-05-03T09:10:14.03Z</time></trkpt><trkpt lat="43.4640088" lon="12.3219716"><ele>389.33333333333337</ele><time>2026-05-03T09:10:15.029Z</time></trkpt><trkpt lat="43.4640141" lon="12.3217557"><ele>391.0</ele><time>2026-05-03T09:10:16.029Z</time></trkpt><trkpt lat="43.4640336" lon="12.3215372"><ele>390.33333333333337</ele><time>2026-05-03T09:10:17.029Z</time></trkpt><trkpt lat="43.4640526" lon="12.3213123"><ele>389.66666666666663</ele><time>2026-05-03T09:10:18.029Z</time></trkpt><trkpt lat="43.464068" lon="12.3210788"><ele>389.0</ele><time>2026-05-03T09:10:19.029Z</time></trkpt><trkpt lat="43.4640681" lon="12.3208379"><ele>389.0</ele><time>2026-05-03T09:10:20.029Z</time></trkpt><trkpt lat="43.464057" lon="12.3206017"><ele>389.0</ele><time>2026-05-03T09:10:21.029Z</time></trkpt><trkpt lat="43.4640287" lon="12.3203923"><ele>389.0</ele><time>2026-05-03T09:10:22.03Z</time></trkpt><trkpt lat="43.4639954" lon="12.3201947"><ele>389.0</ele><time>2026-05-03T09:10:23.029Z</time></trkpt><trkpt lat="43.4639521" lon="12.3200156"><ele>389.0</ele><time>2026-05-03T09:10:24.029Z</time></trkpt><trkpt lat="43.4639154" lon="12.3198435"><ele>389.0</ele><time>2026-05-03T09:10:25.03Z</time></trkpt><trkpt lat="43.4638887" lon="12.3196746"><ele>389.0</ele><time>2026-05-03T09:10:26.029Z</time></trkpt><trkpt lat="43.4638825" lon="12.3195097"><ele>386.75</ele><time>2026-05-03T09:10:27.029Z</time></trkpt><trkpt lat="43.4638987" lon="12.3193445"><ele>384.5</ele><time>2026-05-03T09:10:28.029Z</time></trkpt><trkpt lat="43.4639333" lon="12.3191636"><ele>382.25</ele><time>2026-05-03T09:10:29.029Z</time></trkpt><trkpt lat="43.4639804" lon="12.3189729"><ele>380.0</ele><time>2026-05-03T09:10:30.029Z</time></trkpt><trkpt lat="43.4640248" lon="12.3187841"><ele>377.75</ele><time>2026-05-03T09:10:31.029Z</time></trkpt><trkpt lat="43.4640417" lon="12.3186135"><ele>375.5</ele><time>2026-05-03T09:10:32.029Z</time></trkpt><trkpt lat="43.4640346" lon="12.3184687"><ele>373.25</ele><time>2026-05-03T09:10:33.029Z</time></trkpt><trkpt lat="43.4639934" lon="12.318321"><ele>371.0</ele><time>2026-05-03T09:10:34.029Z</time></trkpt><trkpt lat="43.4639318" lon="12.3181674"><ele>370.75</ele><time>2026-05-03T09:10:35.029Z</time></trkpt><trkpt lat="43.4638688" lon="12.3180034"><ele>370.5</ele><time>2026-05-03T09:10:36.03Z</time></trkpt><trkpt lat="43.4638048" lon="12.3178358"><ele>370.25</ele><time>2026-05-03T09:10:37.03Z</time></trkpt><trkpt lat="43.4637315" lon="12.3176695"><ele>370.0</ele><time>2026-05-03T09:10:38.029Z</time></trkpt><trkpt lat="43.4636536" lon="12.3175033"><ele>370.0</ele><time>2026-05-03T09:10:39.029Z</time></trkpt><trkpt lat="43.4635736" lon="12.3173329"><ele>370.0</ele><time>2026-05-03T09:10:40.029Z</time></trkpt><trkpt lat="43.463505" lon="12.3171617"><ele>370.0</ele><time>2026-05-03T09:10:41.029Z</time></trkpt><trkpt lat="43.4634493" lon="12.3169815"><ele>370.0</ele><time>2026-05-03T09:10:42.029Z</time></trkpt><trkpt lat="43.4634009" lon="12.3168008"><ele>372.5</ele><time>2026-05-03T09:10:43.029Z</time></trkpt><trkpt lat="43.4633607" lon="12.316621"><ele>375.0</ele><time>2026-05-03T09:10:44.029Z</time></trkpt><trkpt lat="43.4633215" lon="12.3164443"><ele>377.5</ele><time>2026-05-03T09:10:45.03Z</time></trkpt><trkpt lat="43.4632873" lon="12.3162562"><ele>380.0</ele><time>2026-05-03T09:10:46.03Z</time></trkpt><trkpt lat="43.4632531" lon="12.3160608"><ele>381.0</ele><time>2026-05-03T09:10:47.029Z</time></trkpt><trkpt lat="43.4632184" lon="12.3158545"><ele>382.0</ele><time>2026-05-03T09:10:48.029Z</time></trkpt><trkpt lat="43.4631882" lon="12.3156476"><ele>383.0</ele><time>2026-05-03T09:10:49.029Z</time></trkpt><trkpt lat="43.4631604" lon="12.3154406"><ele>384.0</ele><time>2026-05-03T09:10:50.029Z</time></trkpt><trkpt lat="43.463137" lon="12.3152314"><ele>385.0</ele><time>2026-05-03T09:10:51.029Z</time></trkpt><trkpt lat="43.463113" lon="12.3150193"><ele>386.0</ele><time>2026-05-03T09:10:52.029Z</time></trkpt><trkpt lat="43.4630942" lon="12.3147999"><ele>385.66666666666663</ele><time>2026-05-03T09:10:53.029Z</time></trkpt><trkpt lat="43.4630763" lon="12.3145804"><ele>385.33333333333337</ele><time>2026-05-03T09:10:54.029Z</time></trkpt><trkpt lat="43.4630628" lon="12.3143634"><ele>385.0</ele><time>2026-05-03T09:10:55.029Z</time></trkpt><trkpt lat="43.4630491" lon="12.3141394"><ele>385.0</ele><time>2026-05-03T09:10:56.029Z</time></trkpt><trkpt lat="43.4630369" lon="12.3139117"><ele>385.0</ele><time>2026-05-03T09:10:57.029Z</time></trkpt><trkpt lat="43.4630225" lon="12.313684"><ele>385.0</ele><time>2026-05-03T09:10:58.029Z</time></trkpt><trkpt lat="43.4629998" lon="12.3134536"><ele>388.0</ele><time>2026-05-03T09:10:59.029Z</time></trkpt><trkpt lat="43.462965" lon="12.3132191"><ele>391.0</ele><time>2026-05-03T09:11:00.029Z</time></trkpt><trkpt lat="43.4629297" lon="12.312987"><ele>394.0</ele><time>2026-05-03T09:11:01.029Z</time></trkpt><trkpt lat="43.4628863" lon="12.3127632"><ele>385.0</ele><time>2026-05-03T09:11:02.029Z</time></trkpt><trkpt lat="43.4628402" lon="12.3125498"><ele>376.0</ele><time>2026-05-03T09:11:03.029Z</time></trkpt><trkpt lat="43.4628022" lon="12.3123441"><ele>367.0</ele><time>2026-05-03T09:11:04.029Z</time></trkpt><trkpt lat="43.4627616" lon="12.3121427"><ele>366.75</ele><time>2026-05-03T09:11:05.029Z</time></trkpt><trkpt lat="43.4627209" lon="12.3119387"><ele>366.5</ele><time>2026-05-03T09:11:06.029Z</time></trkpt><trkpt lat="43.4626874" lon="12.3117357"><ele>366.25</ele><time>2026-05-03T09:11:07.029Z</time></trkpt><trkpt lat="43.4626655" lon="12.3115481"><ele>366.0</ele><time>2026-05-03T09:11:08.029Z</time></trkpt><trkpt lat="43.4626673" lon="12.3113614"><ele>364.25</ele><time>2026-05-03T09:11:09.029Z</time></trkpt><trkpt lat="43.4626951" lon="12.3111652"><ele>362.5</ele><time>2026-05-03T09:11:10.03Z</time></trkpt><trkpt lat="43.4627431" lon="12.3109862"><ele>360.75</ele><time>2026-05-03T09:11:11.029Z</time></trkpt><trkpt lat="43.4628057" lon="12.3108417"><ele>359.0</ele><time>2026-05-03T09:11:12.029Z</time></trkpt><trkpt lat="43.4628553" lon="12.3106897"><ele>359.0</ele><time>2026-05-03T09:11:13.029Z</time></trkpt><trkpt lat="43.4628789" lon="12.3105207"><ele>359.0</ele><time>2026-05-03T09:11:14.029Z</time></trkpt><trkpt lat="43.4628708" lon="12.3103327"><ele>359.0</ele><time>2026-05-03T09:11:15.029Z</time></trkpt><trkpt lat="43.4628452" lon="12.3101368"><ele>359.0</ele><time>2026-05-03T09:11:16.029Z</time></trkpt><trkpt lat="43.4628193" lon="12.3099258"><ele>361.6666666666667</ele><time>2026-05-03T09:11:17.029Z</time></trkpt><trkpt lat="43.4627936" lon="12.3097138"><ele>364.3333333333333</ele><time>2026-05-03T09:11:18.029Z</time></trkpt><trkpt lat="43.4627657" lon="12.3094965"><ele>367.0</ele><time>2026-05-03T09:11:19.029Z</time></trkpt><trkpt lat="43.4627388" lon="12.3092891"><ele>367.0</ele><time>2026-05-03T09:11:20.029Z</time></trkpt><trkpt lat="43.4627054" lon="12.3090883"><ele>367.0</ele><time>2026-05-03T09:11:21.029Z</time></trkpt><trkpt lat="43.4626678" lon="12.3088951"><ele>367.0</ele><time>2026-05-03T09:11:22.03Z</time></trkpt><trkpt lat="43.4626228" lon="12.3087038"><ele>367.0</ele><time>2026-05-03T09:11:23.029Z</time></trkpt><trkpt lat="43.4625656" lon="12.3085206"><ele>368.0</ele><time>2026-05-03T09:11:24.03Z</time></trkpt><trkpt lat="43.4624993" lon="12.3083408"><ele>369.0</ele><time>2026-05-03T09:11:25.029Z</time></trkpt><trkpt lat="43.4624369" lon="12.3081642"><ele>370.0</ele><time>2026-05-03T09:11:26.029Z</time></trkpt><trkpt lat="43.4623689" lon="12.3079853"><ele>371.0</ele><time>2026-05-03T09:11:27.029Z</time></trkpt><trkpt lat="43.4623063" lon="12.307807"><ele>371.0</ele><time>2026-05-03T09:11:28.029Z</time></trkpt><trkpt lat="43.4622411" lon="12.307628"><ele>371.0</ele><time>2026-05-03T09:11:29.029Z</time></trkpt><trkpt lat="43.4621748" lon="12.3074548"><ele>371.0</ele><time>2026-05-03T09:11:30.029Z</time></trkpt><trkpt lat="43.4621101" lon="12.3072896"><ele>371.0</ele><time>2026-05-03T09:11:31.03Z</time></trkpt><trkpt lat="43.4620513" lon="12.3071255"><ele>370.25</ele><time>2026-05-03T09:11:32.029Z</time></trkpt><trkpt lat="43.4619871" lon="12.3069684"><ele>369.5</ele><time>2026-05-03T09:11:33.029Z</time></trkpt><trkpt lat="43.4618897" lon="12.3068284"><ele>368.75</ele><time>2026-05-03T09:11:34.029Z</time></trkpt><trkpt lat="43.4617753" lon="12.3066874"><ele>368.0</ele><time>2026-05-03T09:11:35.029Z</time></trkpt><trkpt lat="43.461642" lon="12.3065442"><ele>366.0</ele><time>2026-05-03T09:11:36.03Z</time></trkpt><trkpt lat="43.4614992" lon="12.3064023"><ele>364.0</ele><time>2026-05-03T09:11:37.029Z</time></trkpt><trkpt lat="43.4613598" lon="12.3062626"><ele>362.0</ele><time>2026-05-03T09:11:38.029Z</time></trkpt><trkpt lat="43.4612182" lon="12.3061273"><ele>362.0</ele><time>2026-05-03T09:11:39.029Z</time></trkpt><trkpt lat="43.4610814" lon="12.3059992"><ele>362.0</ele><time>2026-05-03T09:11:40.029Z</time></trkpt><trkpt lat="43.4609476" lon="12.305872"><ele>362.0</ele><time>2026-05-03T09:11:41.029Z</time></trkpt><trkpt lat="43.4608193" lon="12.3057514"><ele>362.0</ele><time>2026-05-03T09:11:42.029Z</time></trkpt><trkpt lat="43.4606898" lon="12.3056334"><ele>362.0</ele><time>2026-05-03T09:11:43.029Z</time></trkpt><trkpt lat="43.4605598" lon="12.3055151"><ele>362.0</ele><time>2026-05-03T09:11:44.029Z</time></trkpt><trkpt lat="43.460429" lon="12.3053999"><ele>362.6666666666667</ele><time>2026-05-03T09:11:45.029Z</time></trkpt><trkpt lat="43.4602984" lon="12.3052844"><ele>363.3333333333333</ele><time>2026-05-03T09:11:46.029Z</time></trkpt><trkpt lat="43.4601692" lon="12.305167"><ele>364.0</ele><time>2026-05-03T09:11:47.029Z</time></trkpt><trkpt lat="43.46004" lon="12.305055"><ele>364.0</ele><time>2026-05-03T09:11:48.029Z</time></trkpt><trkpt lat="43.4599043" lon="12.3049639"><ele>364.0</ele><time>2026-05-03T09:11:49.029Z</time></trkpt><trkpt lat="43.4597608" lon="12.3048868"><ele>364.0</ele><time>2026-05-03T09:11:50.03Z</time></trkpt><trkpt lat="43.4596122" lon="12.3048279"><ele>363.0</ele><time>2026-05-03T09:11:51.029Z</time></trkpt><trkpt lat="43.459476" lon="12.3047891"><ele>362.0</ele><time>2026-05-03T09:11:52.029Z</time></trkpt><trkpt lat="43.4593334" lon="12.3047662"><ele>361.0</ele><time>2026-05-03T09:11:53.029Z</time></trkpt><trkpt lat="43.4591774" lon="12.3047687"><ele>360.0</ele><time>2026-05-03T09:11:54.029Z</time></trkpt><trkpt lat="43.4590183" lon="12.3047872"><ele>360.0</ele><time>2026-05-03T09:11:55.03Z</time></trkpt><trkpt lat="43.4588476" lon="12.3048136"><ele>360.0</ele><time>2026-05-03T09:11:56.029Z</time></trkpt><trkpt lat="43.458676" lon="12.3048472"><ele>360.0</ele><time>2026-05-03T09:11:57.029Z</time></trkpt><trkpt lat="43.4584996" lon="12.3048788"><ele>360.0</ele><time>2026-05-03T09:11:58.029Z</time></trkpt><trkpt lat="43.4583244" lon="12.3049121"><ele>360.0</ele><time>2026-05-03T09:11:59.029Z</time></trkpt><trkpt lat="43.4581527" lon="12.304946"><ele>360.0</ele><time>2026-05-03T09:12:00.029Z</time></trkpt><trkpt lat="43.4579768" lon="12.3049744"><ele>361.6666666666667</ele><time>2026-05-03T09:12:01.029Z</time></trkpt><trkpt lat="43.4578009" lon="12.3049994"><ele>363.33333333333337</ele><time>2026-05-03T09:12:02.029Z</time></trkpt><trkpt lat="43.4576278" lon="12.3050196"><ele>365.0</ele><time>2026-05-03T09:12:03.029Z</time></trkpt><trkpt lat="43.4574564" lon="12.305027"><ele>365.0</ele><time>2026-05-03T09:12:04.03Z</time></trkpt><trkpt lat="43.4572847" lon="12.3050291"><ele>365.0</ele><time>2026-05-03T09:12:05.029Z</time></trkpt><trkpt lat="43.4571161" lon="12.3050272"><ele>365.0</ele><time>2026-05-03T09:12:06.029Z</time></trkpt><trkpt lat="43.4569626" lon="12.3050221"><ele>363.75</ele><time>2026-05-03T09:12:07.03Z</time></trkpt><trkpt lat="43.4568149" lon="12.3050156"><ele>362.5</ele><time>2026-05-03T09:12:08.029Z</time></trkpt><trkpt lat="43.4566708" lon="12.3050014"><ele>361.25</ele><time>2026-05-03T09:12:09.029Z</time></trkpt><trkpt lat="43.4565192" lon="12.3049633"><ele>360.0</ele><time>2026-05-03T09:12:10.029Z</time></trkpt><trkpt lat="43.45637" lon="12.3049041"><ele>357.0</ele><time>2026-05-03T09:12:11.029Z</time></trkpt><trkpt lat="43.4562196" lon="12.3048313"><ele>354.0</ele><time>2026-05-03T09:12:12.029Z</time></trkpt><trkpt lat="43.4560636" lon="12.3047442"><ele>351.0</ele><time>2026-05-03T09:12:13.029Z</time></trkpt><trkpt lat="43.455908" lon="12.3046588"><ele>358.0</ele><time>2026-05-03T09:12:14.03Z</time></trkpt><trkpt lat="43.455754" lon="12.3045721"><ele>365.0</ele><time>2026-05-03T09:12:15.029Z</time></trkpt><trkpt lat="43.455603" lon="12.3044837"><ele>372.0</ele><time>2026-05-03T09:12:16.029Z</time></trkpt><trkpt lat="43.455462" lon="12.3043763"><ele>365.6666666666667</ele><time>2026-05-03T09:12:17.029Z</time></trkpt><trkpt lat="43.4553259" lon="12.3042488"><ele>359.33333333333337</ele><time>2026-05-03T09:12:18.029Z</time></trkpt><trkpt lat="43.4551972" lon="12.304105"><ele>353.0</ele><time>2026-05-03T09:12:19.03Z</time></trkpt><trkpt lat="43.455064" lon="12.3039465"><ele>358.33333333333337</ele><time>2026-05-03T09:12:20.03Z</time></trkpt><trkpt lat="43.4549387" lon="12.3037783"><ele>363.6666666666667</ele><time>2026-05-03T09:12:21.029Z</time></trkpt><trkpt lat="43.4548134" lon="12.3036111"><ele>369.0</ele><time>2026-05-03T09:12:22.029Z</time></trkpt><trkpt lat="43.454691" lon="12.3034298"><ele>364.0</ele><time>2026-05-03T09:12:23.029Z</time></trkpt><trkpt lat="43.4545729" lon="12.3032337"><ele>359.0</ele><time>2026-05-03T09:12:24.029Z</time></trkpt><trkpt lat="43.4544583" lon="12.3030325"><ele>354.0</ele><time>2026-05-03T09:12:25.029Z</time></trkpt><trkpt lat="43.4543457" lon="12.3028262"><ele>354.0</ele><time>2026-05-03T09:12:26.03Z</time></trkpt><trkpt lat="43.4542389" lon="12.3026313"><ele>354.0</ele><time>2026-05-03T09:12:27.029Z</time></trkpt><trkpt lat="43.4541324" lon="12.3024419"><ele>354.0</ele><time>2026-05-03T09:12:28.029Z</time></trkpt><trkpt lat="43.4540268" lon="12.3022543"><ele>353.0</ele><time>2026-05-03T09:12:29.029Z</time></trkpt><trkpt lat="43.4538996" lon="12.3020932"><ele>352.0</ele><time>2026-05-03T09:12:30.029Z</time></trkpt><trkpt lat="43.4537691" lon="12.3019256"><ele>351.0</ele><time>2026-05-03T09:12:31.029Z</time></trkpt><trkpt lat="43.4536085" lon="12.30182"><ele>351.0</ele><time>2026-05-03T09:12:32.03Z</time></trkpt><trkpt lat="43.4534618" lon="12.3016921"><ele>351.0</ele><time>2026-05-03T09:12:33.029Z</time></trkpt><trkpt lat="43.4533135" lon="12.301581"><ele>351.0</ele><time>2026-05-03T09:12:34.029Z</time></trkpt><trkpt lat="43.4531726" lon="12.3014629"><ele>351.0</ele><time>2026-05-03T09:12:35.03Z</time></trkpt><trkpt lat="43.4530428" lon="12.3013432"><ele>351.0</ele><time>2026-05-03T09:12:36.03Z</time></trkpt><trkpt lat="43.4529282" lon="12.3012246"><ele>351.0</ele><time>2026-05-03T09:12:37.029Z</time></trkpt><trkpt lat="43.4528185" lon="12.3011025"><ele>351.0</ele><time>2026-05-03T09:12:38.029Z</time></trkpt><trkpt lat="43.4527102" lon="12.3009647"><ele>351.0</ele><time>2026-05-03T09:12:39.029Z</time></trkpt><trkpt lat="43.4525999" lon="12.3008266"><ele>351.0</ele><time>2026-05-03T09:12:40.029Z</time></trkpt><trkpt lat="43.4524865" lon="12.3006813"><ele>351.0</ele><time>2026-05-03T09:12:41.029Z</time></trkpt><trkpt lat="43.4523794" lon="12.3005324"><ele>349.0</ele><time>2026-05-03T09:12:42.029Z</time></trkpt><trkpt lat="43.4522837" lon="12.3003637"><ele>347.0</ele><time>2026-05-03T09:12:43.029Z</time></trkpt><trkpt lat="43.4521984" lon="12.3001809"><ele>345.0</ele><time>2026-05-03T09:12:44.029Z</time></trkpt><trkpt lat="43.4521052" lon="12.2999982"><ele>345.0</ele><time>2026-05-03T09:12:45.029Z</time></trkpt><trkpt lat="43.4520128" lon="12.2998163"><ele>345.0</ele><time>2026-05-03T09:12:46.03Z</time></trkpt><trkpt lat="43.451915" lon="12.29964"><ele>345.0</ele><time>2026-05-03T09:12:47.029Z</time></trkpt><trkpt lat="43.4518076" lon="12.2994683"><ele>350.0</ele><time>2026-05-03T09:12:48.029Z</time></trkpt><trkpt lat="43.4516915" lon="12.2993136"><ele>355.0</ele><time>2026-05-03T09:12:49.029Z</time></trkpt><trkpt lat="43.4515722" lon="12.2991587"><ele>360.0</ele><time>2026-05-03T09:12:50.029Z</time></trkpt><trkpt lat="43.4514465" lon="12.299012"><ele>356.6666666666667</ele><time>2026-05-03T09:12:51.029Z</time></trkpt><trkpt lat="43.4513189" lon="12.2988663"><ele>353.33333333333337</ele><time>2026-05-03T09:12:52.03Z</time></trkpt><trkpt lat="43.4511907" lon="12.2987237"><ele>350.0</ele><time>2026-05-03T09:12:53.029Z</time></trkpt><trkpt lat="43.4510621" lon="12.2985804"><ele>350.0</ele><time>2026-05-03T09:12:54.029Z</time></trkpt><trkpt lat="43.4509335" lon="12.298438"><ele>350.0</ele><time>2026-05-03T09:12:55.029Z</time></trkpt><trkpt lat="43.450807" lon="12.2982932"><ele>350.0</ele><time>2026-05-03T09:12:56.029Z</time></trkpt><trkpt lat="43.4506864" lon="12.2981386"><ele>346.6666666666667</ele><time>2026-05-03T09:12:57.029Z</time></trkpt><trkpt lat="43.4505689" lon="12.2979843"><ele>343.3333333333333</ele><time>2026-05-03T09:12:58.03Z</time></trkpt><trkpt lat="43.450458" lon="12.2978245"><ele>340.0</ele><time>2026-05-03T09:12:59.029Z</time></trkpt><trkpt lat="43.4503508" lon="12.297658"><ele>340.0</ele><time>2026-05-03T09:13:00.029Z</time></trkpt><trkpt lat="43.4502442" lon="12.2974938"><ele>340.0</ele><time>2026-05-03T09:13:01.03Z</time></trkpt><trkpt lat="43.4501382" lon="12.2973253"><ele>340.0</ele><time>2026-05-03T09:13:02.029Z</time></trkpt><trkpt lat="43.450041" lon="12.2971536"><ele>341.3333333333333</ele><time>2026-05-03T09:13:03.029Z</time></trkpt><trkpt lat="43.4499508" lon="12.2969785"><ele>342.6666666666667</ele><time>2026-05-03T09:13:04.029Z</time></trkpt><trkpt lat="43.4498682" lon="12.2967912"><ele>344.0</ele><time>2026-05-03T09:13:05.029Z</time></trkpt><trkpt lat="43.449785" lon="12.2966033"><ele>343.6666666666667</ele><time>2026-05-03T09:13:06.029Z</time></trkpt><trkpt lat="43.4497146" lon="12.2964087"><ele>343.3333333333333</ele><time>2026-05-03T09:13:07.029Z</time></trkpt><trkpt lat="43.4496392" lon="12.2962114"><ele>343.0</ele><time>2026-05-03T09:13:08.029Z</time></trkpt><trkpt lat="43.4495667" lon="12.2960156"><ele>340.3333333333333</ele><time>2026-05-03T09:13:09.029Z</time></trkpt><trkpt lat="43.4494919" lon="12.2958175"><ele>337.6666666666667</ele><time>2026-05-03T09:13:10.029Z</time></trkpt><trkpt lat="43.4494189" lon="12.2956157"><ele>335.0</ele><time>2026-05-03T09:13:11.029Z</time></trkpt><trkpt lat="43.4493421" lon="12.2954024"><ele>334.6666666666667</ele><time>2026-05-03T09:13:12.029Z</time></trkpt><trkpt lat="43.4492632" lon="12.2951803"><ele>334.3333333333333</ele><time>2026-05-03T09:13:13.03Z</time></trkpt><trkpt lat="43.449178" lon="12.294951"><ele>334.0</ele><time>2026-05-03T09:13:14.029Z</time></trkpt><trkpt lat="43.4490896" lon="12.2947115"><ele>333.3333333333333</ele><time>2026-05-03T09:13:15.029Z</time></trkpt><trkpt lat="43.4490013" lon="12.2944705"><ele>332.6666666666667</ele><time>2026-05-03T09:13:16.029Z</time></trkpt><trkpt lat="43.4489152" lon="12.2942221"><ele>332.0</ele><time>2026-05-03T09:13:17.03Z</time></trkpt><trkpt lat="43.4488339" lon="12.2939712"><ele>331.33333333333337</ele><time>2026-05-03T09:13:18.029Z</time></trkpt><trkpt lat="43.4487671" lon="12.2937274"><ele>330.6666666666667</ele><time>2026-05-03T09:13:19.029Z</time></trkpt><trkpt lat="43.4487026" lon="12.293486"><ele>330.0</ele><time>2026-05-03T09:13:20.03Z</time></trkpt><trkpt lat="43.4486321" lon="12.2932487"><ele>328.6666666666667</ele><time>2026-05-03T09:13:21.03Z</time></trkpt><trkpt lat="43.4485489" lon="12.2930209"><ele>327.33333333333337</ele><time>2026-05-03T09:13:22.029Z</time></trkpt><trkpt lat="43.4484641" lon="12.2927981"><ele>326.0</ele><time>2026-05-03T09:13:23.029Z</time></trkpt><trkpt lat="43.4483881" lon="12.2925868"><ele>326.0</ele><time>2026-05-03T09:13:24.029Z</time></trkpt><trkpt lat="43.4483295" lon="12.2923694"><ele>326.0</ele><time>2026-05-03T09:13:25.03Z</time></trkpt><trkpt lat="43.4482892" lon="12.2921435"><ele>326.0</ele><time>2026-05-03T09:13:26.029Z</time></trkpt><trkpt lat="43.4482661" lon="12.2919094"><ele>326.0</ele><time>2026-05-03T09:13:27.03Z</time></trkpt><trkpt lat="43.4482629" lon="12.2916753"><ele>326.0</ele><time>2026-05-03T09:13:28.03Z</time></trkpt><trkpt lat="43.4482516" lon="12.2914434"><ele>326.0</ele><time>2026-05-03T09:13:29.029Z</time></trkpt><trkpt lat="43.4482286" lon="12.2912092"><ele>326.33333333333337</ele><time>2026-05-03T09:13:30.029Z</time></trkpt><trkpt lat="43.4481914" lon="12.2909698"><ele>326.6666666666667</ele><time>2026-05-03T09:13:31.029Z</time></trkpt><trkpt lat="43.4481514" lon="12.290729"><ele>327.0</ele><time>2026-05-03T09:13:32.029Z</time></trkpt><trkpt lat="43.4481095" lon="12.2904895"><ele>326.3333333333333</ele><time>2026-05-03T09:13:33.029Z</time></trkpt><trkpt lat="43.4480647" lon="12.2902493"><ele>325.66666666666663</ele><time>2026-05-03T09:13:34.029Z</time></trkpt><trkpt lat="43.4480167" lon="12.2900153"><ele>325.0</ele><time>2026-05-03T09:13:35.03Z</time></trkpt><trkpt lat="43.4479632" lon="12.2897873"><ele>324.0</ele><time>2026-05-03T09:13:36.029Z</time></trkpt><trkpt lat="43.4479163" lon="12.2895588"><ele>323.0</ele><time>2026-05-03T09:13:37.029Z</time></trkpt><trkpt lat="43.447865" lon="12.2893286"><ele>322.0</ele><time>2026-05-03T09:13:38.029Z</time></trkpt><trkpt lat="43.4478148" lon="12.2891064"><ele>321.66666666666663</ele><time>2026-05-03T09:13:39.029Z</time></trkpt><trkpt lat="43.4477647" lon="12.288882"><ele>321.3333333333333</ele><time>2026-05-03T09:13:40.03Z</time></trkpt><trkpt lat="43.4477172" lon="12.2886618"><ele>321.0</ele><time>2026-05-03T09:13:41.029Z</time></trkpt><trkpt lat="43.4476688" lon="12.2884398"><ele>321.0</ele><time>2026-05-03T09:13:42.029Z</time></trkpt><trkpt lat="43.4476209" lon="12.2882229"><ele>321.0</ele><time>2026-05-03T09:13:43.029Z</time></trkpt><trkpt lat="43.4475704" lon="12.2880083"><ele>321.0</ele><time>2026-05-03T09:13:44.029Z</time></trkpt><trkpt lat="43.4475277" lon="12.2877852"><ele>321.6666666666667</ele><time>2026-05-03T09:13:45.029Z</time></trkpt><trkpt lat="43.4474784" lon="12.2875693"><ele>322.33333333333337</ele><time>2026-05-03T09:13:46.029Z</time></trkpt><trkpt lat="43.4474302" lon="12.2873532"><ele>323.0</ele><time>2026-05-03T09:13:47.029Z</time></trkpt><trkpt lat="43.4473827" lon="12.2871408"><ele>323.5</ele><time>2026-05-03T09:13:48.029Z</time></trkpt><trkpt lat="43.4473393" lon="12.2869445"><ele>324.0</ele><time>2026-05-03T09:13:49.029Z</time></trkpt><trkpt lat="43.4472989" lon="12.2867563"><ele>324.5</ele><time>2026-05-03T09:13:50.029Z</time></trkpt><trkpt lat="43.4472606" lon="12.2865873"><ele>325.0</ele><time>2026-05-03T09:13:51.029Z</time></trkpt><trkpt lat="43.4472276" lon="12.2864268"><ele>324.5</ele><time>2026-05-03T09:13:52.029Z</time></trkpt><trkpt lat="43.4471925" lon="12.2862779"><ele>324.0</ele><time>2026-05-03T09:13:53.029Z</time></trkpt><trkpt lat="43.4471592" lon="12.2861242"><ele>323.5</ele><time>2026-05-03T09:13:54.029Z</time></trkpt><trkpt lat="43.447125" lon="12.2859701"><ele>323.0</ele><time>2026-05-03T09:13:55.029Z</time></trkpt><trkpt lat="43.4470933" lon="12.2858134"><ele>323.0</ele><time>2026-05-03T09:13:56.029Z</time></trkpt><trkpt lat="43.4470631" lon="12.2856709"><ele>323.0</ele><time>2026-05-03T09:13:57.029Z</time></trkpt><trkpt lat="43.4470324" lon="12.2855405"><ele>323.0</ele><time>2026-05-03T09:13:58.029Z</time></trkpt><trkpt lat="43.4470083" lon="12.2853996"><ele>323.0</ele><time>2026-05-03T09:13:59.029Z</time></trkpt><trkpt lat="43.4469754" lon="12.285256"><ele>323.0</ele><time>2026-05-03T09:14:00.029Z</time></trkpt><trkpt lat="43.4469399" lon="12.2851049"><ele>323.2</ele><time>2026-05-03T09:14:01.029Z</time></trkpt><trkpt lat="43.446907" lon="12.2849661"><ele>323.4</ele><time>2026-05-03T09:14:02.029Z</time></trkpt><trkpt lat="43.4468792" lon="12.2848447"><ele>323.59999999999997</ele><time>2026-05-03T09:14:03.029Z</time></trkpt><trkpt lat="43.4468545" lon="12.2847317"><ele>323.79999999999995</ele><time>2026-05-03T09:14:04.029Z</time></trkpt><trkpt lat="43.4468243" lon="12.2846273"><ele>324.0</ele><time>2026-05-03T09:14:05.029Z</time></trkpt><trkpt lat="43.4467975" lon="12.2845125"><ele>324.4</ele><time>2026-05-03T09:14:06.029Z</time></trkpt><trkpt lat="43.4467692" lon="12.2843918"><ele>324.79999999999995</ele><time>2026-05-03T09:14:07.029Z</time></trkpt><trkpt lat="43.4467406" lon="12.2842639"><ele>325.20000000000005</ele><time>2026-05-03T09:14:08.03Z</time></trkpt><trkpt lat="43.4467163" lon="12.2841014"><ele>325.6</ele><time>2026-05-03T09:14:09.029Z</time></trkpt><trkpt lat="43.4466906" lon="12.283919"><ele>326.0</ele><time>2026-05-03T09:14:10.029Z</time></trkpt><trkpt lat="43.4466637" lon="12.2837259"><ele>330.75</ele><time>2026-05-03T09:14:11.029Z</time></trkpt><trkpt lat="43.4466297" lon="12.2835271"><ele>335.5</ele><time>2026-05-03T09:14:12.029Z</time></trkpt><trkpt lat="43.4465913" lon="12.2833459"><ele>340.25</ele><time>2026-05-03T09:14:13.029Z</time></trkpt><trkpt lat="43.4465447" lon="12.2831776"><ele>345.0</ele><time>2026-05-03T09:14:14.029Z</time></trkpt><trkpt lat="43.4464901" lon="12.283033"><ele>340.75</ele><time>2026-05-03T09:14:15.029Z</time></trkpt><trkpt lat="43.4464208" lon="12.2829135"><ele>336.5</ele><time>2026-05-03T09:14:16.029Z</time></trkpt><trkpt lat="43.4463273" lon="12.2828133"><ele>332.25</ele><time>2026-05-03T09:14:17.029Z</time></trkpt><trkpt lat="43.4462121" lon="12.2827355"><ele>328.0</ele><time>2026-05-03T09:14:18.029Z</time></trkpt><trkpt lat="43.4460961" lon="12.2826511"><ele>328.0</ele><time>2026-05-03T09:14:19.029Z</time></trkpt><trkpt lat="43.4459908" lon="12.2825497"><ele>328.0</ele><time>2026-05-03T09:14:20.03Z</time></trkpt><trkpt lat="43.4459013" lon="12.2824164"><ele>328.0</ele><time>2026-05-03T09:14:21.03Z</time></trkpt><trkpt lat="43.4458261" lon="12.2822556"><ele>328.0</ele><time>2026-05-03T09:14:22.029Z</time></trkpt><trkpt lat="43.445753" lon="12.2820778"><ele>333.3333333333333</ele><time>2026-05-03T09:14:23.029Z</time></trkpt><trkpt lat="43.4456783" lon="12.2818818"><ele>338.6666666666667</ele><time>2026-05-03T09:14:24.029Z</time></trkpt><trkpt lat="43.4455948" lon="12.2816795"><ele>344.0</ele><time>2026-05-03T09:14:25.029Z</time></trkpt><trkpt lat="43.4455172" lon="12.2814547"><ele>335.33333333333337</ele><time>2026-05-03T09:14:26.029Z</time></trkpt><trkpt lat="43.4454483" lon="12.2812395"><ele>326.6666666666667</ele><time>2026-05-03T09:14:27.029Z</time></trkpt><trkpt lat="43.44539" lon="12.2810328"><ele>318.0</ele><time>2026-05-03T09:14:28.029Z</time></trkpt><trkpt lat="43.4453399" lon="12.2808358"><ele>318.0</ele><time>2026-05-03T09:14:29.029Z</time></trkpt><trkpt lat="43.445293" lon="12.2806427"><ele>318.0</ele><time>2026-05-03T09:14:30.029Z</time></trkpt><trkpt lat="43.4452486" lon="12.2804461"><ele>318.0</ele><time>2026-05-03T09:14:31.029Z</time></trkpt><trkpt lat="43.445208" lon="12.2802593"><ele>318.0</ele><time>2026-05-03T09:14:32.029Z</time></trkpt><trkpt lat="43.4451813" lon="12.2800721"><ele>317.25</ele><time>2026-05-03T09:14:33.029Z</time></trkpt><trkpt lat="43.4451698" lon="12.2798827"><ele>316.5</ele><time>2026-05-03T09:14:34.029Z</time></trkpt><trkpt lat="43.4451729" lon="12.2796878"><ele>315.75</ele><time>2026-05-03T09:14:35.029Z</time></trkpt><trkpt lat="43.4451905" lon="12.2794913"><ele>315.0</ele><time>2026-05-03T09:14:36.029Z</time></trkpt><trkpt lat="43.4452208" lon="12.2793157"><ele>314.8</ele><time>2026-05-03T09:14:37.03Z</time></trkpt><trkpt lat="43.445246" lon="12.2791658"><ele>314.6</ele><time>2026-05-03T09:14:38.029Z</time></trkpt><trkpt lat="43.4452409" lon="12.2790327"><ele>314.4</ele><time>2026-05-03T09:14:39.029Z</time></trkpt><trkpt lat="43.445208" lon="12.2789219"><ele>314.2</ele><time>2026-05-03T09:14:40.029Z</time></trkpt><trkpt lat="43.445141" lon="12.2788315"><ele>314.0</ele><time>2026-05-03T09:14:41.029Z</time></trkpt><trkpt lat="43.4450604" lon="12.2787754"><ele>316.4</ele><time>2026-05-03T09:14:42.029Z</time></trkpt><trkpt lat="43.4449844" lon="12.2787423"><ele>318.79999999999995</ele><time>2026-05-03T09:14:43.029Z</time></trkpt><trkpt lat="43.4448995" lon="12.2786961"><ele>321.20000000000005</ele><time>2026-05-03T09:14:44.029Z</time></trkpt><trkpt lat="43.4448163" lon="12.2786342"><ele>323.6</ele><time>2026-05-03T09:14:45.029Z</time></trkpt><trkpt lat="43.4447365" lon="12.278548"><ele>326.0</ele><time>2026-05-03T09:14:46.029Z</time></trkpt><trkpt lat="43.4446568" lon="12.2784445"><ele>325.25</ele><time>2026-05-03T09:14:47.029Z</time></trkpt><trkpt lat="43.4445792" lon="12.2783296"><ele>324.5</ele><time>2026-05-03T09:14:48.029Z</time></trkpt><trkpt lat="43.4444977" lon="12.2781997"><ele>323.75</ele><time>2026-05-03T09:14:49.03Z</time></trkpt><trkpt lat="43.444419" lon="12.2780698"><ele>323.0</ele><time>2026-05-03T09:14:50.029Z</time></trkpt><trkpt lat="43.4443529" lon="12.2779571"><ele>323.0</ele><time>2026-05-03T09:14:51.029Z</time></trkpt><trkpt lat="43.4442944" lon="12.2778624"><ele>323.0</ele><time>2026-05-03T09:14:52.029Z</time></trkpt><trkpt lat="43.4442306" lon="12.2778053"><ele>323.0</ele><time>2026-05-03T09:14:53.029Z</time></trkpt><trkpt lat="43.4441668" lon="12.2777736"><ele>323.0</ele><time>2026-05-03T09:14:54.029Z</time></trkpt><trkpt lat="43.4440981" lon="12.2777891"><ele>323.0</ele><time>2026-05-03T09:14:55.029Z</time></trkpt><trkpt lat="43.4440206" lon="12.2778567"><ele>323.0</ele><time>2026-05-03T09:14:56.029Z</time></trkpt><trkpt lat="43.4439465" lon="12.2779268"><ele>323.0</ele><time>2026-05-03T09:14:57.03Z</time></trkpt><trkpt lat="43.4438725" lon="12.2779874"><ele>323.0</ele><time>2026-05-03T09:14:58.029Z</time></trkpt><trkpt lat="43.4437966" lon="12.2780304"><ele>323.0</ele><time>2026-05-03T09:14:59.029Z</time></trkpt><trkpt lat="43.4437075" lon="12.2780536"><ele>323.0</ele><time>2026-05-03T09:15:00.029Z</time></trkpt><trkpt lat="43.4436097" lon="12.2780424"><ele>323.0</ele><time>2026-05-03T09:15:01.029Z</time></trkpt><trkpt lat="43.4434925" lon="12.2780103"><ele>321.4</ele><time>2026-05-03T09:15:02.029Z</time></trkpt><trkpt lat="43.4433784" lon="12.2779698"><ele>319.79999999999995</ele><time>2026-05-03T09:15:03.029Z</time></trkpt><trkpt lat="43.443279" lon="12.2779235"><ele>318.2</ele><time>2026-05-03T09:15:04.03Z</time></trkpt><trkpt lat="43.4431897" lon="12.2778568"><ele>316.6</ele><time>2026-05-03T09:15:05.029Z</time></trkpt><trkpt lat="43.4431068" lon="12.2777707"><ele>315.0</ele><time>2026-05-03T09:15:06.029Z</time></trkpt><trkpt lat="43.443023" lon="12.2776724"><ele>315.0</ele><time>2026-05-03T09:15:07.029Z</time></trkpt><trkpt lat="43.4429695" lon="12.2775022"><ele>315.0</ele><time>2026-05-03T09:15:08.029Z</time></trkpt><trkpt lat="43.4428999" lon="12.2773319"><ele>315.0</ele><time>2026-05-03T09:15:09.029Z</time></trkpt><trkpt lat="43.4428293" lon="12.2771503"><ele>315.0</ele><time>2026-05-03T09:15:10.03Z</time></trkpt><trkpt lat="43.4427447" lon="12.276946"><ele>313.3333333333333</ele><time>2026-05-03T09:15:11.029Z</time></trkpt><trkpt lat="43.4426524" lon="12.2767599"><ele>311.66666666666663</ele><time>2026-05-03T09:15:12.029Z</time></trkpt><trkpt lat="43.4425615" lon="12.276598"><ele>310.0</ele><time>2026-05-03T09:15:13.029Z</time></trkpt><trkpt lat="43.4424716" lon="12.2764378"><ele>312.25</ele><time>2026-05-03T09:15:14.029Z</time></trkpt><trkpt lat="43.442391" lon="12.2762647"><ele>314.5</ele><time>2026-05-03T09:15:15.029Z</time></trkpt><trkpt lat="43.4423136" lon="12.2761014"><ele>316.75</ele><time>2026-05-03T09:15:16.03Z</time></trkpt><trkpt lat="43.4422383" lon="12.2759413"><ele>319.0</ele><time>2026-05-03T09:15:17.029Z</time></trkpt><trkpt lat="43.4421676" lon="12.2757803"><ele>317.75</ele><time>2026-05-03T09:15:18.029Z</time></trkpt><trkpt lat="43.4420949" lon="12.2756178"><ele>316.5</ele><time>2026-05-03T09:15:19.029Z</time></trkpt><trkpt lat="43.4420234" lon="12.2754727"><ele>315.25</ele><time>2026-05-03T09:15:20.029Z</time></trkpt><trkpt lat="43.4419509" lon="12.2753462"><ele>314.0</ele><time>2026-05-03T09:15:21.029Z</time></trkpt><trkpt lat="43.4418669" lon="12.2752335"><ele>314.0</ele><time>2026-05-03T09:15:22.029Z</time></trkpt><trkpt lat="43.441751" lon="12.2751524"><ele>314.0</ele><time>2026-05-03T09:15:23.029Z</time></trkpt><trkpt lat="43.441635" lon="12.2750773"><ele>314.0</ele><time>2026-05-03T09:15:24.029Z</time></trkpt><trkpt lat="43.4415243" lon="12.2749939"><ele>314.0</ele><time>2026-05-03T09:15:25.029Z</time></trkpt><trkpt lat="43.4414178" lon="12.2748886"><ele>314.0</ele><time>2026-05-03T09:15:26.029Z</time></trkpt><trkpt lat="43.4413235" lon="12.2747763"><ele>314.0</ele><time>2026-05-03T09:15:27.03Z</time></trkpt><trkpt lat="43.44124" lon="12.274666"><ele>314.0</ele><time>2026-05-03T09:15:28.029Z</time></trkpt><trkpt lat="43.4411632" lon="12.2745638"><ele>314.0</ele><time>2026-05-03T09:15:29.029Z</time></trkpt><trkpt lat="43.4410933" lon="12.2744574"><ele>313.5</ele><time>2026-05-03T09:15:30.029Z</time></trkpt><trkpt lat="43.441017" lon="12.2743244"><ele>313.0</ele><time>2026-05-03T09:15:31.029Z</time></trkpt><trkpt lat="43.4409487" lon="12.2741756"><ele>312.5</ele><time>2026-05-03T09:15:32.029Z</time></trkpt><trkpt lat="43.4408878" lon="12.2740021"><ele>312.0</ele><time>2026-05-03T09:15:33.029Z</time></trkpt><trkpt lat="43.4408287" lon="12.273809"><ele>312.0</ele><time>2026-05-03T09:15:34.03Z</time></trkpt><trkpt lat="43.4407727" lon="12.273603"><ele>312.0</ele><time>2026-05-03T09:15:35.029Z</time></trkpt><trkpt lat="43.4407151" lon="12.2733827"><ele>312.0</ele><time>2026-05-03T09:15:36.029Z</time></trkpt><trkpt lat="43.4406588" lon="12.2731672"><ele>313.0</ele><time>2026-05-03T09:15:37.029Z</time></trkpt><trkpt lat="43.4406047" lon="12.2729604"><ele>314.0</ele><time>2026-05-03T09:15:38.029Z</time></trkpt><trkpt lat="43.440546" lon="12.2727593"><ele>315.0</ele><time>2026-05-03T09:15:39.03Z</time></trkpt><trkpt lat="43.4404861" lon="12.2725675"><ele>314.25</ele><time>2026-05-03T09:15:40.029Z</time></trkpt><trkpt lat="43.4404207" lon="12.2723842"><ele>313.5</ele><time>2026-05-03T09:15:41.03Z</time></trkpt><trkpt lat="43.4403583" lon="12.2722132"><ele>312.75</ele><time>2026-05-03T09:15:42.029Z</time></trkpt><trkpt lat="43.4402937" lon="12.2720447"><ele>312.0</ele><time>2026-05-03T09:15:43.03Z</time></trkpt><trkpt lat="43.4402301" lon="12.2718808"><ele>312.0</ele><time>2026-05-03T09:15:44.03Z</time></trkpt><trkpt lat="43.4401708" lon="12.2717131"><ele>312.0</ele><time>2026-05-03T09:15:45.029Z</time></trkpt><trkpt lat="43.4401061" lon="12.2715521"><ele>312.0</ele><time>2026-05-03T09:15:46.03Z</time></trkpt><trkpt lat="43.4400365" lon="12.2713929"><ele>312.0</ele><time>2026-05-03T09:15:47.029Z</time></trkpt><trkpt lat="43.4399637" lon="12.2712351"><ele>311.5</ele><time>2026-05-03T09:15:48.029Z</time></trkpt><trkpt lat="43.439879" lon="12.2710768"><ele>311.0</ele><time>2026-05-03T09:15:49.029Z</time></trkpt><trkpt lat="43.4397898" lon="12.2709151"><ele>310.5</ele><time>2026-05-03T09:15:50.029Z</time></trkpt><trkpt lat="43.4396896" lon="12.2707603"><ele>310.0</ele><time>2026-05-03T09:15:51.029Z</time></trkpt><trkpt lat="43.4395946" lon="12.2705989"><ele>310.0</ele><time>2026-05-03T09:15:52.029Z</time></trkpt><trkpt lat="43.4395036" lon="12.2704322"><ele>310.0</ele><time>2026-05-03T09:15:53.03Z</time></trkpt><trkpt lat="43.4394125" lon="12.2702607"><ele>310.0</ele><time>2026-05-03T09:15:54.029Z</time></trkpt><trkpt lat="43.4393233" lon="12.2700927"><ele>310.0</ele><time>2026-05-03T09:15:55.029Z</time></trkpt><trkpt lat="43.4392271" lon="12.2699162"><ele>310.0</ele><time>2026-05-03T09:15:56.029Z</time></trkpt><trkpt lat="43.4391269" lon="12.2697283"><ele>310.0</ele><time>2026-05-03T09:15:57.029Z</time></trkpt><trkpt lat="43.439033" lon="12.2695486"><ele>311.75</ele><time>2026-05-03T09:15:58.03Z</time></trkpt><trkpt lat="43.4389539" lon="12.2693803"><ele>313.5</ele><time>2026-05-03T09:15:59.029Z</time></trkpt><trkpt lat="43.4388894" lon="12.2692073"><ele>315.25</ele><time>2026-05-03T09:16:00.029Z</time></trkpt><trkpt lat="43.4388344" lon="12.2690273"><ele>317.0</ele><time>2026-05-03T09:16:01.029Z</time></trkpt><trkpt lat="43.4387854" lon="12.2688565"><ele>313.5</ele><time>2026-05-03T09:16:02.029Z</time></trkpt><trkpt lat="43.4387425" lon="12.2686907"><ele>310.0</ele><time>2026-05-03T09:16:03.029Z</time></trkpt><trkpt lat="43.4386996" lon="12.2685239"><ele>306.5</ele><time>2026-05-03T09:16:04.029Z</time></trkpt><trkpt lat="43.4386635" lon="12.2683507"><ele>303.0</ele><time>2026-05-03T09:16:05.029Z</time></trkpt><trkpt lat="43.4386255" lon="12.2681777"><ele>306.75</ele><time>2026-05-03T09:16:06.029Z</time></trkpt><trkpt lat="43.4385929" lon="12.2679972"><ele>310.5</ele><time>2026-05-03T09:16:07.029Z</time></trkpt><trkpt lat="43.4385576" lon="12.2678155"><ele>314.25</ele><time>2026-05-03T09:16:08.029Z</time></trkpt><trkpt lat="43.438505" lon="12.2676473"><ele>318.0</ele><time>2026-05-03T09:16:09.029Z</time></trkpt><trkpt lat="43.4384417" lon="12.2674846"><ele>318.0</ele><time>2026-05-03T09:16:10.029Z</time></trkpt><trkpt lat="43.438352" lon="12.2673506"><ele>318.0</ele><time>2026-05-03T09:16:11.029Z</time></trkpt><trkpt lat="43.4382661" lon="12.2672367"><ele>318.0</ele><time>2026-05-03T09:16:12.029Z</time></trkpt><trkpt lat="43.4381899" lon="12.2671411"><ele>318.0</ele><time>2026-05-03T09:16:13.03Z</time></trkpt><trkpt lat="43.4381169" lon="12.2670514"><ele>316.0</ele><time>2026-05-03T09:16:14.029Z</time></trkpt><trkpt lat="43.4380438" lon="12.2669583"><ele>314.0</ele><time>2026-05-03T09:16:15.029Z</time></trkpt><trkpt lat="43.437969" lon="12.2668556"><ele>312.0</ele><time>2026-05-03T09:16:16.029Z</time></trkpt><trkpt lat="43.437891" lon="12.2667441"><ele>310.0</ele><time>2026-05-03T09:16:17.029Z</time></trkpt><trkpt lat="43.437815" lon="12.2666153"><ele>308.0</ele><time>2026-05-03T09:16:18.029Z</time></trkpt><trkpt lat="43.4377334" lon="12.2664878"><ele>311.0</ele><time>2026-05-03T09:16:19.029Z</time></trkpt><trkpt lat="43.4376483" lon="12.2663463"><ele>314.0</ele><time>2026-05-03T09:16:20.029Z</time></trkpt><trkpt lat="43.4375562" lon="12.2661941"><ele>317.0</ele><time>2026-05-03T09:16:21.029Z</time></trkpt><trkpt lat="43.4374544" lon="12.2660403"><ele>320.0</ele><time>2026-05-03T09:16:22.029Z</time></trkpt><trkpt lat="43.4373529" lon="12.2658765"><ele>320.0</ele><time>2026-05-03T09:16:23.03Z</time></trkpt><trkpt lat="43.4372525" lon="12.2657153"><ele>320.0</ele><time>2026-05-03T09:16:24.029Z</time></trkpt><trkpt lat="43.4371526" lon="12.2655624"><ele>320.0</ele><time>2026-05-03T09:16:25.029Z</time></trkpt><trkpt lat="43.4370657" lon="12.2654173"><ele>320.0</ele><time>2026-05-03T09:16:26.029Z</time></trkpt><trkpt lat="43.4369797" lon="12.265277"><ele>317.2</ele><time>2026-05-03T09:16:27.029Z</time></trkpt><trkpt lat="43.4369003" lon="12.2651544"><ele>314.4</ele><time>2026-05-03T09:16:28.029Z</time></trkpt><trkpt lat="43.4368174" lon="12.2650437"><ele>311.6</ele><time>2026-05-03T09:16:29.029Z</time></trkpt><trkpt lat="43.4367356" lon="12.2649643"><ele>308.8</ele><time>2026-05-03T09:16:30.029Z</time></trkpt><trkpt lat="43.436656" lon="12.2649025"><ele>306.0</ele><time>2026-05-03T09:16:31.029Z</time></trkpt><trkpt lat="43.4365867" lon="12.2648426"><ele>305.1666666666667</ele><time>2026-05-03T09:16:32.029Z</time></trkpt><trkpt lat="43.4365154" lon="12.2647679"><ele>304.3333333333333</ele><time>2026-05-03T09:16:33.029Z</time></trkpt><trkpt lat="43.4364498" lon="12.2646874"><ele>303.5</ele><time>2026-05-03T09:16:34.03Z</time></trkpt><trkpt lat="43.4363812" lon="12.2646073"><ele>302.66666666666663</ele><time>2026-05-03T09:16:35.029Z</time></trkpt><trkpt lat="43.4363176" lon="12.2645267"><ele>301.8333333333333</ele><time>2026-05-03T09:16:36.029Z</time></trkpt><trkpt lat="43.4362556" lon="12.2644362"><ele>301.0</ele><time>2026-05-03T09:16:37.029Z</time></trkpt><trkpt lat="43.4362026" lon="12.2643226"><ele>301.0</ele><time>2026-05-03T09:16:38.029Z</time></trkpt><trkpt lat="43.4361432" lon="12.2642114"><ele>301.0</ele><time>2026-05-03T09:16:39.029Z</time></trkpt><trkpt lat="43.4360777" lon="12.264096"><ele>301.0</ele><time>2026-05-03T09:16:40.029Z</time></trkpt><trkpt lat="43.4360095" lon="12.2639899"><ele>301.0</ele><time>2026-05-03T09:16:41.029Z</time></trkpt><trkpt lat="43.4359382" lon="12.2638835"><ele>301.0</ele><time>2026-05-03T09:16:42.029Z</time></trkpt><trkpt lat="43.4358728" lon="12.263766"><ele>302.0</ele><time>2026-05-03T09:16:43.029Z</time></trkpt><trkpt lat="43.4358112" lon="12.2636226"><ele>303.0</ele><time>2026-05-03T09:16:44.029Z</time></trkpt><trkpt lat="43.4357626" lon="12.2634639"><ele>304.0</ele><time>2026-05-03T09:16:45.03Z</time></trkpt><trkpt lat="43.4357213" lon="12.2633108"><ele>305.0</ele><time>2026-05-03T09:16:46.029Z</time></trkpt><trkpt lat="43.4356803" lon="12.2631635"><ele>305.25</ele><time>2026-05-03T09:16:47.029Z</time></trkpt><trkpt lat="43.4356425" lon="12.2630254"><ele>305.5</ele><time>2026-05-03T09:16:48.029Z</time></trkpt><trkpt lat="43.435601" lon="12.2628826"><ele>305.75</ele><time>2026-05-03T09:16:49.029Z</time></trkpt><trkpt lat="43.435553" lon="12.2627314"><ele>306.0</ele><time>2026-05-03T09:16:50.029Z</time></trkpt><trkpt lat="43.4355068" lon="12.2625728"><ele>302.75</ele><time>2026-05-03T09:16:51.029Z</time></trkpt><trkpt lat="43.4354676" lon="12.262394"><ele>299.5</ele><time>2026-05-03T09:16:52.029Z</time></trkpt><trkpt lat="43.4354338" lon="12.2622217"><ele>296.25</ele><time>2026-05-03T09:16:53.03Z</time></trkpt><trkpt lat="43.4354086" lon="12.262057"><ele>293.0</ele><time>2026-05-03T09:16:54.029Z</time></trkpt><trkpt lat="43.4353853" lon="12.261888"><ele>293.0</ele><time>2026-05-03T09:16:55.03Z</time></trkpt><trkpt lat="43.4353632" lon="12.2617158"><ele>293.0</ele><time>2026-05-03T09:16:56.029Z</time></trkpt><trkpt lat="43.4353381" lon="12.2615319"><ele>293.0</ele><time>2026-05-03T09:16:57.029Z</time></trkpt><trkpt lat="43.4353181" lon="12.2613404"><ele>293.0</ele><time>2026-05-03T09:16:58.029Z</time></trkpt><trkpt lat="43.4353089" lon="12.2611357"><ele>291.75</ele><time>2026-05-03T09:16:59.029Z</time></trkpt><trkpt lat="43.4353105" lon="12.2609205"><ele>290.5</ele><time>2026-05-03T09:17:00.029Z</time></trkpt><trkpt lat="43.4353343" lon="12.2607282"><ele>289.25</ele><time>2026-05-03T09:17:01.029Z</time></trkpt><trkpt lat="43.435345" lon="12.2605405"><ele>288.0</ele><time>2026-05-03T09:17:02.029Z</time></trkpt><trkpt lat="43.4353538" lon="12.260357"><ele>287.5</ele><time>2026-05-03T09:17:03.029Z</time></trkpt><trkpt lat="43.43534" lon="12.2601712"><ele>287.0</ele><time>2026-05-03T09:17:04.029Z</time></trkpt><trkpt lat="43.4353333" lon="12.2599774"><ele>286.5</ele><time>2026-05-03T09:17:05.029Z</time></trkpt><trkpt lat="43.4353439" lon="12.2597796"><ele>286.0</ele><time>2026-05-03T09:17:06.029Z</time></trkpt><trkpt lat="43.4353569" lon="12.2595796"><ele>285.3333333333333</ele><time>2026-05-03T09:17:07.03Z</time></trkpt><trkpt lat="43.4353723" lon="12.2593781"><ele>284.6666666666667</ele><time>2026-05-03T09:17:08.03Z</time></trkpt><trkpt lat="43.4353916" lon="12.2591673"><ele>284.0</ele><time>2026-05-03T09:17:09.029Z</time></trkpt><trkpt lat="43.4354218" lon="12.2589564"><ele>284.25</ele><time>2026-05-03T09:17:10.03Z</time></trkpt><trkpt lat="43.4354658" lon="12.2587659"><ele>284.5</ele><time>2026-05-03T09:17:11.03Z</time></trkpt><trkpt lat="43.4354959" lon="12.2585769"><ele>284.75</ele><time>2026-05-03T09:17:12.029Z</time></trkpt><trkpt lat="43.4355085" lon="12.2583742"><ele>285.0</ele><time>2026-05-03T09:17:13.029Z</time></trkpt><trkpt lat="43.4355171" lon="12.258167"><ele>288.25</ele><time>2026-05-03T09:17:14.029Z</time></trkpt><trkpt lat="43.4355195" lon="12.2579653"><ele>291.5</ele><time>2026-05-03T09:17:15.029Z</time></trkpt><trkpt lat="43.4355246" lon="12.2577738"><ele>294.75</ele><time>2026-05-03T09:17:16.029Z</time></trkpt><trkpt lat="43.4355263" lon="12.257599"><ele>298.0</ele><time>2026-05-03T09:17:17.029Z</time></trkpt><trkpt lat="43.4355275" lon="12.2574372"><ele>297.5</ele><time>2026-05-03T09:17:18.029Z</time></trkpt><trkpt lat="43.4355356" lon="12.2572799"><ele>297.0</ele><time>2026-05-03T09:17:19.029Z</time></trkpt><trkpt lat="43.4355492" lon="12.2571156"><ele>296.5</ele><time>2026-05-03T09:17:20.029Z</time></trkpt><trkpt lat="43.4355836" lon="12.2569493"><ele>296.0</ele><time>2026-05-03T09:17:21.029Z</time></trkpt><trkpt lat="43.435639" lon="12.2567865"><ele>296.0</ele><time>2026-05-03T09:17:22.029Z</time></trkpt><trkpt lat="43.4357088" lon="12.2566266"><ele>296.0</ele><time>2026-05-03T09:17:23.029Z</time></trkpt><trkpt lat="43.4358008" lon="12.2564679"><ele>296.0</ele><time>2026-05-03T09:17:24.029Z</time></trkpt><trkpt lat="43.4359063" lon="12.2563046"><ele>296.0</ele><time>2026-05-03T09:17:25.03Z</time></trkpt><trkpt lat="43.4360125" lon="12.2561585"><ele>296.0</ele><time>2026-05-03T09:17:26.029Z</time></trkpt><trkpt lat="43.4361084" lon="12.2560294"><ele>296.0</ele><time>2026-05-03T09:17:27.029Z</time></trkpt><trkpt lat="43.4361989" lon="12.2559074"><ele>296.0</ele><time>2026-05-03T09:17:28.029Z</time></trkpt><trkpt lat="43.4362892" lon="12.2557878"><ele>296.0</ele><time>2026-05-03T09:17:29.029Z</time></trkpt><trkpt lat="43.4363785" lon="12.2556618"><ele>296.25</ele><time>2026-05-03T09:17:30.029Z</time></trkpt><trkpt lat="43.4364723" lon="12.255532"><ele>296.5</ele><time>2026-05-03T09:17:31.029Z</time></trkpt><trkpt lat="43.4365724" lon="12.2553976"><ele>296.75</ele><time>2026-05-03T09:17:32.03Z</time></trkpt><trkpt lat="43.436684" lon="12.2552555"><ele>297.0</ele><time>2026-05-03T09:17:33.029Z</time></trkpt><trkpt lat="43.4368017" lon="12.2550978"><ele>297.0</ele><time>2026-05-03T09:17:34.03Z</time></trkpt><trkpt lat="43.4369338" lon="12.2549462"><ele>297.0</ele><time>2026-05-03T09:17:35.029Z</time></trkpt><trkpt lat="43.4370787" lon="12.2548027"><ele>297.0</ele><time>2026-05-03T09:17:36.029Z</time></trkpt><trkpt lat="43.437231" lon="12.2546659"><ele>297.0</ele><time>2026-05-03T09:17:37.029Z</time></trkpt><trkpt lat="43.4373731" lon="12.2545391"><ele>297.0</ele><time>2026-05-03T09:17:38.029Z</time></trkpt><trkpt lat="43.4375087" lon="12.2544149"><ele>297.0</ele><time>2026-05-03T09:17:39.029Z</time></trkpt><trkpt lat="43.4376395" lon="12.2542966"><ele>297.0</ele><time>2026-05-03T09:17:40.029Z</time></trkpt><trkpt lat="43.4377651" lon="12.2541855"><ele>297.0</ele><time>2026-05-03T09:17:41.029Z</time></trkpt><trkpt lat="43.4378981" lon="12.2540912"><ele>297.0</ele><time>2026-05-03T09:17:42.029Z</time></trkpt><trkpt lat="43.4380333" lon="12.2540063"><ele>297.0</ele><time>2026-05-03T09:17:43.029Z</time></trkpt><trkpt lat="43.4381761" lon="12.2539326"><ele>297.25</ele><time>2026-05-03T09:17:44.029Z</time></trkpt><trkpt lat="43.438317" lon="12.2538564"><ele>297.5</ele><time>2026-05-03T09:17:45.029Z</time></trkpt><trkpt lat="43.438457" lon="12.2537866"><ele>297.75</ele><time>2026-05-03T09:17:46.029Z</time></trkpt><trkpt lat="43.4385956" lon="12.2537177"><ele>298.0</ele><time>2026-05-03T09:17:47.029Z</time></trkpt><trkpt lat="43.4387323" lon="12.2536526"><ele>298.5</ele><time>2026-05-03T09:17:48.029Z</time></trkpt><trkpt lat="43.4388567" lon="12.2536038"><ele>299.0</ele><time>2026-05-03T09:17:49.029Z</time></trkpt><trkpt lat="43.4389861" lon="12.2535472"><ele>299.5</ele><time>2026-05-03T09:17:50.029Z</time></trkpt><trkpt lat="43.439115" lon="12.2534909"><ele>300.0</ele><time>2026-05-03T09:17:51.029Z</time></trkpt><trkpt lat="43.439244" lon="12.2534317"><ele>300.0</ele><time>2026-05-03T09:17:52.029Z</time></trkpt><trkpt lat="43.4393726" lon="12.2533744"><ele>300.0</ele><time>2026-05-03T09:17:53.029Z</time></trkpt><trkpt lat="43.4394865" lon="12.2533161"><ele>300.0</ele><time>2026-05-03T09:17:54.03Z</time></trkpt><trkpt lat="43.4395935" lon="12.2532605"><ele>300.0</ele><time>2026-05-03T09:17:55.029Z</time></trkpt><trkpt lat="43.4396994" lon="12.253207"><ele>299.25</ele><time>2026-05-03T09:17:56.029Z</time></trkpt><trkpt lat="43.4398075" lon="12.2531532"><ele>298.5</ele><time>2026-05-03T09:17:57.029Z</time></trkpt><trkpt lat="43.4399216" lon="12.2531042"><ele>297.75</ele><time>2026-05-03T09:17:58.029Z</time></trkpt><trkpt lat="43.4400468" lon="12.2530609"><ele>297.0</ele><time>2026-05-03T09:17:59.03Z</time></trkpt><trkpt lat="43.4401746" lon="12.253018"><ele>296.25</ele><time>2026-05-03T09:18:00.029Z</time></trkpt><trkpt lat="43.4402991" lon="12.2529813"><ele>295.5</ele><time>2026-05-03T09:18:01.029Z</time></trkpt><trkpt lat="43.4404135" lon="12.2529375"><ele>294.75</ele><time>2026-05-03T09:18:02.029Z</time></trkpt><trkpt lat="43.4405254" lon="12.2528906"><ele>294.0</ele><time>2026-05-03T09:18:03.029Z</time></trkpt><trkpt lat="43.4406233" lon="12.2528363"><ele>293.59999999999997</ele><time>2026-05-03T09:18:04.029Z</time></trkpt><trkpt lat="43.4407165" lon="12.2527725"><ele>293.2</ele><time>2026-05-03T09:18:05.029Z</time></trkpt><trkpt lat="43.4408036" lon="12.2526929"><ele>292.79999999999995</ele><time>2026-05-03T09:18:06.029Z</time></trkpt><trkpt lat="43.440894" lon="12.2526072"><ele>292.4</ele><time>2026-05-03T09:18:07.029Z</time></trkpt><trkpt lat="43.4409797" lon="12.2525168"><ele>292.0</ele><time>2026-05-03T09:18:08.029Z</time></trkpt><trkpt lat="43.441075" lon="12.252421"><ele>292.0</ele><time>2026-05-03T09:18:09.029Z</time></trkpt><trkpt lat="43.4411668" lon="12.2523138"><ele>292.0</ele><time>2026-05-03T09:18:10.029Z</time></trkpt><trkpt lat="43.4412456" lon="12.2522118"><ele>292.0</ele><time>2026-05-03T09:18:11.029Z</time></trkpt><trkpt lat="43.4413021" lon="12.2520846"><ele>292.0</ele><time>2026-05-03T09:18:12.029Z</time></trkpt><trkpt lat="43.4413463" lon="12.2519531"><ele>292.0</ele><time>2026-05-03T09:18:13.029Z</time></trkpt><trkpt lat="43.441378" lon="12.2518355"><ele>291.6</ele><time>2026-05-03T09:18:14.029Z</time></trkpt><trkpt lat="43.4414009" lon="12.2517218"><ele>291.2</ele><time>2026-05-03T09:18:15.029Z</time></trkpt><trkpt lat="43.4414268" lon="12.2516216"><ele>290.8</ele><time>2026-05-03T09:18:16.029Z</time></trkpt><trkpt lat="43.4414531" lon="12.2515329"><ele>290.4</ele><time>2026-05-03T09:18:17.029Z</time></trkpt><trkpt lat="43.4414976" lon="12.251407"><ele>290.0</ele><time>2026-05-03T09:18:19.029Z</time></trkpt><trkpt lat="43.4414278" lon="12.2515391"><ele>290.0</ele><time>2026-05-03T09:18:25.029Z</time></trkpt><trkpt lat="43.4413996" lon="12.2516663"><ele>290.0</ele><time>2026-05-03T09:18:26.029Z</time></trkpt><trkpt lat="43.4413715" lon="12.2518068"><ele>290.0</ele><time>2026-05-03T09:18:27.03Z</time></trkpt><trkpt lat="43.4413379" lon="12.2519464"><ele>290.0</ele><time>2026-05-03T09:18:28.029Z</time></trkpt><trkpt lat="43.4412903" lon="12.2520769"><ele>290.0</ele><time>2026-05-03T09:18:29.029Z</time></trkpt><trkpt lat="43.4412332" lon="12.2521903"><ele>290.5</ele><time>2026-05-03T09:18:30.029Z</time></trkpt><trkpt lat="43.4411659" lon="12.2522906"><ele>291.0</ele><time>2026-05-03T09:18:31.029Z</time></trkpt><trkpt lat="43.4410808" lon="12.2523925"><ele>291.5</ele><time>2026-05-03T09:18:32.029Z</time></trkpt><trkpt lat="43.4409885" lon="12.2524968"><ele>292.0</ele><time>2026-05-03T09:18:33.029Z</time></trkpt><trkpt lat="43.4408875" lon="12.2525973"><ele>292.0</ele><time>2026-05-03T09:18:34.029Z</time></trkpt><trkpt lat="43.4407807" lon="12.2527003"><ele>292.0</ele><time>2026-05-03T09:18:35.029Z</time></trkpt><trkpt lat="43.440667" lon="12.252789"><ele>292.0</ele><time>2026-05-03T09:18:36.029Z</time></trkpt><trkpt lat="43.4405479" lon="12.2528546"><ele>292.0</ele><time>2026-05-03T09:18:37.029Z</time></trkpt><trkpt lat="43.4404302" lon="12.2529034"><ele>292.5</ele><time>2026-05-03T09:18:38.029Z</time></trkpt><trkpt lat="43.440315" lon="12.2529432"><ele>293.0</ele><time>2026-05-03T09:18:39.029Z</time></trkpt><trkpt lat="43.4401997" lon="12.2529835"><ele>293.5</ele><time>2026-05-03T09:18:40.029Z</time></trkpt><trkpt lat="43.4400866" lon="12.253019"><ele>294.0</ele><time>2026-05-03T09:18:41.029Z</time></trkpt><trkpt lat="43.4399757" lon="12.2530583"><ele>294.0</ele><time>2026-05-03T09:18:42.029Z</time></trkpt><trkpt lat="43.4398711" lon="12.2531036"><ele>294.0</ele><time>2026-05-03T09:18:43.029Z</time></trkpt><trkpt lat="43.4397704" lon="12.2531539"><ele>294.0</ele><time>2026-05-03T09:18:44.029Z</time></trkpt><trkpt lat="43.4396756" lon="12.2532029"><ele>294.0</ele><time>2026-05-03T09:18:45.03Z</time></trkpt><trkpt lat="43.4395905" lon="12.2532442"><ele>294.0</ele><time>2026-05-03T09:18:46.029Z</time></trkpt><trkpt lat="43.4395203" lon="12.2532802"><ele>295.2</ele><time>2026-05-03T09:18:47.029Z</time></trkpt><trkpt lat="43.4394515" lon="12.2533164"><ele>296.4</ele><time>2026-05-03T09:18:48.029Z</time></trkpt><trkpt lat="43.4393738" lon="12.2533594"><ele>297.6</ele><time>2026-05-03T09:18:49.029Z</time></trkpt><trkpt lat="43.4392812" lon="12.2534056"><ele>298.8</ele><time>2026-05-03T09:18:50.029Z</time></trkpt><trkpt lat="43.4391833" lon="12.2534495"><ele>300.0</ele><time>2026-05-03T09:18:51.029Z</time></trkpt><trkpt lat="43.4390918" lon="12.2534892"><ele>300.0</ele><time>2026-05-03T09:18:52.03Z</time></trkpt><trkpt lat="43.4390031" lon="12.2535256"><ele>300.0</ele><time>2026-05-03T09:18:53.029Z</time></trkpt><trkpt lat="43.4389133" lon="12.2535645"><ele>300.0</ele><time>2026-05-03T09:18:54.03Z</time></trkpt><trkpt lat="43.4388217" lon="12.2536006"><ele>300.0</ele><time>2026-05-03T09:18:55.029Z</time></trkpt><trkpt lat="43.4387259" lon="12.2536429"><ele>300.0</ele><time>2026-05-03T09:18:56.03Z</time></trkpt><trkpt lat="43.4386325" lon="12.2536907"><ele>299.6</ele><time>2026-05-03T09:18:57.029Z</time></trkpt><trkpt lat="43.4385402" lon="12.253739"><ele>299.2</ele><time>2026-05-03T09:18:58.029Z</time></trkpt><trkpt lat="43.4384447" lon="12.2537842"><ele>298.8</ele><time>2026-05-03T09:18:59.029Z</time></trkpt><trkpt lat="43.4383467" lon="12.2538327"><ele>298.4</ele><time>2026-05-03T09:19:00.029Z</time></trkpt><trkpt lat="43.4382502" lon="12.2538801"><ele>298.0</ele><time>2026-05-03T09:19:01.029Z</time></trkpt><trkpt lat="43.4381533" lon="12.2539313"><ele>297.8</ele><time>2026-05-03T09:19:02.029Z</time></trkpt><trkpt lat="43.4380566" lon="12.2539852"><ele>297.6</ele><time>2026-05-03T09:19:03.029Z</time></trkpt><trkpt lat="43.4379764" lon="12.2540374"><ele>297.4</ele><time>2026-05-03T09:19:04.03Z</time></trkpt><trkpt lat="43.4378888" lon="12.2541021"><ele>297.2</ele><time>2026-05-03T09:19:06.029Z</time></trkpt><trkpt lat="43.437828" lon="12.2540389"><ele>297.0</ele><time>2026-05-03T09:19:09.029Z</time></trkpt><trkpt lat="43.4378004" lon="12.253917"><ele>296.8</ele><time>2026-05-03T09:19:11.029Z</time></trkpt><trkpt lat="43.4377562" lon="12.2537446"><ele>296.6</ele><time>2026-05-03T09:19:13.029Z</time></trkpt><trkpt lat="43.4377295" lon="12.2536399"><ele>296.40000000000003</ele><time>2026-05-03T09:19:14.029Z</time></trkpt><trkpt lat="43.4376965" lon="12.253524"><ele>296.2</ele><time>2026-05-03T09:19:15.029Z</time></trkpt><trkpt lat="43.4376655" lon="12.2533981"><ele>296.0</ele><time>2026-05-03T09:19:16.029Z</time></trkpt><trkpt lat="43.4376346" lon="12.2532782"><ele>296.0</ele><time>2026-05-03T09:19:17.029Z</time></trkpt><trkpt lat="43.4376044" lon="12.2531612"><ele>296.0</ele><time>2026-05-03T09:19:18.029Z</time></trkpt><trkpt lat="43.4375776" lon="12.2530592"><ele>296.0</ele><time>2026-05-03T09:19:19.029Z</time></trkpt><trkpt lat="43.4375381" lon="12.2529089"><ele>296.0</ele><time>2026-05-03T09:19:21.03Z</time></trkpt><trkpt lat="43.4374976" lon="12.252789"><ele>296.0</ele><time>2026-05-03T09:19:23.029Z</time></trkpt><trkpt lat="43.4374803" lon="12.2526754"><ele>295.6666666666667</ele><time>2026-05-03T09:19:25.029Z</time></trkpt><trkpt lat="43.4374908" lon="12.2525483"><ele>295.33333333333337</ele><time>2026-05-03T09:19:27.029Z</time></trkpt><trkpt lat="43.4375004" lon="12.2524568"><ele>295.0</ele><time>2026-05-03T09:19:28.029Z</time></trkpt><trkpt lat="43.4375152" lon="12.2523515"><ele>294.6666666666667</ele><time>2026-05-03T09:19:29.029Z</time></trkpt><trkpt lat="43.4375275" lon="12.2522423"><ele>294.3333333333333</ele><time>2026-05-03T09:19:30.03Z</time></trkpt><trkpt lat="43.4375381" lon="12.2521247"><ele>294.0</ele><time>2026-05-03T09:19:31.029Z</time></trkpt><trkpt lat="43.4375522" lon="12.2520203"><ele>294.0</ele><time>2026-05-03T09:19:32.029Z</time></trkpt><trkpt lat="43.4375647" lon="12.2519285"><ele>294.0</ele><time>2026-05-03T09:19:33.029Z</time></trkpt><trkpt lat="43.4375876" lon="12.25176"><ele>294.0</ele><time>2026-05-03T09:19:35.029Z</time></trkpt><trkpt lat="43.4376003" lon="12.2516714"><ele>294.0</ele><time>2026-05-03T09:19:36.03Z</time></trkpt><trkpt lat="43.4376172" lon="12.2515164"><ele>294.0</ele><time>2026-05-03T09:19:38.029Z</time></trkpt><trkpt lat="43.437633" lon="12.2514001"><ele>293.6666666666667</ele><time>2026-05-03T09:19:40.029Z</time></trkpt><trkpt lat="43.4376325" lon="12.2512865"><ele>293.3333333333333</ele><time>2026-05-03T09:19:42.029Z</time></trkpt><trkpt lat="43.4375714" lon="12.2512064"><ele>293.0</ele><time>2026-05-03T09:19:45.03Z</time></trkpt><trkpt lat="43.437505" lon="12.251202"><ele>292.66666666666663</ele><time>2026-05-03T09:19:47.029Z</time></trkpt><trkpt lat="43.4374577" lon="12.251127"><ele>292.3333333333333</ele><time>2026-05-03T09:19:49.029Z</time></trkpt><trkpt lat="43.4374299" lon="12.2509857"><ele>292.0</ele><time>2026-05-03T09:19:51.03Z</time></trkpt><trkpt lat="43.4374039" lon="12.2508132"><ele>292.0</ele><time>2026-05-03T09:19:53.03Z</time></trkpt><trkpt lat="43.4373705" lon="12.2506435"><ele>292.0</ele><time>2026-05-03T09:19:55.029Z</time></trkpt><trkpt lat="43.4373458" lon="12.2504852"><ele>292.0</ele><time>2026-05-03T09:19:57.029Z</time></trkpt><trkpt lat="43.4373138" lon="12.2503523"><ele>292.0</ele><time>2026-05-03T09:19:59.029Z</time></trkpt><trkpt lat="43.4372893" lon="12.2502373"><ele>292.0</ele><time>2026-05-03T09:20:01.029Z</time></trkpt><trkpt lat="43.437263" lon="12.2501164"><ele>291.66666666666663</ele><time>2026-05-03T09:20:03.029Z</time></trkpt><trkpt lat="43.4372404" lon="12.2500067"><ele>291.3333333333333</ele><time>2026-05-03T09:20:05.03Z</time></trkpt><trkpt lat="43.437222" lon="12.2498864"><ele>291.0</ele><time>2026-05-03T09:20:07.029Z</time></trkpt><trkpt lat="43.4372091" lon="12.2497951"><ele>290.6666666666667</ele><time>2026-05-03T09:20:09.029Z</time></trkpt><trkpt lat="43.4371563" lon="12.2497442"><ele>290.33333333333337</ele><time>2026-05-03T09:20:14.029Z</time></trkpt><trkpt lat="43.4370673" lon="12.2497688"><ele>290.0</ele><time>2026-05-03T09:20:15.029Z</time></trkpt><trkpt lat="43.4369771" lon="12.2497753"><ele>289.25</ele><time>2026-05-03T09:20:16.03Z</time></trkpt><trkpt lat="43.4368649" lon="12.2498081"><ele>288.5</ele><time>2026-05-03T09:20:17.029Z</time></trkpt><trkpt lat="43.4367375" lon="12.2498537"><ele>287.75</ele><time>2026-05-03T09:20:18.029Z</time></trkpt><trkpt lat="43.4365943" lon="12.2499019"><ele>287.0</ele><time>2026-05-03T09:20:19.029Z</time></trkpt><trkpt lat="43.4364477" lon="12.2499508"><ele>284.6666666666667</ele><time>2026-05-03T09:20:20.029Z</time></trkpt><trkpt lat="43.4362977" lon="12.2500012"><ele>282.3333333333333</ele><time>2026-05-03T09:20:21.029Z</time></trkpt><trkpt lat="43.4361422" lon="12.2500531"><ele>280.0</ele><time>2026-05-03T09:20:22.029Z</time></trkpt><trkpt lat="43.4359852" lon="12.2501109"><ele>280.0</ele><time>2026-05-03T09:20:23.029Z</time></trkpt><trkpt lat="43.4358309" lon="12.2501712"><ele>280.0</ele><time>2026-05-03T09:20:24.029Z</time></trkpt><trkpt lat="43.4356752" lon="12.2502301"><ele>280.0</ele><time>2026-05-03T09:20:25.029Z</time></trkpt><trkpt lat="43.4355224" lon="12.2502889"><ele>278.66666666666663</ele><time>2026-05-03T09:20:26.029Z</time></trkpt><trkpt lat="43.4353644" lon="12.2503441"><ele>277.3333333333333</ele><time>2026-05-03T09:20:27.029Z</time></trkpt><trkpt lat="43.435208" lon="12.2504012"><ele>276.0</ele><time>2026-05-03T09:20:28.029Z</time></trkpt><trkpt lat="43.4350512" lon="12.2504586"><ele>276.0</ele><time>2026-05-03T09:20:29.029Z</time></trkpt><trkpt lat="43.4348928" lon="12.2505164"><ele>276.0</ele><time>2026-05-03T09:20:30.029Z</time></trkpt><trkpt lat="43.4347329" lon="12.2505688"><ele>276.0</ele><time>2026-05-03T09:20:31.029Z</time></trkpt><trkpt lat="43.4345746" lon="12.2506254"><ele>276.0</ele><time>2026-05-03T09:20:32.03Z</time></trkpt><trkpt lat="43.434416" lon="12.2506816"><ele>276.0</ele><time>2026-05-03T09:20:33.029Z</time></trkpt><trkpt lat="43.4342606" lon="12.2507404"><ele>276.0</ele><time>2026-05-03T09:20:34.03Z</time></trkpt><trkpt lat="43.434106" lon="12.2508"><ele>276.0</ele><time>2026-05-03T09:20:35.03Z</time></trkpt><trkpt lat="43.4339554" lon="12.2508556"><ele>276.0</ele><time>2026-05-03T09:20:36.029Z</time></trkpt><trkpt lat="43.4338026" lon="12.2509081"><ele>276.0</ele><time>2026-05-03T09:20:37.029Z</time></trkpt><trkpt lat="43.4336517" lon="12.2509629"><ele>275.5</ele><time>2026-05-03T09:20:38.029Z</time></trkpt><trkpt lat="43.4335056" lon="12.251016"><ele>275.0</ele><time>2026-05-03T09:20:39.029Z</time></trkpt><trkpt lat="43.4333621" lon="12.25107"><ele>274.5</ele><time>2026-05-03T09:20:40.029Z</time></trkpt><trkpt lat="43.4332236" lon="12.2511219"><ele>274.0</ele><time>2026-05-03T09:20:41.029Z</time></trkpt><trkpt lat="43.4330825" lon="12.2511627"><ele>274.5</ele><time>2026-05-03T09:20:42.029Z</time></trkpt><trkpt lat="43.4329409" lon="12.2511862"><ele>275.0</ele><time>2026-05-03T09:20:43.029Z</time></trkpt><trkpt lat="43.432797" lon="12.2511819"><ele>275.5</ele><time>2026-05-03T09:20:44.029Z</time></trkpt><trkpt lat="43.4326498" lon="12.2511545"><ele>276.0</ele><time>2026-05-03T09:20:45.029Z</time></trkpt><trkpt lat="43.4325051" lon="12.2510975"><ele>276.0</ele><time>2026-05-03T09:20:46.029Z</time></trkpt><trkpt lat="43.4323676" lon="12.2510458"><ele>276.0</ele><time>2026-05-03T09:20:47.029Z</time></trkpt><trkpt lat="43.4322378" lon="12.2510039"><ele>276.0</ele><time>2026-05-03T09:20:48.029Z</time></trkpt><trkpt lat="43.432091" lon="12.2509896"><ele>276.0</ele><time>2026-05-03T09:20:49.029Z</time></trkpt><trkpt lat="43.4319465" lon="12.2510062"><ele>276.3333333333333</ele><time>2026-05-03T09:20:50.029Z</time></trkpt><trkpt lat="43.4318034" lon="12.2510334"><ele>276.66666666666663</ele><time>2026-05-03T09:20:51.029Z</time></trkpt><trkpt lat="43.4316517" lon="12.2510394"><ele>277.0</ele><time>2026-05-03T09:20:52.029Z</time></trkpt><trkpt lat="43.4314941" lon="12.2510225"><ele>277.0</ele><time>2026-05-03T09:20:53.029Z</time></trkpt><trkpt lat="43.4313372" lon="12.2510075"><ele>277.0</ele><time>2026-05-03T09:20:54.029Z</time></trkpt><trkpt lat="43.4311785" lon="12.2509862"><ele>277.0</ele><time>2026-05-03T09:20:55.029Z</time></trkpt><trkpt lat="43.4310147" lon="12.250968"><ele>279.66666666666663</ele><time>2026-05-03T09:20:56.03Z</time></trkpt><trkpt lat="43.4308502" lon="12.2509487"><ele>282.3333333333333</ele><time>2026-05-03T09:20:57.029Z</time></trkpt><trkpt lat="43.4306863" lon="12.2509209"><ele>285.0</ele><time>2026-05-03T09:20:58.029Z</time></trkpt><trkpt lat="43.4305237" lon="12.2508938"><ele>287.0</ele><time>2026-05-03T09:20:59.03Z</time></trkpt><trkpt lat="43.430363" lon="12.2508702"><ele>289.0</ele><time>2026-05-03T09:21:00.029Z</time></trkpt><trkpt lat="43.4302016" lon="12.2508473"><ele>291.0</ele><time>2026-05-03T09:21:01.03Z</time></trkpt><trkpt lat="43.4300403" lon="12.2508229"><ele>291.0</ele><time>2026-05-03T09:21:02.029Z</time></trkpt><trkpt lat="43.4298802" lon="12.2508014"><ele>291.0</ele><time>2026-05-03T09:21:03.029Z</time></trkpt><trkpt lat="43.4297231" lon="12.2507721"><ele>291.0</ele><time>2026-05-03T09:21:04.029Z</time></trkpt><trkpt lat="43.4295618" lon="12.2507509"><ele>292.6666666666667</ele><time>2026-05-03T09:21:05.029Z</time></trkpt><trkpt lat="43.4293998" lon="12.2507265"><ele>294.33333333333337</ele><time>2026-05-03T09:21:06.029Z</time></trkpt><trkpt lat="43.4292447" lon="12.2507029"><ele>296.0</ele><time>2026-05-03T09:21:07.029Z</time></trkpt><trkpt lat="43.429084" lon="12.2506791"><ele>296.0</ele><time>2026-05-03T09:21:08.029Z</time></trkpt><trkpt lat="43.4289181" lon="12.2506524"><ele>296.0</ele><time>2026-05-03T09:21:09.03Z</time></trkpt><trkpt lat="43.4287509" lon="12.2506369"><ele>296.0</ele><time>2026-05-03T09:21:10.029Z</time></trkpt><trkpt lat="43.4285839" lon="12.2506005"><ele>294.6666666666667</ele><time>2026-05-03T09:21:11.029Z</time></trkpt><trkpt lat="43.4284141" lon="12.2505768"><ele>293.3333333333333</ele><time>2026-05-03T09:21:12.029Z</time></trkpt><trkpt lat="43.4282431" lon="12.2505567"><ele>292.0</ele><time>2026-05-03T09:21:13.029Z</time></trkpt><trkpt lat="43.4280701" lon="12.250534"><ele>292.3333333333333</ele><time>2026-05-03T09:21:14.029Z</time></trkpt><trkpt lat="43.4278958" lon="12.2505045"><ele>292.6666666666667</ele><time>2026-05-03T09:21:15.029Z</time></trkpt><trkpt lat="43.4277206" lon="12.2504808"><ele>293.0</ele><time>2026-05-03T09:21:16.029Z</time></trkpt><trkpt lat="43.4275457" lon="12.2504565"><ele>293.0</ele><time>2026-05-03T09:21:17.03Z</time></trkpt><trkpt lat="43.4273744" lon="12.2504318"><ele>293.0</ele><time>2026-05-03T09:21:18.029Z</time></trkpt><trkpt lat="43.4272016" lon="12.2504036"><ele>293.0</ele><time>2026-05-03T09:21:19.029Z</time></trkpt><trkpt lat="43.4270339" lon="12.2503796"><ele>293.0</ele><time>2026-05-03T09:21:20.029Z</time></trkpt><trkpt lat="43.4268656" lon="12.2503569"><ele>293.0</ele><time>2026-05-03T09:21:21.029Z</time></trkpt><trkpt lat="43.4267048" lon="12.2503332"><ele>293.0</ele><time>2026-05-03T09:21:22.029Z</time></trkpt><trkpt lat="43.4265584" lon="12.2503092"><ele>293.0</ele><time>2026-05-03T09:21:23.029Z</time></trkpt><trkpt lat="43.4264227" lon="12.2502889"><ele>293.0</ele><time>2026-05-03T09:21:24.029Z</time></trkpt><trkpt lat="43.4262862" lon="12.2502688"><ele>293.0</ele><time>2026-05-03T09:21:25.029Z</time></trkpt><trkpt lat="43.4261386" lon="12.2502443"><ele>293.0</ele><time>2026-05-03T09:21:26.029Z</time></trkpt><trkpt lat="43.425985" lon="12.2502226"><ele>293.6666666666667</ele><time>2026-05-03T09:21:27.029Z</time></trkpt><trkpt lat="43.4258286" lon="12.2501955"><ele>294.3333333333333</ele><time>2026-05-03T09:21:28.029Z</time></trkpt><trkpt lat="43.4256581" lon="12.2501691"><ele>295.0</ele><time>2026-05-03T09:21:29.029Z</time></trkpt><trkpt lat="43.4254833" lon="12.2501454"><ele>295.0</ele><time>2026-05-03T09:21:30.029Z</time></trkpt><trkpt lat="43.4253166" lon="12.2501233"><ele>295.0</ele><time>2026-05-03T09:21:31.029Z</time></trkpt><trkpt lat="43.4251565" lon="12.2501034"><ele>295.0</ele><time>2026-05-03T09:21:32.029Z</time></trkpt><trkpt lat="43.4249979" lon="12.2500825"><ele>295.0</ele><time>2026-05-03T09:21:33.029Z</time></trkpt><trkpt lat="43.4248415" lon="12.2500594"><ele>295.0</ele><time>2026-05-03T09:21:34.029Z</time></trkpt><trkpt lat="43.4246893" lon="12.2500325"><ele>295.0</ele><time>2026-05-03T09:21:35.029Z</time></trkpt><trkpt lat="43.4245462" lon="12.2500149"><ele>294.5</ele><time>2026-05-03T09:21:36.029Z</time></trkpt><trkpt lat="43.4244015" lon="12.2500017"><ele>294.0</ele><time>2026-05-03T09:21:37.029Z</time></trkpt><trkpt lat="43.4242558" lon="12.249984"><ele>293.5</ele><time>2026-05-03T09:21:38.029Z</time></trkpt><trkpt lat="43.4241054" lon="12.2499526"><ele>293.0</ele><time>2026-05-03T09:21:39.029Z</time></trkpt><trkpt lat="43.4239528" lon="12.2499263"><ele>292.33333333333337</ele><time>2026-05-03T09:21:40.029Z</time></trkpt><trkpt lat="43.4237961" lon="12.2499032"><ele>291.6666666666667</ele><time>2026-05-03T09:21:41.029Z</time></trkpt><trkpt lat="43.4236363" lon="12.2498803"><ele>291.0</ele><time>2026-05-03T09:21:42.029Z</time></trkpt><trkpt lat="43.4234817" lon="12.2498614"><ele>291.0</ele><time>2026-05-03T09:21:43.029Z</time></trkpt><trkpt lat="43.4233215" lon="12.2498386"><ele>291.0</ele><time>2026-05-03T09:21:44.03Z</time></trkpt><trkpt lat="43.4231616" lon="12.2498154"><ele>291.0</ele><time>2026-05-03T09:21:45.03Z</time></trkpt><trkpt lat="43.4229967" lon="12.2497923"><ele>287.3333333333333</ele><time>2026-05-03T09:21:46.029Z</time></trkpt><trkpt lat="43.4228341" lon="12.2497642"><ele>283.66666666666663</ele><time>2026-05-03T09:21:47.029Z</time></trkpt><trkpt lat="43.422669" lon="12.2497394"><ele>280.0</ele><time>2026-05-03T09:21:48.029Z</time></trkpt><trkpt lat="43.422503" lon="12.2497183"><ele>280.0</ele><time>2026-05-03T09:21:49.03Z</time></trkpt><trkpt lat="43.4223438" lon="12.2496915"><ele>280.0</ele><time>2026-05-03T09:21:50.029Z</time></trkpt><trkpt lat="43.4221841" lon="12.2496666"><ele>280.0</ele><time>2026-05-03T09:21:51.029Z</time></trkpt><trkpt lat="43.4220249" lon="12.2496394"><ele>279.66666666666663</ele><time>2026-05-03T09:21:52.03Z</time></trkpt><trkpt lat="43.4218651" lon="12.2496187"><ele>279.3333333333333</ele><time>2026-05-03T09:21:53.029Z</time></trkpt><trkpt lat="43.4217055" lon="12.2495945"><ele>279.0</ele><time>2026-05-03T09:21:54.029Z</time></trkpt><trkpt lat="43.4215466" lon="12.2495673"><ele>279.0</ele><time>2026-05-03T09:21:55.029Z</time></trkpt><trkpt lat="43.4213907" lon="12.2495347"><ele>279.0</ele><time>2026-05-03T09:21:56.029Z</time></trkpt><trkpt lat="43.4212308" lon="12.2495077"><ele>279.0</ele><time>2026-05-03T09:21:57.029Z</time></trkpt><trkpt lat="43.4210695" lon="12.2494845"><ele>280.0</ele><time>2026-05-03T09:21:58.029Z</time></trkpt><trkpt lat="43.4209072" lon="12.2494631"><ele>281.0</ele><time>2026-05-03T09:21:59.029Z</time></trkpt><trkpt lat="43.4207496" lon="12.2494427"><ele>282.0</ele><time>2026-05-03T09:22:00.029Z</time></trkpt><trkpt lat="43.4205909" lon="12.249427"><ele>282.6666666666667</ele><time>2026-05-03T09:22:01.029Z</time></trkpt><trkpt lat="43.4204352" lon="12.2494095"><ele>283.33333333333337</ele><time>2026-05-03T09:22:02.029Z</time></trkpt><trkpt lat="43.4202773" lon="12.2493899"><ele>284.0</ele><time>2026-05-03T09:22:03.029Z</time></trkpt><trkpt lat="43.42012" lon="12.2493688"><ele>284.0</ele><time>2026-05-03T09:22:04.029Z</time></trkpt><trkpt lat="43.4199638" lon="12.2493458"><ele>284.0</ele><time>2026-05-03T09:22:05.029Z</time></trkpt><trkpt lat="43.4198128" lon="12.2493206"><ele>284.0</ele><time>2026-05-03T09:22:06.029Z</time></trkpt><trkpt lat="43.4196581" lon="12.2493022"><ele>285.33333333333337</ele><time>2026-05-03T09:22:07.029Z</time></trkpt><trkpt lat="43.4195009" lon="12.2492809"><ele>286.6666666666667</ele><time>2026-05-03T09:22:08.029Z</time></trkpt><trkpt lat="43.419347" lon="12.249258"><ele>288.0</ele><time>2026-05-03T09:22:09.029Z</time></trkpt><trkpt lat="43.4191948" lon="12.2492354"><ele>288.0</ele><time>2026-05-03T09:22:10.029Z</time></trkpt><trkpt lat="43.4190469" lon="12.2492119"><ele>288.0</ele><time>2026-05-03T09:22:11.029Z</time></trkpt><trkpt lat="43.4189042" lon="12.249187"><ele>288.0</ele><time>2026-05-03T09:22:12.029Z</time></trkpt><trkpt lat="43.4187682" lon="12.2491656"><ele>288.0</ele><time>2026-05-03T09:22:13.029Z</time></trkpt><trkpt lat="43.4186474" lon="12.24915"><ele>288.5</ele><time>2026-05-03T09:22:14.029Z</time></trkpt><trkpt lat="43.4185257" lon="12.2491312"><ele>289.0</ele><time>2026-05-03T09:22:15.029Z</time></trkpt><trkpt lat="43.4184022" lon="12.249113"><ele>289.5</ele><time>2026-05-03T09:22:16.029Z</time></trkpt><trkpt lat="43.4182773" lon="12.2490971"><ele>290.0</ele><time>2026-05-03T09:22:17.029Z</time></trkpt><trkpt lat="43.4181496" lon="12.2490784"><ele>290.0</ele><time>2026-05-03T09:22:18.029Z</time></trkpt><trkpt lat="43.4180182" lon="12.2490597"><ele>290.0</ele><time>2026-05-03T09:22:19.03Z</time></trkpt><trkpt lat="43.4178892" lon="12.2490457"><ele>290.0</ele><time>2026-05-03T09:22:20.029Z</time></trkpt><trkpt lat="43.4177617" lon="12.2490295"><ele>290.0</ele><time>2026-05-03T09:22:21.03Z</time></trkpt><trkpt lat="43.417634" lon="12.2490104"><ele>289.0</ele><time>2026-05-03T09:22:22.029Z</time></trkpt><trkpt lat="43.4175062" lon="12.2489932"><ele>288.0</ele><time>2026-05-03T09:22:23.029Z</time></trkpt><trkpt lat="43.4173796" lon="12.2489758"><ele>287.0</ele><time>2026-05-03T09:22:24.029Z</time></trkpt><trkpt lat="43.4172517" lon="12.24896"><ele>286.0</ele><time>2026-05-03T09:22:25.03Z</time></trkpt><trkpt lat="43.4171241" lon="12.2489356"><ele>284.25</ele><time>2026-05-03T09:22:26.029Z</time></trkpt><trkpt lat="43.4169961" lon="12.2489111"><ele>282.5</ele><time>2026-05-03T09:22:27.029Z</time></trkpt><trkpt lat="43.4168704" lon="12.2488912"><ele>280.75</ele><time>2026-05-03T09:22:28.029Z</time></trkpt><trkpt lat="43.4167399" lon="12.2488733"><ele>279.0</ele><time>2026-05-03T09:22:29.03Z</time></trkpt><trkpt lat="43.416611" lon="12.2488587"><ele>279.0</ele><time>2026-05-03T09:22:30.029Z</time></trkpt><trkpt lat="43.4164801" lon="12.2488509"><ele>279.0</ele><time>2026-05-03T09:22:31.029Z</time></trkpt><trkpt lat="43.4163531" lon="12.2488538"><ele>279.0</ele><time>2026-05-03T09:22:32.029Z</time></trkpt><trkpt lat="43.4162204" lon="12.2488666"><ele>279.0</ele><time>2026-05-03T09:22:33.03Z</time></trkpt><trkpt lat="43.4160875" lon="12.24889"><ele>279.75</ele><time>2026-05-03T09:22:34.03Z</time></trkpt><trkpt lat="43.4159501" lon="12.2489224"><ele>280.5</ele><time>2026-05-03T09:22:35.029Z</time></trkpt><trkpt lat="43.415815" lon="12.248959"><ele>281.25</ele><time>2026-05-03T09:22:36.029Z</time></trkpt><trkpt lat="43.4156792" lon="12.2489933"><ele>282.0</ele><time>2026-05-03T09:22:37.029Z</time></trkpt><trkpt lat="43.4155439" lon="12.2490279"><ele>284.25</ele><time>2026-05-03T09:22:38.029Z</time></trkpt><trkpt lat="43.415408" lon="12.2490701"><ele>286.5</ele><time>2026-05-03T09:22:39.029Z</time></trkpt><trkpt lat="43.4152699" lon="12.2491057"><ele>288.75</ele><time>2026-05-03T09:22:40.029Z</time></trkpt><trkpt lat="43.4151335" lon="12.2491419"><ele>291.0</ele><time>2026-05-03T09:22:41.03Z</time></trkpt><trkpt lat="43.4149934" lon="12.2491819"><ele>291.0</ele><time>2026-05-03T09:22:42.03Z</time></trkpt><trkpt lat="43.4148499" lon="12.2492198"><ele>291.0</ele><time>2026-05-03T09:22:43.029Z</time></trkpt><trkpt lat="43.414706" lon="12.2492569"><ele>291.0</ele><time>2026-05-03T09:22:44.029Z</time></trkpt><trkpt lat="43.4145563" lon="12.2492963"><ele>291.0</ele><time>2026-05-03T09:22:45.029Z</time></trkpt><trkpt lat="43.4144027" lon="12.2493378"><ele>289.6666666666667</ele><time>2026-05-03T09:22:46.029Z</time></trkpt><trkpt lat="43.4142455" lon="12.2493739"><ele>288.33333333333337</ele><time>2026-05-03T09:22:47.029Z</time></trkpt><trkpt lat="43.4140838" lon="12.2494166"><ele>287.0</ele><time>2026-05-03T09:22:48.029Z</time></trkpt><trkpt lat="43.4139213" lon="12.249464"><ele>286.0</ele><time>2026-05-03T09:22:49.029Z</time></trkpt><trkpt lat="43.4137551" lon="12.2495076"><ele>285.0</ele><time>2026-05-03T09:22:50.029Z</time></trkpt><trkpt lat="43.4135862" lon="12.2495537"><ele>284.0</ele><time>2026-05-03T09:22:51.029Z</time></trkpt><trkpt lat="43.4134162" lon="12.2496022"><ele>284.0</ele><time>2026-05-03T09:22:52.029Z</time></trkpt><trkpt lat="43.4132392" lon="12.2496454"><ele>284.0</ele><time>2026-05-03T09:22:53.029Z</time></trkpt><trkpt lat="43.4130671" lon="12.2496912"><ele>284.0</ele><time>2026-05-03T09:22:54.029Z</time></trkpt><trkpt lat="43.412894" lon="12.2497405"><ele>282.33333333333337</ele><time>2026-05-03T09:22:55.029Z</time></trkpt><trkpt lat="43.4127245" lon="12.2497894"><ele>280.6666666666667</ele><time>2026-05-03T09:22:56.029Z</time></trkpt><trkpt lat="43.4125558" lon="12.2498378"><ele>279.0</ele><time>2026-05-03T09:22:57.029Z</time></trkpt><trkpt lat="43.4123936" lon="12.2498933"><ele>281.6666666666667</ele><time>2026-05-03T09:22:58.029Z</time></trkpt><trkpt lat="43.4122323" lon="12.2499506"><ele>284.33333333333337</ele><time>2026-05-03T09:22:59.029Z</time></trkpt><trkpt lat="43.4120725" lon="12.2500089"><ele>287.0</ele><time>2026-05-03T09:23:00.029Z</time></trkpt><trkpt lat="43.4119055" lon="12.2500711"><ele>287.0</ele><time>2026-05-03T09:23:01.029Z</time></trkpt><trkpt lat="43.4117371" lon="12.2501381"><ele>287.0</ele><time>2026-05-03T09:23:02.03Z</time></trkpt><trkpt lat="43.4115693" lon="12.2502087"><ele>287.0</ele><time>2026-05-03T09:23:03.029Z</time></trkpt><trkpt lat="43.4113919" lon="12.2502809"><ele>285.0</ele><time>2026-05-03T09:23:04.029Z</time></trkpt><trkpt lat="43.4112145" lon="12.2503568"><ele>283.0</ele><time>2026-05-03T09:23:05.029Z</time></trkpt><trkpt lat="43.4110372" lon="12.2504372"><ele>281.0</ele><time>2026-05-03T09:23:06.029Z</time></trkpt><trkpt lat="43.4108564" lon="12.2505191"><ele>281.0</ele><time>2026-05-03T09:23:07.03Z</time></trkpt><trkpt lat="43.4106703" lon="12.2506039"><ele>281.0</ele><time>2026-05-03T09:23:08.029Z</time></trkpt><trkpt lat="43.4104788" lon="12.2506784"><ele>281.0</ele><time>2026-05-03T09:23:09.029Z</time></trkpt><trkpt lat="43.410275" lon="12.2507377"><ele>284.0</ele><time>2026-05-03T09:23:10.029Z</time></trkpt><trkpt lat="43.4100823" lon="12.2507816"><ele>287.0</ele><time>2026-05-03T09:23:11.029Z</time></trkpt><trkpt lat="43.4099012" lon="12.2508273"><ele>290.0</ele><time>2026-05-03T09:23:12.029Z</time></trkpt><trkpt lat="43.4097223" lon="12.2508781"><ele>289.0</ele><time>2026-05-03T09:23:13.029Z</time></trkpt><trkpt lat="43.4095513" lon="12.2509249"><ele>288.0</ele><time>2026-05-03T09:23:14.029Z</time></trkpt><trkpt lat="43.4093813" lon="12.250991"><ele>287.0</ele><time>2026-05-03T09:23:15.029Z</time></trkpt><trkpt lat="43.4092179" lon="12.2510608"><ele>287.0</ele><time>2026-05-03T09:23:16.029Z</time></trkpt><trkpt lat="43.4090583" lon="12.25114"><ele>287.0</ele><time>2026-05-03T09:23:17.029Z</time></trkpt><trkpt lat="43.4088969" lon="12.2512215"><ele>287.0</ele><time>2026-05-03T09:23:18.029Z</time></trkpt><trkpt lat="43.4087375" lon="12.25131"><ele>286.6666666666667</ele><time>2026-05-03T09:23:19.029Z</time></trkpt><trkpt lat="43.4085749" lon="12.2513997"><ele>286.3333333333333</ele><time>2026-05-03T09:23:20.03Z</time></trkpt><trkpt lat="43.4084158" lon="12.2514875"><ele>286.0</ele><time>2026-05-03T09:23:21.03Z</time></trkpt><trkpt lat="43.4082587" lon="12.2515736"><ele>286.0</ele><time>2026-05-03T09:23:22.029Z</time></trkpt><trkpt lat="43.408096" lon="12.2516599"><ele>286.0</ele><time>2026-05-03T09:23:23.029Z</time></trkpt><trkpt lat="43.4079345" lon="12.2517494"><ele>286.0</ele><time>2026-05-03T09:23:24.029Z</time></trkpt><trkpt lat="43.4077715" lon="12.2518445"><ele>285.3333333333333</ele><time>2026-05-03T09:23:25.029Z</time></trkpt><trkpt lat="43.4076042" lon="12.2519384"><ele>284.6666666666667</ele><time>2026-05-03T09:23:26.03Z</time></trkpt><trkpt lat="43.4074388" lon="12.2520297"><ele>284.0</ele><time>2026-05-03T09:23:27.029Z</time></trkpt><trkpt lat="43.4072757" lon="12.2521117"><ele>282.6666666666667</ele><time>2026-05-03T09:23:28.029Z</time></trkpt><trkpt lat="43.4071032" lon="12.2521701"><ele>281.3333333333333</ele><time>2026-05-03T09:23:29.029Z</time></trkpt><trkpt lat="43.4069249" lon="12.2522086"><ele>280.0</ele><time>2026-05-03T09:23:30.029Z</time></trkpt><trkpt lat="43.4067321" lon="12.2522319"><ele>280.0</ele><time>2026-05-03T09:23:31.029Z</time></trkpt><trkpt lat="43.4065417" lon="12.2522549"><ele>280.0</ele><time>2026-05-03T09:23:32.029Z</time></trkpt><trkpt lat="43.4063376" lon="12.2522653"><ele>280.0</ele><time>2026-05-03T09:23:33.03Z</time></trkpt><trkpt lat="43.4061227" lon="12.2522849"><ele>281.3333333333333</ele><time>2026-05-03T09:23:34.029Z</time></trkpt><trkpt lat="43.4058956" lon="12.2523079"><ele>282.6666666666667</ele><time>2026-05-03T09:23:35.029Z</time></trkpt><trkpt lat="43.4056769" lon="12.2523253"><ele>284.0</ele><time>2026-05-03T09:23:36.029Z</time></trkpt><trkpt lat="43.4054673" lon="12.2523423"><ele>284.0</ele><time>2026-05-03T09:23:37.029Z</time></trkpt><trkpt lat="43.4052681" lon="12.2523533"><ele>284.0</ele><time>2026-05-03T09:23:38.029Z</time></trkpt><trkpt lat="43.4050735" lon="12.2523625"><ele>284.0</ele><time>2026-05-03T09:23:39.029Z</time></trkpt><trkpt lat="43.4048857" lon="12.252368"><ele>284.0</ele><time>2026-05-03T09:23:40.03Z</time></trkpt><trkpt lat="43.4047054" lon="12.252368"><ele>284.0</ele><time>2026-05-03T09:23:41.029Z</time></trkpt><trkpt lat="43.404527" lon="12.2523622"><ele>284.0</ele><time>2026-05-03T09:23:42.029Z</time></trkpt><trkpt lat="43.4043513" lon="12.2523618"><ele>284.6666666666667</ele><time>2026-05-03T09:23:43.029Z</time></trkpt><trkpt lat="43.4041765" lon="12.2523549"><ele>285.3333333333333</ele><time>2026-05-03T09:23:44.029Z</time></trkpt><trkpt lat="43.4039992" lon="12.2523463"><ele>286.0</ele><time>2026-05-03T09:23:45.029Z</time></trkpt><trkpt lat="43.4038214" lon="12.2523421"><ele>286.0</ele><time>2026-05-03T09:23:46.029Z</time></trkpt><trkpt lat="43.4036428" lon="12.2523305"><ele>286.0</ele><time>2026-05-03T09:23:47.029Z</time></trkpt><trkpt lat="43.4034677" lon="12.2523319"><ele>286.0</ele><time>2026-05-03T09:23:48.029Z</time></trkpt><trkpt lat="43.4032853" lon="12.2523278"><ele>286.0</ele><time>2026-05-03T09:23:49.029Z</time></trkpt><trkpt lat="43.4031" lon="12.2523216"><ele>286.0</ele><time>2026-05-03T09:23:50.029Z</time></trkpt><trkpt lat="43.4029191" lon="12.252314"><ele>286.0</ele><time>2026-05-03T09:23:51.029Z</time></trkpt><trkpt lat="43.4027319" lon="12.252301"><ele>284.66666666666663</ele><time>2026-05-03T09:23:52.029Z</time></trkpt><trkpt lat="43.4025467" lon="12.2522938"><ele>283.3333333333333</ele><time>2026-05-03T09:23:53.029Z</time></trkpt><trkpt lat="43.4023552" lon="12.2522894"><ele>282.0</ele><time>2026-05-03T09:23:54.029Z</time></trkpt><trkpt lat="43.4021621" lon="12.2522882"><ele>279.0</ele><time>2026-05-03T09:23:55.029Z</time></trkpt><trkpt lat="43.4019692" lon="12.2522869"><ele>276.0</ele><time>2026-05-03T09:23:56.03Z</time></trkpt><trkpt lat="43.4017819" lon="12.252281"><ele>273.0</ele><time>2026-05-03T09:23:57.029Z</time></trkpt><trkpt lat="43.401601" lon="12.2522724"><ele>273.0</ele><time>2026-05-03T09:23:58.029Z</time></trkpt><trkpt lat="43.4014266" lon="12.2522645"><ele>273.0</ele><time>2026-05-03T09:23:59.029Z</time></trkpt><trkpt lat="43.4012571" lon="12.2522605"><ele>273.0</ele><time>2026-05-03T09:24:00.029Z</time></trkpt><trkpt lat="43.4010916" lon="12.2522495"><ele>273.3333333333333</ele><time>2026-05-03T09:24:01.029Z</time></trkpt><trkpt lat="43.4009249" lon="12.2522542"><ele>273.66666666666663</ele><time>2026-05-03T09:24:02.029Z</time></trkpt><trkpt lat="43.4007597" lon="12.2522506"><ele>274.0</ele><time>2026-05-03T09:24:03.03Z</time></trkpt><trkpt lat="43.4005923" lon="12.2522457"><ele>275.0</ele><time>2026-05-03T09:24:04.029Z</time></trkpt><trkpt lat="43.4004322" lon="12.2522433"><ele>276.0</ele><time>2026-05-03T09:24:05.029Z</time></trkpt><trkpt lat="43.4002662" lon="12.2522371"><ele>277.0</ele><time>2026-05-03T09:24:06.029Z</time></trkpt><trkpt lat="43.400108" lon="12.2522359"><ele>277.0</ele><time>2026-05-03T09:24:07.029Z</time></trkpt><trkpt lat="43.3999478" lon="12.2522339"><ele>277.0</ele><time>2026-05-03T09:24:08.029Z</time></trkpt><trkpt lat="43.3997901" lon="12.2522342"><ele>277.0</ele><time>2026-05-03T09:24:09.029Z</time></trkpt><trkpt lat="43.3996365" lon="12.2522343"><ele>275.3333333333333</ele><time>2026-05-03T09:24:10.029Z</time></trkpt><trkpt lat="43.3994805" lon="12.2522335"><ele>273.6666666666667</ele><time>2026-05-03T09:24:11.029Z</time></trkpt><trkpt lat="43.3993226" lon="12.2522294"><ele>272.0</ele><time>2026-05-03T09:24:12.029Z</time></trkpt><trkpt lat="43.3991645" lon="12.2522281"><ele>272.0</ele><time>2026-05-03T09:24:13.029Z</time></trkpt><trkpt lat="43.3990043" lon="12.25223"><ele>272.0</ele><time>2026-05-03T09:24:14.029Z</time></trkpt><trkpt lat="43.398845" lon="12.2522345"><ele>272.0</ele><time>2026-05-03T09:24:15.03Z</time></trkpt><trkpt lat="43.3986828" lon="12.2522367"><ele>271.6666666666667</ele><time>2026-05-03T09:24:16.029Z</time></trkpt><trkpt lat="43.3985245" lon="12.2522396"><ele>271.3333333333333</ele><time>2026-05-03T09:24:17.029Z</time></trkpt><trkpt lat="43.3983635" lon="12.2522414"><ele>271.0</ele><time>2026-05-03T09:24:18.029Z</time></trkpt><trkpt lat="43.3982016" lon="12.2522466"><ele>271.0</ele><time>2026-05-03T09:24:19.029Z</time></trkpt><trkpt lat="43.3980338" lon="12.2522459"><ele>271.0</ele><time>2026-05-03T09:24:20.029Z</time></trkpt><trkpt lat="43.3978679" lon="12.2522506"><ele>271.0</ele><time>2026-05-03T09:24:21.029Z</time></trkpt><trkpt lat="43.3976972" lon="12.2522488"><ele>271.3333333333333</ele><time>2026-05-03T09:24:22.029Z</time></trkpt><trkpt lat="43.3975239" lon="12.2522562"><ele>271.6666666666667</ele><time>2026-05-03T09:24:23.03Z</time></trkpt><trkpt lat="43.3973524" lon="12.2522577"><ele>272.0</ele><time>2026-05-03T09:24:24.029Z</time></trkpt><trkpt lat="43.3971814" lon="12.2522615"><ele>271.6666666666667</ele><time>2026-05-03T09:24:25.029Z</time></trkpt><trkpt lat="43.3970058" lon="12.2522655"><ele>271.3333333333333</ele><time>2026-05-03T09:24:26.029Z</time></trkpt><trkpt lat="43.3968311" lon="12.252269"><ele>271.0</ele><time>2026-05-03T09:24:27.03Z</time></trkpt><trkpt lat="43.3966545" lon="12.2522716"><ele>271.0</ele><time>2026-05-03T09:24:28.029Z</time></trkpt><trkpt lat="43.396471" lon="12.2522727"><ele>271.0</ele><time>2026-05-03T09:24:29.029Z</time></trkpt><trkpt lat="43.3962896" lon="12.252278"><ele>271.0</ele><time>2026-05-03T09:24:30.03Z</time></trkpt><trkpt lat="43.3961051" lon="12.2522827"><ele>271.3333333333333</ele><time>2026-05-03T09:24:31.029Z</time></trkpt><trkpt lat="43.3959221" lon="12.2522824"><ele>271.6666666666667</ele><time>2026-05-03T09:24:32.029Z</time></trkpt><trkpt lat="43.3957337" lon="12.2522791"><ele>272.0</ele><time>2026-05-03T09:24:33.029Z</time></trkpt><trkpt lat="43.3955448" lon="12.2522801"><ele>271.6666666666667</ele><time>2026-05-03T09:24:34.029Z</time></trkpt><trkpt lat="43.3953578" lon="12.2522828"><ele>271.3333333333333</ele><time>2026-05-03T09:24:35.029Z</time></trkpt><trkpt lat="43.395172" lon="12.2522878"><ele>271.0</ele><time>2026-05-03T09:24:36.029Z</time></trkpt><trkpt lat="43.3949852" lon="12.2522928"><ele>270.66666666666663</ele><time>2026-05-03T09:24:37.029Z</time></trkpt><trkpt lat="43.3948019" lon="12.2522932"><ele>270.3333333333333</ele><time>2026-05-03T09:24:38.03Z</time></trkpt><trkpt lat="43.3946228" lon="12.2522913"><ele>270.0</ele><time>2026-05-03T09:24:39.029Z</time></trkpt><trkpt lat="43.3944506" lon="12.2522954"><ele>269.3333333333333</ele><time>2026-05-03T09:24:40.029Z</time></trkpt><trkpt lat="43.3942844" lon="12.252301"><ele>268.66666666666663</ele><time>2026-05-03T09:24:41.03Z</time></trkpt><trkpt lat="43.3941165" lon="12.2523037"><ele>268.0</ele><time>2026-05-03T09:24:42.03Z</time></trkpt><trkpt lat="43.393948" lon="12.2523101"><ele>268.3333333333333</ele><time>2026-05-03T09:24:43.03Z</time></trkpt><trkpt lat="43.393779" lon="12.2523169"><ele>268.6666666666667</ele><time>2026-05-03T09:24:44.029Z</time></trkpt><trkpt lat="43.3936079" lon="12.2523214"><ele>269.0</ele><time>2026-05-03T09:24:45.029Z</time></trkpt><trkpt lat="43.3934371" lon="12.2523279"><ele>269.0</ele><time>2026-05-03T09:24:46.029Z</time></trkpt><trkpt lat="43.3932692" lon="12.2523368"><ele>269.0</ele><time>2026-05-03T09:24:47.029Z</time></trkpt><trkpt lat="43.3931021" lon="12.2523453"><ele>269.0</ele><time>2026-05-03T09:24:48.029Z</time></trkpt><trkpt lat="43.3929345" lon="12.2523535"><ele>270.33333333333337</ele><time>2026-05-03T09:24:49.029Z</time></trkpt><trkpt lat="43.3927618" lon="12.252362"><ele>271.6666666666667</ele><time>2026-05-03T09:24:50.029Z</time></trkpt><trkpt lat="43.3925887" lon="12.252374"><ele>273.0</ele><time>2026-05-03T09:24:51.03Z</time></trkpt><trkpt lat="43.3924116" lon="12.2523926"><ele>273.0</ele><time>2026-05-03T09:24:52.029Z</time></trkpt><trkpt lat="43.3922354" lon="12.2524184"><ele>273.0</ele><time>2026-05-03T09:24:53.029Z</time></trkpt><trkpt lat="43.392063" lon="12.2524482"><ele>273.0</ele><time>2026-05-03T09:24:54.029Z</time></trkpt><trkpt lat="43.3918905" lon="12.2524807"><ele>273.3333333333333</ele><time>2026-05-03T09:24:55.029Z</time></trkpt><trkpt lat="43.391721" lon="12.2525114"><ele>273.66666666666663</ele><time>2026-05-03T09:24:56.029Z</time></trkpt><trkpt lat="43.3915509" lon="12.2525427"><ele>274.0</ele><time>2026-05-03T09:24:57.029Z</time></trkpt><trkpt lat="43.3913791" lon="12.2525733"><ele>274.0</ele><time>2026-05-03T09:24:58.03Z</time></trkpt><trkpt lat="43.3912022" lon="12.2526039"><ele>274.0</ele><time>2026-05-03T09:24:59.029Z</time></trkpt><trkpt lat="43.3910176" lon="12.2526406"><ele>274.0</ele><time>2026-05-03T09:25:00.029Z</time></trkpt><trkpt lat="43.3908264" lon="12.2526753"><ele>274.0</ele><time>2026-05-03T09:25:01.03Z</time></trkpt><trkpt lat="43.3906307" lon="12.2527151"><ele>274.0</ele><time>2026-05-03T09:25:02.029Z</time></trkpt><trkpt lat="43.3904343" lon="12.2527623"><ele>274.0</ele><time>2026-05-03T09:25:03.029Z</time></trkpt><trkpt lat="43.3902362" lon="12.2528023"><ele>274.3333333333333</ele><time>2026-05-03T09:25:04.029Z</time></trkpt><trkpt lat="43.3900417" lon="12.2528391"><ele>274.6666666666667</ele><time>2026-05-03T09:25:05.03Z</time></trkpt><trkpt lat="43.3898509" lon="12.2528776"><ele>275.0</ele><time>2026-05-03T09:25:06.029Z</time></trkpt><trkpt lat="43.3896633" lon="12.2529171"><ele>274.0</ele><time>2026-05-03T09:25:07.029Z</time></trkpt><trkpt lat="43.3894723" lon="12.2529611"><ele>273.0</ele><time>2026-05-03T09:25:08.029Z</time></trkpt><trkpt lat="43.3892783" lon="12.2529985"><ele>272.0</ele><time>2026-05-03T09:25:09.029Z</time></trkpt><trkpt lat="43.3890802" lon="12.2530379"><ele>272.0</ele><time>2026-05-03T09:25:10.029Z</time></trkpt><trkpt lat="43.3888787" lon="12.2530773"><ele>272.0</ele><time>2026-05-03T09:25:11.029Z</time></trkpt><trkpt lat="43.3886789" lon="12.2531184"><ele>272.0</ele><time>2026-05-03T09:25:12.029Z</time></trkpt><trkpt lat="43.3884901" lon="12.2531604"><ele>271.33333333333337</ele><time>2026-05-03T09:25:13.029Z</time></trkpt><trkpt lat="43.3883113" lon="12.2531947"><ele>270.6666666666667</ele><time>2026-05-03T09:25:14.029Z</time></trkpt><trkpt lat="43.3881331" lon="12.2532318"><ele>270.0</ele><time>2026-05-03T09:25:15.029Z</time></trkpt><trkpt lat="43.3879604" lon="12.2532697"><ele>269.3333333333333</ele><time>2026-05-03T09:25:16.029Z</time></trkpt><trkpt lat="43.3877926" lon="12.2533016"><ele>268.66666666666663</ele><time>2026-05-03T09:25:17.03Z</time></trkpt><trkpt lat="43.3876249" lon="12.2533321"><ele>268.0</ele><time>2026-05-03T09:25:18.029Z</time></trkpt><trkpt lat="43.3874569" lon="12.2533648"><ele>268.0</ele><time>2026-05-03T09:25:19.029Z</time></trkpt><trkpt lat="43.3872876" lon="12.253402"><ele>268.0</ele><time>2026-05-03T09:25:20.029Z</time></trkpt><trkpt lat="43.3871204" lon="12.2534381"><ele>268.0</ele><time>2026-05-03T09:25:21.029Z</time></trkpt><trkpt lat="43.3869468" lon="12.2534775"><ele>268.0</ele><time>2026-05-03T09:25:22.029Z</time></trkpt><trkpt lat="43.3867731" lon="12.2535159"><ele>268.0</ele><time>2026-05-03T09:25:23.029Z</time></trkpt><trkpt lat="43.3866022" lon="12.2535504"><ele>268.0</ele><time>2026-05-03T09:25:24.029Z</time></trkpt><trkpt lat="43.3864293" lon="12.2535827"><ele>268.0</ele><time>2026-05-03T09:25:25.03Z</time></trkpt><trkpt lat="43.3862554" lon="12.2536146"><ele>268.0</ele><time>2026-05-03T09:25:26.029Z</time></trkpt><trkpt lat="43.3860826" lon="12.2536534"><ele>268.0</ele><time>2026-05-03T09:25:27.029Z</time></trkpt><trkpt lat="43.3859111" lon="12.2536907"><ele>268.0</ele><time>2026-05-03T09:25:28.029Z</time></trkpt><trkpt lat="43.3857395" lon="12.2537307"><ele>268.0</ele><time>2026-05-03T09:25:29.029Z</time></trkpt><trkpt lat="43.3855683" lon="12.2537679"><ele>268.0</ele><time>2026-05-03T09:25:30.029Z</time></trkpt><trkpt lat="43.385397" lon="12.2538031"><ele>267.66666666666663</ele><time>2026-05-03T09:25:31.029Z</time></trkpt><trkpt lat="43.3852315" lon="12.2538329"><ele>267.3333333333333</ele><time>2026-05-03T09:25:32.029Z</time></trkpt><trkpt lat="43.3850671" lon="12.253865"><ele>267.0</ele><time>2026-05-03T09:25:33.03Z</time></trkpt><trkpt lat="43.3848998" lon="12.2538957"><ele>267.0</ele><time>2026-05-03T09:25:34.029Z</time></trkpt><trkpt lat="43.3847302" lon="12.2539364"><ele>267.0</ele><time>2026-05-03T09:25:35.03Z</time></trkpt><trkpt lat="43.3845553" lon="12.2539733"><ele>267.0</ele><time>2026-05-03T09:25:36.029Z</time></trkpt><trkpt lat="43.384378" lon="12.2540108"><ele>268.0</ele><time>2026-05-03T09:25:37.029Z</time></trkpt><trkpt lat="43.384201" lon="12.2540512"><ele>269.0</ele><time>2026-05-03T09:25:38.029Z</time></trkpt><trkpt lat="43.3840293" lon="12.2540887"><ele>270.0</ele><time>2026-05-03T09:25:39.029Z</time></trkpt><trkpt lat="43.3838578" lon="12.2541264"><ele>270.6666666666667</ele><time>2026-05-03T09:25:40.029Z</time></trkpt><trkpt lat="43.383696" lon="12.2541575"><ele>271.33333333333337</ele><time>2026-05-03T09:25:41.029Z</time></trkpt><trkpt lat="43.3835463" lon="12.2541867"><ele>272.0</ele><time>2026-05-03T09:25:42.029Z</time></trkpt><trkpt lat="43.383397" lon="12.2542153"><ele>272.0</ele><time>2026-05-03T09:25:43.029Z</time></trkpt><trkpt lat="43.3832479" lon="12.2542442"><ele>272.0</ele><time>2026-05-03T09:25:44.029Z</time></trkpt><trkpt lat="43.3830941" lon="12.2542737"><ele>272.0</ele><time>2026-05-03T09:25:45.029Z</time></trkpt><trkpt lat="43.3829339" lon="12.2543086"><ele>272.0</ele><time>2026-05-03T09:25:46.029Z</time></trkpt><trkpt lat="43.3827679" lon="12.2543396"><ele>272.0</ele><time>2026-05-03T09:25:47.029Z</time></trkpt><trkpt lat="43.3826003" lon="12.2543714"><ele>272.0</ele><time>2026-05-03T09:25:48.029Z</time></trkpt><trkpt lat="43.3824339" lon="12.2544033"><ele>272.0</ele><time>2026-05-03T09:25:49.03Z</time></trkpt><trkpt lat="43.3822692" lon="12.2544376"><ele>272.0</ele><time>2026-05-03T09:25:50.029Z</time></trkpt><trkpt lat="43.3821104" lon="12.2544673"><ele>272.0</ele><time>2026-05-03T09:25:51.029Z</time></trkpt><trkpt lat="43.3819631" lon="12.2544972"><ele>271.5</ele><time>2026-05-03T09:25:52.029Z</time></trkpt><trkpt lat="43.3818188" lon="12.2545269"><ele>271.0</ele><time>2026-05-03T09:25:53.029Z</time></trkpt><trkpt lat="43.3816782" lon="12.2545566"><ele>270.5</ele><time>2026-05-03T09:25:54.029Z</time></trkpt><trkpt lat="43.3815339" lon="12.2546005"><ele>270.0</ele><time>2026-05-03T09:25:55.029Z</time></trkpt><trkpt lat="43.3814015" lon="12.2546483"><ele>270.5</ele><time>2026-05-03T09:25:56.029Z</time></trkpt><trkpt lat="43.3812822" lon="12.2547075"><ele>271.0</ele><time>2026-05-03T09:25:57.029Z</time></trkpt><trkpt lat="43.3811635" lon="12.2547773"><ele>271.5</ele><time>2026-05-03T09:25:58.03Z</time></trkpt><trkpt lat="43.3810414" lon="12.2548567"><ele>272.0</ele><time>2026-05-03T09:25:59.029Z</time></trkpt><trkpt lat="43.380931" lon="12.2549339"><ele>272.5</ele><time>2026-05-03T09:26:00.029Z</time></trkpt><trkpt lat="43.380827" lon="12.2550056"><ele>273.0</ele><time>2026-05-03T09:26:01.029Z</time></trkpt><trkpt lat="43.3807128" lon="12.255086"><ele>273.5</ele><time>2026-05-03T09:26:02.029Z</time></trkpt><trkpt lat="43.3805947" lon="12.2551838"><ele>274.0</ele><time>2026-05-03T09:26:03.029Z</time></trkpt><trkpt lat="43.3804554" lon="12.2552904"><ele>274.66666666666663</ele><time>2026-05-03T09:26:04.029Z</time></trkpt><trkpt lat="43.3803016" lon="12.2554127"><ele>275.3333333333333</ele><time>2026-05-03T09:26:05.03Z</time></trkpt><trkpt lat="43.3801379" lon="12.2555506"><ele>276.0</ele><time>2026-05-03T09:26:06.029Z</time></trkpt><trkpt lat="43.3799603" lon="12.2556955"><ele>276.6666666666667</ele><time>2026-05-03T09:26:07.029Z</time></trkpt><trkpt lat="43.3797728" lon="12.2558444"><ele>277.33333333333337</ele><time>2026-05-03T09:26:08.03Z</time></trkpt><trkpt lat="43.3796001" lon="12.2559843"><ele>278.0</ele><time>2026-05-03T09:26:09.03Z</time></trkpt><trkpt lat="43.3794367" lon="12.2561126"><ele>278.33333333333337</ele><time>2026-05-03T09:26:10.029Z</time></trkpt><trkpt lat="43.3792866" lon="12.2562318"><ele>278.6666666666667</ele><time>2026-05-03T09:26:11.029Z</time></trkpt><trkpt lat="43.3791486" lon="12.2563464"><ele>279.0</ele><time>2026-05-03T09:26:12.029Z</time></trkpt><trkpt lat="43.3790125" lon="12.2564576"><ele>279.3333333333333</ele><time>2026-05-03T09:26:13.029Z</time></trkpt><trkpt lat="43.3788806" lon="12.2565659"><ele>279.66666666666663</ele><time>2026-05-03T09:26:14.029Z</time></trkpt><trkpt lat="43.3787464" lon="12.2566678"><ele>280.0</ele><time>2026-05-03T09:26:15.029Z</time></trkpt><trkpt lat="43.3786198" lon="12.2567729"><ele>280.0</ele><time>2026-05-03T09:26:16.029Z</time></trkpt><trkpt lat="43.3784913" lon="12.2568764"><ele>280.0</ele><time>2026-05-03T09:26:17.029Z</time></trkpt><trkpt lat="43.3783593" lon="12.2569782"><ele>280.0</ele><time>2026-05-03T09:26:18.029Z</time></trkpt><trkpt lat="43.3782301" lon="12.2570779"><ele>280.0</ele><time>2026-05-03T09:26:19.029Z</time></trkpt><trkpt lat="43.3781122" lon="12.2571699"><ele>280.25</ele><time>2026-05-03T09:26:20.029Z</time></trkpt><trkpt lat="43.3779983" lon="12.2572584"><ele>280.5</ele><time>2026-05-03T09:26:21.029Z</time></trkpt><trkpt lat="43.3778978" lon="12.257339"><ele>280.75</ele><time>2026-05-03T09:26:22.03Z</time></trkpt><trkpt lat="43.3778024" lon="12.2574166"><ele>281.0</ele><time>2026-05-03T09:26:23.029Z</time></trkpt><trkpt lat="43.3777144" lon="12.2574861"><ele>281.40000000000003</ele><time>2026-05-03T09:26:24.029Z</time></trkpt><trkpt lat="43.3776325" lon="12.2575436"><ele>281.8</ele><time>2026-05-03T09:26:25.03Z</time></trkpt><trkpt lat="43.3775526" lon="12.2575844"><ele>282.20000000000005</ele><time>2026-05-03T09:26:26.029Z</time></trkpt><trkpt lat="43.3774605" lon="12.2576003"><ele>282.6</ele><time>2026-05-03T09:26:27.029Z</time></trkpt><trkpt lat="43.3773616" lon="12.2575686"><ele>283.0</ele><time>2026-05-03T09:26:28.029Z</time></trkpt><trkpt lat="43.3772759" lon="12.2575091"><ele>283.0</ele><time>2026-05-03T09:26:29.029Z</time></trkpt><trkpt lat="43.3772125" lon="12.2574207"><ele>283.0</ele><time>2026-05-03T09:26:30.029Z</time></trkpt><trkpt lat="43.3771552" lon="12.2573093"><ele>283.0</ele><time>2026-05-03T09:26:31.03Z</time></trkpt><trkpt lat="43.3770903" lon="12.2571778"><ele>283.0</ele><time>2026-05-03T09:26:32.029Z</time></trkpt><trkpt lat="43.3770176" lon="12.2570364"><ele>283.0</ele><time>2026-05-03T09:26:33.029Z</time></trkpt><trkpt lat="43.376941" lon="12.2568783"><ele>282.25</ele><time>2026-05-03T09:26:34.029Z</time></trkpt><trkpt lat="43.376865" lon="12.2567158"><ele>281.5</ele><time>2026-05-03T09:26:35.03Z</time></trkpt><trkpt lat="43.3767896" lon="12.2565462"><ele>280.75</ele><time>2026-05-03T09:26:36.029Z</time></trkpt><trkpt lat="43.3767085" lon="12.2563711"><ele>280.0</ele><time>2026-05-03T09:26:37.029Z</time></trkpt><trkpt lat="43.3766233" lon="12.2561972"><ele>279.0</ele><time>2026-05-03T09:26:38.029Z</time></trkpt><trkpt lat="43.3765325" lon="12.2560259"><ele>278.0</ele><time>2026-05-03T09:26:39.029Z</time></trkpt><trkpt lat="43.3764429" lon="12.2558558"><ele>277.0</ele><time>2026-05-03T09:26:40.029Z</time></trkpt><trkpt lat="43.37636" lon="12.2556802"><ele>276.25</ele><time>2026-05-03T09:26:41.029Z</time></trkpt><trkpt lat="43.3762788" lon="12.2555002"><ele>275.5</ele><time>2026-05-03T09:26:42.029Z</time></trkpt><trkpt lat="43.3762055" lon="12.2553254"><ele>274.75</ele><time>2026-05-03T09:26:43.029Z</time></trkpt><trkpt lat="43.3761366" lon="12.2551648"><ele>274.0</ele><time>2026-05-03T09:26:44.029Z</time></trkpt><trkpt lat="43.3760794" lon="12.255002"><ele>274.0</ele><time>2026-05-03T09:26:45.029Z</time></trkpt><trkpt lat="43.3760296" lon="12.254824"><ele>274.0</ele><time>2026-05-03T09:26:46.029Z</time></trkpt><trkpt lat="43.3759968" lon="12.2546308"><ele>274.0</ele><time>2026-05-03T09:26:47.029Z</time></trkpt><trkpt lat="43.3759918" lon="12.254428"><ele>274.0</ele><time>2026-05-03T09:26:48.029Z</time></trkpt><trkpt lat="43.3760048" lon="12.2542279"><ele>273.3333333333333</ele><time>2026-05-03T09:26:49.029Z</time></trkpt><trkpt lat="43.376021" lon="12.2540182"><ele>272.6666666666667</ele><time>2026-05-03T09:26:50.029Z</time></trkpt><trkpt lat="43.3760352" lon="12.2538057"><ele>272.0</ele><time>2026-05-03T09:26:51.029Z</time></trkpt><trkpt lat="43.3760458" lon="12.2535915"><ele>272.0</ele><time>2026-05-03T09:26:52.029Z</time></trkpt><trkpt lat="43.3760534" lon="12.2533711"><ele>272.0</ele><time>2026-05-03T09:26:53.029Z</time></trkpt><trkpt lat="43.3760449" lon="12.2531518"><ele>272.0</ele><time>2026-05-03T09:26:54.029Z</time></trkpt><trkpt lat="43.3760184" lon="12.2529366"><ele>271.6666666666667</ele><time>2026-05-03T09:26:55.03Z</time></trkpt><trkpt lat="43.3759612" lon="12.2527181"><ele>271.3333333333333</ele><time>2026-05-03T09:26:56.029Z</time></trkpt><trkpt lat="43.3758811" lon="12.2524954"><ele>271.0</ele><time>2026-05-03T09:26:57.03Z</time></trkpt><trkpt lat="43.3757884" lon="12.2522576"><ele>271.0</ele><time>2026-05-03T09:26:58.029Z</time></trkpt><trkpt lat="43.3756856" lon="12.2520208"><ele>271.0</ele><time>2026-05-03T09:26:59.029Z</time></trkpt><trkpt lat="43.375575" lon="12.2517771"><ele>271.0</ele><time>2026-05-03T09:27:00.029Z</time></trkpt><trkpt lat="43.3754672" lon="12.2515356"><ele>269.66666666666663</ele><time>2026-05-03T09:27:01.029Z</time></trkpt><trkpt lat="43.3753647" lon="12.251293"><ele>268.3333333333333</ele><time>2026-05-03T09:27:02.029Z</time></trkpt><trkpt lat="43.3752591" lon="12.2510513"><ele>267.0</ele><time>2026-05-03T09:27:03.03Z</time></trkpt><trkpt lat="43.3751524" lon="12.2508155"><ele>265.6666666666667</ele><time>2026-05-03T09:27:04.029Z</time></trkpt><trkpt lat="43.3750519" lon="12.2505712"><ele>264.33333333333337</ele><time>2026-05-03T09:27:05.029Z</time></trkpt><trkpt lat="43.3749507" lon="12.2503328"><ele>263.0</ele><time>2026-05-03T09:27:06.029Z</time></trkpt><trkpt lat="43.3748488" lon="12.2501006"><ele>263.0</ele><time>2026-05-03T09:27:07.029Z</time></trkpt><trkpt lat="43.3747455" lon="12.249873"><ele>263.0</ele><time>2026-05-03T09:27:08.029Z</time></trkpt><trkpt lat="43.3746304" lon="12.2496502"><ele>263.0</ele><time>2026-05-03T09:27:09.029Z</time></trkpt><trkpt lat="43.3744963" lon="12.2494279"><ele>262.6666666666667</ele><time>2026-05-03T09:27:10.03Z</time></trkpt><trkpt lat="43.3743532" lon="12.2492106"><ele>262.3333333333333</ele><time>2026-05-03T09:27:11.029Z</time></trkpt><trkpt lat="43.3742136" lon="12.2490071"><ele>262.0</ele><time>2026-05-03T09:27:12.029Z</time></trkpt><trkpt lat="43.3740775" lon="12.2488191"><ele>261.66666666666663</ele><time>2026-05-03T09:27:13.029Z</time></trkpt><trkpt lat="43.3739518" lon="12.248648"><ele>261.3333333333333</ele><time>2026-05-03T09:27:14.029Z</time></trkpt><trkpt lat="43.3738367" lon="12.2485004"><ele>261.0</ele><time>2026-05-03T09:27:15.029Z</time></trkpt><trkpt lat="43.3737215" lon="12.2483873"><ele>260.5</ele><time>2026-05-03T09:27:16.029Z</time></trkpt><trkpt lat="43.3736109" lon="12.2482864"><ele>260.0</ele><time>2026-05-03T09:27:17.029Z</time></trkpt><trkpt lat="43.3735105" lon="12.2481909"><ele>259.5</ele><time>2026-05-03T09:27:18.029Z</time></trkpt><trkpt lat="43.3734064" lon="12.248078"><ele>259.0</ele><time>2026-05-03T09:27:19.029Z</time></trkpt><trkpt lat="43.3733015" lon="12.2479379"><ele>258.3333333333333</ele><time>2026-05-03T09:27:20.029Z</time></trkpt><trkpt lat="43.3732073" lon="12.2477731"><ele>257.6666666666667</ele><time>2026-05-03T09:27:21.029Z</time></trkpt><trkpt lat="43.3731189" lon="12.2475483"><ele>257.0</ele><time>2026-05-03T09:27:22.029Z</time></trkpt><trkpt lat="43.3730193" lon="12.2472705"><ele>256.5</ele><time>2026-05-03T09:27:23.03Z</time></trkpt><trkpt lat="43.3729039" lon="12.2469592"><ele>256.0</ele><time>2026-05-03T09:27:24.029Z</time></trkpt><trkpt lat="43.3727919" lon="12.2466458"><ele>256.5</ele><time>2026-05-03T09:27:25.029Z</time></trkpt><trkpt lat="43.3726861" lon="12.2463511"><ele>257.0</ele><time>2026-05-03T09:27:26.029Z</time></trkpt><trkpt lat="43.3725861" lon="12.246077"><ele>257.0</ele><time>2026-05-03T09:27:27.029Z</time></trkpt><trkpt lat="43.3724914" lon="12.2458174"><ele>257.0</ele><time>2026-05-03T09:27:28.029Z</time></trkpt><trkpt lat="43.3724018" lon="12.2455572"><ele>257.0</ele><time>2026-05-03T09:27:29.029Z</time></trkpt><trkpt lat="43.372308" lon="12.2452971"><ele>257.0</ele><time>2026-05-03T09:27:30.029Z</time></trkpt><trkpt lat="43.3722081" lon="12.2450347"><ele>257.0</ele><time>2026-05-03T09:27:31.029Z</time></trkpt><trkpt lat="43.3721104" lon="12.2447724"><ele>257.0</ele><time>2026-05-03T09:27:32.029Z</time></trkpt><trkpt lat="43.372021" lon="12.244505"><ele>257.0</ele><time>2026-05-03T09:27:33.029Z</time></trkpt><trkpt lat="43.3719353" lon="12.2442291"><ele>257.0</ele><time>2026-05-03T09:27:34.029Z</time></trkpt><trkpt lat="43.371849" lon="12.2439496"><ele>257.0</ele><time>2026-05-03T09:27:35.029Z</time></trkpt><trkpt lat="43.3717671" lon="12.2436678"><ele>257.33333333333337</ele><time>2026-05-03T09:27:36.029Z</time></trkpt><trkpt lat="43.3716901" lon="12.2433962"><ele>257.6666666666667</ele><time>2026-05-03T09:27:37.029Z</time></trkpt><trkpt lat="43.3716131" lon="12.2431334"><ele>258.0</ele><time>2026-05-03T09:27:38.029Z</time></trkpt><trkpt lat="43.3715391" lon="12.24288"><ele>258.0</ele><time>2026-05-03T09:27:39.029Z</time></trkpt><trkpt lat="43.3714696" lon="12.2426386"><ele>258.0</ele><time>2026-05-03T09:27:40.029Z</time></trkpt><trkpt lat="43.3713991" lon="12.2424108"><ele>258.0</ele><time>2026-05-03T09:27:41.03Z</time></trkpt><trkpt lat="43.3713377" lon="12.242188"><ele>258.3333333333333</ele><time>2026-05-03T09:27:42.029Z</time></trkpt><trkpt lat="43.3712839" lon="12.2419801"><ele>258.66666666666663</ele><time>2026-05-03T09:27:43.029Z</time></trkpt><trkpt lat="43.3712372" lon="12.2417678"><ele>259.0</ele><time>2026-05-03T09:27:44.029Z</time></trkpt><trkpt lat="43.3712009" lon="12.2415617"><ele>259.25</ele><time>2026-05-03T09:27:45.029Z</time></trkpt><trkpt lat="43.371171" lon="12.2413524"><ele>259.5</ele><time>2026-05-03T09:27:46.029Z</time></trkpt><trkpt lat="43.3711465" lon="12.2411517"><ele>259.75</ele><time>2026-05-03T09:27:47.029Z</time></trkpt><trkpt lat="43.3711242" lon="12.2409784"><ele>260.0</ele><time>2026-05-03T09:27:48.029Z</time></trkpt><trkpt lat="43.371105" lon="12.2408153"><ele>260.6666666666667</ele><time>2026-05-03T09:27:49.029Z</time></trkpt><trkpt lat="43.371079" lon="12.2406279"><ele>261.3333333333333</ele><time>2026-05-03T09:27:50.029Z</time></trkpt><trkpt lat="43.3710489" lon="12.2404197"><ele>262.0</ele><time>2026-05-03T09:27:51.029Z</time></trkpt><trkpt lat="43.3710219" lon="12.2402037"><ele>262.0</ele><time>2026-05-03T09:27:52.029Z</time></trkpt><trkpt lat="43.3709969" lon="12.2400084"><ele>262.0</ele><time>2026-05-03T09:27:53.029Z</time></trkpt><trkpt lat="43.3709744" lon="12.2398207"><ele>262.0</ele><time>2026-05-03T09:27:54.029Z</time></trkpt><trkpt lat="43.3709531" lon="12.2396465"><ele>262.0</ele><time>2026-05-03T09:27:55.029Z</time></trkpt><trkpt lat="43.3709248" lon="12.2394857"><ele>263.5</ele><time>2026-05-03T09:27:56.029Z</time></trkpt><trkpt lat="43.3708938" lon="12.2393299"><ele>265.0</ele><time>2026-05-03T09:27:57.029Z</time></trkpt><trkpt lat="43.3708499" lon="12.2391845"><ele>266.5</ele><time>2026-05-03T09:27:58.029Z</time></trkpt><trkpt lat="43.3707996" lon="12.2390535"><ele>268.0</ele><time>2026-05-03T09:27:59.029Z</time></trkpt><trkpt lat="43.3707415" lon="12.2389174"><ele>268.4</ele><time>2026-05-03T09:28:00.029Z</time></trkpt><trkpt lat="43.3706777" lon="12.2387837"><ele>268.8</ele><time>2026-05-03T09:28:01.029Z</time></trkpt><trkpt lat="43.3706084" lon="12.2386489"><ele>269.2</ele><time>2026-05-03T09:28:02.029Z</time></trkpt><trkpt lat="43.3705444" lon="12.2385272"><ele>269.6</ele><time>2026-05-03T09:28:03.029Z</time></trkpt><trkpt lat="43.3704871" lon="12.2384175"><ele>270.0</ele><time>2026-05-03T09:28:04.03Z</time></trkpt><trkpt lat="43.3704396" lon="12.2383226"><ele>270.0</ele><time>2026-05-03T09:28:05.029Z</time></trkpt><trkpt lat="43.3703978" lon="12.2382372"><ele>270.0</ele><time>2026-05-03T09:28:06.029Z</time></trkpt><trkpt lat="43.3703608" lon="12.2381546"><ele>270.0</ele><time>2026-05-03T09:28:07.03Z</time></trkpt><trkpt lat="43.3703197" lon="12.2380662"><ele>270.0</ele><time>2026-05-03T09:28:08.029Z</time></trkpt><trkpt lat="43.3702731" lon="12.2379713"><ele>270.0</ele><time>2026-05-03T09:28:09.029Z</time></trkpt><trkpt lat="43.3702276" lon="12.2378708"><ele>270.0</ele><time>2026-05-03T09:28:10.029Z</time></trkpt><trkpt lat="43.3701814" lon="12.2377668"><ele>270.3333333333333</ele><time>2026-05-03T09:28:11.03Z</time></trkpt><trkpt lat="43.3701418" lon="12.2376707"><ele>270.6666666666667</ele><time>2026-05-03T09:28:12.029Z</time></trkpt><trkpt lat="43.3700974" lon="12.2375306"><ele>271.0</ele><time>2026-05-03T09:28:14.029Z</time></trkpt><trkpt lat="43.3700617" lon="12.237441"><ele>271.33333333333337</ele><time>2026-05-03T09:28:17.03Z</time></trkpt><trkpt lat="43.3701453" lon="12.2374328"><ele>271.6666666666667</ele><time>2026-05-03T09:29:13.029Z</time></trkpt><trkpt lat="43.3702096" lon="12.2375197"><ele>272.0</ele><time>2026-05-03T09:29:15.029Z</time></trkpt><trkpt lat="43.3702106" lon="12.2376168"><ele>272.0</ele><time>2026-05-03T09:29:17.029Z</time></trkpt><trkpt lat="43.3701562" lon="12.2376804"><ele>272.0</ele><time>2026-05-03T09:29:20.029Z</time></trkpt><trkpt lat="43.3701598" lon="12.2378194"><ele>272.0</ele><time>2026-05-03T09:29:23.029Z</time></trkpt><trkpt lat="43.3701892" lon="12.2379289"><ele>272.0</ele><time>2026-05-03T09:29:25.029Z</time></trkpt><trkpt lat="43.3701746" lon="12.2380292"><ele>272.0</ele><time>2026-05-03T09:29:29.029Z</time></trkpt><trkpt lat="43.3701074" lon="12.2380715"><ele>272.0</ele><time>2026-05-03T09:29:31.029Z</time></trkpt><trkpt lat="43.3699979" lon="12.238039"><ele>272.0</ele><time>2026-05-03T09:29:33.029Z</time></trkpt><trkpt lat="43.3699278" lon="12.2380015"><ele>272.0</ele><time>2026-05-03T09:29:34.029Z</time></trkpt><trkpt lat="43.3698646" lon="12.2379593"><ele>272.0</ele><time>2026-05-03T09:29:35.029Z</time></trkpt><trkpt lat="43.3697938" lon="12.2379052"><ele>272.0</ele><time>2026-05-03T09:29:36.029Z</time></trkpt><trkpt lat="43.3697253" lon="12.2378532"><ele>272.0</ele><time>2026-05-03T09:29:37.029Z</time></trkpt><trkpt lat="43.3696487" lon="12.2377943"><ele>272.0</ele><time>2026-05-03T09:29:38.029Z</time></trkpt><trkpt lat="43.3695659" lon="12.237736"><ele>271.0</ele><time>2026-05-03T09:29:39.03Z</time></trkpt><trkpt lat="43.36948" lon="12.237679"><ele>270.0</ele><time>2026-05-03T09:29:40.029Z</time></trkpt><trkpt lat="43.3693976" lon="12.237623"><ele>269.0</ele><time>2026-05-03T09:29:41.029Z</time></trkpt><trkpt lat="43.369315" lon="12.2375658"><ele>268.0</ele><time>2026-05-03T09:29:42.029Z</time></trkpt><trkpt lat="43.3692283" lon="12.2375077"><ele>267.0</ele><time>2026-05-03T09:29:43.029Z</time></trkpt><trkpt lat="43.3691465" lon="12.2374502"><ele>267.0</ele><time>2026-05-03T09:29:44.029Z</time></trkpt><trkpt lat="43.369069" lon="12.2374021"><ele>267.0</ele><time>2026-05-03T09:29:45.029Z</time></trkpt><trkpt lat="43.3690018" lon="12.2373619"><ele>267.0</ele><time>2026-05-03T09:29:46.029Z</time></trkpt><trkpt lat="43.3689394" lon="12.2373174"><ele>267.0</ele><time>2026-05-03T09:29:47.03Z</time></trkpt><trkpt lat="43.3688276" lon="12.2372407"><ele>267.0</ele><time>2026-05-03T09:29:49.029Z</time></trkpt><trkpt lat="43.3687422" lon="12.2371915"><ele>267.0</ele><time>2026-05-03T09:29:51.029Z</time></trkpt><trkpt lat="43.3686827" lon="12.2371414"><ele>267.0</ele><time>2026-05-03T09:29:55.029Z</time></trkpt><trkpt lat="43.3685773" lon="12.2370716"><ele>267.0</ele><time>2026-05-03T09:29:58.029Z</time></trkpt><trkpt lat="43.3685146" lon="12.2370273"><ele>267.0</ele><time>2026-05-03T09:29:59.029Z</time></trkpt><trkpt lat="43.3684434" lon="12.2369849"><ele>267.0</ele><time>2026-05-03T09:30:00.029Z</time></trkpt><trkpt lat="43.3683541" lon="12.2369429"><ele>267.0</ele><time>2026-05-03T09:30:01.029Z</time></trkpt><trkpt lat="43.3682553" lon="12.236923"><ele>267.0</ele><time>2026-05-03T09:30:02.029Z</time></trkpt><trkpt lat="43.3681553" lon="12.2369121"><ele>267.0</ele><time>2026-05-03T09:30:03.029Z</time></trkpt><trkpt lat="43.3680542" lon="12.2369082"><ele>267.0</ele><time>2026-05-03T09:30:04.029Z</time></trkpt><trkpt lat="43.3679494" lon="12.2369164"><ele>267.0</ele><time>2026-05-03T09:30:05.03Z</time></trkpt><trkpt lat="43.367838" lon="12.2369327"><ele>267.0</ele><time>2026-05-03T09:30:06.03Z</time></trkpt><trkpt lat="43.3677339" lon="12.2369419"><ele>266.6</ele><time>2026-05-03T09:30:07.029Z</time></trkpt><trkpt lat="43.3676263" lon="12.2369542"><ele>266.2</ele><time>2026-05-03T09:30:08.029Z</time></trkpt><trkpt lat="43.3675198" lon="12.2369715"><ele>265.8</ele><time>2026-05-03T09:30:09.03Z</time></trkpt><trkpt lat="43.3674157" lon="12.2369872"><ele>265.4</ele><time>2026-05-03T09:30:10.029Z</time></trkpt><trkpt lat="43.3673144" lon="12.2370029"><ele>265.0</ele><time>2026-05-03T09:30:11.029Z</time></trkpt><trkpt lat="43.3672097" lon="12.2370172"><ele>264.8</ele><time>2026-05-03T09:30:12.029Z</time></trkpt><trkpt lat="43.367103" lon="12.2370279"><ele>264.6</ele><time>2026-05-03T09:30:13.029Z</time></trkpt><trkpt lat="43.3669896" lon="12.2370461"><ele>264.4</ele><time>2026-05-03T09:30:14.029Z</time></trkpt><trkpt lat="43.3668825" lon="12.2370559"><ele>264.2</ele><time>2026-05-03T09:30:15.029Z</time></trkpt><trkpt lat="43.3667784" lon="12.2370675"><ele>264.0</ele><time>2026-05-03T09:30:16.029Z</time></trkpt><trkpt lat="43.3666719" lon="12.2370793"><ele>264.0</ele><time>2026-05-03T09:30:17.029Z</time></trkpt><trkpt lat="43.366563" lon="12.2371033"><ele>264.0</ele><time>2026-05-03T09:30:18.029Z</time></trkpt><trkpt lat="43.3664476" lon="12.2371316"><ele>264.0</ele><time>2026-05-03T09:30:19.029Z</time></trkpt><trkpt lat="43.3663319" lon="12.2371508"><ele>264.0</ele><time>2026-05-03T09:30:20.029Z</time></trkpt><trkpt lat="43.366217" lon="12.2371655"><ele>263.5</ele><time>2026-05-03T09:30:21.03Z</time></trkpt><trkpt lat="43.3660987" lon="12.2371745"><ele>263.0</ele><time>2026-05-03T09:30:22.029Z</time></trkpt><trkpt lat="43.3659743" lon="12.2371902"><ele>262.5</ele><time>2026-05-03T09:30:23.029Z</time></trkpt><trkpt lat="43.3658485" lon="12.2372058"><ele>262.0</ele><time>2026-05-03T09:30:24.029Z</time></trkpt><trkpt lat="43.3657222" lon="12.2372235"><ele>262.0</ele><time>2026-05-03T09:30:25.029Z</time></trkpt><trkpt lat="43.3655982" lon="12.2372412"><ele>262.0</ele><time>2026-05-03T09:30:26.029Z</time></trkpt><trkpt lat="43.3654768" lon="12.2372559"><ele>262.0</ele><time>2026-05-03T09:30:27.029Z</time></trkpt><trkpt lat="43.3653602" lon="12.2372767"><ele>262.0</ele><time>2026-05-03T09:30:28.029Z</time></trkpt><trkpt lat="43.3652415" lon="12.237299"><ele>262.25</ele><time>2026-05-03T09:30:29.03Z</time></trkpt><trkpt lat="43.3651206" lon="12.2373125"><ele>262.5</ele><time>2026-05-03T09:30:30.029Z</time></trkpt><trkpt lat="43.3649986" lon="12.2373338"><ele>262.75</ele><time>2026-05-03T09:30:31.029Z</time></trkpt><trkpt lat="43.3648775" lon="12.2373471"><ele>263.0</ele><time>2026-05-03T09:30:32.029Z</time></trkpt><trkpt lat="43.3647594" lon="12.2373627"><ele>262.75</ele><time>2026-05-03T09:30:33.029Z</time></trkpt><trkpt lat="43.3646394" lon="12.237382"><ele>262.5</ele><time>2026-05-03T09:30:34.029Z</time></trkpt><trkpt lat="43.3645212" lon="12.2374004"><ele>262.25</ele><time>2026-05-03T09:30:35.029Z</time></trkpt><trkpt lat="43.3643998" lon="12.2374139"><ele>262.0</ele><time>2026-05-03T09:30:36.029Z</time></trkpt><trkpt lat="43.3642786" lon="12.2374287"><ele>262.0</ele><time>2026-05-03T09:30:37.029Z</time></trkpt><trkpt lat="43.3641583" lon="12.2374507"><ele>262.0</ele><time>2026-05-03T09:30:38.029Z</time></trkpt><trkpt lat="43.3640333" lon="12.2374711"><ele>262.0</ele><time>2026-05-03T09:30:39.029Z</time></trkpt><trkpt lat="43.3639055" lon="12.2374863"><ele>262.0</ele><time>2026-05-03T09:30:40.029Z</time></trkpt><trkpt lat="43.3637771" lon="12.2375085"><ele>261.75</ele><time>2026-05-03T09:30:41.029Z</time></trkpt><trkpt lat="43.3636417" lon="12.2375301"><ele>261.5</ele><time>2026-05-03T09:30:42.029Z</time></trkpt><trkpt lat="43.363505" lon="12.2375477"><ele>261.25</ele><time>2026-05-03T09:30:43.029Z</time></trkpt><trkpt lat="43.3633659" lon="12.2375707"><ele>261.0</ele><time>2026-05-03T09:30:44.029Z</time></trkpt><trkpt lat="43.3632226" lon="12.237585"><ele>261.0</ele><time>2026-05-03T09:30:45.03Z</time></trkpt><trkpt lat="43.3630749" lon="12.2376062"><ele>261.0</ele><time>2026-05-03T09:30:46.03Z</time></trkpt><trkpt lat="43.3629245" lon="12.2376341"><ele>261.0</ele><time>2026-05-03T09:30:47.029Z</time></trkpt><trkpt lat="43.3627895" lon="12.2376575"><ele>261.0</ele><time>2026-05-03T09:30:48.029Z</time></trkpt><trkpt lat="43.3626576" lon="12.2376722"><ele>260.8333333333333</ele><time>2026-05-03T09:30:49.029Z</time></trkpt><trkpt lat="43.3625466" lon="12.237653"><ele>260.6666666666667</ele><time>2026-05-03T09:30:50.029Z</time></trkpt><trkpt lat="43.3624523" lon="12.2376041"><ele>260.5</ele><time>2026-05-03T09:30:51.029Z</time></trkpt><trkpt lat="43.3623753" lon="12.2375532"><ele>260.33333333333337</ele><time>2026-05-03T09:30:52.029Z</time></trkpt><trkpt lat="43.3623042" lon="12.2375296"><ele>260.1666666666667</ele><time>2026-05-03T09:30:53.029Z</time></trkpt><trkpt lat="43.3622356" lon="12.2375516"><ele>260.0</ele><time>2026-05-03T09:30:54.03Z</time></trkpt><trkpt lat="43.3621587" lon="12.2376133"><ele>259.75</ele><time>2026-05-03T09:30:55.029Z</time></trkpt><trkpt lat="43.3620654" lon="12.2376847"><ele>259.5</ele><time>2026-05-03T09:30:56.029Z</time></trkpt><trkpt lat="43.3619466" lon="12.2377432"><ele>259.25</ele><time>2026-05-03T09:30:57.029Z</time></trkpt><trkpt lat="43.3618201" lon="12.2377817"><ele>259.0</ele><time>2026-05-03T09:30:58.029Z</time></trkpt><trkpt lat="43.3616775" lon="12.2378108"><ele>259.0</ele><time>2026-05-03T09:30:59.029Z</time></trkpt><trkpt lat="43.3615268" lon="12.2378343"><ele>259.0</ele><time>2026-05-03T09:31:00.029Z</time></trkpt><trkpt lat="43.3613796" lon="12.2378546"><ele>259.0</ele><time>2026-05-03T09:31:01.03Z</time></trkpt><trkpt lat="43.3612415" lon="12.2378707"><ele>259.0</ele><time>2026-05-03T09:31:02.029Z</time></trkpt><trkpt lat="43.3611109" lon="12.2378805"><ele>258.75</ele><time>2026-05-03T09:31:03.029Z</time></trkpt><trkpt lat="43.3609867" lon="12.2378799"><ele>258.5</ele><time>2026-05-03T09:31:04.029Z</time></trkpt><trkpt lat="43.3608628" lon="12.2378546"><ele>258.25</ele><time>2026-05-03T09:31:05.029Z</time></trkpt><trkpt lat="43.3607391" lon="12.2378144"><ele>258.0</ele><time>2026-05-03T09:31:06.03Z</time></trkpt><trkpt lat="43.3606125" lon="12.2377672"><ele>258.25</ele><time>2026-05-03T09:31:07.029Z</time></trkpt><trkpt lat="43.3604862" lon="12.237718"><ele>258.5</ele><time>2026-05-03T09:31:08.03Z</time></trkpt><trkpt lat="43.3603589" lon="12.2376662"><ele>258.75</ele><time>2026-05-03T09:31:09.029Z</time></trkpt><trkpt lat="43.3602307" lon="12.2376155"><ele>259.0</ele><time>2026-05-03T09:31:10.03Z</time></trkpt><trkpt lat="43.3601025" lon="12.2375613"><ele>259.0</ele><time>2026-05-03T09:31:11.029Z</time></trkpt><trkpt lat="43.3599824" lon="12.2375105"><ele>259.0</ele><time>2026-05-03T09:31:12.029Z</time></trkpt><trkpt lat="43.3598613" lon="12.2374632"><ele>259.0</ele><time>2026-05-03T09:31:13.029Z</time></trkpt><trkpt lat="43.3597439" lon="12.2374181"><ele>259.0</ele><time>2026-05-03T09:31:14.029Z</time></trkpt><trkpt lat="43.3596262" lon="12.2373734"><ele>259.0</ele><time>2026-05-03T09:31:15.029Z</time></trkpt><trkpt lat="43.3595111" lon="12.2373333"><ele>259.0</ele><time>2026-05-03T09:31:16.029Z</time></trkpt><trkpt lat="43.3593983" lon="12.2373036"><ele>259.0</ele><time>2026-05-03T09:31:17.029Z</time></trkpt><trkpt lat="43.3592741" lon="12.2372865"><ele>259.0</ele><time>2026-05-03T09:31:18.029Z</time></trkpt><trkpt lat="43.3591428" lon="12.2372675"><ele>259.0</ele><time>2026-05-03T09:31:19.029Z</time></trkpt><trkpt lat="43.3590207" lon="12.2372417"><ele>259.0</ele><time>2026-05-03T09:31:20.029Z</time></trkpt><trkpt lat="43.3588979" lon="12.2372088"><ele>259.0</ele><time>2026-05-03T09:31:21.029Z</time></trkpt><trkpt lat="43.3587791" lon="12.2371805"><ele>259.0</ele><time>2026-05-03T09:31:22.029Z</time></trkpt><trkpt lat="43.3586544" lon="12.2371765"><ele>258.66666666666663</ele><time>2026-05-03T09:31:23.029Z</time></trkpt><trkpt lat="43.3585126" lon="12.2371887"><ele>258.3333333333333</ele><time>2026-05-03T09:31:24.029Z</time></trkpt><trkpt lat="43.358358" lon="12.2372025"><ele>258.0</ele><time>2026-05-03T09:31:25.029Z</time></trkpt><trkpt lat="43.358203" lon="12.2372185"><ele>258.0</ele><time>2026-05-03T09:31:26.029Z</time></trkpt><trkpt lat="43.3580437" lon="12.2372363"><ele>258.0</ele><time>2026-05-03T09:31:27.029Z</time></trkpt><trkpt lat="43.357887" lon="12.2372517"><ele>258.0</ele><time>2026-05-03T09:31:28.029Z</time></trkpt><trkpt lat="43.357733" lon="12.2372662"><ele>258.25</ele><time>2026-05-03T09:31:29.029Z</time></trkpt><trkpt lat="43.3575826" lon="12.2372784"><ele>258.5</ele><time>2026-05-03T09:31:30.029Z</time></trkpt><trkpt lat="43.3574333" lon="12.2372852"><ele>258.75</ele><time>2026-05-03T09:31:31.03Z</time></trkpt><trkpt lat="43.3572883" lon="12.2373029"><ele>259.0</ele><time>2026-05-03T09:31:32.03Z</time></trkpt><trkpt lat="43.3571446" lon="12.2373201"><ele>259.0</ele><time>2026-05-03T09:31:33.029Z</time></trkpt><trkpt lat="43.3569994" lon="12.2373369"><ele>259.0</ele><time>2026-05-03T09:31:34.029Z</time></trkpt><trkpt lat="43.3568538" lon="12.237362"><ele>259.0</ele><time>2026-05-03T09:31:35.03Z</time></trkpt><trkpt lat="43.3567093" lon="12.2373798"><ele>259.0</ele><time>2026-05-03T09:31:36.03Z</time></trkpt><trkpt lat="43.3565628" lon="12.2374016"><ele>259.0</ele><time>2026-05-03T09:31:37.029Z</time></trkpt><trkpt lat="43.3564106" lon="12.2374183"><ele>259.0</ele><time>2026-05-03T09:31:38.029Z</time></trkpt><trkpt lat="43.3562592" lon="12.237441"><ele>259.0</ele><time>2026-05-03T09:31:39.029Z</time></trkpt><trkpt lat="43.3561026" lon="12.2374638"><ele>259.0</ele><time>2026-05-03T09:31:40.03Z</time></trkpt><trkpt lat="43.3559423" lon="12.2374894"><ele>259.0</ele><time>2026-05-03T09:31:41.029Z</time></trkpt><trkpt lat="43.3557837" lon="12.2375125"><ele>259.0</ele><time>2026-05-03T09:31:42.029Z</time></trkpt><trkpt lat="43.3556286" lon="12.2375369"><ele>259.5</ele><time>2026-05-03T09:31:43.029Z</time></trkpt><trkpt lat="43.3554865" lon="12.237564"><ele>260.0</ele><time>2026-05-03T09:31:44.03Z</time></trkpt><trkpt lat="43.3553435" lon="12.2375962"><ele>260.5</ele><time>2026-05-03T09:31:45.029Z</time></trkpt><trkpt lat="43.3552048" lon="12.2376579"><ele>261.0</ele><time>2026-05-03T09:31:46.029Z</time></trkpt><trkpt lat="43.3550775" lon="12.2377433"><ele>261.0</ele><time>2026-05-03T09:31:47.029Z</time></trkpt><trkpt lat="43.3549526" lon="12.237849"><ele>261.0</ele><time>2026-05-03T09:31:48.029Z</time></trkpt><trkpt lat="43.3548361" lon="12.2379552"><ele>261.0</ele><time>2026-05-03T09:31:49.029Z</time></trkpt><trkpt lat="43.3547309" lon="12.2380803"><ele>261.0</ele><time>2026-05-03T09:31:50.029Z</time></trkpt><trkpt lat="43.3546342" lon="12.2382193"><ele>262.5</ele><time>2026-05-03T09:31:51.029Z</time></trkpt><trkpt lat="43.3545486" lon="12.2383709"><ele>264.0</ele><time>2026-05-03T09:31:52.03Z</time></trkpt><trkpt lat="43.3544705" lon="12.238531"><ele>265.5</ele><time>2026-05-03T09:31:53.029Z</time></trkpt><trkpt lat="43.3544044" lon="12.2386957"><ele>267.0</ele><time>2026-05-03T09:31:54.03Z</time></trkpt><trkpt lat="43.3543569" lon="12.2388698"><ele>266.25</ele><time>2026-05-03T09:31:55.029Z</time></trkpt><trkpt lat="43.3543263" lon="12.2390591"><ele>265.5</ele><time>2026-05-03T09:31:56.029Z</time></trkpt><trkpt lat="43.3542971" lon="12.2392514"><ele>264.75</ele><time>2026-05-03T09:31:57.03Z</time></trkpt><trkpt lat="43.3542752" lon="12.2394576"><ele>264.0</ele><time>2026-05-03T09:31:58.029Z</time></trkpt><trkpt lat="43.3542542" lon="12.2396758"><ele>264.0</ele><time>2026-05-03T09:31:59.029Z</time></trkpt><trkpt lat="43.3542305" lon="12.2399024"><ele>264.0</ele><time>2026-05-03T09:32:00.029Z</time></trkpt><trkpt lat="43.3542042" lon="12.2401386"><ele>264.0</ele><time>2026-05-03T09:32:01.03Z</time></trkpt><trkpt lat="43.3541766" lon="12.2403861"><ele>264.6666666666667</ele><time>2026-05-03T09:32:02.029Z</time></trkpt><trkpt lat="43.3541529" lon="12.2406401"><ele>265.33333333333337</ele><time>2026-05-03T09:32:03.029Z</time></trkpt><trkpt lat="43.3541282" lon="12.2409065"><ele>266.0</ele><time>2026-05-03T09:32:04.029Z</time></trkpt><trkpt lat="43.3541017" lon="12.2411501"><ele>266.0</ele><time>2026-05-03T09:32:05.03Z</time></trkpt><trkpt lat="43.3540771" lon="12.2413865"><ele>266.0</ele><time>2026-05-03T09:32:06.029Z</time></trkpt><trkpt lat="43.3540538" lon="12.241625"><ele>266.0</ele><time>2026-05-03T09:32:07.029Z</time></trkpt><trkpt lat="43.3540318" lon="12.241857"><ele>266.0</ele><time>2026-05-03T09:32:08.029Z</time></trkpt><trkpt lat="43.3540079" lon="12.2420885"><ele>266.0</ele><time>2026-05-03T09:32:09.029Z</time></trkpt><trkpt lat="43.3539824" lon="12.2423301"><ele>266.0</ele><time>2026-05-03T09:32:10.029Z</time></trkpt><trkpt lat="43.3539561" lon="12.2425771"><ele>265.6666666666667</ele><time>2026-05-03T09:32:11.029Z</time></trkpt><trkpt lat="43.3539285" lon="12.242835"><ele>265.3333333333333</ele><time>2026-05-03T09:32:12.029Z</time></trkpt><trkpt lat="43.3538978" lon="12.2430969"><ele>265.0</ele><time>2026-05-03T09:32:13.029Z</time></trkpt><trkpt lat="43.353861" lon="12.2433644"><ele>268.66666666666663</ele><time>2026-05-03T09:32:14.029Z</time></trkpt><trkpt lat="43.3538203" lon="12.2436331"><ele>272.3333333333333</ele><time>2026-05-03T09:32:15.029Z</time></trkpt><trkpt lat="43.3537711" lon="12.243897"><ele>276.0</ele><time>2026-05-03T09:32:16.029Z</time></trkpt><trkpt lat="43.3537153" lon="12.2441406"><ele>276.0</ele><time>2026-05-03T09:32:17.029Z</time></trkpt><trkpt lat="43.353654" lon="12.2443686"><ele>276.0</ele><time>2026-05-03T09:32:18.029Z</time></trkpt><trkpt lat="43.3535957" lon="12.2445852"><ele>276.0</ele><time>2026-05-03T09:32:19.029Z</time></trkpt><trkpt lat="43.3535322" lon="12.2448012"><ele>273.0</ele><time>2026-05-03T09:32:20.029Z</time></trkpt><trkpt lat="43.3534619" lon="12.2450202"><ele>270.0</ele><time>2026-05-03T09:32:21.029Z</time></trkpt><trkpt lat="43.3533874" lon="12.245243"><ele>267.0</ele><time>2026-05-03T09:32:22.029Z</time></trkpt><trkpt lat="43.3533069" lon="12.2454779"><ele>265.6666666666667</ele><time>2026-05-03T09:32:23.03Z</time></trkpt><trkpt lat="43.3532236" lon="12.2457222"><ele>264.33333333333337</ele><time>2026-05-03T09:32:24.029Z</time></trkpt><trkpt lat="43.3531382" lon="12.2459775"><ele>263.0</ele><time>2026-05-03T09:32:25.029Z</time></trkpt><trkpt lat="43.3530494" lon="12.2462444"><ele>265.5</ele><time>2026-05-03T09:32:26.029Z</time></trkpt><trkpt lat="43.3529655" lon="12.2465345"><ele>268.0</ele><time>2026-05-03T09:32:27.029Z</time></trkpt><trkpt lat="43.3528829" lon="12.2468486"><ele>268.0</ele><time>2026-05-03T09:32:28.029Z</time></trkpt><trkpt lat="43.3528088" lon="12.2471608"><ele>268.0</ele><time>2026-05-03T09:32:29.029Z</time></trkpt><trkpt lat="43.3527312" lon="12.2474654"><ele>267.3333333333333</ele><time>2026-05-03T09:32:30.029Z</time></trkpt><trkpt lat="43.352667" lon="12.247764"><ele>266.6666666666667</ele><time>2026-05-03T09:32:31.029Z</time></trkpt><trkpt lat="43.3526077" lon="12.2480555"><ele>266.0</ele><time>2026-05-03T09:32:32.029Z</time></trkpt><trkpt lat="43.3525496" lon="12.2483392"><ele>265.6666666666667</ele><time>2026-05-03T09:32:33.029Z</time></trkpt><trkpt lat="43.3524931" lon="12.2486157"><ele>265.3333333333333</ele><time>2026-05-03T09:32:34.029Z</time></trkpt><trkpt lat="43.3524337" lon="12.2488881"><ele>265.0</ele><time>2026-05-03T09:32:35.029Z</time></trkpt><trkpt lat="43.3523814" lon="12.2491567"><ele>264.66666666666663</ele><time>2026-05-03T09:32:36.029Z</time></trkpt><trkpt lat="43.3523313" lon="12.2494218"><ele>264.3333333333333</ele><time>2026-05-03T09:32:37.029Z</time></trkpt><trkpt lat="43.3522848" lon="12.249686"><ele>264.0</ele><time>2026-05-03T09:32:38.029Z</time></trkpt><trkpt lat="43.3522379" lon="12.2499463"><ele>265.6666666666667</ele><time>2026-05-03T09:32:39.029Z</time></trkpt><trkpt lat="43.3521998" lon="12.2502096"><ele>267.33333333333337</ele><time>2026-05-03T09:32:40.029Z</time></trkpt><trkpt lat="43.3521733" lon="12.2504719"><ele>269.0</ele><time>2026-05-03T09:32:41.029Z</time></trkpt><trkpt lat="43.3521525" lon="12.2507344"><ele>269.0</ele><time>2026-05-03T09:32:42.029Z</time></trkpt><trkpt lat="43.3521353" lon="12.2510177"><ele>269.0</ele><time>2026-05-03T09:32:43.029Z</time></trkpt><trkpt lat="43.3521264" lon="12.2513111"><ele>269.0</ele><time>2026-05-03T09:32:44.03Z</time></trkpt><trkpt lat="43.3521184" lon="12.251627"><ele>269.0</ele><time>2026-05-03T09:32:45.029Z</time></trkpt><trkpt lat="43.3521093" lon="12.2519588"><ele>269.0</ele><time>2026-05-03T09:32:46.029Z</time></trkpt><trkpt lat="43.352095" lon="12.2523037"><ele>268.5</ele><time>2026-05-03T09:32:47.029Z</time></trkpt><trkpt lat="43.3520847" lon="12.2526243"><ele>268.0</ele><time>2026-05-03T09:32:48.029Z</time></trkpt><trkpt lat="43.3520746" lon="12.2529326"><ele>267.3333333333333</ele><time>2026-05-03T09:32:49.029Z</time></trkpt><trkpt lat="43.3520695" lon="12.2532266"><ele>266.6666666666667</ele><time>2026-05-03T09:32:50.029Z</time></trkpt><trkpt lat="43.3520613" lon="12.2535048"><ele>266.0</ele><time>2026-05-03T09:32:51.029Z</time></trkpt><trkpt lat="43.352048" lon="12.2537801"><ele>265.33333333333337</ele><time>2026-05-03T09:32:52.03Z</time></trkpt><trkpt lat="43.3520244" lon="12.2540523"><ele>264.6666666666667</ele><time>2026-05-03T09:32:53.029Z</time></trkpt><trkpt lat="43.3519831" lon="12.2543228"><ele>264.0</ele><time>2026-05-03T09:32:54.029Z</time></trkpt><trkpt lat="43.3519303" lon="12.2545987"><ele>263.0</ele><time>2026-05-03T09:32:55.029Z</time></trkpt><trkpt lat="43.3518697" lon="12.2548836"><ele>262.0</ele><time>2026-05-03T09:32:56.029Z</time></trkpt><trkpt lat="43.3517957" lon="12.2551787"><ele>261.0</ele><time>2026-05-03T09:32:57.029Z</time></trkpt><trkpt lat="43.3517247" lon="12.2554904"><ele>260.0</ele><time>2026-05-03T09:32:58.03Z</time></trkpt><trkpt lat="43.3516552" lon="12.2558121"><ele>259.0</ele><time>2026-05-03T09:32:59.029Z</time></trkpt><trkpt lat="43.3515777" lon="12.2561466"><ele>259.5</ele><time>2026-05-03T09:33:00.03Z</time></trkpt><trkpt lat="43.3515086" lon="12.2564606"><ele>260.0</ele><time>2026-05-03T09:33:01.029Z</time></trkpt><trkpt lat="43.3514465" lon="12.256766"><ele>260.0</ele><time>2026-05-03T09:33:02.029Z</time></trkpt><trkpt lat="43.3513895" lon="12.2570658"><ele>260.0</ele><time>2026-05-03T09:33:03.029Z</time></trkpt><trkpt lat="43.351341" lon="12.2573599"><ele>260.0</ele><time>2026-05-03T09:33:04.029Z</time></trkpt><trkpt lat="43.3512952" lon="12.2576604"><ele>262.0</ele><time>2026-05-03T09:33:05.029Z</time></trkpt><trkpt lat="43.3512441" lon="12.2579726"><ele>264.0</ele><time>2026-05-03T09:33:06.029Z</time></trkpt><trkpt lat="43.3512032" lon="12.2583017"><ele>264.0</ele><time>2026-05-03T09:33:07.029Z</time></trkpt><trkpt lat="43.3511607" lon="12.2586466"><ele>264.0</ele><time>2026-05-03T09:33:08.029Z</time></trkpt><trkpt lat="43.3511186" lon="12.2590098"><ele>262.5</ele><time>2026-05-03T09:33:09.029Z</time></trkpt><trkpt lat="43.351074" lon="12.2593831"><ele>261.0</ele><time>2026-05-03T09:33:10.029Z</time></trkpt><trkpt lat="43.3510316" lon="12.2597681"><ele>260.5</ele><time>2026-05-03T09:33:11.029Z</time></trkpt><trkpt lat="43.3509883" lon="12.2601581"><ele>260.0</ele><time>2026-05-03T09:33:12.029Z</time></trkpt><trkpt lat="43.3509475" lon="12.2605562"><ele>259.0</ele><time>2026-05-03T09:33:13.029Z</time></trkpt><trkpt lat="43.3509085" lon="12.260926"><ele>258.0</ele><time>2026-05-03T09:33:14.029Z</time></trkpt><trkpt lat="43.3508685" lon="12.2612806"><ele>257.0</ele><time>2026-05-03T09:33:15.029Z</time></trkpt><trkpt lat="43.3508307" lon="12.261617"><ele>256.0</ele><time>2026-05-03T09:33:16.029Z</time></trkpt><trkpt lat="43.3507913" lon="12.261947"><ele>256.0</ele><time>2026-05-03T09:33:17.029Z</time></trkpt><trkpt lat="43.3507522" lon="12.2622754"><ele>256.0</ele><time>2026-05-03T09:33:18.029Z</time></trkpt><trkpt lat="43.3507133" lon="12.2626063"><ele>255.5</ele><time>2026-05-03T09:33:19.029Z</time></trkpt><trkpt lat="43.3506731" lon="12.262942"><ele>255.0</ele><time>2026-05-03T09:33:20.03Z</time></trkpt><trkpt lat="43.350636" lon="12.2632658"><ele>255.0</ele><time>2026-05-03T09:33:21.029Z</time></trkpt><trkpt lat="43.3506018" lon="12.2635666"><ele>255.0</ele><time>2026-05-03T09:33:22.029Z</time></trkpt><trkpt lat="43.3505707" lon="12.2638557"><ele>255.0</ele><time>2026-05-03T09:33:23.029Z</time></trkpt><trkpt lat="43.3505373" lon="12.2641275"><ele>256.3333333333333</ele><time>2026-05-03T09:33:24.029Z</time></trkpt><trkpt lat="43.350509" lon="12.2643931"><ele>257.66666666666663</ele><time>2026-05-03T09:33:25.029Z</time></trkpt><trkpt lat="43.3504801" lon="12.2646445"><ele>259.0</ele><time>2026-05-03T09:33:26.03Z</time></trkpt><trkpt lat="43.350451" lon="12.264884"><ele>259.3333333333333</ele><time>2026-05-03T09:33:27.029Z</time></trkpt><trkpt lat="43.3504239" lon="12.2651257"><ele>259.6666666666667</ele><time>2026-05-03T09:33:28.029Z</time></trkpt><trkpt lat="43.3503962" lon="12.2653665"><ele>260.0</ele><time>2026-05-03T09:33:29.029Z</time></trkpt><trkpt lat="43.3503691" lon="12.2656113"><ele>260.33333333333337</ele><time>2026-05-03T09:33:30.03Z</time></trkpt><trkpt lat="43.3503415" lon="12.2658595"><ele>260.6666666666667</ele><time>2026-05-03T09:33:31.029Z</time></trkpt><trkpt lat="43.350315" lon="12.2661068"><ele>261.0</ele><time>2026-05-03T09:33:32.029Z</time></trkpt><trkpt lat="43.3502885" lon="12.266348"><ele>260.6666666666667</ele><time>2026-05-03T09:33:33.029Z</time></trkpt><trkpt lat="43.3502646" lon="12.2665713"><ele>260.33333333333337</ele><time>2026-05-03T09:33:34.029Z</time></trkpt><trkpt lat="43.3502305" lon="12.2667904"><ele>260.0</ele><time>2026-05-03T09:33:35.029Z</time></trkpt><trkpt lat="43.3501787" lon="12.2670286"><ele>260.0</ele><time>2026-05-03T09:33:36.029Z</time></trkpt><trkpt lat="43.3501131" lon="12.2672492"><ele>260.0</ele><time>2026-05-03T09:33:37.029Z</time></trkpt><trkpt lat="43.3500475" lon="12.267443"><ele>260.0</ele><time>2026-05-03T09:33:38.029Z</time></trkpt><trkpt lat="43.349983" lon="12.2676244"><ele>259.6</ele><time>2026-05-03T09:33:39.029Z</time></trkpt><trkpt lat="43.3499243" lon="12.267792"><ele>259.2</ele><time>2026-05-03T09:33:40.03Z</time></trkpt><trkpt lat="43.3498681" lon="12.2679416"><ele>258.8</ele><time>2026-05-03T09:33:41.029Z</time></trkpt><trkpt lat="43.3498304" lon="12.2680462"><ele>258.4</ele><time>2026-05-03T09:33:42.029Z</time></trkpt><trkpt lat="43.3497856" lon="12.268122"><ele>258.0</ele><time>2026-05-03T09:33:43.029Z</time></trkpt><trkpt lat="43.3497317" lon="12.2681848"><ele>258.5</ele><time>2026-05-03T09:33:44.029Z</time></trkpt><trkpt lat="43.3496754" lon="12.268268"><ele>259.0</ele><time>2026-05-03T09:33:45.03Z</time></trkpt><trkpt lat="43.3496361" lon="12.2683619"><ele>259.5</ele><time>2026-05-03T09:33:46.029Z</time></trkpt><trkpt lat="43.3496022" lon="12.2684649"><ele>260.0</ele><time>2026-05-03T09:33:47.029Z</time></trkpt><trkpt lat="43.3495688" lon="12.2685721"><ele>260.5</ele><time>2026-05-03T09:33:48.03Z</time></trkpt><trkpt lat="43.3495319" lon="12.2686834"><ele>261.0</ele><time>2026-05-03T09:33:49.029Z</time></trkpt><trkpt lat="43.3494922" lon="12.2687939"><ele>261.0</ele><time>2026-05-03T09:33:50.03Z</time></trkpt><trkpt lat="43.3494598" lon="12.2688979"><ele>261.0</ele><time>2026-05-03T09:33:51.029Z</time></trkpt><trkpt lat="43.3494336" lon="12.2689814"><ele>261.0</ele><time>2026-05-03T09:33:52.03Z</time></trkpt><trkpt lat="43.3493767" lon="12.2691072"><ele>261.0</ele><time>2026-05-03T09:33:54.029Z</time></trkpt><trkpt lat="43.3493165" lon="12.2691496"><ele>261.0</ele><time>2026-05-03T09:33:56.029Z</time></trkpt><trkpt lat="43.349236" lon="12.2691088"><ele>261.0</ele><time>2026-05-03T09:33:58.029Z</time></trkpt><trkpt lat="43.3491875" lon="12.2690492"><ele>261.0</ele><time>2026-05-03T09:33:59.029Z</time></trkpt><trkpt lat="43.3491296" lon="12.2689656"><ele>261.0</ele><time>2026-05-03T09:34:00.029Z</time></trkpt><trkpt lat="43.3490597" lon="12.2688704"><ele>261.0</ele><time>2026-05-03T09:34:01.029Z</time></trkpt><trkpt lat="43.3489985" lon="12.2687827"><ele>261.0</ele><time>2026-05-03T09:34:02.029Z</time></trkpt><trkpt lat="43.3489444" lon="12.2687033"><ele>261.0</ele><time>2026-05-03T09:34:03.029Z</time></trkpt><trkpt lat="43.3488973" lon="12.2686289"><ele>261.0</ele><time>2026-05-03T09:34:04.029Z</time></trkpt><trkpt lat="43.3488164" lon="12.2685192"><ele>261.6</ele><time>2026-05-03T09:34:06.029Z</time></trkpt><trkpt lat="43.3487141" lon="12.2683941"><ele>262.20000000000005</ele><time>2026-05-03T09:34:08.029Z</time></trkpt><trkpt lat="43.3486472" lon="12.2683157"><ele>262.79999999999995</ele><time>2026-05-03T09:34:09.029Z</time></trkpt><trkpt lat="43.3485694" lon="12.268228"><ele>263.4</ele><time>2026-05-03T09:34:10.03Z</time></trkpt><trkpt lat="43.3484897" lon="12.2681409"><ele>264.0</ele><time>2026-05-03T09:34:11.03Z</time></trkpt><trkpt lat="43.3484086" lon="12.2680543"><ele>264.0</ele><time>2026-05-03T09:34:12.029Z</time></trkpt><trkpt lat="43.348331" lon="12.2679655"><ele>264.0</ele><time>2026-05-03T09:34:13.029Z</time></trkpt><trkpt lat="43.3482727" lon="12.2678783"><ele>264.0</ele><time>2026-05-03T09:34:14.029Z</time></trkpt><trkpt lat="43.3482259" lon="12.2677963"><ele>264.0</ele><time>2026-05-03T09:34:15.029Z</time></trkpt><trkpt lat="43.3481798" lon="12.2677181"><ele>264.0</ele><time>2026-05-03T09:34:16.029Z</time></trkpt><trkpt lat="43.3481325" lon="12.2676334"><ele>264.0</ele><time>2026-05-03T09:34:17.029Z</time></trkpt><trkpt lat="43.3480845" lon="12.2675409"><ele>265.0</ele><time>2026-05-03T09:34:18.029Z</time></trkpt><trkpt lat="43.3480196" lon="12.2674568"><ele>266.0</ele><time>2026-05-03T09:34:19.029Z</time></trkpt><trkpt lat="43.3479488" lon="12.2673649"><ele>267.0</ele><time>2026-05-03T09:34:20.029Z</time></trkpt><trkpt lat="43.3478799" lon="12.2672736"><ele>268.0</ele><time>2026-05-03T09:34:21.029Z</time></trkpt><trkpt lat="43.3478065" lon="12.2671836"><ele>269.0</ele><time>2026-05-03T09:34:22.03Z</time></trkpt><trkpt lat="43.3477343" lon="12.2670968"><ele>269.2</ele><time>2026-05-03T09:34:23.029Z</time></trkpt><trkpt lat="43.3476659" lon="12.2670052"><ele>269.4</ele><time>2026-05-03T09:34:24.029Z</time></trkpt><trkpt lat="43.3475971" lon="12.2669204"><ele>269.6</ele><time>2026-05-03T09:34:25.029Z</time></trkpt><trkpt lat="43.3475314" lon="12.2668314"><ele>269.8</ele><time>2026-05-03T09:34:26.029Z</time></trkpt><trkpt lat="43.3474722" lon="12.2667436"><ele>270.0</ele><time>2026-05-03T09:34:27.029Z</time></trkpt><trkpt lat="43.347412" lon="12.2666624"><ele>270.0</ele><time>2026-05-03T09:34:28.029Z</time></trkpt><trkpt lat="43.3473573" lon="12.266589"><ele>270.0</ele><time>2026-05-03T09:34:29.03Z</time></trkpt><trkpt lat="43.3473105" lon="12.2665254"><ele>270.0</ele><time>2026-05-03T09:34:30.029Z</time></trkpt><trkpt lat="43.3472631" lon="12.2664598"><ele>270.0</ele><time>2026-05-03T09:34:31.029Z</time></trkpt><trkpt lat="43.3472212" lon="12.2663915"><ele>270.0</ele><time>2026-05-03T09:34:32.03Z</time></trkpt><trkpt lat="43.3471771" lon="12.2662477"><ele>270.0</ele><time>2026-05-03T09:34:34.029Z</time></trkpt><trkpt lat="43.347186" lon="12.2661318"><ele>270.0</ele><time>2026-05-03T09:34:36.029Z</time></trkpt><trkpt lat="43.3471369" lon="12.2661937"><ele>270.0</ele><time>2026-05-03T09:34:42.029Z</time></trkpt><trkpt lat="43.3471988" lon="12.2663474"><ele>270.0</ele><time>2026-05-03T09:34:44.029Z</time></trkpt><trkpt lat="43.3472642" lon="12.2664518"><ele>270.0</ele><time>2026-05-03T09:34:45.029Z</time></trkpt><trkpt lat="43.3473644" lon="12.2665847"><ele>270.0</ele><time>2026-05-03T09:34:46.029Z</time></trkpt><trkpt lat="43.3474497" lon="12.2667059"><ele>270.0</ele><time>2026-05-03T09:34:47.029Z</time></trkpt><trkpt lat="43.34754" lon="12.2668262"><ele>270.0</ele><time>2026-05-03T09:34:48.029Z</time></trkpt><trkpt lat="43.3476474" lon="12.2669669"><ele>270.0</ele><time>2026-05-03T09:34:49.029Z</time></trkpt><trkpt lat="43.3477647" lon="12.2671126"><ele>270.0</ele><time>2026-05-03T09:34:50.029Z</time></trkpt><trkpt lat="43.347868" lon="12.2672429"><ele>269.75</ele><time>2026-05-03T09:34:51.029Z</time></trkpt><trkpt lat="43.347965" lon="12.267367"><ele>269.5</ele><time>2026-05-03T09:34:52.03Z</time></trkpt><trkpt lat="43.3480577" lon="12.2674933"><ele>269.25</ele><time>2026-05-03T09:34:53.029Z</time></trkpt><trkpt lat="43.348141" lon="12.2676253"><ele>269.0</ele><time>2026-05-03T09:34:54.029Z</time></trkpt><trkpt lat="43.3482227" lon="12.2677598"><ele>268.25</ele><time>2026-05-03T09:34:55.029Z</time></trkpt><trkpt lat="43.348314" lon="12.2678845"><ele>267.5</ele><time>2026-05-03T09:34:56.029Z</time></trkpt><trkpt lat="43.3484138" lon="12.2680079"><ele>266.75</ele><time>2026-05-03T09:34:57.029Z</time></trkpt><trkpt lat="43.3485253" lon="12.2681349"><ele>266.0</ele><time>2026-05-03T09:34:58.029Z</time></trkpt><trkpt lat="43.3486308" lon="12.2682585"><ele>266.0</ele><time>2026-05-03T09:34:59.029Z</time></trkpt><trkpt lat="43.3487198" lon="12.2683839"><ele>266.0</ele><time>2026-05-03T09:35:00.029Z</time></trkpt><trkpt lat="43.3488052" lon="12.2684945"><ele>266.0</ele><time>2026-05-03T09:35:01.029Z</time></trkpt><trkpt lat="43.3488775" lon="12.2685953"><ele>266.0</ele><time>2026-05-03T09:35:02.029Z</time></trkpt><trkpt lat="43.3489448" lon="12.2686925"><ele>266.0</ele><time>2026-05-03T09:35:03.029Z</time></trkpt><trkpt lat="43.3490105" lon="12.2687913"><ele>265.5</ele><time>2026-05-03T09:35:04.029Z</time></trkpt><trkpt lat="43.3490792" lon="12.2688866"><ele>265.0</ele><time>2026-05-03T09:35:05.029Z</time></trkpt><trkpt lat="43.3491355" lon="12.2689654"><ele>264.5</ele><time>2026-05-03T09:35:06.029Z</time></trkpt><trkpt lat="43.3491874" lon="12.2690248"><ele>264.0</ele><time>2026-05-03T09:35:07.029Z</time></trkpt><trkpt lat="43.349279" lon="12.2691105"><ele>263.5</ele><time>2026-05-03T09:35:09.029Z</time></trkpt><trkpt lat="43.3493326" lon="12.2691791"><ele>263.0</ele><time>2026-05-03T09:35:11.029Z</time></trkpt><trkpt lat="43.3493295" lon="12.2693085"><ele>263.0</ele><time>2026-05-03T09:35:13.029Z</time></trkpt><trkpt lat="43.3492982" lon="12.2694207"><ele>263.0</ele><time>2026-05-03T09:35:14.029Z</time></trkpt><trkpt lat="43.3492759" lon="12.2695547"><ele>263.0</ele><time>2026-05-03T09:35:15.029Z</time></trkpt><trkpt lat="43.3492608" lon="12.2697002"><ele>263.0</ele><time>2026-05-03T09:35:16.029Z</time></trkpt><trkpt lat="43.3492465" lon="12.2698218"><ele>263.0</ele><time>2026-05-03T09:35:17.029Z</time></trkpt><trkpt lat="43.3492257" lon="12.2699289"><ele>263.0</ele><time>2026-05-03T09:35:18.029Z</time></trkpt><trkpt lat="43.3491725" lon="12.2700345"><ele>263.0</ele><time>2026-05-03T09:35:20.029Z</time></trkpt><trkpt lat="43.3491153" lon="12.2700781"><ele>263.0</ele><time>2026-05-03T09:35:28.029Z</time></trkpt><trkpt lat="43.3490374" lon="12.2700706"><ele>263.0</ele><time>2026-05-03T09:35:31.029Z</time></trkpt><trkpt lat="43.3489545" lon="12.270039"><ele>263.0</ele><time>2026-05-03T09:35:32.029Z</time></trkpt><trkpt lat="43.3488484" lon="12.2699946"><ele>263.0</ele><time>2026-05-03T09:35:33.03Z</time></trkpt><trkpt lat="43.3487243" lon="12.2699576"><ele>263.0</ele><time>2026-05-03T09:35:34.03Z</time></trkpt><trkpt lat="43.3485926" lon="12.2699192"><ele>263.0</ele><time>2026-05-03T09:35:35.029Z</time></trkpt><trkpt lat="43.3484653" lon="12.2698833"><ele>263.0</ele><time>2026-05-03T09:35:36.029Z</time></trkpt><trkpt lat="43.3483505" lon="12.2698466"><ele>263.0</ele><time>2026-05-03T09:35:37.03Z</time></trkpt><trkpt lat="43.3482275" lon="12.2698097"><ele>263.5</ele><time>2026-05-03T09:35:38.029Z</time></trkpt><trkpt lat="43.3480975" lon="12.2697698"><ele>264.0</ele><time>2026-05-03T09:35:39.029Z</time></trkpt><trkpt lat="43.3479669" lon="12.2697306"><ele>264.5</ele><time>2026-05-03T09:35:40.029Z</time></trkpt><trkpt lat="43.3478313" lon="12.2696906"><ele>265.0</ele><time>2026-05-03T09:35:41.029Z</time></trkpt><trkpt lat="43.3476751" lon="12.2696439"><ele>265.75</ele><time>2026-05-03T09:35:42.029Z</time></trkpt><trkpt lat="43.347517" lon="12.2695914"><ele>266.5</ele><time>2026-05-03T09:35:43.029Z</time></trkpt><trkpt lat="43.3473769" lon="12.2695439"><ele>267.25</ele><time>2026-05-03T09:35:44.029Z</time></trkpt><trkpt lat="43.3472454" lon="12.2695008"><ele>268.0</ele><time>2026-05-03T09:35:45.029Z</time></trkpt><trkpt lat="43.3471146" lon="12.2694581"><ele>269.5</ele><time>2026-05-03T09:35:46.029Z</time></trkpt><trkpt lat="43.3469886" lon="12.2694159"><ele>271.0</ele><time>2026-05-03T09:35:47.029Z</time></trkpt><trkpt lat="43.3468664" lon="12.2693756"><ele>272.5</ele><time>2026-05-03T09:35:48.029Z</time></trkpt><trkpt lat="43.3467545" lon="12.2693362"><ele>274.0</ele><time>2026-05-03T09:35:49.029Z</time></trkpt><trkpt lat="43.3466415" lon="12.2692955"><ele>274.0</ele><time>2026-05-03T09:35:50.029Z</time></trkpt><trkpt lat="43.3465283" lon="12.2692578"><ele>274.0</ele><time>2026-05-03T09:35:51.029Z</time></trkpt><trkpt lat="43.3464184" lon="12.2692155"><ele>274.0</ele><time>2026-05-03T09:35:52.029Z</time></trkpt><trkpt lat="43.3463083" lon="12.2691569"><ele>274.0</ele><time>2026-05-03T09:35:53.029Z</time></trkpt><trkpt lat="43.3462074" lon="12.2691038"><ele>275.8</ele><time>2026-05-03T09:35:54.029Z</time></trkpt><trkpt lat="43.3461225" lon="12.2690467"><ele>277.59999999999997</ele><time>2026-05-03T09:35:55.029Z</time></trkpt><trkpt lat="43.3460432" lon="12.26899"><ele>279.4</ele><time>2026-05-03T09:35:56.03Z</time></trkpt><trkpt lat="43.3459623" lon="12.2689249"><ele>281.2</ele><time>2026-05-03T09:35:57.029Z</time></trkpt><trkpt lat="43.3458908" lon="12.2688482"><ele>283.0</ele><time>2026-05-03T09:35:58.029Z</time></trkpt><trkpt lat="43.3458243" lon="12.2687691"><ele>283.4</ele><time>2026-05-03T09:35:59.029Z</time></trkpt><trkpt lat="43.3457645" lon="12.2686771"><ele>283.8</ele><time>2026-05-03T09:36:00.029Z</time></trkpt><trkpt lat="43.3457128" lon="12.2685743"><ele>284.2</ele><time>2026-05-03T09:36:01.029Z</time></trkpt><trkpt lat="43.3456664" lon="12.2684665"><ele>284.6</ele><time>2026-05-03T09:36:02.029Z</time></trkpt><trkpt lat="43.3456271" lon="12.268346"><ele>285.0</ele><time>2026-05-03T09:36:03.029Z</time></trkpt><trkpt lat="43.3455943" lon="12.2682149"><ele>284.8333333333333</ele><time>2026-05-03T09:36:04.029Z</time></trkpt><trkpt lat="43.3455626" lon="12.2680944"><ele>284.6666666666667</ele><time>2026-05-03T09:36:05.029Z</time></trkpt><trkpt lat="43.3455281" lon="12.2679802"><ele>284.5</ele><time>2026-05-03T09:36:06.03Z</time></trkpt><trkpt lat="43.3454858" lon="12.267879"><ele>284.33333333333337</ele><time>2026-05-03T09:36:07.029Z</time></trkpt><trkpt lat="43.3454357" lon="12.2677861"><ele>284.1666666666667</ele><time>2026-05-03T09:36:08.029Z</time></trkpt><trkpt lat="43.345364" lon="12.2677111"><ele>284.0</ele><time>2026-05-03T09:36:09.029Z</time></trkpt><trkpt lat="43.3452755" lon="12.2676449"><ele>287.75</ele><time>2026-05-03T09:36:10.029Z</time></trkpt><trkpt lat="43.3451633" lon="12.2675934"><ele>291.5</ele><time>2026-05-03T09:36:11.029Z</time></trkpt><trkpt lat="43.34505" lon="12.2675568"><ele>295.25</ele><time>2026-05-03T09:36:12.029Z</time></trkpt><trkpt lat="43.3449338" lon="12.2675316"><ele>299.0</ele><time>2026-05-03T09:36:13.029Z</time></trkpt><trkpt lat="43.3448352" lon="12.2675081"><ele>299.0</ele><time>2026-05-03T09:36:14.029Z</time></trkpt><trkpt lat="43.3447444" lon="12.2674798"><ele>299.0</ele><time>2026-05-03T09:36:15.03Z</time></trkpt><trkpt lat="43.3446621" lon="12.2674331"><ele>299.0</ele><time>2026-05-03T09:36:16.03Z</time></trkpt><trkpt lat="43.3445823" lon="12.2673889"><ele>299.0</ele><time>2026-05-03T09:36:17.029Z</time></trkpt><trkpt lat="43.3444887" lon="12.2673558"><ele>299.0</ele><time>2026-05-03T09:36:18.029Z</time></trkpt><trkpt lat="43.3443757" lon="12.2673452"><ele>301.0</ele><time>2026-05-03T09:36:19.029Z</time></trkpt><trkpt lat="43.344254" lon="12.2673623"><ele>303.0</ele><time>2026-05-03T09:36:20.029Z</time></trkpt><trkpt lat="43.344126" lon="12.2673689"><ele>305.0</ele><time>2026-05-03T09:36:21.029Z</time></trkpt><trkpt lat="43.3440083" lon="12.2673569"><ele>307.0</ele><time>2026-05-03T09:36:22.029Z</time></trkpt><trkpt lat="43.3438927" lon="12.2673373"><ele>308.25</ele><time>2026-05-03T09:36:23.029Z</time></trkpt><trkpt lat="43.3437798" lon="12.2672935"><ele>309.5</ele><time>2026-05-03T09:36:24.029Z</time></trkpt><trkpt lat="43.3436672" lon="12.2672198"><ele>310.75</ele><time>2026-05-03T09:36:25.029Z</time></trkpt><trkpt lat="43.343552" lon="12.2671401"><ele>312.0</ele><time>2026-05-03T09:36:26.029Z</time></trkpt><trkpt lat="43.3434378" lon="12.2670752"><ele>313.6</ele><time>2026-05-03T09:36:27.029Z</time></trkpt><trkpt lat="43.3433263" lon="12.2670231"><ele>315.2</ele><time>2026-05-03T09:36:28.029Z</time></trkpt><trkpt lat="43.3432177" lon="12.2669671"><ele>316.8</ele><time>2026-05-03T09:36:29.029Z</time></trkpt><trkpt lat="43.3431206" lon="12.2669252"><ele>318.4</ele><time>2026-05-03T09:36:30.029Z</time></trkpt><trkpt lat="43.3430234" lon="12.2668987"><ele>320.0</ele><time>2026-05-03T09:36:31.03Z</time></trkpt><trkpt lat="43.3429327" lon="12.2668755"><ele>322.0</ele><time>2026-05-03T09:36:32.029Z</time></trkpt><trkpt lat="43.3428332" lon="12.2668464"><ele>324.0</ele><time>2026-05-03T09:36:33.029Z</time></trkpt><trkpt lat="43.342724" lon="12.2668123"><ele>326.0</ele><time>2026-05-03T09:36:34.03Z</time></trkpt><trkpt lat="43.3426201" lon="12.2667661"><ele>328.0</ele><time>2026-05-03T09:36:35.029Z</time></trkpt><trkpt lat="43.3425347" lon="12.2667245"><ele>330.0</ele><time>2026-05-03T09:36:36.03Z</time></trkpt><trkpt lat="43.3424539" lon="12.2666959"><ele>330.0</ele><time>2026-05-03T09:36:37.029Z</time></trkpt><trkpt lat="43.3423602" lon="12.2666915"><ele>330.0</ele><time>2026-05-03T09:36:38.029Z</time></trkpt><trkpt lat="43.3422654" lon="12.2667046"><ele>330.0</ele><time>2026-05-03T09:36:39.029Z</time></trkpt><trkpt lat="43.3421685" lon="12.2667332"><ele>330.0</ele><time>2026-05-03T09:36:40.029Z</time></trkpt><trkpt lat="43.3420683" lon="12.2667517"><ele>330.0</ele><time>2026-05-03T09:36:41.03Z</time></trkpt><trkpt lat="43.3419681" lon="12.2667492"><ele>332.6666666666667</ele><time>2026-05-03T09:36:42.029Z</time></trkpt><trkpt lat="43.3418761" lon="12.2667387"><ele>335.3333333333333</ele><time>2026-05-03T09:36:43.029Z</time></trkpt><trkpt lat="43.3417894" lon="12.2667174"><ele>338.0</ele><time>2026-05-03T09:36:44.029Z</time></trkpt><trkpt lat="43.3417117" lon="12.2667118"><ele>340.66666666666663</ele><time>2026-05-03T09:36:45.029Z</time></trkpt><trkpt lat="43.3416385" lon="12.2667424"><ele>343.3333333333333</ele><time>2026-05-03T09:36:46.03Z</time></trkpt><trkpt lat="43.3415681" lon="12.266798"><ele>346.0</ele><time>2026-05-03T09:36:47.029Z</time></trkpt><trkpt lat="43.341495" lon="12.2668862"><ele>346.0</ele><time>2026-05-03T09:36:48.029Z</time></trkpt><trkpt lat="43.3414203" lon="12.2669724"><ele>346.0</ele><time>2026-05-03T09:36:49.029Z</time></trkpt><trkpt lat="43.3413387" lon="12.2670501"><ele>346.0</ele><time>2026-05-03T09:36:50.029Z</time></trkpt><trkpt lat="43.3412621" lon="12.2671192"><ele>346.0</ele><time>2026-05-03T09:36:51.029Z</time></trkpt><trkpt lat="43.3411683" lon="12.2671954"><ele>346.0</ele><time>2026-05-03T09:36:52.029Z</time></trkpt><trkpt lat="43.3410543" lon="12.267267"><ele>348.25</ele><time>2026-05-03T09:36:53.029Z</time></trkpt><trkpt lat="43.3409347" lon="12.2673394"><ele>350.5</ele><time>2026-05-03T09:36:54.029Z</time></trkpt><trkpt lat="43.340822" lon="12.267431"><ele>352.75</ele><time>2026-05-03T09:36:55.029Z</time></trkpt><trkpt lat="43.3407324" lon="12.2674947"><ele>355.0</ele><time>2026-05-03T09:36:56.03Z</time></trkpt><trkpt lat="43.34065" lon="12.2675486"><ele>355.0</ele><time>2026-05-03T09:36:57.029Z</time></trkpt><trkpt lat="43.3405881" lon="12.2675838"><ele>355.0</ele><time>2026-05-03T09:36:58.029Z</time></trkpt><trkpt lat="43.3405255" lon="12.2676054"><ele>355.0</ele><time>2026-05-03T09:36:59.029Z</time></trkpt><trkpt lat="43.3404128" lon="12.2675899"><ele>355.0</ele><time>2026-05-03T09:37:01.029Z</time></trkpt><trkpt lat="43.3403361" lon="12.267502"><ele>355.0</ele><time>2026-05-03T09:37:03.029Z</time></trkpt><trkpt lat="43.3403135" lon="12.2673483"><ele>361.5</ele><time>2026-05-03T09:37:05.029Z</time></trkpt><trkpt lat="43.3403212" lon="12.267249"><ele>368.0</ele><time>2026-05-03T09:37:06.029Z</time></trkpt><trkpt lat="43.340339" lon="12.267133"><ele>374.5</ele><time>2026-05-03T09:37:07.029Z</time></trkpt><trkpt lat="43.3403558" lon="12.2670088"><ele>381.0</ele><time>2026-05-03T09:37:08.029Z</time></trkpt><trkpt lat="43.3403816" lon="12.2668996"><ele>387.50000000000006</ele><time>2026-05-03T09:37:09.029Z</time></trkpt><trkpt lat="43.3404036" lon="12.2667953"><ele>394.0</ele><time>2026-05-03T09:37:10.029Z</time></trkpt><trkpt lat="43.3404288" lon="12.2667008"><ele>394.00000000000006</ele><time>2026-05-03T09:37:11.03Z</time></trkpt><trkpt lat="43.3404538" lon="12.2666078"><ele>394.0</ele><time>2026-05-03T09:37:12.029Z</time></trkpt><trkpt lat="43.3404962" lon="12.2665265"><ele>394.0</ele><time>2026-05-03T09:37:13.03Z</time></trkpt><trkpt lat="43.3405401" lon="12.26646"><ele>394.0</ele><time>2026-05-03T09:37:14.03Z</time></trkpt><trkpt lat="43.3405975" lon="12.2663674"><ele>394.00000000000006</ele><time>2026-05-03T09:37:16.029Z</time></trkpt><trkpt lat="43.3405762" lon="12.2662701"><ele>394.0</ele><time>2026-05-03T09:37:18.029Z</time></trkpt><trkpt lat="43.3404868" lon="12.2662484"><ele>394.0</ele><time>2026-05-03T09:37:20.029Z</time></trkpt><trkpt lat="43.3403653" lon="12.2663197"><ele>394.0</ele><time>2026-05-03T09:37:22.029Z</time></trkpt><trkpt lat="43.3402981" lon="12.2663881"><ele>394.0</ele><time>2026-05-03T09:37:23.029Z</time></trkpt><trkpt lat="43.3402211" lon="12.2664689"><ele>394.0</ele><time>2026-05-03T09:37:24.029Z</time></trkpt><trkpt lat="43.3401348" lon="12.2665575"><ele>394.0</ele><time>2026-05-03T09:37:25.029Z</time></trkpt><trkpt lat="43.3400534" lon="12.2666444"><ele>394.0</ele><time>2026-05-03T09:37:26.029Z</time></trkpt><trkpt lat="43.3399766" lon="12.2667189"><ele>394.0</ele><time>2026-05-03T09:37:27.029Z</time></trkpt><trkpt lat="43.3399094" lon="12.2667807"><ele>394.0</ele><time>2026-05-03T09:37:28.029Z</time></trkpt><trkpt lat="43.3398366" lon="12.2668658"><ele>394.0</ele><time>2026-05-03T09:37:30.029Z</time></trkpt><trkpt lat="43.3397495" lon="12.2669129"><ele>394.0</ele><time>2026-05-03T09:37:32.029Z</time></trkpt><trkpt lat="43.3396549" lon="12.2668435"><ele>396.00000000000006</ele><time>2026-05-03T09:37:34.029Z</time></trkpt><trkpt lat="43.3396042" lon="12.2667749"><ele>398.0</ele><time>2026-05-03T09:37:35.029Z</time></trkpt><trkpt lat="43.3395342" lon="12.2667095"><ele>400.0</ele><time>2026-05-03T09:37:37.029Z</time></trkpt><trkpt lat="43.3394633" lon="12.2666996"><ele>402.0</ele><time>2026-05-03T09:37:39.029Z</time></trkpt><trkpt lat="43.3393787" lon="12.2667532"><ele>404.00000000000006</ele><time>2026-05-03T09:37:41.029Z</time></trkpt><trkpt lat="43.3392657" lon="12.266808"><ele>406.0</ele><time>2026-05-03T09:37:43.029Z</time></trkpt><trkpt lat="43.3391913" lon="12.2668207"><ele>406.00000000000006</ele><time>2026-05-03T09:37:44.029Z</time></trkpt><trkpt lat="43.3391106" lon="12.2668268"><ele>406.0</ele><time>2026-05-03T09:37:45.029Z</time></trkpt><trkpt lat="43.3390326" lon="12.2668394"><ele>406.0</ele><time>2026-05-03T09:37:46.029Z</time></trkpt><trkpt lat="43.3389672" lon="12.2668471"><ele>406.0</ele><time>2026-05-03T09:37:47.029Z</time></trkpt><trkpt lat="43.3389013" lon="12.2668517"><ele>406.00000000000006</ele><time>2026-05-03T09:37:48.029Z</time></trkpt><trkpt lat="43.3388195" lon="12.2668155"><ele>406.0</ele><time>2026-05-03T09:37:50.029Z</time></trkpt><trkpt lat="43.3387312" lon="12.2667164"><ele>408.20000000000005</ele><time>2026-05-03T09:37:52.029Z</time></trkpt><trkpt lat="43.3386497" lon="12.2666546"><ele>410.40000000000003</ele><time>2026-05-03T09:37:54.029Z</time></trkpt><trkpt lat="43.3385414" lon="12.2666921"><ele>412.6</ele><time>2026-05-03T09:37:56.03Z</time></trkpt><trkpt lat="43.3384869" lon="12.2667588"><ele>414.8</ele><time>2026-05-03T09:37:57.029Z</time></trkpt><trkpt lat="43.3384175" lon="12.2668371"><ele>417.0</ele><time>2026-05-03T09:37:58.029Z</time></trkpt><trkpt lat="43.3383452" lon="12.266931"><ele>417.0</ele><time>2026-05-03T09:37:59.029Z</time></trkpt><trkpt lat="43.3382741" lon="12.267011"><ele>417.0</ele><time>2026-05-03T09:38:00.029Z</time></trkpt><trkpt lat="43.3382203" lon="12.2670614"><ele>417.0</ele><time>2026-05-03T09:38:01.029Z</time></trkpt><trkpt lat="43.3381555" lon="12.2671071"><ele>417.0</ele><time>2026-05-03T09:38:02.029Z</time></trkpt><trkpt lat="43.3380836" lon="12.2671401"><ele>417.0</ele><time>2026-05-03T09:38:03.029Z</time></trkpt><trkpt lat="43.3380101" lon="12.267165"><ele>417.0</ele><time>2026-05-03T09:38:04.029Z</time></trkpt><trkpt lat="43.3379281" lon="12.267188"><ele>419.5</ele><time>2026-05-03T09:38:05.029Z</time></trkpt><trkpt lat="43.3378399" lon="12.2671999"><ele>422.0</ele><time>2026-05-03T09:38:06.029Z</time></trkpt><trkpt lat="43.3377532" lon="12.2672233"><ele>424.5</ele><time>2026-05-03T09:38:07.029Z</time></trkpt><trkpt lat="43.337676" lon="12.2672435"><ele>427.0</ele><time>2026-05-03T09:38:08.029Z</time></trkpt><trkpt lat="43.3376093" lon="12.2672684"><ele>429.5</ele><time>2026-05-03T09:38:09.029Z</time></trkpt><trkpt lat="43.337516" lon="12.2673094"><ele>432.0</ele><time>2026-05-03T09:38:11.029Z</time></trkpt><trkpt lat="43.3374267" lon="12.2673895"><ele>433.8</ele><time>2026-05-03T09:38:13.029Z</time></trkpt><trkpt lat="43.3374032" lon="12.2675199"><ele>435.6</ele><time>2026-05-03T09:38:15.029Z</time></trkpt><trkpt lat="43.3373769" lon="12.2676045"><ele>437.40000000000003</ele><time>2026-05-03T09:38:18.029Z</time></trkpt><trkpt lat="43.3374002" lon="12.2674705"><ele>439.20000000000005</ele><time>2026-05-03T09:38:36.029Z</time></trkpt><trkpt lat="43.3374431" lon="12.2673566"><ele>441.0</ele><time>2026-05-03T09:38:38.029Z</time></trkpt><trkpt lat="43.3375237" lon="12.2672881"><ele>439.20000000000005</ele><time>2026-05-03T09:38:40.029Z</time></trkpt><trkpt lat="43.3376267" lon="12.267249"><ele>437.40000000000003</ele><time>2026-05-03T09:38:42.029Z</time></trkpt><trkpt lat="43.3377433" lon="12.2672047"><ele>435.6</ele><time>2026-05-03T09:38:44.029Z</time></trkpt><trkpt lat="43.3378466" lon="12.2671813"><ele>433.8</ele><time>2026-05-03T09:38:46.029Z</time></trkpt><trkpt lat="43.3379461" lon="12.2671666"><ele>432.0</ele><time>2026-05-03T09:38:48.029Z</time></trkpt><trkpt lat="43.3380513" lon="12.2671346"><ele>428.25</ele><time>2026-05-03T09:38:50.029Z</time></trkpt><trkpt lat="43.3381524" lon="12.2671009"><ele>424.5</ele><time>2026-05-03T09:38:52.029Z</time></trkpt><trkpt lat="43.3382476" lon="12.2670329"><ele>420.75</ele><time>2026-05-03T09:38:54.029Z</time></trkpt><trkpt lat="43.3383375" lon="12.2669311"><ele>417.0</ele><time>2026-05-03T09:38:56.03Z</time></trkpt><trkpt lat="43.3384249" lon="12.2668093"><ele>417.0</ele><time>2026-05-03T09:38:58.029Z</time></trkpt><trkpt lat="43.3384953" lon="12.2667015"><ele>417.0</ele><time>2026-05-03T09:39:00.029Z</time></trkpt><trkpt lat="43.3385658" lon="12.2666387"><ele>417.0</ele><time>2026-05-03T09:39:02.029Z</time></trkpt><trkpt lat="43.3386443" lon="12.266659"><ele>417.0</ele><time>2026-05-03T09:39:04.029Z</time></trkpt><trkpt lat="43.3387381" lon="12.2667429"><ele>417.0</ele><time>2026-05-03T09:39:06.029Z</time></trkpt><trkpt lat="43.3388364" lon="12.2668214"><ele>415.1666666666667</ele><time>2026-05-03T09:39:08.029Z</time></trkpt><trkpt lat="43.3389048" lon="12.2668246"><ele>413.33333333333337</ele><time>2026-05-03T09:39:09.029Z</time></trkpt><trkpt lat="43.3389752" lon="12.2668279"><ele>411.5</ele><time>2026-05-03T09:39:10.029Z</time></trkpt><trkpt lat="43.3390546" lon="12.2668232"><ele>409.6666666666667</ele><time>2026-05-03T09:39:11.029Z</time></trkpt><trkpt lat="43.3391245" lon="12.2668215"><ele>407.83333333333337</ele><time>2026-05-03T09:39:12.029Z</time></trkpt><trkpt lat="43.3392509" lon="12.2668123"><ele>406.0</ele><time>2026-05-03T09:39:14.029Z</time></trkpt><trkpt lat="43.3393117" lon="12.2667856"><ele>406.0</ele><time>2026-05-03T09:39:15.029Z</time></trkpt><trkpt lat="43.3393715" lon="12.2667546"><ele>406.0</ele><time>2026-05-03T09:39:16.029Z</time></trkpt><trkpt lat="43.3394555" lon="12.2666886"><ele>406.0</ele><time>2026-05-03T09:39:18.029Z</time></trkpt><trkpt lat="43.3395717" lon="12.2667212"><ele>406.0</ele><time>2026-05-03T09:39:20.029Z</time></trkpt><trkpt lat="43.3396599" lon="12.2668301"><ele>406.0</ele><time>2026-05-03T09:39:22.029Z</time></trkpt><trkpt lat="43.3397224" lon="12.2669018"><ele>404.00000000000006</ele><time>2026-05-03T09:39:24.029Z</time></trkpt><trkpt lat="43.3398018" lon="12.2668922"><ele>402.0</ele><time>2026-05-03T09:39:26.029Z</time></trkpt><trkpt lat="43.33988" lon="12.266796"><ele>400.0</ele><time>2026-05-03T09:39:28.029Z</time></trkpt><trkpt lat="43.3399793" lon="12.2666981"><ele>398.0</ele><time>2026-05-03T09:39:30.029Z</time></trkpt><trkpt lat="43.3400367" lon="12.2666428"><ele>396.00000000000006</ele><time>2026-05-03T09:39:31.03Z</time></trkpt><trkpt lat="43.3400942" lon="12.2665854"><ele>394.0</ele><time>2026-05-03T09:39:32.03Z</time></trkpt><trkpt lat="43.3401506" lon="12.2665239"><ele>394.0</ele><time>2026-05-03T09:39:33.029Z</time></trkpt><trkpt lat="43.3402049" lon="12.2664653"><ele>394.0</ele><time>2026-05-03T09:39:34.029Z</time></trkpt><trkpt lat="43.3402537" lon="12.2664071"><ele>394.0</ele><time>2026-05-03T09:39:35.029Z</time></trkpt><trkpt lat="43.3403038" lon="12.2663541"><ele>394.0</ele><time>2026-05-03T09:39:36.029Z</time></trkpt><trkpt lat="43.3403558" lon="12.2663028"><ele>394.0</ele><time>2026-05-03T09:39:37.029Z</time></trkpt><trkpt lat="43.3404433" lon="12.2662559"><ele>394.0</ele><time>2026-05-03T09:39:39.029Z</time></trkpt><trkpt lat="43.3405046" lon="12.2662212"><ele>394.0</ele><time>2026-05-03T09:39:41.029Z</time></trkpt><trkpt lat="43.3405677" lon="12.2662468"><ele>394.00000000000006</ele><time>2026-05-03T09:39:43.029Z</time></trkpt><trkpt lat="43.3405899" lon="12.2663346"><ele>394.0</ele><time>2026-05-03T09:39:45.03Z</time></trkpt><trkpt lat="43.340552" lon="12.2664401"><ele>394.0</ele><time>2026-05-03T09:39:47.029Z</time></trkpt><trkpt lat="43.3404722" lon="12.2665625"><ele>394.0</ele><time>2026-05-03T09:39:49.029Z</time></trkpt><trkpt lat="43.3404409" lon="12.2666487"><ele>394.00000000000006</ele><time>2026-05-03T09:39:50.029Z</time></trkpt><trkpt lat="43.3404158" lon="12.2667366"><ele>394.0</ele><time>2026-05-03T09:39:51.03Z</time></trkpt><trkpt lat="43.3403956" lon="12.2668285"><ele>394.00000000000006</ele><time>2026-05-03T09:39:52.03Z</time></trkpt><trkpt lat="43.340375" lon="12.2669258"><ele>394.0</ele><time>2026-05-03T09:39:53.029Z</time></trkpt><trkpt lat="43.3403557" lon="12.267024"><ele>394.0</ele><time>2026-05-03T09:39:54.029Z</time></trkpt><trkpt lat="43.3403391" lon="12.2671191"><ele>394.0</ele><time>2026-05-03T09:39:55.029Z</time></trkpt><trkpt lat="43.3403293" lon="12.267212"><ele>394.00000000000006</ele><time>2026-05-03T09:39:56.029Z</time></trkpt><trkpt lat="43.3403255" lon="12.2673662"><ele>394.0</ele><time>2026-05-03T09:39:58.029Z</time></trkpt><trkpt lat="43.3403355" lon="12.2674854"><ele>391.50000000000006</ele><time>2026-05-03T09:40:00.029Z</time></trkpt><trkpt lat="43.3403972" lon="12.2675799"><ele>389.0</ele><time>2026-05-03T09:40:02.029Z</time></trkpt><trkpt lat="43.3404905" lon="12.2676073"><ele>386.5</ele><time>2026-05-03T09:40:04.03Z</time></trkpt><trkpt lat="43.3405562" lon="12.2675996"><ele>384.0</ele><time>2026-05-03T09:40:05.029Z</time></trkpt><trkpt lat="43.3406317" lon="12.2675603"><ele>381.5</ele><time>2026-05-03T09:40:06.029Z</time></trkpt><trkpt lat="43.3407057" lon="12.2675132"><ele>379.0</ele><time>2026-05-03T09:40:07.029Z</time></trkpt><trkpt lat="43.3407782" lon="12.2674548"><ele>377.3333333333333</ele><time>2026-05-03T09:40:08.03Z</time></trkpt><trkpt lat="43.3408531" lon="12.2673931"><ele>375.66666666666663</ele><time>2026-05-03T09:40:09.03Z</time></trkpt><trkpt lat="43.3409325" lon="12.2673388"><ele>374.0</ele><time>2026-05-03T09:40:10.029Z</time></trkpt><trkpt lat="43.341016" lon="12.2672937"><ele>372.3333333333333</ele><time>2026-05-03T09:40:11.03Z</time></trkpt><trkpt lat="43.3410969" lon="12.2672493"><ele>370.6666666666667</ele><time>2026-05-03T09:40:12.029Z</time></trkpt><trkpt lat="43.3411751" lon="12.2671962"><ele>369.0</ele><time>2026-05-03T09:40:13.029Z</time></trkpt><trkpt lat="43.3412443" lon="12.2671397"><ele>369.0</ele><time>2026-05-03T09:40:14.029Z</time></trkpt><trkpt lat="43.3413136" lon="12.2670757"><ele>369.0</ele><time>2026-05-03T09:40:15.03Z</time></trkpt><trkpt lat="43.3413767" lon="12.2670107"><ele>369.0</ele><time>2026-05-03T09:40:16.029Z</time></trkpt><trkpt lat="43.3414331" lon="12.266953"><ele>369.0</ele><time>2026-05-03T09:40:17.029Z</time></trkpt><trkpt lat="43.3414874" lon="12.2668867"><ele>369.0</ele><time>2026-05-03T09:40:18.029Z</time></trkpt><trkpt lat="43.3415409" lon="12.266822"><ele>369.0</ele><time>2026-05-03T09:40:19.03Z</time></trkpt><trkpt lat="43.3415986" lon="12.2667642"><ele>369.0</ele><time>2026-05-03T09:40:20.029Z</time></trkpt><trkpt lat="43.341655" lon="12.2667161"><ele>365.1666666666667</ele><time>2026-05-03T09:40:21.029Z</time></trkpt><trkpt lat="43.3417194" lon="12.2667184"><ele>361.3333333333333</ele><time>2026-05-03T09:40:22.029Z</time></trkpt><trkpt lat="43.3417954" lon="12.2667243"><ele>357.5</ele><time>2026-05-03T09:40:23.029Z</time></trkpt><trkpt lat="43.3418743" lon="12.2667365"><ele>353.66666666666663</ele><time>2026-05-03T09:40:24.029Z</time></trkpt><trkpt lat="43.3419546" lon="12.2667567"><ele>349.8333333333333</ele><time>2026-05-03T09:40:25.029Z</time></trkpt><trkpt lat="43.3420297" lon="12.2667624"><ele>346.0</ele><time>2026-05-03T09:40:26.029Z</time></trkpt><trkpt lat="43.342107" lon="12.2667459"><ele>346.0</ele><time>2026-05-03T09:40:27.029Z</time></trkpt><trkpt lat="43.3421744" lon="12.2667292"><ele>346.0</ele><time>2026-05-03T09:40:28.029Z</time></trkpt><trkpt lat="43.3422377" lon="12.2667105"><ele>346.0</ele><time>2026-05-03T09:40:29.029Z</time></trkpt><trkpt lat="43.3423043" lon="12.2666915"><ele>346.0</ele><time>2026-05-03T09:40:30.029Z</time></trkpt><trkpt lat="43.342368" lon="12.2666826"><ele>346.0</ele><time>2026-05-03T09:40:31.029Z</time></trkpt><trkpt lat="43.342437" lon="12.2666806"><ele>346.0</ele><time>2026-05-03T09:40:32.029Z</time></trkpt><trkpt lat="43.3425038" lon="12.266701"><ele>346.0</ele><time>2026-05-03T09:40:33.029Z</time></trkpt><trkpt lat="43.3425798" lon="12.2667354"><ele>343.7142857142857</ele><time>2026-05-03T09:40:34.029Z</time></trkpt><trkpt lat="43.3426575" lon="12.2667698"><ele>341.42857142857144</ele><time>2026-05-03T09:40:35.029Z</time></trkpt><trkpt lat="43.3427369" lon="12.2667968"><ele>339.14285714285717</ele><time>2026-05-03T09:40:36.029Z</time></trkpt><trkpt lat="43.3428087" lon="12.2668248"><ele>336.8571428571429</ele><time>2026-05-03T09:40:37.029Z</time></trkpt><trkpt lat="43.3428773" lon="12.266847"><ele>334.57142857142856</ele><time>2026-05-03T09:40:38.03Z</time></trkpt><trkpt lat="43.3429446" lon="12.2668646"><ele>332.28571428571433</ele><time>2026-05-03T09:40:39.03Z</time></trkpt><trkpt lat="43.3430117" lon="12.2668863"><ele>330.0</ele><time>2026-05-03T09:40:40.029Z</time></trkpt><trkpt lat="43.343079" lon="12.2669085"><ele>328.3333333333333</ele><time>2026-05-03T09:40:41.029Z</time></trkpt><trkpt lat="43.3431501" lon="12.2669342"><ele>326.6666666666667</ele><time>2026-05-03T09:40:42.029Z</time></trkpt><trkpt lat="43.3432182" lon="12.2669641"><ele>325.0</ele><time>2026-05-03T09:40:43.029Z</time></trkpt><trkpt lat="43.3432882" lon="12.2669966"><ele>323.33333333333337</ele><time>2026-05-03T09:40:44.029Z</time></trkpt><trkpt lat="43.3433706" lon="12.2670364"><ele>321.6666666666667</ele><time>2026-05-03T09:40:45.029Z</time></trkpt><trkpt lat="43.3434612" lon="12.267082"><ele>320.0</ele><time>2026-05-03T09:40:46.029Z</time></trkpt><trkpt lat="43.3435559" lon="12.2671403"><ele>320.0</ele><time>2026-05-03T09:40:47.029Z</time></trkpt><trkpt lat="43.3436478" lon="12.2672063"><ele>320.0</ele><time>2026-05-03T09:40:48.029Z</time></trkpt><trkpt lat="43.3437375" lon="12.2672646"><ele>320.0</ele><time>2026-05-03T09:40:49.029Z</time></trkpt><trkpt lat="43.3438309" lon="12.2673075"><ele>320.0</ele><time>2026-05-03T09:40:50.029Z</time></trkpt><trkpt lat="43.3439312" lon="12.2673384"><ele>320.0</ele><time>2026-05-03T09:40:51.029Z</time></trkpt><trkpt lat="43.3440265" lon="12.2673523"><ele>317.83333333333337</ele><time>2026-05-03T09:40:52.029Z</time></trkpt><trkpt lat="43.3441206" lon="12.2673505"><ele>315.6666666666667</ele><time>2026-05-03T09:40:53.029Z</time></trkpt><trkpt lat="43.3442094" lon="12.2673443"><ele>313.5</ele><time>2026-05-03T09:40:54.029Z</time></trkpt><trkpt lat="43.3443003" lon="12.2673314"><ele>311.3333333333333</ele><time>2026-05-03T09:40:55.03Z</time></trkpt><trkpt lat="43.3443864" lon="12.2673298"><ele>309.16666666666663</ele><time>2026-05-03T09:40:56.029Z</time></trkpt><trkpt lat="43.3444645" lon="12.2673336"><ele>307.0</ele><time>2026-05-03T09:40:57.029Z</time></trkpt><trkpt lat="43.3445432" lon="12.2673597"><ele>307.0</ele><time>2026-05-03T09:40:58.029Z</time></trkpt><trkpt lat="43.3446173" lon="12.2674068"><ele>307.0</ele><time>2026-05-03T09:40:59.029Z</time></trkpt><trkpt lat="43.3446919" lon="12.2674508"><ele>307.0</ele><time>2026-05-03T09:41:00.029Z</time></trkpt><trkpt lat="43.3447665" lon="12.2674815"><ele>307.0</ele><time>2026-05-03T09:41:01.029Z</time></trkpt><trkpt lat="43.3448461" lon="12.2674942"><ele>307.0</ele><time>2026-05-03T09:41:02.029Z</time></trkpt><trkpt lat="43.3449275" lon="12.2675134"><ele>307.0</ele><time>2026-05-03T09:41:03.029Z</time></trkpt><trkpt lat="43.345009" lon="12.2675339"><ele>305.66666666666663</ele><time>2026-05-03T09:41:04.029Z</time></trkpt><trkpt lat="43.3450862" lon="12.267557"><ele>304.3333333333333</ele><time>2026-05-03T09:41:05.029Z</time></trkpt><trkpt lat="43.3451664" lon="12.2675848"><ele>303.0</ele><time>2026-05-03T09:41:06.029Z</time></trkpt><trkpt lat="43.3452387" lon="12.2676168"><ele>301.6666666666667</ele><time>2026-05-03T09:41:07.03Z</time></trkpt><trkpt lat="43.345306" lon="12.267651"><ele>300.33333333333337</ele><time>2026-05-03T09:41:08.029Z</time></trkpt><trkpt lat="43.3453687" lon="12.2676971"><ele>299.0</ele><time>2026-05-03T09:41:09.029Z</time></trkpt><trkpt lat="43.3454285" lon="12.2677602"><ele>299.0</ele><time>2026-05-03T09:41:10.029Z</time></trkpt><trkpt lat="43.3454822" lon="12.2678466"><ele>299.0</ele><time>2026-05-03T09:41:11.029Z</time></trkpt><trkpt lat="43.3455273" lon="12.2679648"><ele>299.0</ele><time>2026-05-03T09:41:12.029Z</time></trkpt><trkpt lat="43.3455626" lon="12.2680889"><ele>299.0</ele><time>2026-05-03T09:41:13.029Z</time></trkpt><trkpt lat="43.3455943" lon="12.268204"><ele>299.0</ele><time>2026-05-03T09:41:14.029Z</time></trkpt><trkpt lat="43.3456224" lon="12.2683135"><ele>296.6666666666667</ele><time>2026-05-03T09:41:15.029Z</time></trkpt><trkpt lat="43.345652" lon="12.2684159"><ele>294.33333333333337</ele><time>2026-05-03T09:41:16.029Z</time></trkpt><trkpt lat="43.345691" lon="12.2685247"><ele>292.0</ele><time>2026-05-03T09:41:17.03Z</time></trkpt><trkpt lat="43.3457259" lon="12.2686048"><ele>289.6666666666667</ele><time>2026-05-03T09:41:18.03Z</time></trkpt><trkpt lat="43.3457689" lon="12.2686937"><ele>287.3333333333333</ele><time>2026-05-03T09:41:19.029Z</time></trkpt><trkpt lat="43.3458304" lon="12.2687779"><ele>285.0</ele><time>2026-05-03T09:41:20.029Z</time></trkpt><trkpt lat="43.3458969" lon="12.268855"><ele>285.0</ele><time>2026-05-03T09:41:21.029Z</time></trkpt><trkpt lat="43.345984" lon="12.268934"><ele>285.0</ele><time>2026-05-03T09:41:22.029Z</time></trkpt><trkpt lat="43.3460802" lon="12.2690083"><ele>285.0</ele><time>2026-05-03T09:41:23.029Z</time></trkpt><trkpt lat="43.346188" lon="12.2690776"><ele>285.0</ele><time>2026-05-03T09:41:24.029Z</time></trkpt><trkpt lat="43.3462978" lon="12.269144"><ele>282.25</ele><time>2026-05-03T09:41:25.03Z</time></trkpt><trkpt lat="43.3464167" lon="12.2692053"><ele>279.5</ele><time>2026-05-03T09:41:26.029Z</time></trkpt><trkpt lat="43.3465404" lon="12.2692466"><ele>276.75</ele><time>2026-05-03T09:41:27.029Z</time></trkpt><trkpt lat="43.3466626" lon="12.2692866"><ele>274.0</ele><time>2026-05-03T09:41:28.03Z</time></trkpt><trkpt lat="43.3467852" lon="12.269332"><ele>274.0</ele><time>2026-05-03T09:41:29.029Z</time></trkpt><trkpt lat="43.3469053" lon="12.2693767"><ele>274.0</ele><time>2026-05-03T09:41:30.029Z</time></trkpt><trkpt lat="43.3470335" lon="12.269414"><ele>274.0</ele><time>2026-05-03T09:41:31.029Z</time></trkpt><trkpt lat="43.3471656" lon="12.2694567"><ele>274.0</ele><time>2026-05-03T09:41:32.029Z</time></trkpt><trkpt lat="43.3473032" lon="12.2695027"><ele>272.0</ele><time>2026-05-03T09:41:33.029Z</time></trkpt><trkpt lat="43.3474481" lon="12.269548"><ele>270.0</ele><time>2026-05-03T09:41:34.029Z</time></trkpt><trkpt lat="43.3475954" lon="12.2695957"><ele>268.0</ele><time>2026-05-03T09:41:35.029Z</time></trkpt><trkpt lat="43.3477468" lon="12.2696437"><ele>268.0</ele><time>2026-05-03T09:41:36.029Z</time></trkpt><trkpt lat="43.3479011" lon="12.269692"><ele>268.0</ele><time>2026-05-03T09:41:37.029Z</time></trkpt><trkpt lat="43.348053" lon="12.2697412"><ele>268.0</ele><time>2026-05-03T09:41:38.029Z</time></trkpt><trkpt lat="43.3481965" lon="12.2697857"><ele>266.75</ele><time>2026-05-03T09:41:39.03Z</time></trkpt><trkpt lat="43.3483313" lon="12.2698294"><ele>265.5</ele><time>2026-05-03T09:41:40.029Z</time></trkpt><trkpt lat="43.3484645" lon="12.269872"><ele>264.25</ele><time>2026-05-03T09:41:41.03Z</time></trkpt><trkpt lat="43.3485842" lon="12.2699065"><ele>263.0</ele><time>2026-05-03T09:41:42.029Z</time></trkpt><trkpt lat="43.3487005" lon="12.2699412"><ele>263.0</ele><time>2026-05-03T09:41:43.029Z</time></trkpt><trkpt lat="43.3488042" lon="12.2699705"><ele>263.0</ele><time>2026-05-03T09:41:44.029Z</time></trkpt><trkpt lat="43.3489015" lon="12.2699992"><ele>263.0</ele><time>2026-05-03T09:41:45.03Z</time></trkpt><trkpt lat="43.3489834" lon="12.2700278"><ele>263.0</ele><time>2026-05-03T09:41:46.029Z</time></trkpt><trkpt lat="43.3490509" lon="12.2700502"><ele>263.0</ele><time>2026-05-03T09:41:47.029Z</time></trkpt><trkpt lat="43.3491298" lon="12.2700524"><ele>263.0</ele><time>2026-05-03T09:41:49.029Z</time></trkpt><trkpt lat="43.3491966" lon="12.2699592"><ele>263.0</ele><time>2026-05-03T09:41:51.029Z</time></trkpt><trkpt lat="43.3492233" lon="12.2698532"><ele>263.0</ele><time>2026-05-03T09:41:52.03Z</time></trkpt><trkpt lat="43.3492407" lon="12.2697243"><ele>263.0</ele><time>2026-05-03T09:41:53.029Z</time></trkpt><trkpt lat="43.349262" lon="12.2695796"><ele>263.0</ele><time>2026-05-03T09:41:54.029Z</time></trkpt><trkpt lat="43.3492825" lon="12.2694395"><ele>263.0</ele><time>2026-05-03T09:41:55.029Z</time></trkpt><trkpt lat="43.349305" lon="12.2693434"><ele>263.0</ele><time>2026-05-03T09:41:56.03Z</time></trkpt><trkpt lat="43.3493403" lon="12.2692073"><ele>263.0</ele><time>2026-05-03T09:41:58.029Z</time></trkpt><trkpt lat="43.3493946" lon="12.2690341"><ele>263.0</ele><time>2026-05-03T09:42:00.029Z</time></trkpt><trkpt lat="43.3494312" lon="12.2689238"><ele>263.0</ele><time>2026-05-03T09:42:01.029Z</time></trkpt><trkpt lat="43.3494731" lon="12.2687991"><ele>263.0</ele><time>2026-05-03T09:42:02.029Z</time></trkpt><trkpt lat="43.3495246" lon="12.2686305"><ele>262.6</ele><time>2026-05-03T09:42:03.029Z</time></trkpt><trkpt lat="43.3495686" lon="12.2684926"><ele>262.20000000000005</ele><time>2026-05-03T09:42:04.029Z</time></trkpt><trkpt lat="43.3496123" lon="12.2683701"><ele>261.8</ele><time>2026-05-03T09:42:05.03Z</time></trkpt><trkpt lat="43.3496495" lon="12.2682787"><ele>261.40000000000003</ele><time>2026-05-03T09:42:06.029Z</time></trkpt><trkpt lat="43.3497281" lon="12.2682053"><ele>261.0</ele><time>2026-05-03T09:42:08.029Z</time></trkpt><trkpt lat="43.3497862" lon="12.2682624"><ele>260.6</ele><time>2026-05-03T09:42:10.029Z</time></trkpt><trkpt lat="43.3498095" lon="12.268349"><ele>260.20000000000005</ele><time>2026-05-03T09:42:11.029Z</time></trkpt><trkpt lat="43.3498377" lon="12.2684733"><ele>259.79999999999995</ele><time>2026-05-03T09:42:12.03Z</time></trkpt><trkpt lat="43.3498815" lon="12.2686284"><ele>259.4</ele><time>2026-05-03T09:42:13.029Z</time></trkpt><trkpt lat="43.3499433" lon="12.2688015"><ele>259.0</ele><time>2026-05-03T09:42:14.029Z</time></trkpt><trkpt lat="43.3499992" lon="12.2689631"><ele>259.0</ele><time>2026-05-03T09:42:15.029Z</time></trkpt><trkpt lat="43.3500448" lon="12.2691336"><ele>259.0</ele><time>2026-05-03T09:42:16.029Z</time></trkpt><trkpt lat="43.3500626" lon="12.2693222"><ele>259.0</ele><time>2026-05-03T09:42:17.029Z</time></trkpt><trkpt lat="43.3500522" lon="12.2695401"><ele>259.0</ele><time>2026-05-03T09:42:18.029Z</time></trkpt><trkpt lat="43.3500131" lon="12.2697872"><ele>258.66666666666663</ele><time>2026-05-03T09:42:19.03Z</time></trkpt><trkpt lat="43.3499651" lon="12.2700674"><ele>258.3333333333333</ele><time>2026-05-03T09:42:20.029Z</time></trkpt><trkpt lat="43.349912" lon="12.2703747"><ele>258.0</ele><time>2026-05-03T09:42:21.029Z</time></trkpt><trkpt lat="43.3498499" lon="12.2706854"><ele>258.0</ele><time>2026-05-03T09:42:22.029Z</time></trkpt><trkpt lat="43.3497816" lon="12.270965"><ele>258.0</ele><time>2026-05-03T09:42:23.029Z</time></trkpt><trkpt lat="43.3497132" lon="12.2712325"><ele>258.0</ele><time>2026-05-03T09:42:24.029Z</time></trkpt><trkpt lat="43.3496465" lon="12.2714785"><ele>258.6666666666667</ele><time>2026-05-03T09:42:25.029Z</time></trkpt><trkpt lat="43.3495788" lon="12.2717099"><ele>259.33333333333337</ele><time>2026-05-03T09:42:26.029Z</time></trkpt><trkpt lat="43.3495172" lon="12.2719263"><ele>260.0</ele><time>2026-05-03T09:42:27.029Z</time></trkpt><trkpt lat="43.3494604" lon="12.2721366"><ele>259.33333333333337</ele><time>2026-05-03T09:42:28.03Z</time></trkpt><trkpt lat="43.3494035" lon="12.2723619"><ele>258.6666666666667</ele><time>2026-05-03T09:42:29.029Z</time></trkpt><trkpt lat="43.3493472" lon="12.272608"><ele>258.0</ele><time>2026-05-03T09:42:30.029Z</time></trkpt><trkpt lat="43.3493001" lon="12.2728688"><ele>257.6666666666667</ele><time>2026-05-03T09:42:31.029Z</time></trkpt><trkpt lat="43.3492754" lon="12.2731289"><ele>257.33333333333337</ele><time>2026-05-03T09:42:32.029Z</time></trkpt><trkpt lat="43.3492488" lon="12.2733714"><ele>257.0</ele><time>2026-05-03T09:42:33.029Z</time></trkpt><trkpt lat="43.3492211" lon="12.2735975"><ele>257.0</ele><time>2026-05-03T09:42:34.03Z</time></trkpt><trkpt lat="43.3492009" lon="12.2738116"><ele>257.0</ele><time>2026-05-03T09:42:35.029Z</time></trkpt><trkpt lat="43.3491822" lon="12.2740156"><ele>257.0</ele><time>2026-05-03T09:42:36.029Z</time></trkpt><trkpt lat="43.3491586" lon="12.2742172"><ele>257.0</ele><time>2026-05-03T09:42:37.029Z</time></trkpt><trkpt lat="43.3491281" lon="12.2744304"><ele>257.0</ele><time>2026-05-03T09:42:38.029Z</time></trkpt><trkpt lat="43.3490813" lon="12.2746584"><ele>257.0</ele><time>2026-05-03T09:42:39.029Z</time></trkpt><trkpt lat="43.3490192" lon="12.2749133"><ele>255.33333333333334</ele><time>2026-05-03T09:42:40.029Z</time></trkpt><trkpt lat="43.3489398" lon="12.2751785"><ele>253.66666666666669</ele><time>2026-05-03T09:42:41.029Z</time></trkpt><trkpt lat="43.3488487" lon="12.2754647"><ele>252.0</ele><time>2026-05-03T09:42:42.03Z</time></trkpt><trkpt lat="43.3487474" lon="12.2757671"><ele>259.0</ele><time>2026-05-03T09:42:43.03Z</time></trkpt><trkpt lat="43.3486453" lon="12.2760747"><ele>266.0</ele><time>2026-05-03T09:42:44.029Z</time></trkpt><trkpt lat="43.3485444" lon="12.2763749"><ele>261.5</ele><time>2026-05-03T09:42:45.029Z</time></trkpt><trkpt lat="43.3484462" lon="12.2766759"><ele>257.0</ele><time>2026-05-03T09:42:46.029Z</time></trkpt><trkpt lat="43.3483509" lon="12.2769751"><ele>255.5</ele><time>2026-05-03T09:42:47.029Z</time></trkpt><trkpt lat="43.3482466" lon="12.2772869"><ele>254.0</ele><time>2026-05-03T09:42:48.029Z</time></trkpt><trkpt lat="43.3481374" lon="12.2776104"><ele>259.5</ele><time>2026-05-03T09:42:49.029Z</time></trkpt><trkpt lat="43.348026" lon="12.2779547"><ele>265.0</ele><time>2026-05-03T09:42:50.029Z</time></trkpt><trkpt lat="43.3479195" lon="12.2782685"><ele>265.0</ele><time>2026-05-03T09:42:51.029Z</time></trkpt><trkpt lat="43.3478069" lon="12.2785647"><ele>265.0</ele><time>2026-05-03T09:42:52.029Z</time></trkpt><trkpt lat="43.3476797" lon="12.2788594"><ele>261.0</ele><time>2026-05-03T09:42:53.029Z</time></trkpt><trkpt lat="43.3475396" lon="12.2791415"><ele>257.0</ele><time>2026-05-03T09:42:54.029Z</time></trkpt><trkpt lat="43.3473963" lon="12.2793964"><ele>257.0</ele><time>2026-05-03T09:42:55.029Z</time></trkpt><trkpt lat="43.3472648" lon="12.279636"><ele>257.0</ele><time>2026-05-03T09:42:56.03Z</time></trkpt><trkpt lat="43.3471261" lon="12.2798737"><ele>257.0</ele><time>2026-05-03T09:42:57.029Z</time></trkpt><trkpt lat="43.3469793" lon="12.2801071"><ele>259.5</ele><time>2026-05-03T09:42:58.029Z</time></trkpt><trkpt lat="43.3468121" lon="12.2803392"><ele>262.0</ele><time>2026-05-03T09:42:59.029Z</time></trkpt><trkpt lat="43.3466425" lon="12.2805754"><ele>259.5</ele><time>2026-05-03T09:43:00.029Z</time></trkpt><trkpt lat="43.3464654" lon="12.2808152"><ele>257.0</ele><time>2026-05-03T09:43:01.029Z</time></trkpt><trkpt lat="43.3462991" lon="12.2810379"><ele>258.6666666666667</ele><time>2026-05-03T09:43:02.029Z</time></trkpt><trkpt lat="43.3461436" lon="12.2812494"><ele>260.3333333333333</ele><time>2026-05-03T09:43:03.029Z</time></trkpt><trkpt lat="43.345999" lon="12.2814509"><ele>262.0</ele><time>2026-05-03T09:43:04.029Z</time></trkpt><trkpt lat="43.3458529" lon="12.2816423"><ele>262.0</ele><time>2026-05-03T09:43:05.029Z</time></trkpt><trkpt lat="43.3457048" lon="12.2818284"><ele>262.0</ele><time>2026-05-03T09:43:06.029Z</time></trkpt><trkpt lat="43.3455554" lon="12.282018"><ele>262.0</ele><time>2026-05-03T09:43:07.029Z</time></trkpt><trkpt lat="43.3453952" lon="12.2822051"><ele>262.3333333333333</ele><time>2026-05-03T09:43:08.029Z</time></trkpt><trkpt lat="43.3452318" lon="12.2823802"><ele>262.6666666666667</ele><time>2026-05-03T09:43:09.03Z</time></trkpt><trkpt lat="43.3450664" lon="12.2825489"><ele>263.0</ele><time>2026-05-03T09:43:10.029Z</time></trkpt><trkpt lat="43.3448925" lon="12.2827162"><ele>270.5</ele><time>2026-05-03T09:43:11.029Z</time></trkpt><trkpt lat="43.3447092" lon="12.2828842"><ele>278.0</ele><time>2026-05-03T09:43:12.029Z</time></trkpt><trkpt lat="43.3445146" lon="12.2830513"><ele>274.6666666666667</ele><time>2026-05-03T09:43:13.029Z</time></trkpt><trkpt lat="43.3443226" lon="12.2832055"><ele>271.3333333333333</ele><time>2026-05-03T09:43:14.029Z</time></trkpt><trkpt lat="43.3441458" lon="12.2833471"><ele>268.0</ele><time>2026-05-03T09:43:15.029Z</time></trkpt><trkpt lat="43.3439732" lon="12.2834836"><ele>268.0</ele><time>2026-05-03T09:43:16.029Z</time></trkpt><trkpt lat="43.3438124" lon="12.2836256"><ele>268.0</ele><time>2026-05-03T09:43:17.029Z</time></trkpt><trkpt lat="43.3436564" lon="12.2837782"><ele>268.0</ele><time>2026-05-03T09:43:18.029Z</time></trkpt><trkpt lat="43.3435076" lon="12.2839391"><ele>268.0</ele><time>2026-05-03T09:43:19.029Z</time></trkpt><trkpt lat="43.343355" lon="12.2841165"><ele>268.0</ele><time>2026-05-03T09:43:20.029Z</time></trkpt><trkpt lat="43.3432093" lon="12.2842815"><ele>268.0</ele><time>2026-05-03T09:43:21.029Z</time></trkpt><trkpt lat="43.3430774" lon="12.2844397"><ele>269.3333333333333</ele><time>2026-05-03T09:43:22.029Z</time></trkpt><trkpt lat="43.3429533" lon="12.2845982"><ele>270.6666666666667</ele><time>2026-05-03T09:43:23.029Z</time></trkpt><trkpt lat="43.3428399" lon="12.2847343"><ele>272.0</ele><time>2026-05-03T09:43:24.03Z</time></trkpt><trkpt lat="43.342744" lon="12.2848787"><ele>272.0</ele><time>2026-05-03T09:43:25.029Z</time></trkpt><trkpt lat="43.3426624" lon="12.2850393"><ele>272.0</ele><time>2026-05-03T09:43:26.029Z</time></trkpt><trkpt lat="43.3426153" lon="12.2852674"><ele>272.0</ele><time>2026-05-03T09:43:27.029Z</time></trkpt><trkpt lat="43.3425672" lon="12.2855093"><ele>270.6666666666667</ele><time>2026-05-03T09:43:28.029Z</time></trkpt><trkpt lat="43.3425252" lon="12.2857824"><ele>269.3333333333333</ele><time>2026-05-03T09:43:29.03Z</time></trkpt><trkpt lat="43.3424876" lon="12.2860481"><ele>268.0</ele><time>2026-05-03T09:43:30.029Z</time></trkpt><trkpt lat="43.3424574" lon="12.286296"><ele>267.66666666666663</ele><time>2026-05-03T09:43:31.029Z</time></trkpt><trkpt lat="43.3424411" lon="12.2865381"><ele>267.3333333333333</ele><time>2026-05-03T09:43:32.029Z</time></trkpt><trkpt lat="43.3424591" lon="12.2868031"><ele>267.0</ele><time>2026-05-03T09:43:33.029Z</time></trkpt><trkpt lat="43.342503" lon="12.2870795"><ele>268.3333333333333</ele><time>2026-05-03T09:43:34.029Z</time></trkpt><trkpt lat="43.3425513" lon="12.287325"><ele>269.66666666666663</ele><time>2026-05-03T09:43:35.029Z</time></trkpt><trkpt lat="43.3425985" lon="12.2875554"><ele>271.0</ele><time>2026-05-03T09:43:36.029Z</time></trkpt><trkpt lat="43.3426383" lon="12.2877678"><ele>271.0</ele><time>2026-05-03T09:43:37.029Z</time></trkpt><trkpt lat="43.3426614" lon="12.287968"><ele>271.0</ele><time>2026-05-03T09:43:38.03Z</time></trkpt><trkpt lat="43.3426607" lon="12.2881594"><ele>271.0</ele><time>2026-05-03T09:43:39.029Z</time></trkpt><trkpt lat="43.3426379" lon="12.2883599"><ele>271.0</ele><time>2026-05-03T09:43:40.029Z</time></trkpt><trkpt lat="43.3425833" lon="12.288583"><ele>271.66666666666663</ele><time>2026-05-03T09:43:41.03Z</time></trkpt><trkpt lat="43.3425175" lon="12.2888372"><ele>272.3333333333333</ele><time>2026-05-03T09:43:42.029Z</time></trkpt><trkpt lat="43.3424401" lon="12.2891177"><ele>273.0</ele><time>2026-05-03T09:43:43.029Z</time></trkpt><trkpt lat="43.3423592" lon="12.2894061"><ele>271.0</ele><time>2026-05-03T09:43:44.029Z</time></trkpt><trkpt lat="43.3422846" lon="12.2896748"><ele>269.0</ele><time>2026-05-03T09:43:45.029Z</time></trkpt><trkpt lat="43.3422157" lon="12.289933"><ele>267.0</ele><time>2026-05-03T09:43:46.029Z</time></trkpt><trkpt lat="43.3421576" lon="12.2901811"><ele>270.3333333333333</ele><time>2026-05-03T09:43:47.029Z</time></trkpt><trkpt lat="43.3420993" lon="12.2904116"><ele>273.66666666666663</ele><time>2026-05-03T09:43:48.029Z</time></trkpt><trkpt lat="43.3420406" lon="12.290627"><ele>277.0</ele><time>2026-05-03T09:43:49.029Z</time></trkpt><trkpt lat="43.3419885" lon="12.2908289"><ele>277.0</ele><time>2026-05-03T09:43:50.029Z</time></trkpt><trkpt lat="43.341941" lon="12.2910184"><ele>277.0</ele><time>2026-05-03T09:43:51.029Z</time></trkpt><trkpt lat="43.3418944" lon="12.2911937"><ele>277.0</ele><time>2026-05-03T09:43:52.03Z</time></trkpt><trkpt lat="43.3418552" lon="12.2913569"><ele>277.0</ele><time>2026-05-03T09:43:53.03Z</time></trkpt><trkpt lat="43.3418175" lon="12.2915122"><ele>275.6</ele><time>2026-05-03T09:43:54.029Z</time></trkpt><trkpt lat="43.3417726" lon="12.2916462"><ele>274.2</ele><time>2026-05-03T09:43:55.029Z</time></trkpt><trkpt lat="43.341731" lon="12.29177"><ele>272.8</ele><time>2026-05-03T09:43:56.029Z</time></trkpt><trkpt lat="43.341682" lon="12.2919041"><ele>271.4</ele><time>2026-05-03T09:43:57.029Z</time></trkpt><trkpt lat="43.3416268" lon="12.2920642"><ele>270.0</ele><time>2026-05-03T09:43:58.029Z</time></trkpt><trkpt lat="43.3415492" lon="12.2922634"><ele>268.3333333333333</ele><time>2026-05-03T09:43:59.029Z</time></trkpt><trkpt lat="43.3414639" lon="12.2924959"><ele>266.66666666666663</ele><time>2026-05-03T09:44:00.029Z</time></trkpt><trkpt lat="43.3413837" lon="12.292722"><ele>265.0</ele><time>2026-05-03T09:44:01.029Z</time></trkpt><trkpt lat="43.3412944" lon="12.2929469"><ele>267.0</ele><time>2026-05-03T09:44:02.03Z</time></trkpt><trkpt lat="43.3412018" lon="12.2931784"><ele>269.0</ele><time>2026-05-03T09:44:03.029Z</time></trkpt><trkpt lat="43.3411166" lon="12.2934023"><ele>271.0</ele><time>2026-05-03T09:44:04.029Z</time></trkpt><trkpt lat="43.3410298" lon="12.293629"><ele>271.0</ele><time>2026-05-03T09:44:05.029Z</time></trkpt><trkpt lat="43.3409435" lon="12.2938261"><ele>271.0</ele><time>2026-05-03T09:44:06.029Z</time></trkpt><trkpt lat="43.3408417" lon="12.2940031"><ele>271.0</ele><time>2026-05-03T09:44:07.029Z</time></trkpt><trkpt lat="43.3407145" lon="12.2941652"><ele>271.3333333333333</ele><time>2026-05-03T09:44:08.03Z</time></trkpt><trkpt lat="43.3405657" lon="12.2943089"><ele>271.6666666666667</ele><time>2026-05-03T09:44:09.029Z</time></trkpt><trkpt lat="43.3404005" lon="12.294436"><ele>272.0</ele><time>2026-05-03T09:44:10.029Z</time></trkpt><trkpt lat="43.3402242" lon="12.2945621"><ele>272.0</ele><time>2026-05-03T09:44:11.029Z</time></trkpt><trkpt lat="43.3400471" lon="12.2946841"><ele>272.0</ele><time>2026-05-03T09:44:12.029Z</time></trkpt><trkpt lat="43.3398651" lon="12.2948049"><ele>272.0</ele><time>2026-05-03T09:44:13.029Z</time></trkpt><trkpt lat="43.3396809" lon="12.2949317"><ele>270.33333333333337</ele><time>2026-05-03T09:44:14.029Z</time></trkpt><trkpt lat="43.3394966" lon="12.2950529"><ele>268.6666666666667</ele><time>2026-05-03T09:44:15.029Z</time></trkpt><trkpt lat="43.3393185" lon="12.2951842"><ele>267.0</ele><time>2026-05-03T09:44:16.03Z</time></trkpt><trkpt lat="43.3391367" lon="12.2953111"><ele>267.0</ele><time>2026-05-03T09:44:17.029Z</time></trkpt><trkpt lat="43.3389617" lon="12.2954371"><ele>267.0</ele><time>2026-05-03T09:44:18.029Z</time></trkpt><trkpt lat="43.3387879" lon="12.295556"><ele>267.0</ele><time>2026-05-03T09:44:19.029Z</time></trkpt><trkpt lat="43.3386215" lon="12.2956709"><ele>265.6666666666667</ele><time>2026-05-03T09:44:20.029Z</time></trkpt><trkpt lat="43.338455" lon="12.2957861"><ele>264.33333333333337</ele><time>2026-05-03T09:44:21.029Z</time></trkpt><trkpt lat="43.3382928" lon="12.2959054"><ele>263.0</ele><time>2026-05-03T09:44:22.029Z</time></trkpt><trkpt lat="43.3381307" lon="12.2960216"><ele>262.33333333333337</ele><time>2026-05-03T09:44:23.03Z</time></trkpt><trkpt lat="43.3379742" lon="12.2961351"><ele>261.6666666666667</ele><time>2026-05-03T09:44:24.029Z</time></trkpt><trkpt lat="43.3378172" lon="12.2962474"><ele>261.0</ele><time>2026-05-03T09:44:25.029Z</time></trkpt><trkpt lat="43.3376629" lon="12.2963582"><ele>261.0</ele><time>2026-05-03T09:44:26.029Z</time></trkpt><trkpt lat="43.3375052" lon="12.296464"><ele>261.0</ele><time>2026-05-03T09:44:27.029Z</time></trkpt><trkpt lat="43.3373496" lon="12.2965713"><ele>261.0</ele><time>2026-05-03T09:44:28.029Z</time></trkpt><trkpt lat="43.3371848" lon="12.2966921"><ele>261.0</ele><time>2026-05-03T09:44:29.03Z</time></trkpt><trkpt lat="43.3370067" lon="12.2968226"><ele>261.0</ele><time>2026-05-03T09:44:30.029Z</time></trkpt><trkpt lat="43.3368161" lon="12.2969616"><ele>261.0</ele><time>2026-05-03T09:44:31.03Z</time></trkpt><trkpt lat="43.3366295" lon="12.2970978"><ele>261.0</ele><time>2026-05-03T09:44:32.029Z</time></trkpt><trkpt lat="43.3364309" lon="12.2972354"><ele>261.0</ele><time>2026-05-03T09:44:33.029Z</time></trkpt><trkpt lat="43.3362221" lon="12.2973817"><ele>260.0</ele><time>2026-05-03T09:44:34.029Z</time></trkpt><trkpt lat="43.3359923" lon="12.29754"><ele>259.0</ele><time>2026-05-03T09:44:35.029Z</time></trkpt><trkpt lat="43.3357571" lon="12.2977048"><ele>262.0</ele><time>2026-05-03T09:44:36.029Z</time></trkpt><trkpt lat="43.3355023" lon="12.2978878"><ele>265.0</ele><time>2026-05-03T09:44:37.03Z</time></trkpt><trkpt lat="43.3352491" lon="12.2980685"><ele>261.0</ele><time>2026-05-03T09:44:38.029Z</time></trkpt><trkpt lat="43.335016" lon="12.2982352"><ele>257.0</ele><time>2026-05-03T09:44:39.029Z</time></trkpt><trkpt lat="43.3347887" lon="12.2984004"><ele>263.0</ele><time>2026-05-03T09:44:40.029Z</time></trkpt><trkpt lat="43.334563" lon="12.2985535"><ele>269.0</ele><time>2026-05-03T09:44:41.029Z</time></trkpt><trkpt lat="43.3343372" lon="12.2987112"><ele>269.0</ele><time>2026-05-03T09:44:42.029Z</time></trkpt><trkpt lat="43.3341141" lon="12.2988664"><ele>269.0</ele><time>2026-05-03T09:44:43.029Z</time></trkpt><trkpt lat="43.3338969" lon="12.2990219"><ele>266.0</ele><time>2026-05-03T09:44:44.029Z</time></trkpt><trkpt lat="43.3336796" lon="12.2991726"><ele>263.0</ele><time>2026-05-03T09:44:45.029Z</time></trkpt><trkpt lat="43.3334654" lon="12.2993187"><ele>263.0</ele><time>2026-05-03T09:44:46.029Z</time></trkpt><trkpt lat="43.3332526" lon="12.2994672"><ele>263.0</ele><time>2026-05-03T09:44:47.029Z</time></trkpt><trkpt lat="43.3330416" lon="12.2996178"><ele>261.0</ele><time>2026-05-03T09:44:48.029Z</time></trkpt><trkpt lat="43.3328414" lon="12.2997601"><ele>259.0</ele><time>2026-05-03T09:44:49.03Z</time></trkpt><trkpt lat="43.3326385" lon="12.2999035"><ele>259.0</ele><time>2026-05-03T09:44:50.029Z</time></trkpt><trkpt lat="43.3324321" lon="12.300048"><ele>259.0</ele><time>2026-05-03T09:44:51.029Z</time></trkpt><trkpt lat="43.3322297" lon="12.300197"><ele>259.3333333333333</ele><time>2026-05-03T09:44:52.03Z</time></trkpt><trkpt lat="43.3320401" lon="12.3003368"><ele>259.6666666666667</ele><time>2026-05-03T09:44:53.029Z</time></trkpt><trkpt lat="43.3318619" lon="12.3004643"><ele>260.0</ele><time>2026-05-03T09:44:54.029Z</time></trkpt><trkpt lat="43.331682" lon="12.3005836"><ele>260.0</ele><time>2026-05-03T09:44:55.03Z</time></trkpt><trkpt lat="43.331494" lon="12.3006688"><ele>260.0</ele><time>2026-05-03T09:44:56.029Z</time></trkpt><trkpt lat="43.3312909" lon="12.3007151"><ele>260.0</ele><time>2026-05-03T09:44:57.029Z</time></trkpt><trkpt lat="43.3310782" lon="12.3007286"><ele>259.6666666666667</ele><time>2026-05-03T09:44:58.029Z</time></trkpt><trkpt lat="43.3308673" lon="12.3007192"><ele>259.3333333333333</ele><time>2026-05-03T09:44:59.03Z</time></trkpt><trkpt lat="43.3306506" lon="12.3007109"><ele>259.0</ele><time>2026-05-03T09:45:00.029Z</time></trkpt><trkpt lat="43.330435" lon="12.3007001"><ele>258.66666666666663</ele><time>2026-05-03T09:45:01.029Z</time></trkpt><trkpt lat="43.3302222" lon="12.3006842"><ele>258.3333333333333</ele><time>2026-05-03T09:45:02.029Z</time></trkpt><trkpt lat="43.3300094" lon="12.3006643"><ele>258.0</ele><time>2026-05-03T09:45:03.029Z</time></trkpt><trkpt lat="43.3298016" lon="12.3006477"><ele>256.6666666666667</ele><time>2026-05-03T09:45:04.029Z</time></trkpt><trkpt lat="43.329597" lon="12.3006328"><ele>255.33333333333334</ele><time>2026-05-03T09:45:05.029Z</time></trkpt><trkpt lat="43.3293948" lon="12.3006183"><ele>254.0</ele><time>2026-05-03T09:45:06.03Z</time></trkpt><trkpt lat="43.329196" lon="12.3006054"><ele>254.0</ele><time>2026-05-03T09:45:07.029Z</time></trkpt><trkpt lat="43.3290021" lon="12.30059"><ele>254.0</ele><time>2026-05-03T09:45:08.029Z</time></trkpt><trkpt lat="43.3288093" lon="12.300574"><ele>254.0</ele><time>2026-05-03T09:45:09.029Z</time></trkpt><trkpt lat="43.3286153" lon="12.3005571"><ele>254.0</ele><time>2026-05-03T09:45:10.029Z</time></trkpt><trkpt lat="43.3284193" lon="12.3005454"><ele>254.0</ele><time>2026-05-03T09:45:11.029Z</time></trkpt><trkpt lat="43.3282205" lon="12.3005325"><ele>254.0</ele><time>2026-05-03T09:45:12.029Z</time></trkpt><trkpt lat="43.3280188" lon="12.3005165"><ele>253.0</ele><time>2026-05-03T09:45:13.029Z</time></trkpt><trkpt lat="43.3278033" lon="12.3005004"><ele>252.0</ele><time>2026-05-03T09:45:14.029Z</time></trkpt><trkpt lat="43.3275657" lon="12.3004806"><ele>252.0</ele><time>2026-05-03T09:45:15.029Z</time></trkpt><trkpt lat="43.3273168" lon="12.3004568"><ele>252.0</ele><time>2026-05-03T09:45:16.03Z</time></trkpt><trkpt lat="43.3270507" lon="12.3004433"><ele>252.0</ele><time>2026-05-03T09:45:17.029Z</time></trkpt><trkpt lat="43.3268023" lon="12.3004208"><ele>252.0</ele><time>2026-05-03T09:45:18.029Z</time></trkpt><trkpt lat="43.3265644" lon="12.3004043"><ele>251.66666666666669</ele><time>2026-05-03T09:45:19.029Z</time></trkpt><trkpt lat="43.3263405" lon="12.3003865"><ele>251.33333333333334</ele><time>2026-05-03T09:45:20.029Z</time></trkpt><trkpt lat="43.3261369" lon="12.3003641"><ele>251.0</ele><time>2026-05-03T09:45:21.029Z</time></trkpt><trkpt lat="43.3259356" lon="12.300323"><ele>251.0</ele><time>2026-05-03T09:45:22.029Z</time></trkpt><trkpt lat="43.3257277" lon="12.3002522"><ele>251.0</ele><time>2026-05-03T09:45:23.029Z</time></trkpt><trkpt lat="43.3255235" lon="12.3001476"><ele>251.0</ele><time>2026-05-03T09:45:24.029Z</time></trkpt><trkpt lat="43.3253365" lon="12.300033"><ele>250.0</ele><time>2026-05-03T09:45:25.029Z</time></trkpt><trkpt lat="43.325162" lon="12.2999105"><ele>249.0</ele><time>2026-05-03T09:45:26.029Z</time></trkpt><trkpt lat="43.3250041" lon="12.2997813"><ele>248.0</ele><time>2026-05-03T09:45:27.029Z</time></trkpt><trkpt lat="43.324862" lon="12.2996445"><ele>248.0</ele><time>2026-05-03T09:45:28.029Z</time></trkpt><trkpt lat="43.3247314" lon="12.2995048"><ele>248.0</ele><time>2026-05-03T09:45:29.029Z</time></trkpt><trkpt lat="43.324613" lon="12.2993596"><ele>248.0</ele><time>2026-05-03T09:45:30.029Z</time></trkpt><trkpt lat="43.3245052" lon="12.2992067"><ele>247.66666666666669</ele><time>2026-05-03T09:45:31.029Z</time></trkpt><trkpt lat="43.3244062" lon="12.2990498"><ele>247.33333333333331</ele><time>2026-05-03T09:45:32.029Z</time></trkpt><trkpt lat="43.3243275" lon="12.2988525"><ele>247.0</ele><time>2026-05-03T09:45:33.029Z</time></trkpt><trkpt lat="43.3242682" lon="12.2986329"><ele>247.0</ele><time>2026-05-03T09:45:34.029Z</time></trkpt><trkpt lat="43.3242323" lon="12.298412"><ele>247.0</ele><time>2026-05-03T09:45:35.029Z</time></trkpt><trkpt lat="43.3241937" lon="12.2982071"><ele>247.0</ele><time>2026-05-03T09:45:36.03Z</time></trkpt><trkpt lat="43.3241246" lon="12.2980141"><ele>248.25</ele><time>2026-05-03T09:45:37.029Z</time></trkpt><trkpt lat="43.3240297" lon="12.2978555"><ele>249.5</ele><time>2026-05-03T09:45:38.029Z</time></trkpt><trkpt lat="43.3239156" lon="12.2977608"><ele>250.75</ele><time>2026-05-03T09:45:39.03Z</time></trkpt><trkpt lat="43.3237714" lon="12.2977143"><ele>252.0</ele><time>2026-05-03T09:45:40.029Z</time></trkpt><trkpt lat="43.3235883" lon="12.2977185"><ele>252.0</ele><time>2026-05-03T09:45:41.029Z</time></trkpt><trkpt lat="43.3233821" lon="12.2977423"><ele>252.0</ele><time>2026-05-03T09:45:42.029Z</time></trkpt><trkpt lat="43.3231583" lon="12.2977713"><ele>252.0</ele><time>2026-05-03T09:45:43.03Z</time></trkpt><trkpt lat="43.3229473" lon="12.2978031"><ele>253.66666666666669</ele><time>2026-05-03T09:45:44.029Z</time></trkpt><trkpt lat="43.322747" lon="12.2978332"><ele>255.33333333333334</ele><time>2026-05-03T09:45:45.029Z</time></trkpt><trkpt lat="43.3225487" lon="12.2978326"><ele>257.0</ele><time>2026-05-03T09:45:46.029Z</time></trkpt><trkpt lat="43.3223535" lon="12.2978132"><ele>255.33333333333334</ele><time>2026-05-03T09:45:47.03Z</time></trkpt><trkpt lat="43.3221547" lon="12.2977784"><ele>253.66666666666669</ele><time>2026-05-03T09:45:48.029Z</time></trkpt><trkpt lat="43.3219572" lon="12.2977413"><ele>252.0</ele><time>2026-05-03T09:45:49.029Z</time></trkpt><trkpt lat="43.3217792" lon="12.2977017"><ele>252.0</ele><time>2026-05-03T09:45:50.029Z</time></trkpt><trkpt lat="43.3216111" lon="12.2976686"><ele>252.0</ele><time>2026-05-03T09:45:51.029Z</time></trkpt><trkpt lat="43.3214478" lon="12.2976418"><ele>252.0</ele><time>2026-05-03T09:45:52.029Z</time></trkpt><trkpt lat="43.3212968" lon="12.2976161"><ele>251.75</ele><time>2026-05-03T09:45:53.029Z</time></trkpt><trkpt lat="43.3211574" lon="12.2975954"><ele>251.5</ele><time>2026-05-03T09:45:54.029Z</time></trkpt><trkpt lat="43.3210287" lon="12.2975692"><ele>251.25</ele><time>2026-05-03T09:45:55.03Z</time></trkpt><trkpt lat="43.3209214" lon="12.2975323"><ele>251.0</ele><time>2026-05-03T09:45:56.029Z</time></trkpt><trkpt lat="43.32082" lon="12.2974923"><ele>251.0</ele><time>2026-05-03T09:45:57.029Z</time></trkpt><trkpt lat="43.3207335" lon="12.2974315"><ele>251.00000000000003</ele><time>2026-05-03T09:45:58.029Z</time></trkpt><trkpt lat="43.3206569" lon="12.297356"><ele>251.00000000000003</ele><time>2026-05-03T09:45:59.029Z</time></trkpt><trkpt lat="43.3205927" lon="12.2972542"><ele>251.0</ele><time>2026-05-03T09:46:00.029Z</time></trkpt><trkpt lat="43.3205376" lon="12.2971311"><ele>251.0</ele><time>2026-05-03T09:46:01.029Z</time></trkpt><trkpt lat="43.3204913" lon="12.2969878"><ele>249.75</ele><time>2026-05-03T09:46:02.029Z</time></trkpt><trkpt lat="43.3204578" lon="12.2968143"><ele>248.5</ele><time>2026-05-03T09:46:03.029Z</time></trkpt><trkpt lat="43.320428" lon="12.2966516"><ele>247.25</ele><time>2026-05-03T09:46:04.029Z</time></trkpt><trkpt lat="43.3203969" lon="12.2964918"><ele>246.0</ele><time>2026-05-03T09:46:05.029Z</time></trkpt><trkpt lat="43.320366" lon="12.2963138"><ele>246.0</ele><time>2026-05-03T09:46:06.029Z</time></trkpt><trkpt lat="43.3203283" lon="12.2961196"><ele>246.0</ele><time>2026-05-03T09:46:07.029Z</time></trkpt><trkpt lat="43.3202973" lon="12.2959408"><ele>246.0</ele><time>2026-05-03T09:46:08.029Z</time></trkpt><trkpt lat="43.3202749" lon="12.2957833"><ele>246.0</ele><time>2026-05-03T09:46:09.03Z</time></trkpt><trkpt lat="43.3202578" lon="12.2956673"><ele>245.8</ele><time>2026-05-03T09:46:10.029Z</time></trkpt><trkpt lat="43.3202558" lon="12.2955751"><ele>245.60000000000002</ele><time>2026-05-03T09:46:11.029Z</time></trkpt><trkpt lat="43.3203332" lon="12.2954499"><ele>245.4</ele><time>2026-05-03T09:46:13.029Z</time></trkpt><trkpt lat="43.3204098" lon="12.2954207"><ele>245.2</ele><time>2026-05-03T09:46:14.03Z</time></trkpt><trkpt lat="43.3205577" lon="12.2954062"><ele>245.0</ele><time>2026-05-03T09:46:15.029Z</time></trkpt><trkpt lat="43.3206703" lon="12.2953895"><ele>245.75</ele><time>2026-05-03T09:46:16.029Z</time></trkpt><trkpt lat="43.3207992" lon="12.2953776"><ele>246.5</ele><time>2026-05-03T09:46:17.029Z</time></trkpt><trkpt lat="43.3209265" lon="12.2953602"><ele>247.25</ele><time>2026-05-03T09:46:18.03Z</time></trkpt><trkpt lat="43.3210558" lon="12.2953437"><ele>248.0</ele><time>2026-05-03T09:46:19.029Z</time></trkpt><trkpt lat="43.3211907" lon="12.2952878"><ele>248.0</ele><time>2026-05-03T09:46:20.029Z</time></trkpt><trkpt lat="43.3213339" lon="12.2951928"><ele>248.0</ele><time>2026-05-03T09:46:21.029Z</time></trkpt><trkpt lat="43.32147" lon="12.2950701"><ele>248.0</ele><time>2026-05-03T09:46:22.029Z</time></trkpt><trkpt lat="43.3215994" lon="12.2949302"><ele>250.0</ele><time>2026-05-03T09:46:23.029Z</time></trkpt><trkpt lat="43.3217213" lon="12.2947871"><ele>252.0</ele><time>2026-05-03T09:46:24.029Z</time></trkpt><trkpt lat="43.3218266" lon="12.2946375"><ele>254.0</ele><time>2026-05-03T09:46:25.029Z</time></trkpt><trkpt lat="43.3219094" lon="12.2944735"><ele>254.0</ele><time>2026-05-03T09:46:26.029Z</time></trkpt><trkpt lat="43.3219644" lon="12.2942859"><ele>254.0</ele><time>2026-05-03T09:46:27.029Z</time></trkpt><trkpt lat="43.3219897" lon="12.2940622"><ele>254.0</ele><time>2026-05-03T09:46:28.029Z</time></trkpt><trkpt lat="43.321993" lon="12.293813"><ele>254.33333333333334</ele><time>2026-05-03T09:46:29.03Z</time></trkpt><trkpt lat="43.3219784" lon="12.293542"><ele>254.66666666666669</ele><time>2026-05-03T09:46:30.029Z</time></trkpt><trkpt lat="43.321939" lon="12.2932807"><ele>255.0</ele><time>2026-05-03T09:46:31.029Z</time></trkpt><trkpt lat="43.321887" lon="12.2930467"><ele>256.0</ele><time>2026-05-03T09:46:32.029Z</time></trkpt><trkpt lat="43.3218164" lon="12.292832"><ele>257.0</ele><time>2026-05-03T09:46:33.029Z</time></trkpt><trkpt lat="43.3217478" lon="12.2926263"><ele>258.0</ele><time>2026-05-03T09:46:34.029Z</time></trkpt><trkpt lat="43.3216818" lon="12.2924258"><ele>260.0</ele><time>2026-05-03T09:46:35.029Z</time></trkpt><trkpt lat="43.3216089" lon="12.2922313"><ele>262.0</ele><time>2026-05-03T09:46:36.029Z</time></trkpt><trkpt lat="43.3215381" lon="12.2920369"><ele>264.0</ele><time>2026-05-03T09:46:37.03Z</time></trkpt><trkpt lat="43.3214662" lon="12.2918436"><ele>261.0</ele><time>2026-05-03T09:46:38.029Z</time></trkpt><trkpt lat="43.3213945" lon="12.2916508"><ele>258.0</ele><time>2026-05-03T09:46:39.029Z</time></trkpt><trkpt lat="43.3213227" lon="12.2914564"><ele>255.0</ele><time>2026-05-03T09:46:40.029Z</time></trkpt><trkpt lat="43.3212487" lon="12.2912633"><ele>255.0</ele><time>2026-05-03T09:46:41.029Z</time></trkpt><trkpt lat="43.3211761" lon="12.2910693"><ele>255.0</ele><time>2026-05-03T09:46:42.029Z</time></trkpt><trkpt lat="43.3211011" lon="12.2908739"><ele>255.0</ele><time>2026-05-03T09:46:43.029Z</time></trkpt><trkpt lat="43.3210291" lon="12.2906802"><ele>256.3333333333333</ele><time>2026-05-03T09:46:44.029Z</time></trkpt><trkpt lat="43.3209576" lon="12.2904837"><ele>257.66666666666663</ele><time>2026-05-03T09:46:45.029Z</time></trkpt><trkpt lat="43.3208878" lon="12.2902875"><ele>259.0</ele><time>2026-05-03T09:46:46.029Z</time></trkpt><trkpt lat="43.3208114" lon="12.290086"><ele>259.0</ele><time>2026-05-03T09:46:47.029Z</time></trkpt><trkpt lat="43.3207363" lon="12.2898894"><ele>259.0</ele><time>2026-05-03T09:46:48.03Z</time></trkpt><trkpt lat="43.3206609" lon="12.2896866"><ele>259.0</ele><time>2026-05-03T09:46:49.029Z</time></trkpt><trkpt lat="43.320583" lon="12.2894789"><ele>258.0</ele><time>2026-05-03T09:46:50.029Z</time></trkpt><trkpt lat="43.3204904" lon="12.2892478"><ele>257.0</ele><time>2026-05-03T09:46:51.029Z</time></trkpt><trkpt lat="43.3203862" lon="12.2890021"><ele>256.0</ele><time>2026-05-03T09:46:52.029Z</time></trkpt><trkpt lat="43.3202728" lon="12.2887235"><ele>256.0</ele><time>2026-05-03T09:46:53.029Z</time></trkpt><trkpt lat="43.3201528" lon="12.2884105"><ele>256.0</ele><time>2026-05-03T09:46:54.029Z</time></trkpt><trkpt lat="43.3200341" lon="12.2880746"><ele>256.5</ele><time>2026-05-03T09:46:55.029Z</time></trkpt><trkpt lat="43.3199132" lon="12.2877181"><ele>257.0</ele><time>2026-05-03T09:46:56.029Z</time></trkpt><trkpt lat="43.3197856" lon="12.2873469"><ele>253.0</ele><time>2026-05-03T09:46:57.029Z</time></trkpt><trkpt lat="43.3196619" lon="12.287005"><ele>249.0</ele><time>2026-05-03T09:46:58.029Z</time></trkpt><trkpt lat="43.3195426" lon="12.2866765"><ele>250.0</ele><time>2026-05-03T09:46:59.029Z</time></trkpt><trkpt lat="43.3194286" lon="12.2863741"><ele>251.0</ele><time>2026-05-03T09:47:00.029Z</time></trkpt><trkpt lat="43.3193252" lon="12.2860881"><ele>251.0</ele><time>2026-05-03T09:47:01.029Z</time></trkpt><trkpt lat="43.3192399" lon="12.2858102"><ele>251.0</ele><time>2026-05-03T09:47:02.029Z</time></trkpt><trkpt lat="43.3191784" lon="12.2855382"><ele>251.0</ele><time>2026-05-03T09:47:03.029Z</time></trkpt><trkpt lat="43.3191337" lon="12.285243"><ele>252.0</ele><time>2026-05-03T09:47:04.03Z</time></trkpt><trkpt lat="43.3191099" lon="12.284912"><ele>253.0</ele><time>2026-05-03T09:47:05.03Z</time></trkpt><trkpt lat="43.3191039" lon="12.2846"><ele>253.66666666666666</ele><time>2026-05-03T09:47:06.029Z</time></trkpt><trkpt lat="43.3191047" lon="12.2843039"><ele>254.33333333333331</ele><time>2026-05-03T09:47:07.029Z</time></trkpt><trkpt lat="43.3190962" lon="12.2840078"><ele>255.0</ele><time>2026-05-03T09:47:08.029Z</time></trkpt><trkpt lat="43.3190501" lon="12.2836856"><ele>255.0</ele><time>2026-05-03T09:47:09.029Z</time></trkpt><trkpt lat="43.3189848" lon="12.2833578"><ele>255.0</ele><time>2026-05-03T09:47:10.029Z</time></trkpt><trkpt lat="43.3189227" lon="12.2830535"><ele>254.0</ele><time>2026-05-03T09:47:11.029Z</time></trkpt><trkpt lat="43.3188581" lon="12.2827676"><ele>253.0</ele><time>2026-05-03T09:47:12.029Z</time></trkpt><trkpt lat="43.3188026" lon="12.2824856"><ele>252.0</ele><time>2026-05-03T09:47:13.029Z</time></trkpt><trkpt lat="43.3187576" lon="12.2822021"><ele>252.0</ele><time>2026-05-03T09:47:14.029Z</time></trkpt><trkpt lat="43.3187238" lon="12.2819239"><ele>252.0</ele><time>2026-05-03T09:47:15.029Z</time></trkpt><trkpt lat="43.3186924" lon="12.2816461"><ele>252.0</ele><time>2026-05-03T09:47:16.029Z</time></trkpt><trkpt lat="43.3186608" lon="12.2813648"><ele>252.33333333333331</ele><time>2026-05-03T09:47:17.03Z</time></trkpt><trkpt lat="43.318629" lon="12.2810853"><ele>252.66666666666666</ele><time>2026-05-03T09:47:18.029Z</time></trkpt><trkpt lat="43.3186007" lon="12.2807948"><ele>253.0</ele><time>2026-05-03T09:47:19.029Z</time></trkpt><trkpt lat="43.3185704" lon="12.2804949"><ele>253.0</ele><time>2026-05-03T09:47:20.029Z</time></trkpt><trkpt lat="43.3185503" lon="12.2801945"><ele>253.0</ele><time>2026-05-03T09:47:21.029Z</time></trkpt><trkpt lat="43.3185387" lon="12.2798921"><ele>253.0</ele><time>2026-05-03T09:47:22.029Z</time></trkpt><trkpt lat="43.3185335" lon="12.2795796"><ele>252.5</ele><time>2026-05-03T09:47:23.029Z</time></trkpt><trkpt lat="43.3185363" lon="12.2792554"><ele>252.0</ele><time>2026-05-03T09:47:24.03Z</time></trkpt><trkpt lat="43.3185392" lon="12.2789216"><ele>253.5</ele><time>2026-05-03T09:47:25.029Z</time></trkpt><trkpt lat="43.3185382" lon="12.2786034"><ele>255.0</ele><time>2026-05-03T09:47:26.029Z</time></trkpt><trkpt lat="43.3185251" lon="12.2782898"><ele>255.5</ele><time>2026-05-03T09:47:27.029Z</time></trkpt><trkpt lat="43.3185016" lon="12.2779793"><ele>256.0</ele><time>2026-05-03T09:47:28.029Z</time></trkpt><trkpt lat="43.3184546" lon="12.2776409"><ele>256.0</ele><time>2026-05-03T09:47:29.03Z</time></trkpt><trkpt lat="43.3184103" lon="12.2773021"><ele>256.0</ele><time>2026-05-03T09:47:30.029Z</time></trkpt><trkpt lat="43.3183707" lon="12.2769887"><ele>256.66666666666663</ele><time>2026-05-03T09:47:31.029Z</time></trkpt><trkpt lat="43.3183314" lon="12.2766908"><ele>257.3333333333333</ele><time>2026-05-03T09:47:32.029Z</time></trkpt><trkpt lat="43.3182936" lon="12.2764214"><ele>258.0</ele><time>2026-05-03T09:47:33.029Z</time></trkpt><trkpt lat="43.3182626" lon="12.2761666"><ele>258.3333333333333</ele><time>2026-05-03T09:47:34.029Z</time></trkpt><trkpt lat="43.3182331" lon="12.2759324"><ele>258.66666666666663</ele><time>2026-05-03T09:47:35.029Z</time></trkpt><trkpt lat="43.318211" lon="12.2757131"><ele>259.0</ele><time>2026-05-03T09:47:36.03Z</time></trkpt><trkpt lat="43.3181948" lon="12.2755134"><ele>259.25</ele><time>2026-05-03T09:47:37.029Z</time></trkpt><trkpt lat="43.3181788" lon="12.2753302"><ele>259.5</ele><time>2026-05-03T09:47:38.029Z</time></trkpt><trkpt lat="43.3181663" lon="12.2751671"><ele>259.75</ele><time>2026-05-03T09:47:39.029Z</time></trkpt><trkpt lat="43.3181534" lon="12.2750203"><ele>260.0</ele><time>2026-05-03T09:47:40.029Z</time></trkpt><trkpt lat="43.3181433" lon="12.2748916"><ele>260.0</ele><time>2026-05-03T09:47:41.029Z</time></trkpt><trkpt lat="43.3181354" lon="12.2747789"><ele>260.0</ele><time>2026-05-03T09:47:42.029Z</time></trkpt><trkpt lat="43.3181339" lon="12.2746918"><ele>260.0</ele><time>2026-05-03T09:47:43.029Z</time></trkpt><trkpt lat="43.3181501" lon="12.2745916"><ele>260.0</ele><time>2026-05-03T09:47:45.03Z</time></trkpt><trkpt lat="43.3182043" lon="12.2745468"><ele>260.0</ele><time>2026-05-03T09:47:47.029Z</time></trkpt><trkpt lat="43.3183009" lon="12.2745255"><ele>260.0</ele><time>2026-05-03T09:47:49.029Z</time></trkpt><trkpt lat="43.3183905" lon="12.2745152"><ele>260.2</ele><time>2026-05-03T09:47:51.029Z</time></trkpt><trkpt lat="43.318468" lon="12.2744895"><ele>260.4</ele><time>2026-05-03T09:47:53.03Z</time></trkpt><trkpt lat="43.3185322" lon="12.2744728"><ele>260.6</ele><time>2026-05-03T09:47:55.029Z</time></trkpt><trkpt lat="43.3186496" lon="12.2744481"><ele>260.8</ele><time>2026-05-03T09:47:57.029Z</time></trkpt><trkpt lat="43.3187698" lon="12.2744208"><ele>261.0</ele><time>2026-05-03T09:47:59.03Z</time></trkpt><trkpt lat="43.3188344" lon="12.2744129"><ele>263.0</ele><time>2026-05-03T09:48:00.029Z</time></trkpt><trkpt lat="43.3189044" lon="12.2744036"><ele>265.0</ele><time>2026-05-03T09:48:01.029Z</time></trkpt><trkpt lat="43.3189802" lon="12.2743915"><ele>267.0</ele><time>2026-05-03T09:48:02.029Z</time></trkpt><trkpt lat="43.3190628" lon="12.274376"><ele>269.0</ele><time>2026-05-03T09:48:03.029Z</time></trkpt><trkpt lat="43.3191586" lon="12.2743591"><ele>271.0</ele><time>2026-05-03T09:48:04.03Z</time></trkpt><trkpt lat="43.3192628" lon="12.2743405"><ele>273.0</ele><time>2026-05-03T09:48:05.029Z</time></trkpt><trkpt lat="43.3193762" lon="12.2743271"><ele>273.0</ele><time>2026-05-03T09:48:06.03Z</time></trkpt><trkpt lat="43.3194946" lon="12.274309"><ele>273.0</ele><time>2026-05-03T09:48:07.029Z</time></trkpt><trkpt lat="43.3196172" lon="12.2742871"><ele>273.0</ele><time>2026-05-03T09:48:08.029Z</time></trkpt><trkpt lat="43.3197354" lon="12.2742619"><ele>273.0</ele><time>2026-05-03T09:48:09.029Z</time></trkpt><trkpt lat="43.3198537" lon="12.2742356"><ele>276.0</ele><time>2026-05-03T09:48:10.029Z</time></trkpt><trkpt lat="43.3199659" lon="12.2742148"><ele>279.0</ele><time>2026-05-03T09:48:11.029Z</time></trkpt><trkpt lat="43.3200771" lon="12.2741903"><ele>282.0</ele><time>2026-05-03T09:48:12.029Z</time></trkpt><trkpt lat="43.3201919" lon="12.2741644"><ele>285.0</ele><time>2026-05-03T09:48:13.029Z</time></trkpt><trkpt lat="43.3203111" lon="12.2741397"><ele>285.0</ele><time>2026-05-03T09:48:14.029Z</time></trkpt><trkpt lat="43.320434" lon="12.2741185"><ele>285.0</ele><time>2026-05-03T09:48:15.029Z</time></trkpt><trkpt lat="43.3205636" lon="12.2740924"><ele>285.0</ele><time>2026-05-03T09:48:16.029Z</time></trkpt><trkpt lat="43.3207025" lon="12.2740665"><ele>285.0</ele><time>2026-05-03T09:48:17.029Z</time></trkpt><trkpt lat="43.3208462" lon="12.2740398"><ele>287.5</ele><time>2026-05-03T09:48:18.029Z</time></trkpt><trkpt lat="43.3209977" lon="12.2740116"><ele>290.0</ele><time>2026-05-03T09:48:19.029Z</time></trkpt><trkpt lat="43.3211436" lon="12.2739835"><ele>292.5</ele><time>2026-05-03T09:48:20.029Z</time></trkpt><trkpt lat="43.321285" lon="12.2739583"><ele>295.0</ele><time>2026-05-03T09:48:21.029Z</time></trkpt><trkpt lat="43.3214255" lon="12.2739329"><ele>296.25</ele><time>2026-05-03T09:48:22.029Z</time></trkpt><trkpt lat="43.3215608" lon="12.2739113"><ele>297.5</ele><time>2026-05-03T09:48:23.029Z</time></trkpt><trkpt lat="43.3216899" lon="12.273905"><ele>298.75</ele><time>2026-05-03T09:48:24.03Z</time></trkpt><trkpt lat="43.3218181" lon="12.2739054"><ele>300.0</ele><time>2026-05-03T09:48:25.029Z</time></trkpt><trkpt lat="43.3219529" lon="12.2739203"><ele>301.75</ele><time>2026-05-03T09:48:26.029Z</time></trkpt><trkpt lat="43.3220925" lon="12.2739397"><ele>303.5</ele><time>2026-05-03T09:48:27.029Z</time></trkpt><trkpt lat="43.3222325" lon="12.2739612"><ele>305.25</ele><time>2026-05-03T09:48:28.029Z</time></trkpt><trkpt lat="43.3223581" lon="12.2739758"><ele>307.0</ele><time>2026-05-03T09:48:29.029Z</time></trkpt><trkpt lat="43.3224822" lon="12.2739922"><ele>309.4</ele><time>2026-05-03T09:48:30.029Z</time></trkpt><trkpt lat="43.3225997" lon="12.2740124"><ele>311.79999999999995</ele><time>2026-05-03T09:48:31.029Z</time></trkpt><trkpt lat="43.322719" lon="12.2740319"><ele>314.2</ele><time>2026-05-03T09:48:32.029Z</time></trkpt><trkpt lat="43.3228256" lon="12.2740482"><ele>316.59999999999997</ele><time>2026-05-03T09:48:33.029Z</time></trkpt><trkpt lat="43.3229045" lon="12.2740555"><ele>319.0</ele><time>2026-05-03T09:48:34.03Z</time></trkpt><trkpt lat="43.3230277" lon="12.2740682"><ele>321.4</ele><time>2026-05-03T09:48:36.029Z</time></trkpt><trkpt lat="43.323121" lon="12.2741449"><ele>323.79999999999995</ele><time>2026-05-03T09:48:38.029Z</time></trkpt><trkpt lat="43.3231489" lon="12.2743018"><ele>326.20000000000005</ele><time>2026-05-03T09:48:40.03Z</time></trkpt><trkpt lat="43.3231485" lon="12.2744338"><ele>328.6</ele><time>2026-05-03T09:48:41.029Z</time></trkpt><trkpt lat="43.3231562" lon="12.2746025"><ele>331.0</ele><time>2026-05-03T09:48:42.03Z</time></trkpt><trkpt lat="43.3231705" lon="12.2748031"><ele>332.5</ele><time>2026-05-03T09:48:43.029Z</time></trkpt><trkpt lat="43.3231896" lon="12.274983"><ele>334.0</ele><time>2026-05-03T09:48:44.029Z</time></trkpt><trkpt lat="43.3232056" lon="12.2751467"><ele>335.5</ele><time>2026-05-03T09:48:45.03Z</time></trkpt><trkpt lat="43.3232148" lon="12.2753039"><ele>337.0</ele><time>2026-05-03T09:48:46.029Z</time></trkpt><trkpt lat="43.3232143" lon="12.2754525"><ele>337.0</ele><time>2026-05-03T09:48:47.029Z</time></trkpt><trkpt lat="43.3232116" lon="12.2755945"><ele>337.0</ele><time>2026-05-03T09:48:48.029Z</time></trkpt><trkpt lat="43.3231904" lon="12.2757221"><ele>337.0</ele><time>2026-05-03T09:48:49.029Z</time></trkpt><trkpt lat="43.323155" lon="12.2758521"><ele>337.0</ele><time>2026-05-03T09:48:50.029Z</time></trkpt><trkpt lat="43.3231192" lon="12.2759658"><ele>337.0</ele><time>2026-05-03T09:48:51.03Z</time></trkpt><trkpt lat="43.3230875" lon="12.276069"><ele>337.16666666666663</ele><time>2026-05-03T09:48:52.029Z</time></trkpt><trkpt lat="43.3230671" lon="12.276164"><ele>337.3333333333333</ele><time>2026-05-03T09:48:53.029Z</time></trkpt><trkpt lat="43.3230508" lon="12.2762564"><ele>337.5</ele><time>2026-05-03T09:48:54.029Z</time></trkpt><trkpt lat="43.323052" lon="12.276347"><ele>337.6666666666667</ele><time>2026-05-03T09:48:55.03Z</time></trkpt><trkpt lat="43.3231055" lon="12.2764849"><ele>337.83333333333337</ele><time>2026-05-03T09:48:57.029Z</time></trkpt><trkpt lat="43.3231494" lon="12.2765474"><ele>338.0</ele><time>2026-05-03T09:48:58.029Z</time></trkpt><trkpt lat="43.3232068" lon="12.2765923"><ele>338.7142857142857</ele><time>2026-05-03T09:48:59.029Z</time></trkpt><trkpt lat="43.3232728" lon="12.2766241"><ele>339.42857142857144</ele><time>2026-05-03T09:49:00.029Z</time></trkpt><trkpt lat="43.3233403" lon="12.2766388"><ele>340.1428571428571</ele><time>2026-05-03T09:49:01.029Z</time></trkpt><trkpt lat="43.3234178" lon="12.2766405"><ele>340.8571428571429</ele><time>2026-05-03T09:49:02.029Z</time></trkpt><trkpt lat="43.323489" lon="12.276629"><ele>341.57142857142856</ele><time>2026-05-03T09:49:03.029Z</time></trkpt><trkpt lat="43.3235598" lon="12.2766045"><ele>342.2857142857143</ele><time>2026-05-03T09:49:04.029Z</time></trkpt><trkpt lat="43.3236441" lon="12.2765689"><ele>343.0</ele><time>2026-05-03T09:49:05.029Z</time></trkpt><trkpt lat="43.3237413" lon="12.2765134"><ele>343.0</ele><time>2026-05-03T09:49:06.029Z</time></trkpt><trkpt lat="43.3238485" lon="12.2764394"><ele>343.0</ele><time>2026-05-03T09:49:07.03Z</time></trkpt><trkpt lat="43.3239872" lon="12.2763321"><ele>343.0</ele><time>2026-05-03T09:49:08.029Z</time></trkpt><trkpt lat="43.3240936" lon="12.2762513"><ele>343.0</ele><time>2026-05-03T09:49:09.029Z</time></trkpt><trkpt lat="43.3241947" lon="12.2761815"><ele>343.8333333333333</ele><time>2026-05-03T09:49:10.03Z</time></trkpt><trkpt lat="43.3242822" lon="12.2761157"><ele>344.66666666666663</ele><time>2026-05-03T09:49:11.03Z</time></trkpt><trkpt lat="43.3243533" lon="12.2760597"><ele>345.5</ele><time>2026-05-03T09:49:12.029Z</time></trkpt><trkpt lat="43.3244086" lon="12.276015"><ele>346.3333333333333</ele><time>2026-05-03T09:49:13.029Z</time></trkpt><trkpt lat="43.3244985" lon="12.2759846"><ele>347.1666666666667</ele><time>2026-05-03T09:49:15.029Z</time></trkpt><trkpt lat="43.3245676" lon="12.2760271"><ele>348.0</ele><time>2026-05-03T09:49:17.029Z</time></trkpt><trkpt lat="43.3246487" lon="12.2761435"><ele>348.0</ele><time>2026-05-03T09:49:19.029Z</time></trkpt><trkpt lat="43.3247225" lon="12.2762814"><ele>348.0</ele><time>2026-05-03T09:49:21.029Z</time></trkpt><trkpt lat="43.3247779" lon="12.27643"><ele>348.0</ele><time>2026-05-03T09:49:23.029Z</time></trkpt><trkpt lat="43.3248125" lon="12.2765763"><ele>348.0</ele><time>2026-05-03T09:49:25.029Z</time></trkpt><trkpt lat="43.3248121" lon="12.2767085"><ele>349.1666666666667</ele><time>2026-05-03T09:49:27.029Z</time></trkpt><trkpt lat="43.3247568" lon="12.2767618"><ele>350.3333333333333</ele><time>2026-05-03T09:49:29.029Z</time></trkpt><trkpt lat="43.324694" lon="12.2767843"><ele>351.5</ele><time>2026-05-03T09:49:31.03Z</time></trkpt><trkpt lat="43.3246156" lon="12.2768065"><ele>352.66666666666663</ele><time>2026-05-03T09:49:34.029Z</time></trkpt><trkpt lat="43.3245334" lon="12.2768502"><ele>353.8333333333333</ele><time>2026-05-03T09:49:42.03Z</time></trkpt><trkpt lat="43.3244722" lon="12.2769417"><ele>355.0</ele><time>2026-05-03T09:49:45.029Z</time></trkpt><trkpt lat="43.3244611" lon="12.2770457"><ele>355.0</ele><time>2026-05-03T09:49:48.03Z</time></trkpt><trkpt lat="43.3245247" lon="12.2771209"><ele>355.0</ele><time>2026-05-03T09:49:51.029Z</time></trkpt><trkpt lat="43.3246077" lon="12.2771055"><ele>355.0</ele><time>2026-05-03T09:49:54.029Z</time></trkpt><trkpt lat="43.3246478" lon="12.277007"><ele>355.0</ele><time>2026-05-03T09:49:57.03Z</time></trkpt><trkpt lat="43.3246314" lon="12.2769219"><ele>355.0</ele><time>2026-05-03T09:50:04.029Z</time></trkpt></trkseg></trk></gpx>